<?xml version="1.0" encoding="UTF-8" standalone="no" ?>
<gpx xmlns="http://www.topografix.com/GPX/1/1" xmlns:xsi="http://www.w3.org/2001/XMLSchema-instance" xsi:schemaLocation="http://www.topografix.com/GPX/1/1 http://www.topografix.com/GPX/1/1/gpx.xsd" version="1.1" creator="VisuGPX - https://www.visugpx.com">
  <metadata>
    <name>Premanon,Le Mont Fier,Le Belvédère des Maquisards,La Cascade du Bief de La Chaille</name>
  </metadata>
  <trk>
    <name><![CDATA[Premanon,Le Mont Fier,Le Belvédère des Maquisards,La Cascade du Bief de La Chaille_1]]></name>
    <trkseg>
      <trkpt lat="46.46237" lon="6.0277">
        <ele>1143.3</ele>
        <time>2019-08-01T06:46:32Z</time>
      </trkpt>
      <trkpt lat="46.46236" lon="6.02763">
        <ele>1140.6</ele>
        <time>2019-08-01T06:46:35Z</time>
      </trkpt>
      <trkpt lat="46.46232" lon="6.02753">
        <ele>1141.3</ele>
        <time>2019-08-01T06:46:41Z</time>
      </trkpt>
      <trkpt lat="46.46227" lon="6.02749">
        <ele>1139.8</ele>
        <time>2019-08-01T06:46:53Z</time>
      </trkpt>
      <trkpt lat="46.46218" lon="6.02753">
        <ele>1125.5</ele>
        <time>2019-08-01T06:48:01Z</time>
      </trkpt>
      <trkpt lat="46.46213" lon="6.02756">
        <ele>1125.2</ele>
        <time>2019-08-01T06:48:04Z</time>
      </trkpt>
      <trkpt lat="46.46211" lon="6.02763">
        <ele>1124.9</ele>
        <time>2019-08-01T06:48:07Z</time>
      </trkpt>
      <trkpt lat="46.4621" lon="6.02772">
        <ele>1124.4</ele>
        <time>2019-08-01T06:48:16Z</time>
      </trkpt>
      <trkpt lat="46.46208" lon="6.02784">
        <ele>1124.4</ele>
        <time>2019-08-01T06:48:25Z</time>
      </trkpt>
      <trkpt lat="46.46206" lon="6.02792">
        <ele>1124.5</ele>
        <time>2019-08-01T06:48:30Z</time>
      </trkpt>
      <trkpt lat="46.46203" lon="6.02798">
        <ele>1124.5</ele>
        <time>2019-08-01T06:48:34Z</time>
      </trkpt>
      <trkpt lat="46.46201" lon="6.02804">
        <ele>1124.4</ele>
        <time>2019-08-01T06:48:38Z</time>
      </trkpt>
      <trkpt lat="46.46199" lon="6.0281">
        <ele>1124</ele>
        <time>2019-08-01T06:48:43Z</time>
      </trkpt>
      <trkpt lat="46.46201" lon="6.02817">
        <ele>1123.5</ele>
        <time>2019-08-01T06:48:49Z</time>
      </trkpt>
      <trkpt lat="46.46204" lon="6.02822">
        <ele>1122.9</ele>
        <time>2019-08-01T06:48:55Z</time>
      </trkpt>
      <trkpt lat="46.46203" lon="6.02829">
        <ele>1122.4</ele>
        <time>2019-08-01T06:48:59Z</time>
      </trkpt>
      <trkpt lat="46.46203" lon="6.02836">
        <ele>1121.7</ele>
        <time>2019-08-01T06:49:04Z</time>
      </trkpt>
      <trkpt lat="46.46203" lon="6.02843">
        <ele>1121.2</ele>
        <time>2019-08-01T06:49:10Z</time>
      </trkpt>
      <trkpt lat="46.46203" lon="6.0285">
        <ele>1121</ele>
        <time>2019-08-01T06:49:14Z</time>
      </trkpt>
      <trkpt lat="46.46204" lon="6.02859">
        <ele>1120.7</ele>
        <time>2019-08-01T06:49:18Z</time>
      </trkpt>
      <trkpt lat="46.46204" lon="6.02867">
        <ele>1120.3</ele>
        <time>2019-08-01T06:49:23Z</time>
      </trkpt>
      <trkpt lat="46.46203" lon="6.02874">
        <ele>1119.9</ele>
        <time>2019-08-01T06:49:28Z</time>
      </trkpt>
      <trkpt lat="46.46203" lon="6.0288">
        <ele>1119.6</ele>
        <time>2019-08-01T06:49:32Z</time>
      </trkpt>
      <trkpt lat="46.46203" lon="6.02887">
        <ele>1119.6</ele>
        <time>2019-08-01T06:49:38Z</time>
      </trkpt>
      <trkpt lat="46.46205" lon="6.02894">
        <ele>1119.6</ele>
        <time>2019-08-01T06:49:45Z</time>
      </trkpt>
      <trkpt lat="46.46206" lon="6.02901">
        <ele>1119.9</ele>
        <time>2019-08-01T06:49:51Z</time>
      </trkpt>
      <trkpt lat="46.46202" lon="6.02906">
        <ele>1120.1</ele>
        <time>2019-08-01T06:49:55Z</time>
      </trkpt>
      <trkpt lat="46.46198" lon="6.0291">
        <ele>1120.4</ele>
        <time>2019-08-01T06:50:00Z</time>
      </trkpt>
      <trkpt lat="46.46194" lon="6.02914">
        <ele>1120.4</ele>
        <time>2019-08-01T06:50:03Z</time>
      </trkpt>
      <trkpt lat="46.46189" lon="6.02918">
        <ele>1120.2</ele>
        <time>2019-08-01T06:50:06Z</time>
      </trkpt>
      <trkpt lat="46.46184" lon="6.02922">
        <ele>1119.7</ele>
        <time>2019-08-01T06:50:10Z</time>
      </trkpt>
      <trkpt lat="46.4618" lon="6.02923">
        <ele>1119.3</ele>
        <time>2019-08-01T06:50:15Z</time>
      </trkpt>
      <trkpt lat="46.46175" lon="6.02926">
        <ele>1118.8</ele>
        <time>2019-08-01T06:50:19Z</time>
      </trkpt>
      <trkpt lat="46.46171" lon="6.02932">
        <ele>1117.9</ele>
        <time>2019-08-01T06:50:24Z</time>
      </trkpt>
      <trkpt lat="46.46166" lon="6.02936">
        <ele>1117.2</ele>
        <time>2019-08-01T06:50:28Z</time>
      </trkpt>
      <trkpt lat="46.46163" lon="6.02941">
        <ele>1116.5</ele>
        <time>2019-08-01T06:50:33Z</time>
      </trkpt>
      <trkpt lat="46.46159" lon="6.02947">
        <ele>1115.9</ele>
        <time>2019-08-01T06:50:38Z</time>
      </trkpt>
      <trkpt lat="46.46155" lon="6.02951">
        <ele>1115.6</ele>
        <time>2019-08-01T06:50:42Z</time>
      </trkpt>
      <trkpt lat="46.46152" lon="6.02957">
        <ele>1114.9</ele>
        <time>2019-08-01T06:50:47Z</time>
      </trkpt>
      <trkpt lat="46.46149" lon="6.02962">
        <ele>1114.3</ele>
        <time>2019-08-01T06:50:51Z</time>
      </trkpt>
      <trkpt lat="46.46145" lon="6.02966">
        <ele>1113.7</ele>
        <time>2019-08-01T06:50:55Z</time>
      </trkpt>
      <trkpt lat="46.4614" lon="6.02966">
        <ele>1113</ele>
        <time>2019-08-01T06:51:00Z</time>
      </trkpt>
      <trkpt lat="46.46135" lon="6.02965">
        <ele>1112.4</ele>
        <time>2019-08-01T06:51:05Z</time>
      </trkpt>
      <trkpt lat="46.4613" lon="6.02965">
        <ele>1112.1</ele>
        <time>2019-08-01T06:51:10Z</time>
      </trkpt>
      <trkpt lat="46.46125" lon="6.02962">
        <ele>1111.9</ele>
        <time>2019-08-01T06:51:16Z</time>
      </trkpt>
      <trkpt lat="46.46121" lon="6.02958">
        <ele>1111.9</ele>
        <time>2019-08-01T06:51:21Z</time>
      </trkpt>
      <trkpt lat="46.46116" lon="6.02957">
        <ele>1111.9</ele>
        <time>2019-08-01T06:51:25Z</time>
      </trkpt>
      <trkpt lat="46.46112" lon="6.02955">
        <ele>1111.8</ele>
        <time>2019-08-01T06:51:29Z</time>
      </trkpt>
      <trkpt lat="46.46107" lon="6.02953">
        <ele>1111.8</ele>
        <time>2019-08-01T06:51:33Z</time>
      </trkpt>
      <trkpt lat="46.46103" lon="6.0295">
        <ele>1111.8</ele>
        <time>2019-08-01T06:51:39Z</time>
      </trkpt>
      <trkpt lat="46.46098" lon="6.02949">
        <ele>1111.5</ele>
        <time>2019-08-01T06:51:45Z</time>
      </trkpt>
      <trkpt lat="46.46092" lon="6.02947">
        <ele>1111.1</ele>
        <time>2019-08-01T06:51:50Z</time>
      </trkpt>
      <trkpt lat="46.46087" lon="6.02944">
        <ele>1110.8</ele>
        <time>2019-08-01T06:51:55Z</time>
      </trkpt>
      <trkpt lat="46.46082" lon="6.02941">
        <ele>1110.8</ele>
        <time>2019-08-01T06:51:59Z</time>
      </trkpt>
      <trkpt lat="46.46077" lon="6.02938">
        <ele>1110.6</ele>
        <time>2019-08-01T06:52:03Z</time>
      </trkpt>
      <trkpt lat="46.46072" lon="6.02935">
        <ele>1110.5</ele>
        <time>2019-08-01T06:52:08Z</time>
      </trkpt>
      <trkpt lat="46.46067" lon="6.02931">
        <ele>1110.6</ele>
        <time>2019-08-01T06:52:13Z</time>
      </trkpt>
      <trkpt lat="46.46063" lon="6.02927">
        <ele>1110.8</ele>
        <time>2019-08-01T06:52:17Z</time>
      </trkpt>
      <trkpt lat="46.4606" lon="6.02922">
        <ele>1111.1</ele>
        <time>2019-08-01T06:52:21Z</time>
      </trkpt>
      <trkpt lat="46.46055" lon="6.02917">
        <ele>1111.5</ele>
        <time>2019-08-01T06:52:26Z</time>
      </trkpt>
      <trkpt lat="46.46052" lon="6.02913">
        <ele>1111.9</ele>
        <time>2019-08-01T06:52:30Z</time>
      </trkpt>
      <trkpt lat="46.46049" lon="6.02909">
        <ele>1112.4</ele>
        <time>2019-08-01T06:52:34Z</time>
      </trkpt>
      <trkpt lat="46.46044" lon="6.02904">
        <ele>1113</ele>
        <time>2019-08-01T06:52:39Z</time>
      </trkpt>
      <trkpt lat="46.4604" lon="6.02901">
        <ele>1113.4</ele>
        <time>2019-08-01T06:52:43Z</time>
      </trkpt>
      <trkpt lat="46.46036" lon="6.02897">
        <ele>1113.7</ele>
        <time>2019-08-01T06:52:47Z</time>
      </trkpt>
      <trkpt lat="46.46032" lon="6.02894">
        <ele>1114.1</ele>
        <time>2019-08-01T06:52:52Z</time>
      </trkpt>
      <trkpt lat="46.46029" lon="6.02888">
        <ele>1114.4</ele>
        <time>2019-08-01T06:52:57Z</time>
      </trkpt>
      <trkpt lat="46.46025" lon="6.02883">
        <ele>1114.5</ele>
        <time>2019-08-01T06:53:02Z</time>
      </trkpt>
      <trkpt lat="46.4602" lon="6.0288">
        <ele>1114.4</ele>
        <time>2019-08-01T06:53:06Z</time>
      </trkpt>
      <trkpt lat="46.46016" lon="6.02876">
        <ele>1114.1</ele>
        <time>2019-08-01T06:53:10Z</time>
      </trkpt>
      <trkpt lat="46.4601" lon="6.02873">
        <ele>1113.8</ele>
        <time>2019-08-01T06:53:15Z</time>
      </trkpt>
      <trkpt lat="46.46006" lon="6.0287">
        <ele>1113.6</ele>
        <time>2019-08-01T06:53:19Z</time>
      </trkpt>
      <trkpt lat="46.46002" lon="6.02868">
        <ele>1113.6</ele>
        <time>2019-08-01T06:53:23Z</time>
      </trkpt>
      <trkpt lat="46.45997" lon="6.02866">
        <ele>1113.6</ele>
        <time>2019-08-01T06:53:28Z</time>
      </trkpt>
      <trkpt lat="46.45992" lon="6.02864">
        <ele>1113.6</ele>
        <time>2019-08-01T06:53:33Z</time>
      </trkpt>
      <trkpt lat="46.45987" lon="6.02861">
        <ele>1113.6</ele>
        <time>2019-08-01T06:53:38Z</time>
      </trkpt>
      <trkpt lat="46.45982" lon="6.02859">
        <ele>1113.6</ele>
        <time>2019-08-01T06:53:42Z</time>
      </trkpt>
      <trkpt lat="46.45977" lon="6.02857">
        <ele>1114</ele>
        <time>2019-08-01T06:53:47Z</time>
      </trkpt>
      <trkpt lat="46.45972" lon="6.02856">
        <ele>1114.4</ele>
        <time>2019-08-01T06:53:51Z</time>
      </trkpt>
      <trkpt lat="46.45968" lon="6.02854">
        <ele>1114.7</ele>
        <time>2019-08-01T06:53:55Z</time>
      </trkpt>
      <trkpt lat="46.45962" lon="6.02852">
        <ele>1115.1</ele>
        <time>2019-08-01T06:53:59Z</time>
      </trkpt>
      <trkpt lat="46.45958" lon="6.02848">
        <ele>1115.5</ele>
        <time>2019-08-01T06:54:03Z</time>
      </trkpt>
      <trkpt lat="46.45954" lon="6.02843">
        <ele>1115.9</ele>
        <time>2019-08-01T06:54:08Z</time>
      </trkpt>
      <trkpt lat="46.4595" lon="6.02838">
        <ele>1116</ele>
        <time>2019-08-01T06:54:12Z</time>
      </trkpt>
      <trkpt lat="46.45947" lon="6.02831">
        <ele>1116.1</ele>
        <time>2019-08-01T06:54:16Z</time>
      </trkpt>
      <trkpt lat="46.45945" lon="6.02824">
        <ele>1116.3</ele>
        <time>2019-08-01T06:54:22Z</time>
      </trkpt>
      <trkpt lat="46.45943" lon="6.02817">
        <ele>1116.3</ele>
        <time>2019-08-01T06:54:27Z</time>
      </trkpt>
      <trkpt lat="46.45941" lon="6.02811">
        <ele>1116.2</ele>
        <time>2019-08-01T06:54:31Z</time>
      </trkpt>
      <trkpt lat="46.45939" lon="6.02805">
        <ele>1116.2</ele>
        <time>2019-08-01T06:54:35Z</time>
      </trkpt>
      <trkpt lat="46.45936" lon="6.02799">
        <ele>1116.2</ele>
        <time>2019-08-01T06:54:39Z</time>
      </trkpt>
      <trkpt lat="46.45931" lon="6.0279">
        <ele>1117.5</ele>
        <time>2019-08-01T06:55:14Z</time>
      </trkpt>
      <trkpt lat="46.45929" lon="6.02784">
        <ele>1117.7</ele>
        <time>2019-08-01T06:55:17Z</time>
      </trkpt>
      <trkpt lat="46.45928" lon="6.02777">
        <ele>1117.9</ele>
        <time>2019-08-01T06:55:20Z</time>
      </trkpt>
      <trkpt lat="46.45926" lon="6.02769">
        <ele>1118.1</ele>
        <time>2019-08-01T06:55:24Z</time>
      </trkpt>
      <trkpt lat="46.45924" lon="6.02762">
        <ele>1118.3</ele>
        <time>2019-08-01T06:55:29Z</time>
      </trkpt>
      <trkpt lat="46.45921" lon="6.02757">
        <ele>1118.4</ele>
        <time>2019-08-01T06:55:33Z</time>
      </trkpt>
      <trkpt lat="46.45918" lon="6.02751">
        <ele>1118.3</ele>
        <time>2019-08-01T06:55:37Z</time>
      </trkpt>
      <trkpt lat="46.45914" lon="6.02746">
        <ele>1118</ele>
        <time>2019-08-01T06:55:41Z</time>
      </trkpt>
      <trkpt lat="46.4591" lon="6.02741">
        <ele>1117.6</ele>
        <time>2019-08-01T06:55:45Z</time>
      </trkpt>
      <trkpt lat="46.45907" lon="6.02737">
        <ele>1117.2</ele>
        <time>2019-08-01T06:55:49Z</time>
      </trkpt>
      <trkpt lat="46.45901" lon="6.02733">
        <ele>1116.8</ele>
        <time>2019-08-01T06:55:54Z</time>
      </trkpt>
      <trkpt lat="46.45897" lon="6.02728">
        <ele>1116.4</ele>
        <time>2019-08-01T06:55:58Z</time>
      </trkpt>
      <trkpt lat="46.45892" lon="6.02724">
        <ele>1116.1</ele>
        <time>2019-08-01T06:56:02Z</time>
      </trkpt>
      <trkpt lat="46.45887" lon="6.02719">
        <ele>1115.7</ele>
        <time>2019-08-01T06:56:06Z</time>
      </trkpt>
      <trkpt lat="46.45884" lon="6.02715">
        <ele>1115.2</ele>
        <time>2019-08-01T06:56:10Z</time>
      </trkpt>
      <trkpt lat="46.4588" lon="6.0271">
        <ele>1114.7</ele>
        <time>2019-08-01T06:56:14Z</time>
      </trkpt>
      <trkpt lat="46.45876" lon="6.02706">
        <ele>1114.3</ele>
        <time>2019-08-01T06:56:18Z</time>
      </trkpt>
      <trkpt lat="46.45871" lon="6.02701">
        <ele>1113.9</ele>
        <time>2019-08-01T06:56:23Z</time>
      </trkpt>
      <trkpt lat="46.45868" lon="6.02696">
        <ele>1113.9</ele>
        <time>2019-08-01T06:56:28Z</time>
      </trkpt>
      <trkpt lat="46.45865" lon="6.02691">
        <ele>1113.9</ele>
        <time>2019-08-01T06:56:32Z</time>
      </trkpt>
      <trkpt lat="46.45862" lon="6.02685">
        <ele>1114.1</ele>
        <time>2019-08-01T06:56:37Z</time>
      </trkpt>
      <trkpt lat="46.45859" lon="6.02679">
        <ele>1114.1</ele>
        <time>2019-08-01T06:56:41Z</time>
      </trkpt>
      <trkpt lat="46.45856" lon="6.02674">
        <ele>1114.2</ele>
        <time>2019-08-01T06:56:45Z</time>
      </trkpt>
      <trkpt lat="46.45854" lon="6.02668">
        <ele>1114.2</ele>
        <time>2019-08-01T06:56:49Z</time>
      </trkpt>
      <trkpt lat="46.4585" lon="6.02664">
        <ele>1114.1</ele>
        <time>2019-08-01T06:56:53Z</time>
      </trkpt>
      <trkpt lat="46.45847" lon="6.02659">
        <ele>1113.6</ele>
        <time>2019-08-01T06:56:58Z</time>
      </trkpt>
      <trkpt lat="46.45843" lon="6.02655">
        <ele>1113.2</ele>
        <time>2019-08-01T06:57:02Z</time>
      </trkpt>
      <trkpt lat="46.45839" lon="6.0265">
        <ele>1112.9</ele>
        <time>2019-08-01T06:57:06Z</time>
      </trkpt>
      <trkpt lat="46.45835" lon="6.02644">
        <ele>1112.7</ele>
        <time>2019-08-01T06:57:11Z</time>
      </trkpt>
      <trkpt lat="46.45832" lon="6.0264">
        <ele>1112.6</ele>
        <time>2019-08-01T06:57:15Z</time>
      </trkpt>
      <trkpt lat="46.45828" lon="6.02634">
        <ele>1112.5</ele>
        <time>2019-08-01T06:57:20Z</time>
      </trkpt>
      <trkpt lat="46.45824" lon="6.02629">
        <ele>1112.3</ele>
        <time>2019-08-01T06:57:24Z</time>
      </trkpt>
      <trkpt lat="46.4582" lon="6.02623">
        <ele>1112.4</ele>
        <time>2019-08-01T06:57:29Z</time>
      </trkpt>
      <trkpt lat="46.45817" lon="6.02617">
        <ele>1112.6</ele>
        <time>2019-08-01T06:57:33Z</time>
      </trkpt>
      <trkpt lat="46.45814" lon="6.02611">
        <ele>1112.8</ele>
        <time>2019-08-01T06:57:39Z</time>
      </trkpt>
      <trkpt lat="46.4581" lon="6.02607">
        <ele>1113.2</ele>
        <time>2019-08-01T06:57:45Z</time>
      </trkpt>
      <trkpt lat="46.45806" lon="6.02602">
        <ele>1113.5</ele>
        <time>2019-08-01T06:57:49Z</time>
      </trkpt>
      <trkpt lat="46.45802" lon="6.02598">
        <ele>1113.9</ele>
        <time>2019-08-01T06:57:53Z</time>
      </trkpt>
      <trkpt lat="46.45798" lon="6.02594">
        <ele>1114.4</ele>
        <time>2019-08-01T06:57:58Z</time>
      </trkpt>
      <trkpt lat="46.45793" lon="6.0259">
        <ele>1115</ele>
        <time>2019-08-01T06:58:04Z</time>
      </trkpt>
      <trkpt lat="46.45789" lon="6.02587">
        <ele>1115.4</ele>
        <time>2019-08-01T06:58:08Z</time>
      </trkpt>
      <trkpt lat="46.45784" lon="6.02585">
        <ele>1115.7</ele>
        <time>2019-08-01T06:58:12Z</time>
      </trkpt>
      <trkpt lat="46.45779" lon="6.02584">
        <ele>1115.9</ele>
        <time>2019-08-01T06:58:16Z</time>
      </trkpt>
      <trkpt lat="46.45774" lon="6.02581">
        <ele>1116</ele>
        <time>2019-08-01T06:58:21Z</time>
      </trkpt>
      <trkpt lat="46.45769" lon="6.02579">
        <ele>1116.3</ele>
        <time>2019-08-01T06:58:26Z</time>
      </trkpt>
      <trkpt lat="46.45764" lon="6.02578">
        <ele>1116.5</ele>
        <time>2019-08-01T06:58:30Z</time>
      </trkpt>
      <trkpt lat="46.4576" lon="6.02577">
        <ele>1116.7</ele>
        <time>2019-08-01T06:58:34Z</time>
      </trkpt>
      <trkpt lat="46.45755" lon="6.02577">
        <ele>1116.8</ele>
        <time>2019-08-01T06:58:38Z</time>
      </trkpt>
      <trkpt lat="46.45749" lon="6.02576">
        <ele>1117</ele>
        <time>2019-08-01T06:58:43Z</time>
      </trkpt>
      <trkpt lat="46.45745" lon="6.02575">
        <ele>1117.2</ele>
        <time>2019-08-01T06:58:48Z</time>
      </trkpt>
      <trkpt lat="46.4574" lon="6.02574">
        <ele>1117.7</ele>
        <time>2019-08-01T06:58:53Z</time>
      </trkpt>
      <trkpt lat="46.45735" lon="6.02572">
        <ele>1118</ele>
        <time>2019-08-01T06:58:57Z</time>
      </trkpt>
      <trkpt lat="46.45729" lon="6.0257">
        <ele>1118.4</ele>
        <time>2019-08-01T06:59:02Z</time>
      </trkpt>
      <trkpt lat="46.45725" lon="6.02566">
        <ele>1118.5</ele>
        <time>2019-08-01T06:59:06Z</time>
      </trkpt>
      <trkpt lat="46.45721" lon="6.02562">
        <ele>1118.7</ele>
        <time>2019-08-01T06:59:11Z</time>
      </trkpt>
      <trkpt lat="46.45717" lon="6.02557">
        <ele>1118.8</ele>
        <time>2019-08-01T06:59:15Z</time>
      </trkpt>
      <trkpt lat="46.45713" lon="6.02553">
        <ele>1118.9</ele>
        <time>2019-08-01T06:59:20Z</time>
      </trkpt>
      <trkpt lat="46.45708" lon="6.02549">
        <ele>1119.1</ele>
        <time>2019-08-01T06:59:25Z</time>
      </trkpt>
      <trkpt lat="46.45704" lon="6.02545">
        <ele>1119.3</ele>
        <time>2019-08-01T06:59:29Z</time>
      </trkpt>
      <trkpt lat="46.457" lon="6.0254">
        <ele>1119.6</ele>
        <time>2019-08-01T06:59:34Z</time>
      </trkpt>
      <trkpt lat="46.45696" lon="6.02536">
        <ele>1119.7</ele>
        <time>2019-08-01T06:59:39Z</time>
      </trkpt>
      <trkpt lat="46.45691" lon="6.02532">
        <ele>1119.8</ele>
        <time>2019-08-01T06:59:44Z</time>
      </trkpt>
      <trkpt lat="46.45687" lon="6.02529">
        <ele>1120</ele>
        <time>2019-08-01T06:59:48Z</time>
      </trkpt>
      <trkpt lat="46.45683" lon="6.02528">
        <ele>1120.2</ele>
        <time>2019-08-01T06:59:53Z</time>
      </trkpt>
      <trkpt lat="46.45677" lon="6.02527">
        <ele>1120.4</ele>
        <time>2019-08-01T06:59:58Z</time>
      </trkpt>
      <trkpt lat="46.45672" lon="6.02526">
        <ele>1120.5</ele>
        <time>2019-08-01T07:00:02Z</time>
      </trkpt>
      <trkpt lat="46.45668" lon="6.02524">
        <ele>1120.7</ele>
        <time>2019-08-01T07:00:06Z</time>
      </trkpt>
      <trkpt lat="46.45663" lon="6.02521">
        <ele>1120.9</ele>
        <time>2019-08-01T07:00:11Z</time>
      </trkpt>
      <trkpt lat="46.45658" lon="6.02519">
        <ele>1121</ele>
        <time>2019-08-01T07:00:16Z</time>
      </trkpt>
      <trkpt lat="46.45654" lon="6.02516">
        <ele>1121.3</ele>
        <time>2019-08-01T07:00:21Z</time>
      </trkpt>
      <trkpt lat="46.45649" lon="6.02515">
        <ele>1121.8</ele>
        <time>2019-08-01T07:00:29Z</time>
      </trkpt>
      <trkpt lat="46.45644" lon="6.02512">
        <ele>1121.8</ele>
        <time>2019-08-01T07:00:33Z</time>
      </trkpt>
      <trkpt lat="46.4564" lon="6.02509">
        <ele>1121.7</ele>
        <time>2019-08-01T07:00:37Z</time>
      </trkpt>
      <trkpt lat="46.45635" lon="6.02506">
        <ele>1121.5</ele>
        <time>2019-08-01T07:00:42Z</time>
      </trkpt>
      <trkpt lat="46.45631" lon="6.02502">
        <ele>1121.3</ele>
        <time>2019-08-01T07:00:47Z</time>
      </trkpt>
      <trkpt lat="46.45626" lon="6.02498">
        <ele>1121.1</ele>
        <time>2019-08-01T07:00:53Z</time>
      </trkpt>
      <trkpt lat="46.45622" lon="6.02495">
        <ele>1120.9</ele>
        <time>2019-08-01T07:00:58Z</time>
      </trkpt>
      <trkpt lat="46.45618" lon="6.0249">
        <ele>1120.8</ele>
        <time>2019-08-01T07:01:02Z</time>
      </trkpt>
      <trkpt lat="46.45614" lon="6.02486">
        <ele>1120.7</ele>
        <time>2019-08-01T07:01:06Z</time>
      </trkpt>
      <trkpt lat="46.4561" lon="6.02481">
        <ele>1120.8</ele>
        <time>2019-08-01T07:01:11Z</time>
      </trkpt>
      <trkpt lat="46.45605" lon="6.02476">
        <ele>1121.1</ele>
        <time>2019-08-01T07:01:17Z</time>
      </trkpt>
      <trkpt lat="46.45601" lon="6.02472">
        <ele>1121.2</ele>
        <time>2019-08-01T07:01:20Z</time>
      </trkpt>
      <trkpt lat="46.45596" lon="6.02469">
        <ele>1121.5</ele>
        <time>2019-08-01T07:01:24Z</time>
      </trkpt>
      <trkpt lat="46.45591" lon="6.02465">
        <ele>1124.2</ele>
        <time>2019-08-01T07:01:57Z</time>
      </trkpt>
      <trkpt lat="46.45587" lon="6.0246">
        <ele>1124.3</ele>
        <time>2019-08-01T07:02:01Z</time>
      </trkpt>
      <trkpt lat="46.45584" lon="6.02456">
        <ele>1124.5</ele>
        <time>2019-08-01T07:02:05Z</time>
      </trkpt>
      <trkpt lat="46.45579" lon="6.02453">
        <ele>1124.6</ele>
        <time>2019-08-01T07:02:10Z</time>
      </trkpt>
      <trkpt lat="46.45567" lon="6.02439">
        <ele>1125.1</ele>
        <time>2019-08-01T07:02:23Z</time>
      </trkpt>
      <trkpt lat="46.45563" lon="6.02435">
        <ele>1125</ele>
        <time>2019-08-01T07:02:26Z</time>
      </trkpt>
      <trkpt lat="46.45559" lon="6.02432">
        <ele>1125</ele>
        <time>2019-08-01T07:02:29Z</time>
      </trkpt>
      <trkpt lat="46.45555" lon="6.02429">
        <ele>1125</ele>
        <time>2019-08-01T07:02:33Z</time>
      </trkpt>
      <trkpt lat="46.45551" lon="6.02424">
        <ele>1125</ele>
        <time>2019-08-01T07:02:38Z</time>
      </trkpt>
      <trkpt lat="46.45544" lon="6.02418">
        <ele>1125.8</ele>
        <time>2019-08-01T07:02:49Z</time>
      </trkpt>
      <trkpt lat="46.4554" lon="6.02414">
        <ele>1126</ele>
        <time>2019-08-01T07:02:54Z</time>
      </trkpt>
      <trkpt lat="46.45534" lon="6.0241">
        <ele>1126.2</ele>
        <time>2019-08-01T07:02:58Z</time>
      </trkpt>
      <trkpt lat="46.45529" lon="6.02408">
        <ele>1126.3</ele>
        <time>2019-08-01T07:03:02Z</time>
      </trkpt>
      <trkpt lat="46.45526" lon="6.02402">
        <ele>1126.4</ele>
        <time>2019-08-01T07:03:08Z</time>
      </trkpt>
      <trkpt lat="46.45525" lon="6.02396">
        <ele>1126.4</ele>
        <time>2019-08-01T07:03:12Z</time>
      </trkpt>
      <trkpt lat="46.45522" lon="6.02389">
        <ele>1126.4</ele>
        <time>2019-08-01T07:03:16Z</time>
      </trkpt>
      <trkpt lat="46.45518" lon="6.02385">
        <ele>1126.2</ele>
        <time>2019-08-01T07:03:21Z</time>
      </trkpt>
      <trkpt lat="46.45507" lon="6.02367">
        <ele>1125.5</ele>
        <time>2019-08-01T07:03:35Z</time>
      </trkpt>
      <trkpt lat="46.45504" lon="6.02362">
        <ele>1125.4</ele>
        <time>2019-08-01T07:03:40Z</time>
      </trkpt>
      <trkpt lat="46.455" lon="6.02358">
        <ele>1125.5</ele>
        <time>2019-08-01T07:03:45Z</time>
      </trkpt>
      <trkpt lat="46.45496" lon="6.02353">
        <ele>1125.8</ele>
        <time>2019-08-01T07:03:50Z</time>
      </trkpt>
      <trkpt lat="46.45493" lon="6.02348">
        <ele>1126.1</ele>
        <time>2019-08-01T07:03:55Z</time>
      </trkpt>
      <trkpt lat="46.45489" lon="6.02344">
        <ele>1126.4</ele>
        <time>2019-08-01T07:04:00Z</time>
      </trkpt>
      <trkpt lat="46.45486" lon="6.02338">
        <ele>1126.7</ele>
        <time>2019-08-01T07:04:04Z</time>
      </trkpt>
      <trkpt lat="46.45484" lon="6.02332">
        <ele>1127</ele>
        <time>2019-08-01T07:04:08Z</time>
      </trkpt>
      <trkpt lat="46.45481" lon="6.02327">
        <ele>1127.2</ele>
        <time>2019-08-01T07:04:12Z</time>
      </trkpt>
      <trkpt lat="46.45477" lon="6.02321">
        <ele>1127.4</ele>
        <time>2019-08-01T07:04:16Z</time>
      </trkpt>
      <trkpt lat="46.45473" lon="6.02317">
        <ele>1127.8</ele>
        <time>2019-08-01T07:04:21Z</time>
      </trkpt>
      <trkpt lat="46.45468" lon="6.02314">
        <ele>1128.2</ele>
        <time>2019-08-01T07:04:26Z</time>
      </trkpt>
      <trkpt lat="46.45464" lon="6.02311">
        <ele>1128.5</ele>
        <time>2019-08-01T07:04:31Z</time>
      </trkpt>
      <trkpt lat="46.45458" lon="6.02307">
        <ele>1128.6</ele>
        <time>2019-08-01T07:04:36Z</time>
      </trkpt>
      <trkpt lat="46.45454" lon="6.02305">
        <ele>1128.7</ele>
        <time>2019-08-01T07:04:41Z</time>
      </trkpt>
      <trkpt lat="46.45449" lon="6.02302">
        <ele>1129.3</ele>
        <time>2019-08-01T07:04:48Z</time>
      </trkpt>
      <trkpt lat="46.45444" lon="6.02299">
        <ele>1129.8</ele>
        <time>2019-08-01T07:04:52Z</time>
      </trkpt>
      <trkpt lat="46.4544" lon="6.02296">
        <ele>1130.1</ele>
        <time>2019-08-01T07:04:55Z</time>
      </trkpt>
      <trkpt lat="46.45435" lon="6.02294">
        <ele>1130.3</ele>
        <time>2019-08-01T07:04:59Z</time>
      </trkpt>
      <trkpt lat="46.45431" lon="6.02292">
        <ele>1130.7</ele>
        <time>2019-08-01T07:05:05Z</time>
      </trkpt>
      <trkpt lat="46.45426" lon="6.02289">
        <ele>1131.5</ele>
        <time>2019-08-01T07:05:12Z</time>
      </trkpt>
      <trkpt lat="46.4542" lon="6.02288">
        <ele>1132.1</ele>
        <time>2019-08-01T07:05:17Z</time>
      </trkpt>
      <trkpt lat="46.45415" lon="6.02286">
        <ele>1132.8</ele>
        <time>2019-08-01T07:05:22Z</time>
      </trkpt>
      <trkpt lat="46.4541" lon="6.02284">
        <ele>1133.6</ele>
        <time>2019-08-01T07:05:27Z</time>
      </trkpt>
      <trkpt lat="46.45406" lon="6.02282">
        <ele>1134.4</ele>
        <time>2019-08-01T07:05:33Z</time>
      </trkpt>
      <trkpt lat="46.45401" lon="6.02281">
        <ele>1135.1</ele>
        <time>2019-08-01T07:05:38Z</time>
      </trkpt>
      <trkpt lat="46.45396" lon="6.0228">
        <ele>1135.9</ele>
        <time>2019-08-01T07:05:44Z</time>
      </trkpt>
      <trkpt lat="46.45392" lon="6.02283">
        <ele>1136.7</ele>
        <time>2019-08-01T07:05:54Z</time>
      </trkpt>
      <trkpt lat="46.45394" lon="6.02278">
        <ele>1137.7</ele>
        <time>2019-08-01T07:07:25Z</time>
      </trkpt>
      <trkpt lat="46.45394" lon="6.0227">
        <ele>1137.8</ele>
        <time>2019-08-01T07:07:30Z</time>
      </trkpt>
      <trkpt lat="46.45392" lon="6.02263">
        <ele>1137.9</ele>
        <time>2019-08-01T07:07:35Z</time>
      </trkpt>
      <trkpt lat="46.45392" lon="6.02256">
        <ele>1137.8</ele>
        <time>2019-08-01T07:07:43Z</time>
      </trkpt>
      <trkpt lat="46.45391" lon="6.0225">
        <ele>1137.7</ele>
        <time>2019-08-01T07:07:46Z</time>
      </trkpt>
      <trkpt lat="46.45389" lon="6.02243">
        <ele>1137.4</ele>
        <time>2019-08-01T07:07:51Z</time>
      </trkpt>
      <trkpt lat="46.45391" lon="6.02235">
        <ele>1137.1</ele>
        <time>2019-08-01T07:07:58Z</time>
      </trkpt>
      <trkpt lat="46.45388" lon="6.02229">
        <ele>1137</ele>
        <time>2019-08-01T07:08:06Z</time>
      </trkpt>
      <trkpt lat="46.45387" lon="6.02222">
        <ele>1137.1</ele>
        <time>2019-08-01T07:08:09Z</time>
      </trkpt>
      <trkpt lat="46.45386" lon="6.02216">
        <ele>1137.5</ele>
        <time>2019-08-01T07:08:14Z</time>
      </trkpt>
      <trkpt lat="46.45384" lon="6.0221">
        <ele>1137.9</ele>
        <time>2019-08-01T07:08:20Z</time>
      </trkpt>
      <trkpt lat="46.4538" lon="6.02205">
        <ele>1138.1</ele>
        <time>2019-08-01T07:08:24Z</time>
      </trkpt>
      <trkpt lat="46.45378" lon="6.02199">
        <ele>1138.6</ele>
        <time>2019-08-01T07:08:30Z</time>
      </trkpt>
      <trkpt lat="46.45373" lon="6.02196">
        <ele>1139.4</ele>
        <time>2019-08-01T07:08:39Z</time>
      </trkpt>
      <trkpt lat="46.4537" lon="6.02191">
        <ele>1139.6</ele>
        <time>2019-08-01T07:08:46Z</time>
      </trkpt>
      <trkpt lat="46.45358" lon="6.02187">
        <ele>1139.6</ele>
        <time>2019-08-01T07:08:59Z</time>
      </trkpt>
      <trkpt lat="46.45353" lon="6.02184">
        <ele>1140.4</ele>
        <time>2019-08-01T07:09:04Z</time>
      </trkpt>
      <trkpt lat="46.45349" lon="6.02181">
        <ele>1141</ele>
        <time>2019-08-01T07:09:09Z</time>
      </trkpt>
      <trkpt lat="46.45345" lon="6.02176">
        <ele>1141.5</ele>
        <time>2019-08-01T07:09:14Z</time>
      </trkpt>
      <trkpt lat="46.45341" lon="6.02172">
        <ele>1142.1</ele>
        <time>2019-08-01T07:09:19Z</time>
      </trkpt>
      <trkpt lat="46.45337" lon="6.02168">
        <ele>1142.8</ele>
        <time>2019-08-01T07:09:25Z</time>
      </trkpt>
      <trkpt lat="46.45333" lon="6.02164">
        <ele>1143.4</ele>
        <time>2019-08-01T07:09:29Z</time>
      </trkpt>
      <trkpt lat="46.4533" lon="6.02158">
        <ele>1144.2</ele>
        <time>2019-08-01T07:09:34Z</time>
      </trkpt>
      <trkpt lat="46.45327" lon="6.02153">
        <ele>1145.2</ele>
        <time>2019-08-01T07:09:42Z</time>
      </trkpt>
      <trkpt lat="46.45322" lon="6.02152">
        <ele>1145.6</ele>
        <time>2019-08-01T07:09:47Z</time>
      </trkpt>
      <trkpt lat="46.45318" lon="6.02149">
        <ele>1146</ele>
        <time>2019-08-01T07:09:53Z</time>
      </trkpt>
      <trkpt lat="46.45312" lon="6.02142">
        <ele>1147.4</ele>
        <time>2019-08-01T07:10:08Z</time>
      </trkpt>
      <trkpt lat="46.45308" lon="6.02138">
        <ele>1147.8</ele>
        <time>2019-08-01T07:10:10Z</time>
      </trkpt>
      <trkpt lat="46.45304" lon="6.02133">
        <ele>1148.3</ele>
        <time>2019-08-01T07:10:12Z</time>
      </trkpt>
      <trkpt lat="46.45301" lon="6.02127">
        <ele>1149.7</ele>
        <time>2019-08-01T07:10:17Z</time>
      </trkpt>
      <trkpt lat="46.45298" lon="6.02092">
        <ele>1158.4</ele>
        <time>2019-08-01T07:10:51Z</time>
      </trkpt>
      <trkpt lat="46.45289" lon="6.0208">
        <ele>1160.7</ele>
        <time>2019-08-01T07:11:00Z</time>
      </trkpt>
      <trkpt lat="46.45284" lon="6.02066">
        <ele>1163.6</ele>
        <time>2019-08-01T07:11:11Z</time>
      </trkpt>
      <trkpt lat="46.45282" lon="6.02059">
        <ele>1164.4</ele>
        <time>2019-08-01T07:11:18Z</time>
      </trkpt>
      <trkpt lat="46.4528" lon="6.02051">
        <ele>1165.2</ele>
        <time>2019-08-01T07:11:25Z</time>
      </trkpt>
      <trkpt lat="46.4528" lon="6.02044">
        <ele>1165.7</ele>
        <time>2019-08-01T07:11:34Z</time>
      </trkpt>
      <trkpt lat="46.45281" lon="6.02037">
        <ele>1165.7</ele>
        <time>2019-08-01T07:11:42Z</time>
      </trkpt>
      <trkpt lat="46.4528" lon="6.0203">
        <ele>1165.5</ele>
        <time>2019-08-01T07:11:47Z</time>
      </trkpt>
      <trkpt lat="46.45281" lon="6.02023">
        <ele>1165.5</ele>
        <time>2019-08-01T07:11:54Z</time>
      </trkpt>
      <trkpt lat="46.45271" lon="6.02004">
        <ele>1166.7</ele>
        <time>2019-08-01T07:12:15Z</time>
      </trkpt>
      <trkpt lat="46.45269" lon="6.01998">
        <ele>1166.7</ele>
        <time>2019-08-01T07:12:20Z</time>
      </trkpt>
      <trkpt lat="46.45266" lon="6.01992">
        <ele>1166.3</ele>
        <time>2019-08-01T07:12:26Z</time>
      </trkpt>
      <trkpt lat="46.45264" lon="6.01986">
        <ele>1166.3</ele>
        <time>2019-08-01T07:12:31Z</time>
      </trkpt>
      <trkpt lat="46.45263" lon="6.01979">
        <ele>1166.5</ele>
        <time>2019-08-01T07:12:38Z</time>
      </trkpt>
      <trkpt lat="46.45257" lon="6.01976">
        <ele>1166.6</ele>
        <time>2019-08-01T07:12:43Z</time>
      </trkpt>
      <trkpt lat="46.45254" lon="6.01965">
        <ele>1167.1</ele>
        <time>2019-08-01T07:13:00Z</time>
      </trkpt>
      <trkpt lat="46.45253" lon="6.01954">
        <ele>1168.3</ele>
        <time>2019-08-01T07:13:16Z</time>
      </trkpt>
      <trkpt lat="46.45251" lon="6.01948">
        <ele>1169</ele>
        <time>2019-08-01T07:13:20Z</time>
      </trkpt>
      <trkpt lat="46.4525" lon="6.01941">
        <ele>1169.7</ele>
        <time>2019-08-01T07:13:23Z</time>
      </trkpt>
      <trkpt lat="46.45235" lon="6.01918">
        <ele>1177.6</ele>
        <time>2019-08-01T07:13:52Z</time>
      </trkpt>
      <trkpt lat="46.45229" lon="6.01913">
        <ele>1178.9</ele>
        <time>2019-08-01T07:13:58Z</time>
      </trkpt>
      <trkpt lat="46.45225" lon="6.01909">
        <ele>1180.5</ele>
        <time>2019-08-01T07:14:05Z</time>
      </trkpt>
      <trkpt lat="46.4522" lon="6.01901">
        <ele>1183.1</ele>
        <time>2019-08-01T07:14:16Z</time>
      </trkpt>
      <trkpt lat="46.45217" lon="6.01894">
        <ele>1183.4</ele>
        <time>2019-08-01T07:14:19Z</time>
      </trkpt>
      <trkpt lat="46.45213" lon="6.0189">
        <ele>1184.1</ele>
        <time>2019-08-01T07:14:25Z</time>
      </trkpt>
      <trkpt lat="46.45209" lon="6.01885">
        <ele>1184.8</ele>
        <time>2019-08-01T07:14:29Z</time>
      </trkpt>
      <trkpt lat="46.45206" lon="6.0188">
        <ele>1186.1</ele>
        <time>2019-08-01T07:14:34Z</time>
      </trkpt>
      <trkpt lat="46.45202" lon="6.01875">
        <ele>1188</ele>
        <time>2019-08-01T07:14:40Z</time>
      </trkpt>
      <trkpt lat="46.45199" lon="6.0187">
        <ele>1189.8</ele>
        <time>2019-08-01T07:14:46Z</time>
      </trkpt>
      <trkpt lat="46.45194" lon="6.01868">
        <ele>1190.7</ele>
        <time>2019-08-01T07:14:49Z</time>
      </trkpt>
      <trkpt lat="46.4519" lon="6.01863">
        <ele>1191.9</ele>
        <time>2019-08-01T07:14:54Z</time>
      </trkpt>
      <trkpt lat="46.45188" lon="6.01857">
        <ele>1193.2</ele>
        <time>2019-08-01T07:15:02Z</time>
      </trkpt>
      <trkpt lat="46.45185" lon="6.01852">
        <ele>1194.2</ele>
        <time>2019-08-01T07:15:10Z</time>
      </trkpt>
      <trkpt lat="46.4518" lon="6.01835">
        <ele>1197</ele>
        <time>2019-08-01T07:15:29Z</time>
      </trkpt>
      <trkpt lat="46.45178" lon="6.01828">
        <ele>1197</ele>
        <time>2019-08-01T07:15:36Z</time>
      </trkpt>
      <trkpt lat="46.45176" lon="6.01821">
        <ele>1197</ele>
        <time>2019-08-01T07:15:42Z</time>
      </trkpt>
      <trkpt lat="46.45172" lon="6.01816">
        <ele>1197</ele>
        <time>2019-08-01T07:15:51Z</time>
      </trkpt>
      <trkpt lat="46.4517" lon="6.0181">
        <ele>1196.9</ele>
        <time>2019-08-01T07:15:57Z</time>
      </trkpt>
      <trkpt lat="46.45167" lon="6.01805">
        <ele>1197.3</ele>
        <time>2019-08-01T07:16:03Z</time>
      </trkpt>
      <trkpt lat="46.45155" lon="6.01789">
        <ele>1200.3</ele>
        <time>2019-08-01T07:16:15Z</time>
      </trkpt>
      <trkpt lat="46.45154" lon="6.01782">
        <ele>1201.9</ele>
        <time>2019-08-01T07:16:21Z</time>
      </trkpt>
      <trkpt lat="46.45152" lon="6.01776">
        <ele>1203.6</ele>
        <time>2019-08-01T07:16:28Z</time>
      </trkpt>
      <trkpt lat="46.45152" lon="6.01767">
        <ele>1206.2</ele>
        <time>2019-08-01T07:16:43Z</time>
      </trkpt>
      <trkpt lat="46.45151" lon="6.0176">
        <ele>1207.8</ele>
        <time>2019-08-01T07:16:50Z</time>
      </trkpt>
      <trkpt lat="46.45148" lon="6.01753">
        <ele>1209.1</ele>
        <time>2019-08-01T07:16:55Z</time>
      </trkpt>
      <trkpt lat="46.45145" lon="6.01748">
        <ele>1210.3</ele>
        <time>2019-08-01T07:16:59Z</time>
      </trkpt>
      <trkpt lat="46.45144" lon="6.01741">
        <ele>1212</ele>
        <time>2019-08-01T07:17:05Z</time>
      </trkpt>
      <trkpt lat="46.45142" lon="6.01735">
        <ele>1213.5</ele>
        <time>2019-08-01T07:17:13Z</time>
      </trkpt>
      <trkpt lat="46.45139" lon="6.01729">
        <ele>1214</ele>
        <time>2019-08-01T07:17:21Z</time>
      </trkpt>
      <trkpt lat="46.45136" lon="6.01724">
        <ele>1214.2</ele>
        <time>2019-08-01T07:17:28Z</time>
      </trkpt>
      <trkpt lat="46.45134" lon="6.01717">
        <ele>1214.5</ele>
        <time>2019-08-01T07:17:39Z</time>
      </trkpt>
      <trkpt lat="46.45131" lon="6.01711">
        <ele>1214.8</ele>
        <time>2019-08-01T07:17:47Z</time>
      </trkpt>
      <trkpt lat="46.45128" lon="6.01706">
        <ele>1215.3</ele>
        <time>2019-08-01T07:17:53Z</time>
      </trkpt>
      <trkpt lat="46.45123" lon="6.01702">
        <ele>1216</ele>
        <time>2019-08-01T07:18:00Z</time>
      </trkpt>
      <trkpt lat="46.4512" lon="6.01696">
        <ele>1216.3</ele>
        <time>2019-08-01T07:18:04Z</time>
      </trkpt>
      <trkpt lat="46.45116" lon="6.01691">
        <ele>1216.8</ele>
        <time>2019-08-01T07:18:09Z</time>
      </trkpt>
      <trkpt lat="46.45113" lon="6.01686">
        <ele>1217.2</ele>
        <time>2019-08-01T07:18:14Z</time>
      </trkpt>
      <trkpt lat="46.45109" lon="6.01683">
        <ele>1217.5</ele>
        <time>2019-08-01T07:18:23Z</time>
      </trkpt>
      <trkpt lat="46.45094" lon="6.01676">
        <ele>1215.9</ele>
        <time>2019-08-01T07:18:48Z</time>
      </trkpt>
      <trkpt lat="46.45077" lon="6.01664">
        <ele>1212.4</ele>
        <time>2019-08-01T07:19:19Z</time>
      </trkpt>
      <trkpt lat="46.45073" lon="6.0166">
        <ele>1212.3</ele>
        <time>2019-08-01T07:19:21Z</time>
      </trkpt>
      <trkpt lat="46.45068" lon="6.01659">
        <ele>1212.4</ele>
        <time>2019-08-01T07:19:25Z</time>
      </trkpt>
      <trkpt lat="46.45064" lon="6.01656">
        <ele>1213.7</ele>
        <time>2019-08-01T07:19:33Z</time>
      </trkpt>
      <trkpt lat="46.4506" lon="6.01653">
        <ele>1216.8</ele>
        <time>2019-08-01T07:19:46Z</time>
      </trkpt>
      <trkpt lat="46.45055" lon="6.0165">
        <ele>1218.6</ele>
        <time>2019-08-01T07:19:55Z</time>
      </trkpt>
      <trkpt lat="46.45051" lon="6.01647">
        <ele>1219.5</ele>
        <time>2019-08-01T07:19:59Z</time>
      </trkpt>
      <trkpt lat="46.45045" lon="6.01641">
        <ele>1219.9</ele>
        <time>2019-08-01T07:20:01Z</time>
      </trkpt>
      <trkpt lat="46.4503" lon="6.01636">
        <ele>1222.4</ele>
        <time>2019-08-01T07:20:07Z</time>
      </trkpt>
      <trkpt lat="46.45025" lon="6.01636">
        <ele>1222.8</ele>
        <time>2019-08-01T07:20:09Z</time>
      </trkpt>
      <trkpt lat="46.45014" lon="6.01632">
        <ele>1225.6</ele>
        <time>2019-08-01T07:20:18Z</time>
      </trkpt>
      <trkpt lat="46.45007" lon="6.01631">
        <ele>1226.3</ele>
        <time>2019-08-01T07:20:22Z</time>
      </trkpt>
      <trkpt lat="46.45" lon="6.0163">
        <ele>1226.9</ele>
        <time>2019-08-01T07:20:25Z</time>
      </trkpt>
      <trkpt lat="46.44996" lon="6.01628">
        <ele>1227.6</ele>
        <time>2019-08-01T07:20:28Z</time>
      </trkpt>
      <trkpt lat="46.44991" lon="6.01628">
        <ele>1228.4</ele>
        <time>2019-08-01T07:20:31Z</time>
      </trkpt>
      <trkpt lat="46.44986" lon="6.01626">
        <ele>1229.5</ele>
        <time>2019-08-01T07:20:36Z</time>
      </trkpt>
      <trkpt lat="46.44981" lon="6.01625">
        <ele>1230.9</ele>
        <time>2019-08-01T07:20:42Z</time>
      </trkpt>
      <trkpt lat="46.44977" lon="6.01622">
        <ele>1232</ele>
        <time>2019-08-01T07:20:48Z</time>
      </trkpt>
      <trkpt lat="46.44974" lon="6.01617">
        <ele>1232.7</ele>
        <time>2019-08-01T07:20:52Z</time>
      </trkpt>
      <trkpt lat="46.4497" lon="6.01612">
        <ele>1233.1</ele>
        <time>2019-08-01T07:20:55Z</time>
      </trkpt>
      <trkpt lat="46.44965" lon="6.0161">
        <ele>1233.6</ele>
        <time>2019-08-01T07:20:59Z</time>
      </trkpt>
      <trkpt lat="46.44961" lon="6.01606">
        <ele>1234.4</ele>
        <time>2019-08-01T07:21:05Z</time>
      </trkpt>
      <trkpt lat="46.44956" lon="6.01603">
        <ele>1235.2</ele>
        <time>2019-08-01T07:21:09Z</time>
      </trkpt>
      <trkpt lat="46.44937" lon="6.01592">
        <ele>1242.4</ele>
        <time>2019-08-01T07:21:32Z</time>
      </trkpt>
      <trkpt lat="46.44931" lon="6.01588">
        <ele>1243.2</ele>
        <time>2019-08-01T07:21:39Z</time>
      </trkpt>
      <trkpt lat="46.44927" lon="6.01584">
        <ele>1243.6</ele>
        <time>2019-08-01T07:21:41Z</time>
      </trkpt>
      <trkpt lat="46.44923" lon="6.0158">
        <ele>1244.1</ele>
        <time>2019-08-01T07:21:44Z</time>
      </trkpt>
      <trkpt lat="46.44911" lon="6.01569">
        <ele>1246.7</ele>
        <time>2019-08-01T07:21:55Z</time>
      </trkpt>
      <trkpt lat="46.44906" lon="6.01566">
        <ele>1247.5</ele>
        <time>2019-08-01T07:22:01Z</time>
      </trkpt>
      <trkpt lat="46.44903" lon="6.0156">
        <ele>1249.1</ele>
        <time>2019-08-01T07:22:10Z</time>
      </trkpt>
      <trkpt lat="46.449" lon="6.01552">
        <ele>1251</ele>
        <time>2019-08-01T07:22:18Z</time>
      </trkpt>
      <trkpt lat="46.44898" lon="6.01545">
        <ele>1251.7</ele>
        <time>2019-08-01T07:22:21Z</time>
      </trkpt>
      <trkpt lat="46.44895" lon="6.01538">
        <ele>1252.7</ele>
        <time>2019-08-01T07:22:25Z</time>
      </trkpt>
      <trkpt lat="46.44892" lon="6.01532">
        <ele>1254.3</ele>
        <time>2019-08-01T07:22:31Z</time>
      </trkpt>
      <trkpt lat="46.44883" lon="6.01525">
        <ele>1257.8</ele>
        <time>2019-08-01T07:22:45Z</time>
      </trkpt>
      <trkpt lat="46.44881" lon="6.01519">
        <ele>1258.9</ele>
        <time>2019-08-01T07:22:54Z</time>
      </trkpt>
      <trkpt lat="46.44879" lon="6.01514">
        <ele>1259.5</ele>
        <time>2019-08-01T07:23:00Z</time>
      </trkpt>
      <trkpt lat="46.44875" lon="6.01508">
        <ele>1259.3</ele>
        <time>2019-08-01T07:23:07Z</time>
      </trkpt>
      <trkpt lat="46.44871" lon="6.01502">
        <ele>1259.1</ele>
        <time>2019-08-01T07:23:14Z</time>
      </trkpt>
      <trkpt lat="46.44868" lon="6.01497">
        <ele>1259</ele>
        <time>2019-08-01T07:23:21Z</time>
      </trkpt>
      <trkpt lat="46.44864" lon="6.01493">
        <ele>1258.9</ele>
        <time>2019-08-01T07:23:25Z</time>
      </trkpt>
      <trkpt lat="46.44861" lon="6.01489">
        <ele>1259</ele>
        <time>2019-08-01T07:23:33Z</time>
      </trkpt>
      <trkpt lat="46.44857" lon="6.01484">
        <ele>1259.3</ele>
        <time>2019-08-01T07:23:38Z</time>
      </trkpt>
      <trkpt lat="46.44853" lon="6.01479">
        <ele>1259.7</ele>
        <time>2019-08-01T07:23:45Z</time>
      </trkpt>
      <trkpt lat="46.44849" lon="6.01475">
        <ele>1260.2</ele>
        <time>2019-08-01T07:23:51Z</time>
      </trkpt>
      <trkpt lat="46.44845" lon="6.01471">
        <ele>1260.7</ele>
        <time>2019-08-01T07:23:58Z</time>
      </trkpt>
      <trkpt lat="46.44843" lon="6.01464">
        <ele>1260.8</ele>
        <time>2019-08-01T07:24:03Z</time>
      </trkpt>
      <trkpt lat="46.44841" lon="6.01458">
        <ele>1260.5</ele>
        <time>2019-08-01T07:24:08Z</time>
      </trkpt>
      <trkpt lat="46.44838" lon="6.01451">
        <ele>1260.1</ele>
        <time>2019-08-01T07:24:14Z</time>
      </trkpt>
      <trkpt lat="46.44836" lon="6.01446">
        <ele>1259.7</ele>
        <time>2019-08-01T07:24:19Z</time>
      </trkpt>
      <trkpt lat="46.44832" lon="6.01439">
        <ele>1259.2</ele>
        <time>2019-08-01T07:24:25Z</time>
      </trkpt>
      <trkpt lat="46.44829" lon="6.01434">
        <ele>1258.8</ele>
        <time>2019-08-01T07:24:30Z</time>
      </trkpt>
      <trkpt lat="46.44825" lon="6.01429">
        <ele>1258.7</ele>
        <time>2019-08-01T07:24:32Z</time>
      </trkpt>
      <trkpt lat="46.4482" lon="6.01424">
        <ele>1258.8</ele>
        <time>2019-08-01T07:24:36Z</time>
      </trkpt>
      <trkpt lat="46.44817" lon="6.0142">
        <ele>1259.4</ele>
        <time>2019-08-01T07:24:43Z</time>
      </trkpt>
      <trkpt lat="46.44814" lon="6.01415">
        <ele>1260</ele>
        <time>2019-08-01T07:24:48Z</time>
      </trkpt>
      <trkpt lat="46.4481" lon="6.01409">
        <ele>1260.8</ele>
        <time>2019-08-01T07:24:53Z</time>
      </trkpt>
      <trkpt lat="46.44806" lon="6.01403">
        <ele>1261.3</ele>
        <time>2019-08-01T07:24:58Z</time>
      </trkpt>
      <trkpt lat="46.44804" lon="6.01398">
        <ele>1261.4</ele>
        <time>2019-08-01T07:25:03Z</time>
      </trkpt>
      <trkpt lat="46.44802" lon="6.01391">
        <ele>1261.4</ele>
        <time>2019-08-01T07:25:07Z</time>
      </trkpt>
      <trkpt lat="46.448" lon="6.01385">
        <ele>1261.5</ele>
        <time>2019-08-01T07:25:12Z</time>
      </trkpt>
      <trkpt lat="46.44797" lon="6.01379">
        <ele>1261.5</ele>
        <time>2019-08-01T07:25:18Z</time>
      </trkpt>
      <trkpt lat="46.44793" lon="6.01374">
        <ele>1261.3</ele>
        <time>2019-08-01T07:25:26Z</time>
      </trkpt>
      <trkpt lat="46.44788" lon="6.01371">
        <ele>1261.1</ele>
        <time>2019-08-01T07:25:31Z</time>
      </trkpt>
      <trkpt lat="46.44784" lon="6.01366">
        <ele>1261.2</ele>
        <time>2019-08-01T07:25:36Z</time>
      </trkpt>
      <trkpt lat="46.44781" lon="6.01362">
        <ele>1261.5</ele>
        <time>2019-08-01T07:25:41Z</time>
      </trkpt>
      <trkpt lat="46.44777" lon="6.01357">
        <ele>1262.3</ele>
        <time>2019-08-01T07:25:46Z</time>
      </trkpt>
      <trkpt lat="46.44772" lon="6.01353">
        <ele>1263</ele>
        <time>2019-08-01T07:25:50Z</time>
      </trkpt>
      <trkpt lat="46.44767" lon="6.0135">
        <ele>1264.4</ele>
        <time>2019-08-01T07:25:56Z</time>
      </trkpt>
      <trkpt lat="46.44765" lon="6.01343">
        <ele>1265.5</ele>
        <time>2019-08-01T07:26:01Z</time>
      </trkpt>
      <trkpt lat="46.44762" lon="6.01338">
        <ele>1266.8</ele>
        <time>2019-08-01T07:26:07Z</time>
      </trkpt>
      <trkpt lat="46.4476" lon="6.01332">
        <ele>1268.1</ele>
        <time>2019-08-01T07:26:14Z</time>
      </trkpt>
      <trkpt lat="46.44756" lon="6.01326">
        <ele>1269.7</ele>
        <time>2019-08-01T07:26:21Z</time>
      </trkpt>
      <trkpt lat="46.44751" lon="6.01322">
        <ele>1270.5</ele>
        <time>2019-08-01T07:26:25Z</time>
      </trkpt>
      <trkpt lat="46.44747" lon="6.01318">
        <ele>1271.5</ele>
        <time>2019-08-01T07:26:30Z</time>
      </trkpt>
      <trkpt lat="46.44743" lon="6.01313">
        <ele>1272.6</ele>
        <time>2019-08-01T07:26:37Z</time>
      </trkpt>
      <trkpt lat="46.4474" lon="6.01308">
        <ele>1273.3</ele>
        <time>2019-08-01T07:26:42Z</time>
      </trkpt>
      <trkpt lat="46.44736" lon="6.01297">
        <ele>1274.7</ele>
        <time>2019-08-01T07:26:53Z</time>
      </trkpt>
      <trkpt lat="46.44734" lon="6.01291">
        <ele>1274.2</ele>
        <time>2019-08-01T07:27:02Z</time>
      </trkpt>
      <trkpt lat="46.44729" lon="6.01285">
        <ele>1274</ele>
        <time>2019-08-01T07:27:07Z</time>
      </trkpt>
      <trkpt lat="46.44726" lon="6.0128">
        <ele>1273.9</ele>
        <time>2019-08-01T07:27:10Z</time>
      </trkpt>
      <trkpt lat="46.44723" lon="6.01275">
        <ele>1273.7</ele>
        <time>2019-08-01T07:27:17Z</time>
      </trkpt>
      <trkpt lat="46.44716" lon="6.0127">
        <ele>1273.5</ele>
        <time>2019-08-01T07:27:21Z</time>
      </trkpt>
      <trkpt lat="46.44713" lon="6.01265">
        <ele>1273.5</ele>
        <time>2019-08-01T07:27:24Z</time>
      </trkpt>
      <trkpt lat="46.4471" lon="6.01259">
        <ele>1273.5</ele>
        <time>2019-08-01T07:27:27Z</time>
      </trkpt>
      <trkpt lat="46.44707" lon="6.01254">
        <ele>1273.7</ele>
        <time>2019-08-01T07:27:33Z</time>
      </trkpt>
      <trkpt lat="46.44704" lon="6.01249">
        <ele>1273.9</ele>
        <time>2019-08-01T07:27:42Z</time>
      </trkpt>
      <trkpt lat="46.44702" lon="6.01243">
        <ele>1274.8</ele>
        <time>2019-08-01T07:28:21Z</time>
      </trkpt>
      <trkpt lat="46.44705" lon="6.01238">
        <ele>1274.6</ele>
        <time>2019-08-01T07:28:24Z</time>
      </trkpt>
      <trkpt lat="46.44706" lon="6.01231">
        <ele>1274.1</ele>
        <time>2019-08-01T07:28:29Z</time>
      </trkpt>
      <trkpt lat="46.44709" lon="6.01226">
        <ele>1273.5</ele>
        <time>2019-08-01T07:28:36Z</time>
      </trkpt>
      <trkpt lat="46.44712" lon="6.0122">
        <ele>1273.4</ele>
        <time>2019-08-01T07:28:42Z</time>
      </trkpt>
      <trkpt lat="46.44715" lon="6.01216">
        <ele>1273.5</ele>
        <time>2019-08-01T07:28:47Z</time>
      </trkpt>
      <trkpt lat="46.44719" lon="6.01207">
        <ele>1273.6</ele>
        <time>2019-08-01T07:28:51Z</time>
      </trkpt>
      <trkpt lat="46.44721" lon="6.012">
        <ele>1273.7</ele>
        <time>2019-08-01T07:28:55Z</time>
      </trkpt>
      <trkpt lat="46.44723" lon="6.01193">
        <ele>1273.6</ele>
        <time>2019-08-01T07:29:02Z</time>
      </trkpt>
      <trkpt lat="46.44725" lon="6.01187">
        <ele>1273.3</ele>
        <time>2019-08-01T07:29:11Z</time>
      </trkpt>
      <trkpt lat="46.44726" lon="6.0118">
        <ele>1272.8</ele>
        <time>2019-08-01T07:29:19Z</time>
      </trkpt>
      <trkpt lat="46.44727" lon="6.01173">
        <ele>1272.7</ele>
        <time>2019-08-01T07:29:22Z</time>
      </trkpt>
      <trkpt lat="46.44728" lon="6.01164">
        <ele>1272.6</ele>
        <time>2019-08-01T07:29:26Z</time>
      </trkpt>
      <trkpt lat="46.44728" lon="6.01157">
        <ele>1272.6</ele>
        <time>2019-08-01T07:29:29Z</time>
      </trkpt>
      <trkpt lat="46.44728" lon="6.01151">
        <ele>1272.6</ele>
        <time>2019-08-01T07:29:34Z</time>
      </trkpt>
      <trkpt lat="46.44728" lon="6.01143">
        <ele>1272.8</ele>
        <time>2019-08-01T07:29:39Z</time>
      </trkpt>
      <trkpt lat="46.44728" lon="6.01137">
        <ele>1273.2</ele>
        <time>2019-08-01T07:29:45Z</time>
      </trkpt>
      <trkpt lat="46.44729" lon="6.0113">
        <ele>1273.9</ele>
        <time>2019-08-01T07:29:51Z</time>
      </trkpt>
      <trkpt lat="46.44728" lon="6.0112">
        <ele>1274.4</ele>
        <time>2019-08-01T07:29:57Z</time>
      </trkpt>
      <trkpt lat="46.44727" lon="6.01113">
        <ele>1274.5</ele>
        <time>2019-08-01T07:30:00Z</time>
      </trkpt>
      <trkpt lat="46.44729" lon="6.01106">
        <ele>1274.5</ele>
        <time>2019-08-01T07:30:04Z</time>
      </trkpt>
      <trkpt lat="46.4473" lon="6.0109">
        <ele>1274.5</ele>
        <time>2019-08-01T07:30:15Z</time>
      </trkpt>
      <trkpt lat="46.44732" lon="6.01083">
        <ele>1274.7</ele>
        <time>2019-08-01T07:30:21Z</time>
      </trkpt>
      <trkpt lat="46.44736" lon="6.01077">
        <ele>1274.9</ele>
        <time>2019-08-01T07:30:26Z</time>
      </trkpt>
      <trkpt lat="46.44739" lon="6.01071">
        <ele>1274.8</ele>
        <time>2019-08-01T07:30:31Z</time>
      </trkpt>
      <trkpt lat="46.44742" lon="6.01058">
        <ele>1274.1</ele>
        <time>2019-08-01T07:30:42Z</time>
      </trkpt>
      <trkpt lat="46.44745" lon="6.01053">
        <ele>1273.6</ele>
        <time>2019-08-01T07:30:50Z</time>
      </trkpt>
      <trkpt lat="46.44748" lon="6.01047">
        <ele>1273.6</ele>
        <time>2019-08-01T07:30:54Z</time>
      </trkpt>
      <trkpt lat="46.4475" lon="6.01041">
        <ele>1273.6</ele>
        <time>2019-08-01T07:30:58Z</time>
      </trkpt>
      <trkpt lat="46.44753" lon="6.01035">
        <ele>1273.6</ele>
        <time>2019-08-01T07:31:03Z</time>
      </trkpt>
      <trkpt lat="46.44755" lon="6.01028">
        <ele>1273.8</ele>
        <time>2019-08-01T07:31:09Z</time>
      </trkpt>
      <trkpt lat="46.44758" lon="6.01019">
        <ele>1274.2</ele>
        <time>2019-08-01T07:31:14Z</time>
      </trkpt>
      <trkpt lat="46.4476" lon="6.01013">
        <ele>1274.5</ele>
        <time>2019-08-01T07:31:18Z</time>
      </trkpt>
      <trkpt lat="46.44763" lon="6.01006">
        <ele>1274.9</ele>
        <time>2019-08-01T07:31:23Z</time>
      </trkpt>
      <trkpt lat="46.44766" lon="6.01">
        <ele>1275.3</ele>
        <time>2019-08-01T07:31:28Z</time>
      </trkpt>
      <trkpt lat="46.44767" lon="6.00993">
        <ele>1275.5</ele>
        <time>2019-08-01T07:31:33Z</time>
      </trkpt>
      <trkpt lat="46.44769" lon="6.00987">
        <ele>1275.7</ele>
        <time>2019-08-01T07:31:39Z</time>
      </trkpt>
      <trkpt lat="46.44771" lon="6.00979">
        <ele>1275.8</ele>
        <time>2019-08-01T07:31:44Z</time>
      </trkpt>
      <trkpt lat="46.44772" lon="6.00972">
        <ele>1275.8</ele>
        <time>2019-08-01T07:31:48Z</time>
      </trkpt>
      <trkpt lat="46.44773" lon="6.00965">
        <ele>1276</ele>
        <time>2019-08-01T07:31:54Z</time>
      </trkpt>
      <trkpt lat="46.44773" lon="6.00958">
        <ele>1276.2</ele>
        <time>2019-08-01T07:31:57Z</time>
      </trkpt>
      <trkpt lat="46.44773" lon="6.0095">
        <ele>1276.5</ele>
        <time>2019-08-01T07:32:01Z</time>
      </trkpt>
      <trkpt lat="46.44773" lon="6.00943">
        <ele>1277.1</ele>
        <time>2019-08-01T07:32:08Z</time>
      </trkpt>
      <trkpt lat="46.44773" lon="6.00934">
        <ele>1277.7</ele>
        <time>2019-08-01T07:32:14Z</time>
      </trkpt>
      <trkpt lat="46.44773" lon="6.00927">
        <ele>1278</ele>
        <time>2019-08-01T07:32:18Z</time>
      </trkpt>
      <trkpt lat="46.44774" lon="6.0092">
        <ele>1278.4</ele>
        <time>2019-08-01T07:32:23Z</time>
      </trkpt>
      <trkpt lat="46.44772" lon="6.00904">
        <ele>1279.7</ele>
        <time>2019-08-01T07:32:39Z</time>
      </trkpt>
      <trkpt lat="46.44772" lon="6.00897">
        <ele>1280</ele>
        <time>2019-08-01T07:32:42Z</time>
      </trkpt>
      <trkpt lat="46.44772" lon="6.00888">
        <ele>1280.1</ele>
        <time>2019-08-01T07:32:46Z</time>
      </trkpt>
      <trkpt lat="46.44773" lon="6.00878">
        <ele>1280.1</ele>
        <time>2019-08-01T07:32:49Z</time>
      </trkpt>
      <trkpt lat="46.44774" lon="6.00871">
        <ele>1280</ele>
        <time>2019-08-01T07:32:52Z</time>
      </trkpt>
      <trkpt lat="46.44775" lon="6.00864">
        <ele>1279.9</ele>
        <time>2019-08-01T07:32:57Z</time>
      </trkpt>
      <trkpt lat="46.44774" lon="6.00857">
        <ele>1279.9</ele>
        <time>2019-08-01T07:33:01Z</time>
      </trkpt>
      <trkpt lat="46.44773" lon="6.00851">
        <ele>1279.9</ele>
        <time>2019-08-01T07:33:05Z</time>
      </trkpt>
      <trkpt lat="46.44776" lon="6.00838">
        <ele>1279.4</ele>
        <time>2019-08-01T07:33:16Z</time>
      </trkpt>
      <trkpt lat="46.44776" lon="6.00831">
        <ele>1279.3</ele>
        <time>2019-08-01T07:33:21Z</time>
      </trkpt>
      <trkpt lat="46.44776" lon="6.00824">
        <ele>1278.9</ele>
        <time>2019-08-01T07:33:26Z</time>
      </trkpt>
      <trkpt lat="46.44776" lon="6.00817">
        <ele>1278.8</ele>
        <time>2019-08-01T07:33:29Z</time>
      </trkpt>
      <trkpt lat="46.44779" lon="6.00812">
        <ele>1278.8</ele>
        <time>2019-08-01T07:33:34Z</time>
      </trkpt>
      <trkpt lat="46.44782" lon="6.00804">
        <ele>1278.9</ele>
        <time>2019-08-01T07:33:38Z</time>
      </trkpt>
      <trkpt lat="46.44786" lon="6.00799">
        <ele>1279.4</ele>
        <time>2019-08-01T07:33:43Z</time>
      </trkpt>
      <trkpt lat="46.44788" lon="6.00793">
        <ele>1280.1</ele>
        <time>2019-08-01T07:33:49Z</time>
      </trkpt>
      <trkpt lat="46.44792" lon="6.0079">
        <ele>1280.7</ele>
        <time>2019-08-01T07:34:04Z</time>
      </trkpt>
      <trkpt lat="46.44795" lon="6.00783">
        <ele>1280.9</ele>
        <time>2019-08-01T07:34:13Z</time>
      </trkpt>
      <trkpt lat="46.44796" lon="6.00775">
        <ele>1280.9</ele>
        <time>2019-08-01T07:34:18Z</time>
      </trkpt>
      <trkpt lat="46.44797" lon="6.00768">
        <ele>1281</ele>
        <time>2019-08-01T07:34:23Z</time>
      </trkpt>
      <trkpt lat="46.44798" lon="6.00761">
        <ele>1281</ele>
        <time>2019-08-01T07:34:28Z</time>
      </trkpt>
      <trkpt lat="46.44798" lon="6.00753">
        <ele>1281</ele>
        <time>2019-08-01T07:34:33Z</time>
      </trkpt>
      <trkpt lat="46.44798" lon="6.00746">
        <ele>1281.4</ele>
        <time>2019-08-01T07:34:39Z</time>
      </trkpt>
      <trkpt lat="46.44795" lon="6.0074">
        <ele>1282</ele>
        <time>2019-08-01T07:34:44Z</time>
      </trkpt>
      <trkpt lat="46.44797" lon="6.00719">
        <ele>1284.8</ele>
        <time>2019-08-01T07:40:09Z</time>
      </trkpt>
      <trkpt lat="46.448" lon="6.00713">
        <ele>1284.9</ele>
        <time>2019-08-01T07:40:13Z</time>
      </trkpt>
      <trkpt lat="46.44801" lon="6.00706">
        <ele>1284.7</ele>
        <time>2019-08-01T07:40:20Z</time>
      </trkpt>
      <trkpt lat="46.44801" lon="6.00699">
        <ele>1283.6</ele>
        <time>2019-08-01T07:40:27Z</time>
      </trkpt>
      <trkpt lat="46.44802" lon="6.00693">
        <ele>1281.3</ele>
        <time>2019-08-01T07:40:39Z</time>
      </trkpt>
      <trkpt lat="46.44805" lon="6.00686">
        <ele>1280</ele>
        <time>2019-08-01T07:40:46Z</time>
      </trkpt>
      <trkpt lat="46.44807" lon="6.0068">
        <ele>1279.7</ele>
        <time>2019-08-01T07:40:48Z</time>
      </trkpt>
      <trkpt lat="46.44809" lon="6.00673">
        <ele>1279.2</ele>
        <time>2019-08-01T07:40:52Z</time>
      </trkpt>
      <trkpt lat="46.44812" lon="6.00667">
        <ele>1278.7</ele>
        <time>2019-08-01T07:40:57Z</time>
      </trkpt>
      <trkpt lat="46.44817" lon="6.00664">
        <ele>1278.3</ele>
        <time>2019-08-01T07:41:03Z</time>
      </trkpt>
      <trkpt lat="46.4482" lon="6.0066">
        <ele>1278.4</ele>
        <time>2019-08-01T07:41:06Z</time>
      </trkpt>
      <trkpt lat="46.44824" lon="6.00656">
        <ele>1278.9</ele>
        <time>2019-08-01T07:41:10Z</time>
      </trkpt>
      <trkpt lat="46.44826" lon="6.00649">
        <ele>1279.4</ele>
        <time>2019-08-01T07:41:12Z</time>
      </trkpt>
      <trkpt lat="46.44828" lon="6.00642">
        <ele>1280</ele>
        <time>2019-08-01T07:41:14Z</time>
      </trkpt>
      <trkpt lat="46.4483" lon="6.00636">
        <ele>1282</ele>
        <time>2019-08-01T07:41:21Z</time>
      </trkpt>
      <trkpt lat="46.44833" lon="6.00631">
        <ele>1283.3</ele>
        <time>2019-08-01T07:41:28Z</time>
      </trkpt>
      <trkpt lat="46.44835" lon="6.00625">
        <ele>1283.5</ele>
        <time>2019-08-01T07:41:34Z</time>
      </trkpt>
      <trkpt lat="46.44837" lon="6.00618">
        <ele>1283.2</ele>
        <time>2019-08-01T07:41:43Z</time>
      </trkpt>
      <trkpt lat="46.44838" lon="6.0061">
        <ele>1283</ele>
        <time>2019-08-01T07:41:46Z</time>
      </trkpt>
      <trkpt lat="46.44839" lon="6.00602">
        <ele>1283</ele>
        <time>2019-08-01T07:41:51Z</time>
      </trkpt>
      <trkpt lat="46.44839" lon="6.00595">
        <ele>1283.2</ele>
        <time>2019-08-01T07:41:55Z</time>
      </trkpt>
      <trkpt lat="46.44838" lon="6.00588">
        <ele>1283.8</ele>
        <time>2019-08-01T07:42:01Z</time>
      </trkpt>
      <trkpt lat="46.44839" lon="6.00581">
        <ele>1284.2</ele>
        <time>2019-08-01T07:42:07Z</time>
      </trkpt>
      <trkpt lat="46.4484" lon="6.00573">
        <ele>1284.3</ele>
        <time>2019-08-01T07:42:12Z</time>
      </trkpt>
      <trkpt lat="46.44841" lon="6.00565">
        <ele>1284.4</ele>
        <time>2019-08-01T07:42:17Z</time>
      </trkpt>
      <trkpt lat="46.44843" lon="6.00557">
        <ele>1284.5</ele>
        <time>2019-08-01T07:42:22Z</time>
      </trkpt>
      <trkpt lat="46.44843" lon="6.00548">
        <ele>1284.4</ele>
        <time>2019-08-01T07:42:24Z</time>
      </trkpt>
      <trkpt lat="46.44842" lon="6.00541">
        <ele>1284.4</ele>
        <time>2019-08-01T07:42:26Z</time>
      </trkpt>
      <trkpt lat="46.44842" lon="6.00533">
        <ele>1284.5</ele>
        <time>2019-08-01T07:42:31Z</time>
      </trkpt>
      <trkpt lat="46.44842" lon="6.00526">
        <ele>1285</ele>
        <time>2019-08-01T07:42:39Z</time>
      </trkpt>
      <trkpt lat="46.4484" lon="6.00519">
        <ele>1285.1</ele>
        <time>2019-08-01T07:42:43Z</time>
      </trkpt>
      <trkpt lat="46.4484" lon="6.00512">
        <ele>1285.3</ele>
        <time>2019-08-01T07:42:48Z</time>
      </trkpt>
      <trkpt lat="46.44841" lon="6.00504">
        <ele>1285.1</ele>
        <time>2019-08-01T07:42:53Z</time>
      </trkpt>
      <trkpt lat="46.4484" lon="6.00497">
        <ele>1284.7</ele>
        <time>2019-08-01T07:42:57Z</time>
      </trkpt>
      <trkpt lat="46.4484" lon="6.0049">
        <ele>1284.4</ele>
        <time>2019-08-01T07:43:01Z</time>
      </trkpt>
      <trkpt lat="46.44838" lon="6.00483">
        <ele>1284</ele>
        <time>2019-08-01T07:43:05Z</time>
      </trkpt>
      <trkpt lat="46.44837" lon="6.00476">
        <ele>1283.6</ele>
        <time>2019-08-01T07:43:10Z</time>
      </trkpt>
      <trkpt lat="46.44833" lon="6.00462">
        <ele>1282.7</ele>
        <time>2019-08-01T07:43:23Z</time>
      </trkpt>
      <trkpt lat="46.44835" lon="6.00444">
        <ele>1285</ele>
        <time>2019-08-01T07:43:41Z</time>
      </trkpt>
      <trkpt lat="46.44837" lon="6.00438">
        <ele>1285.8</ele>
        <time>2019-08-01T07:43:47Z</time>
      </trkpt>
      <trkpt lat="46.44839" lon="6.0043">
        <ele>1286.1</ele>
        <time>2019-08-01T07:43:50Z</time>
      </trkpt>
      <trkpt lat="46.4484" lon="6.00423">
        <ele>1286.3</ele>
        <time>2019-08-01T07:43:53Z</time>
      </trkpt>
      <trkpt lat="46.4484" lon="6.00416">
        <ele>1286.6</ele>
        <time>2019-08-01T07:44:00Z</time>
      </trkpt>
      <trkpt lat="46.44841" lon="6.00403">
        <ele>1286.6</ele>
        <time>2019-08-01T07:44:09Z</time>
      </trkpt>
      <trkpt lat="46.4484" lon="6.00395">
        <ele>1286.6</ele>
        <time>2019-08-01T07:44:13Z</time>
      </trkpt>
      <trkpt lat="46.44839" lon="6.00385">
        <ele>1286.8</ele>
        <time>2019-08-01T07:44:18Z</time>
      </trkpt>
      <trkpt lat="46.44838" lon="6.00375">
        <ele>1286.9</ele>
        <time>2019-08-01T07:44:20Z</time>
      </trkpt>
      <trkpt lat="46.44836" lon="6.00367">
        <ele>1286.9</ele>
        <time>2019-08-01T07:44:23Z</time>
      </trkpt>
      <trkpt lat="46.44829" lon="6.00358">
        <ele>1285.4</ele>
        <time>2019-08-01T07:45:10Z</time>
      </trkpt>
      <trkpt lat="46.4483" lon="6.0035">
        <ele>1284.9</ele>
        <time>2019-08-01T07:45:13Z</time>
      </trkpt>
      <trkpt lat="46.44831" lon="6.00343">
        <ele>1284.2</ele>
        <time>2019-08-01T07:45:17Z</time>
      </trkpt>
      <trkpt lat="46.44833" lon="6.00335">
        <ele>1283.8</ele>
        <time>2019-08-01T07:45:20Z</time>
      </trkpt>
      <trkpt lat="46.44835" lon="6.00329">
        <ele>1283.2</ele>
        <time>2019-08-01T07:45:26Z</time>
      </trkpt>
      <trkpt lat="46.44838" lon="6.00323">
        <ele>1283</ele>
        <time>2019-08-01T07:45:31Z</time>
      </trkpt>
      <trkpt lat="46.44841" lon="6.00317">
        <ele>1283</ele>
        <time>2019-08-01T07:45:33Z</time>
      </trkpt>
      <trkpt lat="46.44843" lon="6.00311">
        <ele>1283.1</ele>
        <time>2019-08-01T07:45:38Z</time>
      </trkpt>
      <trkpt lat="46.44846" lon="6.00307">
        <ele>1283.9</ele>
        <time>2019-08-01T07:45:46Z</time>
      </trkpt>
      <trkpt lat="46.44845" lon="6.003">
        <ele>1285</ele>
        <time>2019-08-01T07:45:55Z</time>
      </trkpt>
      <trkpt lat="46.44844" lon="6.00293">
        <ele>1286</ele>
        <time>2019-08-01T07:46:04Z</time>
      </trkpt>
      <trkpt lat="46.44842" lon="6.00286">
        <ele>1287.6</ele>
        <time>2019-08-01T07:46:13Z</time>
      </trkpt>
      <trkpt lat="46.44841" lon="6.00278">
        <ele>1289.5</ele>
        <time>2019-08-01T07:46:21Z</time>
      </trkpt>
      <trkpt lat="46.44842" lon="6.00272">
        <ele>1289.9</ele>
        <time>2019-08-01T07:46:25Z</time>
      </trkpt>
      <trkpt lat="46.44843" lon="6.00265">
        <ele>1290</ele>
        <time>2019-08-01T07:46:29Z</time>
      </trkpt>
      <trkpt lat="46.44843" lon="6.00257">
        <ele>1289.8</ele>
        <time>2019-08-01T07:46:33Z</time>
      </trkpt>
      <trkpt lat="46.44845" lon="6.0025">
        <ele>1289.3</ele>
        <time>2019-08-01T07:46:38Z</time>
      </trkpt>
      <trkpt lat="46.44848" lon="6.00244">
        <ele>1288.7</ele>
        <time>2019-08-01T07:46:45Z</time>
      </trkpt>
      <trkpt lat="46.44849" lon="6.00237">
        <ele>1285.4</ele>
        <time>2019-08-01T07:47:08Z</time>
      </trkpt>
      <trkpt lat="46.44851" lon="6.00229">
        <ele>1284.6</ele>
        <time>2019-08-01T07:47:13Z</time>
      </trkpt>
      <trkpt lat="46.44852" lon="6.00222">
        <ele>1284</ele>
        <time>2019-08-01T07:47:18Z</time>
      </trkpt>
      <trkpt lat="46.44854" lon="6.00215">
        <ele>1283.6</ele>
        <time>2019-08-01T07:47:22Z</time>
      </trkpt>
      <trkpt lat="46.44855" lon="6.00208">
        <ele>1283</ele>
        <time>2019-08-01T07:47:27Z</time>
      </trkpt>
      <trkpt lat="46.44856" lon="6.00201">
        <ele>1282.8</ele>
        <time>2019-08-01T07:47:30Z</time>
      </trkpt>
      <trkpt lat="46.44858" lon="6.00195">
        <ele>1282.7</ele>
        <time>2019-08-01T07:47:34Z</time>
      </trkpt>
      <trkpt lat="46.44859" lon="6.00188">
        <ele>1282.9</ele>
        <time>2019-08-01T07:47:39Z</time>
      </trkpt>
      <trkpt lat="46.44863" lon="6.00183">
        <ele>1283.1</ele>
        <time>2019-08-01T07:47:44Z</time>
      </trkpt>
      <trkpt lat="46.44865" lon="6.00176">
        <ele>1283.3</ele>
        <time>2019-08-01T07:47:49Z</time>
      </trkpt>
      <trkpt lat="46.44867" lon="6.00168">
        <ele>1283.5</ele>
        <time>2019-08-01T07:47:53Z</time>
      </trkpt>
      <trkpt lat="46.44869" lon="6.00162">
        <ele>1283.5</ele>
        <time>2019-08-01T07:47:58Z</time>
      </trkpt>
      <trkpt lat="46.4487" lon="6.00155">
        <ele>1283.5</ele>
        <time>2019-08-01T07:48:01Z</time>
      </trkpt>
      <trkpt lat="46.44871" lon="6.00147">
        <ele>1283.5</ele>
        <time>2019-08-01T07:48:05Z</time>
      </trkpt>
      <trkpt lat="46.44873" lon="6.0014">
        <ele>1283.5</ele>
        <time>2019-08-01T07:48:09Z</time>
      </trkpt>
      <trkpt lat="46.44874" lon="6.00133">
        <ele>1283.7</ele>
        <time>2019-08-01T07:48:16Z</time>
      </trkpt>
      <trkpt lat="46.44875" lon="6.00126">
        <ele>1284</ele>
        <time>2019-08-01T07:48:20Z</time>
      </trkpt>
      <trkpt lat="46.44875" lon="6.00119">
        <ele>1284.4</ele>
        <time>2019-08-01T07:48:25Z</time>
      </trkpt>
      <trkpt lat="46.44872" lon="6.00112">
        <ele>1284.8</ele>
        <time>2019-08-01T07:48:30Z</time>
      </trkpt>
      <trkpt lat="46.44873" lon="6.00105">
        <ele>1285</ele>
        <time>2019-08-01T07:48:34Z</time>
      </trkpt>
      <trkpt lat="46.44875" lon="6.00097">
        <ele>1285.3</ele>
        <time>2019-08-01T07:48:44Z</time>
      </trkpt>
      <trkpt lat="46.44876" lon="6.00091">
        <ele>1285.4</ele>
        <time>2019-08-01T07:48:49Z</time>
      </trkpt>
      <trkpt lat="46.44879" lon="6.00083">
        <ele>1285.6</ele>
        <time>2019-08-01T07:48:54Z</time>
      </trkpt>
      <trkpt lat="46.44884" lon="6.00076">
        <ele>1285.6</ele>
        <time>2019-08-01T07:48:56Z</time>
      </trkpt>
      <trkpt lat="46.44887" lon="6.00072">
        <ele>1285.6</ele>
        <time>2019-08-01T07:48:59Z</time>
      </trkpt>
      <trkpt lat="46.4489" lon="6.00065">
        <ele>1285.5</ele>
        <time>2019-08-01T07:49:07Z</time>
      </trkpt>
      <trkpt lat="46.44892" lon="6.00059">
        <ele>1285.5</ele>
        <time>2019-08-01T07:49:16Z</time>
      </trkpt>
      <trkpt lat="46.44894" lon="6.00051">
        <ele>1285.4</ele>
        <time>2019-08-01T07:49:19Z</time>
      </trkpt>
      <trkpt lat="46.44894" lon="6.00043">
        <ele>1285.2</ele>
        <time>2019-08-01T07:49:23Z</time>
      </trkpt>
      <trkpt lat="46.44898" lon="6.00037">
        <ele>1285</ele>
        <time>2019-08-01T07:49:27Z</time>
      </trkpt>
      <trkpt lat="46.44901" lon="6.00032">
        <ele>1284.6</ele>
        <time>2019-08-01T07:49:31Z</time>
      </trkpt>
      <trkpt lat="46.44905" lon="6.00025">
        <ele>1284</ele>
        <time>2019-08-01T07:49:36Z</time>
      </trkpt>
      <trkpt lat="46.44907" lon="6.00019">
        <ele>1283.1</ele>
        <time>2019-08-01T07:49:41Z</time>
      </trkpt>
      <trkpt lat="46.44908" lon="6.00011">
        <ele>1282</ele>
        <time>2019-08-01T07:49:47Z</time>
      </trkpt>
      <trkpt lat="46.44912" lon="6.00007">
        <ele>1281.2</ele>
        <time>2019-08-01T07:49:52Z</time>
      </trkpt>
      <trkpt lat="46.44914" lon="6">
        <ele>1281</ele>
        <time>2019-08-01T07:49:58Z</time>
      </trkpt>
      <trkpt lat="46.44916" lon="5.99994">
        <ele>1281.2</ele>
        <time>2019-08-01T07:50:04Z</time>
      </trkpt>
      <trkpt lat="46.44918" lon="5.99988">
        <ele>1281.2</ele>
        <time>2019-08-01T07:50:07Z</time>
      </trkpt>
      <trkpt lat="46.44917" lon="5.99981">
        <ele>1281.3</ele>
        <time>2019-08-01T07:50:14Z</time>
      </trkpt>
      <trkpt lat="46.44917" lon="5.99974">
        <ele>1281.1</ele>
        <time>2019-08-01T07:50:20Z</time>
      </trkpt>
      <trkpt lat="46.44918" lon="5.99966">
        <ele>1280.5</ele>
        <time>2019-08-01T07:50:26Z</time>
      </trkpt>
      <trkpt lat="46.44919" lon="5.99959">
        <ele>1280.1</ele>
        <time>2019-08-01T07:50:31Z</time>
      </trkpt>
      <trkpt lat="46.4492" lon="5.99953">
        <ele>1279.9</ele>
        <time>2019-08-01T07:50:34Z</time>
      </trkpt>
      <trkpt lat="46.44921" lon="5.99946">
        <ele>1279.7</ele>
        <time>2019-08-01T07:50:38Z</time>
      </trkpt>
      <trkpt lat="46.44921" lon="5.99939">
        <ele>1279.5</ele>
        <time>2019-08-01T07:50:47Z</time>
      </trkpt>
      <trkpt lat="46.44922" lon="5.99933">
        <ele>1279.4</ele>
        <time>2019-08-01T07:50:53Z</time>
      </trkpt>
      <trkpt lat="46.44925" lon="5.99926">
        <ele>1279.4</ele>
        <time>2019-08-01T07:50:58Z</time>
      </trkpt>
      <trkpt lat="46.44928" lon="5.99921">
        <ele>1279.5</ele>
        <time>2019-08-01T07:51:03Z</time>
      </trkpt>
      <trkpt lat="46.44931" lon="5.99915">
        <ele>1279.4</ele>
        <time>2019-08-01T07:51:08Z</time>
      </trkpt>
      <trkpt lat="46.44933" lon="5.9991">
        <ele>1279.4</ele>
        <time>2019-08-01T07:51:14Z</time>
      </trkpt>
      <trkpt lat="46.44937" lon="5.99904">
        <ele>1279.4</ele>
        <time>2019-08-01T07:51:17Z</time>
      </trkpt>
      <trkpt lat="46.4494" lon="5.99897">
        <ele>1279.5</ele>
        <time>2019-08-01T07:51:22Z</time>
      </trkpt>
      <trkpt lat="46.44942" lon="5.99891">
        <ele>1279.6</ele>
        <time>2019-08-01T07:51:27Z</time>
      </trkpt>
      <trkpt lat="46.44944" lon="5.99885">
        <ele>1279.5</ele>
        <time>2019-08-01T07:51:33Z</time>
      </trkpt>
      <trkpt lat="46.44947" lon="5.9988">
        <ele>1279.5</ele>
        <time>2019-08-01T07:51:39Z</time>
      </trkpt>
      <trkpt lat="46.44951" lon="5.99875">
        <ele>1279.6</ele>
        <time>2019-08-01T07:51:46Z</time>
      </trkpt>
      <trkpt lat="46.44955" lon="5.99871">
        <ele>1280</ele>
        <time>2019-08-01T07:51:50Z</time>
      </trkpt>
      <trkpt lat="46.44958" lon="5.99865">
        <ele>1280.8</ele>
        <time>2019-08-01T07:51:55Z</time>
      </trkpt>
      <trkpt lat="46.44957" lon="5.99858">
        <ele>1281.8</ele>
        <time>2019-08-01T07:52:00Z</time>
      </trkpt>
      <trkpt lat="46.44962" lon="5.99852">
        <ele>1284.6</ele>
        <time>2019-08-01T07:52:11Z</time>
      </trkpt>
      <trkpt lat="46.44965" lon="5.99845">
        <ele>1285.3</ele>
        <time>2019-08-01T07:52:20Z</time>
      </trkpt>
      <trkpt lat="46.44967" lon="5.99839">
        <ele>1285.3</ele>
        <time>2019-08-01T07:52:27Z</time>
      </trkpt>
      <trkpt lat="46.44968" lon="5.99833">
        <ele>1285.2</ele>
        <time>2019-08-01T07:52:32Z</time>
      </trkpt>
      <trkpt lat="46.44969" lon="5.99826">
        <ele>1284.2</ele>
        <time>2019-08-01T07:52:43Z</time>
      </trkpt>
      <trkpt lat="46.44972" lon="5.99821">
        <ele>1283.6</ele>
        <time>2019-08-01T07:52:49Z</time>
      </trkpt>
      <trkpt lat="46.44975" lon="5.99814">
        <ele>1283.5</ele>
        <time>2019-08-01T07:53:00Z</time>
      </trkpt>
      <trkpt lat="46.44976" lon="5.99808">
        <ele>1284</ele>
        <time>2019-08-01T07:53:04Z</time>
      </trkpt>
      <trkpt lat="46.4498" lon="5.99801">
        <ele>1285.1</ele>
        <time>2019-08-01T07:53:10Z</time>
      </trkpt>
      <trkpt lat="46.44984" lon="5.99798">
        <ele>1285.8</ele>
        <time>2019-08-01T07:53:17Z</time>
      </trkpt>
      <trkpt lat="46.44987" lon="5.99794">
        <ele>1285.8</ele>
        <time>2019-08-01T07:53:22Z</time>
      </trkpt>
      <trkpt lat="46.44991" lon="5.99789">
        <ele>1285.1</ele>
        <time>2019-08-01T07:53:30Z</time>
      </trkpt>
      <trkpt lat="46.44995" lon="5.99786">
        <ele>1284.4</ele>
        <time>2019-08-01T07:53:36Z</time>
      </trkpt>
      <trkpt lat="46.45004" lon="5.99762">
        <ele>1282.4</ele>
        <time>2019-08-01T07:53:49Z</time>
      </trkpt>
      <trkpt lat="46.45006" lon="5.99757">
        <ele>1282.3</ele>
        <time>2019-08-01T07:53:52Z</time>
      </trkpt>
      <trkpt lat="46.4501" lon="5.99751">
        <ele>1282.4</ele>
        <time>2019-08-01T07:53:58Z</time>
      </trkpt>
      <trkpt lat="46.45011" lon="5.99744">
        <ele>1282.3</ele>
        <time>2019-08-01T07:54:02Z</time>
      </trkpt>
      <trkpt lat="46.45011" lon="5.99736">
        <ele>1282</ele>
        <time>2019-08-01T07:54:08Z</time>
      </trkpt>
      <trkpt lat="46.4501" lon="5.9973">
        <ele>1281.3</ele>
        <time>2019-08-01T07:54:14Z</time>
      </trkpt>
      <trkpt lat="46.45012" lon="5.99724">
        <ele>1280.2</ele>
        <time>2019-08-01T07:54:19Z</time>
      </trkpt>
      <trkpt lat="46.45014" lon="5.99718">
        <ele>1278.4</ele>
        <time>2019-08-01T07:54:25Z</time>
      </trkpt>
      <trkpt lat="46.45017" lon="5.99711">
        <ele>1276.8</ele>
        <time>2019-08-01T07:54:32Z</time>
      </trkpt>
      <trkpt lat="46.45018" lon="5.99705">
        <ele>1276.2</ele>
        <time>2019-08-01T07:54:35Z</time>
      </trkpt>
      <trkpt lat="46.45018" lon="5.99691">
        <ele>1275.3</ele>
        <time>2019-08-01T07:54:47Z</time>
      </trkpt>
      <trkpt lat="46.45017" lon="5.99682">
        <ele>1275.4</ele>
        <time>2019-08-01T07:54:51Z</time>
      </trkpt>
      <trkpt lat="46.45016" lon="5.99674">
        <ele>1275.4</ele>
        <time>2019-08-01T07:54:54Z</time>
      </trkpt>
      <trkpt lat="46.45016" lon="5.99666">
        <ele>1275.7</ele>
        <time>2019-08-01T07:55:04Z</time>
      </trkpt>
      <trkpt lat="46.45015" lon="5.9966">
        <ele>1275.9</ele>
        <time>2019-08-01T07:55:07Z</time>
      </trkpt>
      <trkpt lat="46.45013" lon="5.99653">
        <ele>1276.4</ele>
        <time>2019-08-01T07:55:12Z</time>
      </trkpt>
      <trkpt lat="46.45012" lon="5.99645">
        <ele>1277</ele>
        <time>2019-08-01T07:55:21Z</time>
      </trkpt>
      <trkpt lat="46.4501" lon="5.99639">
        <ele>1276</ele>
        <time>2019-08-01T07:55:29Z</time>
      </trkpt>
      <trkpt lat="46.4501" lon="5.99632">
        <ele>1274.4</ele>
        <time>2019-08-01T07:55:42Z</time>
      </trkpt>
      <trkpt lat="46.45007" lon="5.99628">
        <ele>1275.3</ele>
        <time>2019-08-01T07:56:01Z</time>
      </trkpt>
      <trkpt lat="46.45006" lon="5.99621">
        <ele>1275.3</ele>
        <time>2019-08-01T07:56:07Z</time>
      </trkpt>
      <trkpt lat="46.45002" lon="5.99616">
        <ele>1275.1</ele>
        <time>2019-08-01T07:56:14Z</time>
      </trkpt>
      <trkpt lat="46.44998" lon="5.99612">
        <ele>1274.8</ele>
        <time>2019-08-01T07:56:21Z</time>
      </trkpt>
      <trkpt lat="46.44995" lon="5.99606">
        <ele>1274.1</ele>
        <time>2019-08-01T07:56:27Z</time>
      </trkpt>
      <trkpt lat="46.44991" lon="5.99602">
        <ele>1273.4</ele>
        <time>2019-08-01T07:56:31Z</time>
      </trkpt>
      <trkpt lat="46.44987" lon="5.99598">
        <ele>1272.8</ele>
        <time>2019-08-01T07:56:35Z</time>
      </trkpt>
      <trkpt lat="46.44983" lon="5.99594">
        <ele>1272.4</ele>
        <time>2019-08-01T07:56:40Z</time>
      </trkpt>
      <trkpt lat="46.44979" lon="5.9959">
        <ele>1271.6</ele>
        <time>2019-08-01T07:56:46Z</time>
      </trkpt>
      <trkpt lat="46.44974" lon="5.99588">
        <ele>1270.7</ele>
        <time>2019-08-01T07:56:52Z</time>
      </trkpt>
      <trkpt lat="46.44969" lon="5.99585">
        <ele>1269.8</ele>
        <time>2019-08-01T07:56:59Z</time>
      </trkpt>
      <trkpt lat="46.44966" lon="5.99579">
        <ele>1269.2</ele>
        <time>2019-08-01T07:57:04Z</time>
      </trkpt>
      <trkpt lat="46.44963" lon="5.99574">
        <ele>1268.7</ele>
        <time>2019-08-01T07:57:09Z</time>
      </trkpt>
      <trkpt lat="46.44958" lon="5.99569">
        <ele>1268.4</ele>
        <time>2019-08-01T07:57:12Z</time>
      </trkpt>
      <trkpt lat="46.44954" lon="5.99566">
        <ele>1267.9</ele>
        <time>2019-08-01T07:57:16Z</time>
      </trkpt>
      <trkpt lat="46.44948" lon="5.99555">
        <ele>1266.7</ele>
        <time>2019-08-01T07:57:29Z</time>
      </trkpt>
      <trkpt lat="46.44944" lon="5.99549">
        <ele>1266.4</ele>
        <time>2019-08-01T07:57:33Z</time>
      </trkpt>
      <trkpt lat="46.44941" lon="5.99544">
        <ele>1266.3</ele>
        <time>2019-08-01T07:57:37Z</time>
      </trkpt>
      <trkpt lat="46.44936" lon="5.99539">
        <ele>1266.3</ele>
        <time>2019-08-01T07:57:40Z</time>
      </trkpt>
      <trkpt lat="46.44933" lon="5.99533">
        <ele>1266.4</ele>
        <time>2019-08-01T07:57:44Z</time>
      </trkpt>
      <trkpt lat="46.44928" lon="5.9953">
        <ele>1266</ele>
        <time>2019-08-01T07:57:51Z</time>
      </trkpt>
      <trkpt lat="46.44925" lon="5.99525">
        <ele>1265.7</ele>
        <time>2019-08-01T07:57:56Z</time>
      </trkpt>
      <trkpt lat="46.44921" lon="5.9952">
        <ele>1265.3</ele>
        <time>2019-08-01T07:58:02Z</time>
      </trkpt>
      <trkpt lat="46.44918" lon="5.99515">
        <ele>1264</ele>
        <time>2019-08-01T07:58:10Z</time>
      </trkpt>
      <trkpt lat="46.44916" lon="5.99509">
        <ele>1263.5</ele>
        <time>2019-08-01T07:58:14Z</time>
      </trkpt>
      <trkpt lat="46.44913" lon="5.99502">
        <ele>1263.1</ele>
        <time>2019-08-01T07:58:18Z</time>
      </trkpt>
      <trkpt lat="46.4491" lon="5.99496">
        <ele>1263</ele>
        <time>2019-08-01T07:58:21Z</time>
      </trkpt>
      <trkpt lat="46.44908" lon="5.99489">
        <ele>1263.2</ele>
        <time>2019-08-01T07:58:29Z</time>
      </trkpt>
      <trkpt lat="46.44905" lon="5.99476">
        <ele>1262.9</ele>
        <time>2019-08-01T07:58:41Z</time>
      </trkpt>
      <trkpt lat="46.44906" lon="5.99468">
        <ele>1262.2</ele>
        <time>2019-08-01T07:58:45Z</time>
      </trkpt>
      <trkpt lat="46.44906" lon="5.9946">
        <ele>1261.5</ele>
        <time>2019-08-01T07:58:49Z</time>
      </trkpt>
      <trkpt lat="46.44907" lon="5.99454">
        <ele>1260.1</ele>
        <time>2019-08-01T07:58:54Z</time>
      </trkpt>
      <trkpt lat="46.44909" lon="5.99448">
        <ele>1258.4</ele>
        <time>2019-08-01T07:58:59Z</time>
      </trkpt>
      <trkpt lat="46.4491" lon="5.99441">
        <ele>1256</ele>
        <time>2019-08-01T07:59:07Z</time>
      </trkpt>
      <trkpt lat="46.44912" lon="5.99434">
        <ele>1254.7</ele>
        <time>2019-08-01T07:59:11Z</time>
      </trkpt>
      <trkpt lat="46.44917" lon="5.99421">
        <ele>1250</ele>
        <time>2019-08-01T07:59:21Z</time>
      </trkpt>
      <trkpt lat="46.44919" lon="5.99414">
        <ele>1248.2</ele>
        <time>2019-08-01T07:59:31Z</time>
      </trkpt>
      <trkpt lat="46.44922" lon="5.99409">
        <ele>1247.2</ele>
        <time>2019-08-01T07:59:39Z</time>
      </trkpt>
      <trkpt lat="46.44927" lon="5.9939">
        <ele>1246.9</ele>
        <time>2019-08-01T07:59:52Z</time>
      </trkpt>
      <trkpt lat="46.44929" lon="5.99383">
        <ele>1246</ele>
        <time>2019-08-01T08:00:00Z</time>
      </trkpt>
      <trkpt lat="46.44931" lon="5.99376">
        <ele>1244.8</ele>
        <time>2019-08-01T08:00:05Z</time>
      </trkpt>
      <trkpt lat="46.44934" lon="5.99369">
        <ele>1244.2</ele>
        <time>2019-08-01T08:00:07Z</time>
      </trkpt>
      <trkpt lat="46.44935" lon="5.99363">
        <ele>1243.6</ele>
        <time>2019-08-01T08:00:09Z</time>
      </trkpt>
      <trkpt lat="46.44937" lon="5.99357">
        <ele>1242.6</ele>
        <time>2019-08-01T08:00:12Z</time>
      </trkpt>
      <trkpt lat="46.44938" lon="5.99349">
        <ele>1241.4</ele>
        <time>2019-08-01T08:00:16Z</time>
      </trkpt>
      <trkpt lat="46.44943" lon="5.99332">
        <ele>1237.7</ele>
        <time>2019-08-01T08:00:26Z</time>
      </trkpt>
      <trkpt lat="46.44946" lon="5.99326">
        <ele>1236.8</ele>
        <time>2019-08-01T08:00:34Z</time>
      </trkpt>
      <trkpt lat="46.44948" lon="5.99321">
        <ele>1236</ele>
        <time>2019-08-01T08:00:41Z</time>
      </trkpt>
      <trkpt lat="46.44951" lon="5.99315">
        <ele>1235.2</ele>
        <time>2019-08-01T08:00:48Z</time>
      </trkpt>
      <trkpt lat="46.44957" lon="5.99305">
        <ele>1232.5</ele>
        <time>2019-08-01T08:01:03Z</time>
      </trkpt>
      <trkpt lat="46.44958" lon="5.99291">
        <ele>1230.5</ele>
        <time>2019-08-01T08:01:14Z</time>
      </trkpt>
      <trkpt lat="46.44959" lon="5.99285">
        <ele>1230.1</ele>
        <time>2019-08-01T08:01:17Z</time>
      </trkpt>
      <trkpt lat="46.44962" lon="5.99279">
        <ele>1229.6</ele>
        <time>2019-08-01T08:01:26Z</time>
      </trkpt>
      <trkpt lat="46.44961" lon="5.99271">
        <ele>1229.3</ele>
        <time>2019-08-01T08:01:29Z</time>
      </trkpt>
      <trkpt lat="46.44962" lon="5.99262">
        <ele>1228.7</ele>
        <time>2019-08-01T08:01:35Z</time>
      </trkpt>
      <trkpt lat="46.44962" lon="5.99255">
        <ele>1228.1</ele>
        <time>2019-08-01T08:01:39Z</time>
      </trkpt>
      <trkpt lat="46.44961" lon="5.99248">
        <ele>1227.5</ele>
        <time>2019-08-01T08:01:44Z</time>
      </trkpt>
      <trkpt lat="46.44961" lon="5.99242">
        <ele>1226.6</ele>
        <time>2019-08-01T08:01:50Z</time>
      </trkpt>
      <trkpt lat="46.44963" lon="5.99235">
        <ele>1225</ele>
        <time>2019-08-01T08:01:58Z</time>
      </trkpt>
      <trkpt lat="46.44966" lon="5.9923">
        <ele>1224.3</ele>
        <time>2019-08-01T08:02:02Z</time>
      </trkpt>
      <trkpt lat="46.44968" lon="5.99224">
        <ele>1223.1</ele>
        <time>2019-08-01T08:02:08Z</time>
      </trkpt>
      <trkpt lat="46.44972" lon="5.99218">
        <ele>1222.4</ele>
        <time>2019-08-01T08:02:11Z</time>
      </trkpt>
      <trkpt lat="46.44973" lon="5.9921">
        <ele>1221.4</ele>
        <time>2019-08-01T08:02:15Z</time>
      </trkpt>
      <trkpt lat="46.44974" lon="5.99202">
        <ele>1220.5</ele>
        <time>2019-08-01T08:02:19Z</time>
      </trkpt>
      <trkpt lat="46.44976" lon="5.99195">
        <ele>1219.4</ele>
        <time>2019-08-01T08:02:24Z</time>
      </trkpt>
      <trkpt lat="46.44979" lon="5.99189">
        <ele>1218</ele>
        <time>2019-08-01T08:02:32Z</time>
      </trkpt>
      <trkpt lat="46.44981" lon="5.99182">
        <ele>1217.3</ele>
        <time>2019-08-01T08:02:36Z</time>
      </trkpt>
      <trkpt lat="46.44984" lon="5.99176">
        <ele>1216.1</ele>
        <time>2019-08-01T08:02:42Z</time>
      </trkpt>
      <trkpt lat="46.44986" lon="5.99169">
        <ele>1214.9</ele>
        <time>2019-08-01T08:02:50Z</time>
      </trkpt>
      <trkpt lat="46.44987" lon="5.99162">
        <ele>1214.5</ele>
        <time>2019-08-01T08:02:55Z</time>
      </trkpt>
      <trkpt lat="46.44988" lon="5.99155">
        <ele>1214.3</ele>
        <time>2019-08-01T08:03:00Z</time>
      </trkpt>
      <trkpt lat="46.4499" lon="5.99148">
        <ele>1214.1</ele>
        <time>2019-08-01T08:03:05Z</time>
      </trkpt>
      <trkpt lat="46.44992" lon="5.99142">
        <ele>1213.8</ele>
        <time>2019-08-01T08:03:11Z</time>
      </trkpt>
      <trkpt lat="46.44994" lon="5.99135">
        <ele>1213.5</ele>
        <time>2019-08-01T08:03:15Z</time>
      </trkpt>
      <trkpt lat="46.44997" lon="5.99119">
        <ele>1211.5</ele>
        <time>2019-08-01T08:03:27Z</time>
      </trkpt>
      <trkpt lat="46.44999" lon="5.9911">
        <ele>1210.5</ele>
        <time>2019-08-01T08:03:32Z</time>
      </trkpt>
      <trkpt lat="46.45002" lon="5.99105">
        <ele>1209.8</ele>
        <time>2019-08-01T08:03:36Z</time>
      </trkpt>
      <trkpt lat="46.45004" lon="5.99098">
        <ele>1209</ele>
        <time>2019-08-01T08:03:41Z</time>
      </trkpt>
      <trkpt lat="46.45006" lon="5.99092">
        <ele>1208.4</ele>
        <time>2019-08-01T08:03:47Z</time>
      </trkpt>
      <trkpt lat="46.45008" lon="5.99086">
        <ele>1208.3</ele>
        <time>2019-08-01T08:03:52Z</time>
      </trkpt>
      <trkpt lat="46.45018" lon="5.99076">
        <ele>1209.6</ele>
        <time>2019-08-01T08:04:08Z</time>
      </trkpt>
      <trkpt lat="46.45021" lon="5.9908">
        <ele>1210.9</ele>
        <time>2019-08-01T08:04:17Z</time>
      </trkpt>
      <trkpt lat="46.45025" lon="5.99087">
        <ele>1211.1</ele>
        <time>2019-08-01T08:04:19Z</time>
      </trkpt>
      <trkpt lat="46.45029" lon="5.99092">
        <ele>1211.4</ele>
        <time>2019-08-01T08:04:22Z</time>
      </trkpt>
      <trkpt lat="46.45033" lon="5.99095">
        <ele>1211.5</ele>
        <time>2019-08-01T08:04:25Z</time>
      </trkpt>
      <trkpt lat="46.45044" lon="5.99113">
        <ele>1211.7</ele>
        <time>2019-08-01T08:04:39Z</time>
      </trkpt>
      <trkpt lat="46.45048" lon="5.99116">
        <ele>1211.5</ele>
        <time>2019-08-01T08:04:44Z</time>
      </trkpt>
      <trkpt lat="46.45053" lon="5.9912">
        <ele>1211.4</ele>
        <time>2019-08-01T08:04:50Z</time>
      </trkpt>
      <trkpt lat="46.45057" lon="5.99123">
        <ele>1211.2</ele>
        <time>2019-08-01T08:04:53Z</time>
      </trkpt>
      <trkpt lat="46.45062" lon="5.99126">
        <ele>1210.8</ele>
        <time>2019-08-01T08:04:58Z</time>
      </trkpt>
      <trkpt lat="46.45067" lon="5.9913">
        <ele>1209.9</ele>
        <time>2019-08-01T08:05:03Z</time>
      </trkpt>
      <trkpt lat="46.45073" lon="5.99133">
        <ele>1209.1</ele>
        <time>2019-08-01T08:05:07Z</time>
      </trkpt>
      <trkpt lat="46.45078" lon="5.99135">
        <ele>1208.7</ele>
        <time>2019-08-01T08:05:10Z</time>
      </trkpt>
      <trkpt lat="46.45082" lon="5.9914">
        <ele>1208.4</ele>
        <time>2019-08-01T08:05:13Z</time>
      </trkpt>
      <trkpt lat="46.45086" lon="5.99144">
        <ele>1208.2</ele>
        <time>2019-08-01T08:05:17Z</time>
      </trkpt>
      <trkpt lat="46.4509" lon="5.99148">
        <ele>1208.1</ele>
        <time>2019-08-01T08:05:22Z</time>
      </trkpt>
      <trkpt lat="46.45099" lon="5.99158">
        <ele>1209.6</ele>
        <time>2019-08-01T08:05:35Z</time>
      </trkpt>
      <trkpt lat="46.45107" lon="5.99168">
        <ele>1211.6</ele>
        <time>2019-08-01T08:05:47Z</time>
      </trkpt>
      <trkpt lat="46.4511" lon="5.99173">
        <ele>1211.7</ele>
        <time>2019-08-01T08:05:50Z</time>
      </trkpt>
      <trkpt lat="46.45112" lon="5.99179">
        <ele>1211.8</ele>
        <time>2019-08-01T08:05:54Z</time>
      </trkpt>
      <trkpt lat="46.45113" lon="5.99186">
        <ele>1211.4</ele>
        <time>2019-08-01T08:06:01Z</time>
      </trkpt>
      <trkpt lat="46.45114" lon="5.99193">
        <ele>1211.2</ele>
        <time>2019-08-01T08:06:03Z</time>
      </trkpt>
      <trkpt lat="46.4512" lon="5.99218">
        <ele>1209.7</ele>
        <time>2019-08-01T08:06:25Z</time>
      </trkpt>
      <trkpt lat="46.45123" lon="5.99224">
        <ele>1210.2</ele>
        <time>2019-08-01T08:06:30Z</time>
      </trkpt>
      <trkpt lat="46.45124" lon="5.99231">
        <ele>1211.1</ele>
        <time>2019-08-01T08:06:35Z</time>
      </trkpt>
      <trkpt lat="46.45124" lon="5.99247">
        <ele>1211.7</ele>
        <time>2019-08-01T08:06:58Z</time>
      </trkpt>
      <trkpt lat="46.45126" lon="5.9926">
        <ele>1212.5</ele>
        <time>2019-08-01T08:07:07Z</time>
      </trkpt>
      <trkpt lat="46.45131" lon="5.99281">
        <ele>1214.9</ele>
        <time>2019-08-01T08:07:19Z</time>
      </trkpt>
      <trkpt lat="46.45131" lon="5.99289">
        <ele>1217.1</ele>
        <time>2019-08-01T08:07:28Z</time>
      </trkpt>
      <trkpt lat="46.45134" lon="5.99296">
        <ele>1218</ele>
        <time>2019-08-01T08:07:31Z</time>
      </trkpt>
      <trkpt lat="46.45141" lon="5.99307">
        <ele>1223.8</ele>
        <time>2019-08-01T08:07:49Z</time>
      </trkpt>
      <trkpt lat="46.45145" lon="5.9931">
        <ele>1225.9</ele>
        <time>2019-08-01T08:07:56Z</time>
      </trkpt>
      <trkpt lat="46.45148" lon="5.99316">
        <ele>1228.1</ele>
        <time>2019-08-01T08:08:06Z</time>
      </trkpt>
      <trkpt lat="46.4515" lon="5.99324">
        <ele>1229.5</ele>
        <time>2019-08-01T08:08:16Z</time>
      </trkpt>
      <trkpt lat="46.45152" lon="5.99331">
        <ele>1229.9</ele>
        <time>2019-08-01T08:08:20Z</time>
      </trkpt>
      <trkpt lat="46.45153" lon="5.99338">
        <ele>1229.9</ele>
        <time>2019-08-01T08:08:27Z</time>
      </trkpt>
      <trkpt lat="46.45161" lon="5.99352">
        <ele>1229.5</ele>
        <time>2019-08-01T08:08:37Z</time>
      </trkpt>
      <trkpt lat="46.45161" lon="5.99359">
        <ele>1229.6</ele>
        <time>2019-08-01T08:08:46Z</time>
      </trkpt>
      <trkpt lat="46.45161" lon="5.99367">
        <ele>1230.1</ele>
        <time>2019-08-01T08:08:52Z</time>
      </trkpt>
      <trkpt lat="46.45161" lon="5.99374">
        <ele>1231</ele>
        <time>2019-08-01T08:08:57Z</time>
      </trkpt>
      <trkpt lat="46.45165" lon="5.99378">
        <ele>1232</ele>
        <time>2019-08-01T08:09:01Z</time>
      </trkpt>
      <trkpt lat="46.45169" lon="5.99383">
        <ele>1233.5</ele>
        <time>2019-08-01T08:09:06Z</time>
      </trkpt>
      <trkpt lat="46.45172" lon="5.99389">
        <ele>1234.7</ele>
        <time>2019-08-01T08:09:11Z</time>
      </trkpt>
      <trkpt lat="46.45175" lon="5.99395">
        <ele>1236.4</ele>
        <time>2019-08-01T08:09:20Z</time>
      </trkpt>
      <trkpt lat="46.45179" lon="5.99397">
        <ele>1237.5</ele>
        <time>2019-08-01T08:09:27Z</time>
      </trkpt>
      <trkpt lat="46.45183" lon="5.99401">
        <ele>1238.8</ele>
        <time>2019-08-01T08:09:35Z</time>
      </trkpt>
      <trkpt lat="46.45192" lon="5.99407">
        <ele>1240.5</ele>
        <time>2019-08-01T08:09:59Z</time>
      </trkpt>
      <trkpt lat="46.45196" lon="5.99411">
        <ele>1240.8</ele>
        <time>2019-08-01T08:10:10Z</time>
      </trkpt>
      <trkpt lat="46.45201" lon="5.99414">
        <ele>1241.1</ele>
        <time>2019-08-01T08:10:18Z</time>
      </trkpt>
      <trkpt lat="46.45206" lon="5.99416">
        <ele>1241.1</ele>
        <time>2019-08-01T08:10:22Z</time>
      </trkpt>
      <trkpt lat="46.45211" lon="5.99418">
        <ele>1241.1</ele>
        <time>2019-08-01T08:10:28Z</time>
      </trkpt>
      <trkpt lat="46.45216" lon="5.99422">
        <ele>1241.2</ele>
        <time>2019-08-01T08:10:34Z</time>
      </trkpt>
      <trkpt lat="46.45219" lon="5.99427">
        <ele>1241.5</ele>
        <time>2019-08-01T08:10:39Z</time>
      </trkpt>
      <trkpt lat="46.45223" lon="5.99432">
        <ele>1241.9</ele>
        <time>2019-08-01T08:10:44Z</time>
      </trkpt>
      <trkpt lat="46.45228" lon="5.99435">
        <ele>1242.4</ele>
        <time>2019-08-01T08:10:49Z</time>
      </trkpt>
      <trkpt lat="46.45231" lon="5.99439">
        <ele>1242.7</ele>
        <time>2019-08-01T08:10:57Z</time>
      </trkpt>
      <trkpt lat="46.45235" lon="5.99442">
        <ele>1243.1</ele>
        <time>2019-08-01T08:11:06Z</time>
      </trkpt>
      <trkpt lat="46.45239" lon="5.99445">
        <ele>1243.3</ele>
        <time>2019-08-01T08:11:09Z</time>
      </trkpt>
      <trkpt lat="46.45242" lon="5.99451">
        <ele>1244.3</ele>
        <time>2019-08-01T08:11:19Z</time>
      </trkpt>
      <trkpt lat="46.45256" lon="5.99482">
        <ele>1247.9</ele>
        <time>2019-08-01T08:11:43Z</time>
      </trkpt>
      <trkpt lat="46.4526" lon="5.99484">
        <ele>1248.5</ele>
        <time>2019-08-01T08:11:50Z</time>
      </trkpt>
      <trkpt lat="46.45265" lon="5.99488">
        <ele>1248.6</ele>
        <time>2019-08-01T08:11:59Z</time>
      </trkpt>
      <trkpt lat="46.45269" lon="5.99492">
        <ele>1249</ele>
        <time>2019-08-01T08:12:11Z</time>
      </trkpt>
      <trkpt lat="46.45272" lon="5.99496">
        <ele>1249.2</ele>
        <time>2019-08-01T08:12:18Z</time>
      </trkpt>
      <trkpt lat="46.45279" lon="5.99503">
        <ele>1249.6</ele>
        <time>2019-08-01T08:12:31Z</time>
      </trkpt>
      <trkpt lat="46.45283" lon="5.99507">
        <ele>1250</ele>
        <time>2019-08-01T08:12:38Z</time>
      </trkpt>
      <trkpt lat="46.45288" lon="5.9951">
        <ele>1250.6</ele>
        <time>2019-08-01T08:12:44Z</time>
      </trkpt>
      <trkpt lat="46.45292" lon="5.99513">
        <ele>1251</ele>
        <time>2019-08-01T08:12:50Z</time>
      </trkpt>
      <trkpt lat="46.45295" lon="5.99518">
        <ele>1251.2</ele>
        <time>2019-08-01T08:12:56Z</time>
      </trkpt>
      <trkpt lat="46.45299" lon="5.99523">
        <ele>1251.4</ele>
        <time>2019-08-01T08:13:03Z</time>
      </trkpt>
      <trkpt lat="46.45302" lon="5.99529">
        <ele>1251.8</ele>
        <time>2019-08-01T08:13:11Z</time>
      </trkpt>
      <trkpt lat="46.45306" lon="5.99534">
        <ele>1251.9</ele>
        <time>2019-08-01T08:13:17Z</time>
      </trkpt>
      <trkpt lat="46.4531" lon="5.99535">
        <ele>1252.1</ele>
        <time>2019-08-01T08:13:21Z</time>
      </trkpt>
      <trkpt lat="46.45314" lon="5.99539">
        <ele>1252.5</ele>
        <time>2019-08-01T08:13:28Z</time>
      </trkpt>
      <trkpt lat="46.45318" lon="5.99543">
        <ele>1252.7</ele>
        <time>2019-08-01T08:13:33Z</time>
      </trkpt>
      <trkpt lat="46.45321" lon="5.99548">
        <ele>1252.8</ele>
        <time>2019-08-01T08:13:36Z</time>
      </trkpt>
      <trkpt lat="46.45325" lon="5.99552">
        <ele>1252.7</ele>
        <time>2019-08-01T08:13:41Z</time>
      </trkpt>
      <trkpt lat="46.4533" lon="5.99555">
        <ele>1252.6</ele>
        <time>2019-08-01T08:13:45Z</time>
      </trkpt>
      <trkpt lat="46.45334" lon="5.99559">
        <ele>1252.4</ele>
        <time>2019-08-01T08:13:51Z</time>
      </trkpt>
      <trkpt lat="46.45339" lon="5.9956">
        <ele>1252.6</ele>
        <time>2019-08-01T08:13:58Z</time>
      </trkpt>
      <trkpt lat="46.45343" lon="5.99562">
        <ele>1252.8</ele>
        <time>2019-08-01T08:14:04Z</time>
      </trkpt>
      <trkpt lat="46.45357" lon="5.9957">
        <ele>1254.8</ele>
        <time>2019-08-01T08:14:21Z</time>
      </trkpt>
      <trkpt lat="46.4537" lon="5.99571">
        <ele>1257.9</ele>
        <time>2019-08-01T08:14:44Z</time>
      </trkpt>
      <trkpt lat="46.45376" lon="5.99573">
        <ele>1258.3</ele>
        <time>2019-08-01T08:14:47Z</time>
      </trkpt>
      <trkpt lat="46.45381" lon="5.99573">
        <ele>1258.7</ele>
        <time>2019-08-01T08:14:49Z</time>
      </trkpt>
      <trkpt lat="46.45386" lon="5.99573">
        <ele>1260.2</ele>
        <time>2019-08-01T08:14:58Z</time>
      </trkpt>
      <trkpt lat="46.45391" lon="5.99574">
        <ele>1260.5</ele>
        <time>2019-08-01T08:15:03Z</time>
      </trkpt>
      <trkpt lat="46.45398" lon="5.99572">
        <ele>1260.6</ele>
        <time>2019-08-01T08:15:10Z</time>
      </trkpt>
      <trkpt lat="46.45404" lon="5.99571">
        <ele>1260.5</ele>
        <time>2019-08-01T08:15:14Z</time>
      </trkpt>
      <trkpt lat="46.45409" lon="5.9957">
        <ele>1260.5</ele>
        <time>2019-08-01T08:15:16Z</time>
      </trkpt>
      <trkpt lat="46.45414" lon="5.9957">
        <ele>1260.4</ele>
        <time>2019-08-01T08:15:21Z</time>
      </trkpt>
      <trkpt lat="46.45429" lon="5.99573">
        <ele>1260.3</ele>
        <time>2019-08-01T08:15:39Z</time>
      </trkpt>
      <trkpt lat="46.45433" lon="5.99578">
        <ele>1259.7</ele>
        <time>2019-08-01T08:15:45Z</time>
      </trkpt>
      <trkpt lat="46.45437" lon="5.99584">
        <ele>1259.4</ele>
        <time>2019-08-01T08:15:48Z</time>
      </trkpt>
      <trkpt lat="46.45449" lon="5.99601">
        <ele>1258.4</ele>
        <time>2019-08-01T08:16:04Z</time>
      </trkpt>
      <trkpt lat="46.45454" lon="5.99605">
        <ele>1258.6</ele>
        <time>2019-08-01T08:16:12Z</time>
      </trkpt>
      <trkpt lat="46.45459" lon="5.99609">
        <ele>1258.8</ele>
        <time>2019-08-01T08:16:14Z</time>
      </trkpt>
      <trkpt lat="46.45463" lon="5.99613">
        <ele>1259.2</ele>
        <time>2019-08-01T08:16:17Z</time>
      </trkpt>
      <trkpt lat="46.45468" lon="5.99615">
        <ele>1259.6</ele>
        <time>2019-08-01T08:16:20Z</time>
      </trkpt>
      <trkpt lat="46.45477" lon="5.9962">
        <ele>1261.3</ele>
        <time>2019-08-01T08:16:36Z</time>
      </trkpt>
      <trkpt lat="46.45482" lon="5.99622">
        <ele>1261.3</ele>
        <time>2019-08-01T08:16:41Z</time>
      </trkpt>
      <trkpt lat="46.45487" lon="5.99624">
        <ele>1261.3</ele>
        <time>2019-08-01T08:16:46Z</time>
      </trkpt>
      <trkpt lat="46.45491" lon="5.99624">
        <ele>1260.9</ele>
        <time>2019-08-01T08:16:52Z</time>
      </trkpt>
      <trkpt lat="46.45502" lon="5.99636">
        <ele>1259.4</ele>
        <time>2019-08-01T08:17:06Z</time>
      </trkpt>
      <trkpt lat="46.45506" lon="5.99641">
        <ele>1259.4</ele>
        <time>2019-08-01T08:17:12Z</time>
      </trkpt>
      <trkpt lat="46.4551" lon="5.99645">
        <ele>1259.7</ele>
        <time>2019-08-01T08:17:20Z</time>
      </trkpt>
      <trkpt lat="46.45517" lon="5.99653">
        <ele>1259.3</ele>
        <time>2019-08-01T08:17:34Z</time>
      </trkpt>
      <trkpt lat="46.45521" lon="5.99657">
        <ele>1259</ele>
        <time>2019-08-01T08:17:40Z</time>
      </trkpt>
      <trkpt lat="46.4553" lon="5.99671">
        <ele>1258.8</ele>
        <time>2019-08-01T08:17:48Z</time>
      </trkpt>
      <trkpt lat="46.45534" lon="5.99684">
        <ele>1258.7</ele>
        <time>2019-08-01T08:17:57Z</time>
      </trkpt>
      <trkpt lat="46.45538" lon="5.99689">
        <ele>1258.3</ele>
        <time>2019-08-01T08:18:01Z</time>
      </trkpt>
      <trkpt lat="46.45542" lon="5.99693">
        <ele>1257.2</ele>
        <time>2019-08-01T08:18:12Z</time>
      </trkpt>
      <trkpt lat="46.45548" lon="5.99698">
        <ele>1257.1</ele>
        <time>2019-08-01T08:18:26Z</time>
      </trkpt>
      <trkpt lat="46.45554" lon="5.99699">
        <ele>1257.3</ele>
        <time>2019-08-01T08:18:30Z</time>
      </trkpt>
      <trkpt lat="46.45559" lon="5.99702">
        <ele>1257.6</ele>
        <time>2019-08-01T08:18:33Z</time>
      </trkpt>
      <trkpt lat="46.45569" lon="5.9971">
        <ele>1258.1</ele>
        <time>2019-08-01T08:18:46Z</time>
      </trkpt>
      <trkpt lat="46.45571" lon="5.99716">
        <ele>1258.2</ele>
        <time>2019-08-01T08:18:51Z</time>
      </trkpt>
      <trkpt lat="46.45574" lon="5.99722">
        <ele>1259.9</ele>
        <time>2019-08-01T08:19:08Z</time>
      </trkpt>
      <trkpt lat="46.45573" lon="5.99729">
        <ele>1260.2</ele>
        <time>2019-08-01T08:19:11Z</time>
      </trkpt>
      <trkpt lat="46.45577" lon="5.99765">
        <ele>1260.9</ele>
        <time>2019-08-01T08:19:19Z</time>
      </trkpt>
      <trkpt lat="46.45581" lon="5.99771">
        <ele>1261.1</ele>
        <time>2019-08-01T08:19:22Z</time>
      </trkpt>
      <trkpt lat="46.45583" lon="5.99797">
        <ele>1261.8</ele>
        <time>2019-08-01T08:19:39Z</time>
      </trkpt>
      <trkpt lat="46.45585" lon="5.99803">
        <ele>1262</ele>
        <time>2019-08-01T08:19:44Z</time>
      </trkpt>
      <trkpt lat="46.45588" lon="5.9981">
        <ele>1262.3</ele>
        <time>2019-08-01T08:19:49Z</time>
      </trkpt>
      <trkpt lat="46.45589" lon="5.99817">
        <ele>1262.6</ele>
        <time>2019-08-01T08:19:55Z</time>
      </trkpt>
      <trkpt lat="46.45592" lon="5.99822">
        <ele>1262.7</ele>
        <time>2019-08-01T08:20:01Z</time>
      </trkpt>
      <trkpt lat="46.45595" lon="5.99828">
        <ele>1262.6</ele>
        <time>2019-08-01T08:20:08Z</time>
      </trkpt>
      <trkpt lat="46.45599" lon="5.99831">
        <ele>1262.4</ele>
        <time>2019-08-01T08:20:14Z</time>
      </trkpt>
      <trkpt lat="46.45603" lon="5.99829">
        <ele>1262.6</ele>
        <time>2019-08-01T08:20:25Z</time>
      </trkpt>
      <trkpt lat="46.45611" lon="5.99832">
        <ele>1261.8</ele>
        <time>2019-08-01T08:21:10Z</time>
      </trkpt>
      <trkpt lat="46.45615" lon="5.99835">
        <ele>1261</ele>
        <time>2019-08-01T08:21:18Z</time>
      </trkpt>
      <trkpt lat="46.4562" lon="5.99835">
        <ele>1260.6</ele>
        <time>2019-08-01T08:21:23Z</time>
      </trkpt>
      <trkpt lat="46.45628" lon="5.99842">
        <ele>1258.2</ele>
        <time>2019-08-01T08:21:36Z</time>
      </trkpt>
      <trkpt lat="46.45633" lon="5.99846">
        <ele>1257.2</ele>
        <time>2019-08-01T08:21:42Z</time>
      </trkpt>
      <trkpt lat="46.45638" lon="5.99847">
        <ele>1256.2</ele>
        <time>2019-08-01T08:21:48Z</time>
      </trkpt>
      <trkpt lat="46.45649" lon="5.99843">
        <ele>1254.4</ele>
        <time>2019-08-01T08:22:01Z</time>
      </trkpt>
      <trkpt lat="46.45655" lon="5.9984">
        <ele>1254.3</ele>
        <time>2019-08-01T08:22:04Z</time>
      </trkpt>
      <trkpt lat="46.4566" lon="5.99841">
        <ele>1254.4</ele>
        <time>2019-08-01T08:22:07Z</time>
      </trkpt>
      <trkpt lat="46.45666" lon="5.99843">
        <ele>1254.6</ele>
        <time>2019-08-01T08:22:11Z</time>
      </trkpt>
      <trkpt lat="46.45671" lon="5.99843">
        <ele>1254.7</ele>
        <time>2019-08-01T08:22:13Z</time>
      </trkpt>
      <trkpt lat="46.4569" lon="5.99842">
        <ele>1256.5</ele>
        <time>2019-08-01T08:22:45Z</time>
      </trkpt>
      <trkpt lat="46.45699" lon="5.99843">
        <ele>1255.6</ele>
        <time>2019-08-01T08:22:57Z</time>
      </trkpt>
      <trkpt lat="46.45704" lon="5.99843">
        <ele>1255.7</ele>
        <time>2019-08-01T08:22:59Z</time>
      </trkpt>
      <trkpt lat="46.45709" lon="5.99843">
        <ele>1255.3</ele>
        <time>2019-08-01T08:23:05Z</time>
      </trkpt>
      <trkpt lat="46.45714" lon="5.99845">
        <ele>1254.6</ele>
        <time>2019-08-01T08:23:13Z</time>
      </trkpt>
      <trkpt lat="46.45719" lon="5.99847">
        <ele>1254.3</ele>
        <time>2019-08-01T08:23:17Z</time>
      </trkpt>
      <trkpt lat="46.45723" lon="5.99848">
        <ele>1253.5</ele>
        <time>2019-08-01T08:23:24Z</time>
      </trkpt>
      <trkpt lat="46.45728" lon="5.99846">
        <ele>1252.3</ele>
        <time>2019-08-01T08:23:36Z</time>
      </trkpt>
      <trkpt lat="46.45734" lon="5.99855">
        <ele>1253.7</ele>
        <time>2019-08-01T08:24:19Z</time>
      </trkpt>
      <trkpt lat="46.45734" lon="5.99862">
        <ele>1256</ele>
        <time>2019-08-01T08:24:23Z</time>
      </trkpt>
      <trkpt lat="46.45736" lon="5.99869">
        <ele>1258.5</ele>
        <time>2019-08-01T08:24:29Z</time>
      </trkpt>
      <trkpt lat="46.45739" lon="5.99875">
        <ele>1259.4</ele>
        <time>2019-08-01T08:24:33Z</time>
      </trkpt>
      <trkpt lat="46.4574" lon="5.99881">
        <ele>1259.2</ele>
        <time>2019-08-01T08:24:47Z</time>
      </trkpt>
      <trkpt lat="46.4574" lon="5.99888">
        <ele>1258.7</ele>
        <time>2019-08-01T08:24:57Z</time>
      </trkpt>
      <trkpt lat="46.45741" lon="5.99895">
        <ele>1258.9</ele>
        <time>2019-08-01T08:25:04Z</time>
      </trkpt>
      <trkpt lat="46.45743" lon="5.99901">
        <ele>1259</ele>
        <time>2019-08-01T08:25:12Z</time>
      </trkpt>
      <trkpt lat="46.45747" lon="5.99905">
        <ele>1258.7</ele>
        <time>2019-08-01T08:25:19Z</time>
      </trkpt>
      <trkpt lat="46.45752" lon="5.99907">
        <ele>1258.1</ele>
        <time>2019-08-01T08:25:26Z</time>
      </trkpt>
      <trkpt lat="46.45757" lon="5.99908">
        <ele>1256.5</ele>
        <time>2019-08-01T08:25:37Z</time>
      </trkpt>
      <trkpt lat="46.45762" lon="5.99905">
        <ele>1255.6</ele>
        <time>2019-08-01T08:25:45Z</time>
      </trkpt>
      <trkpt lat="46.45766" lon="5.99904">
        <ele>1254.9</ele>
        <time>2019-08-01T08:25:54Z</time>
      </trkpt>
      <trkpt lat="46.45772" lon="5.99906">
        <ele>1254.6</ele>
        <time>2019-08-01T08:26:03Z</time>
      </trkpt>
      <trkpt lat="46.45776" lon="5.99908">
        <ele>1254.7</ele>
        <time>2019-08-01T08:26:09Z</time>
      </trkpt>
      <trkpt lat="46.45781" lon="5.99909">
        <ele>1255.1</ele>
        <time>2019-08-01T08:26:19Z</time>
      </trkpt>
      <trkpt lat="46.45785" lon="5.9991">
        <ele>1254.9</ele>
        <time>2019-08-01T08:26:26Z</time>
      </trkpt>
      <trkpt lat="46.4579" lon="5.99908">
        <ele>1254</ele>
        <time>2019-08-01T08:26:36Z</time>
      </trkpt>
      <trkpt lat="46.45794" lon="5.99905">
        <ele>1253.6</ele>
        <time>2019-08-01T08:26:42Z</time>
      </trkpt>
      <trkpt lat="46.45799" lon="5.99903">
        <ele>1253.9</ele>
        <time>2019-08-01T08:26:48Z</time>
      </trkpt>
      <trkpt lat="46.45804" lon="5.99901">
        <ele>1254.7</ele>
        <time>2019-08-01T08:26:55Z</time>
      </trkpt>
      <trkpt lat="46.45808" lon="5.99901">
        <ele>1255.7</ele>
        <time>2019-08-01T08:27:02Z</time>
      </trkpt>
      <trkpt lat="46.45812" lon="5.99905">
        <ele>1256.4</ele>
        <time>2019-08-01T08:27:07Z</time>
      </trkpt>
      <trkpt lat="46.45816" lon="5.99909">
        <ele>1256.8</ele>
        <time>2019-08-01T08:27:11Z</time>
      </trkpt>
      <trkpt lat="46.4582" lon="5.99914">
        <ele>1257</ele>
        <time>2019-08-01T08:27:15Z</time>
      </trkpt>
      <trkpt lat="46.45824" lon="5.99918">
        <ele>1257.1</ele>
        <time>2019-08-01T08:27:18Z</time>
      </trkpt>
      <trkpt lat="46.45828" lon="5.99922">
        <ele>1257.5</ele>
        <time>2019-08-01T08:27:23Z</time>
      </trkpt>
      <trkpt lat="46.45831" lon="5.99927">
        <ele>1258.1</ele>
        <time>2019-08-01T08:27:29Z</time>
      </trkpt>
      <trkpt lat="46.45835" lon="5.99933">
        <ele>1259.2</ele>
        <time>2019-08-01T08:27:35Z</time>
      </trkpt>
      <trkpt lat="46.45839" lon="5.99937">
        <ele>1260.8</ele>
        <time>2019-08-01T08:27:41Z</time>
      </trkpt>
      <trkpt lat="46.45843" lon="5.99939">
        <ele>1262.5</ele>
        <time>2019-08-01T08:27:47Z</time>
      </trkpt>
      <trkpt lat="46.45848" lon="5.99941">
        <ele>1263.9</ele>
        <time>2019-08-01T08:27:53Z</time>
      </trkpt>
      <trkpt lat="46.45851" lon="5.99945">
        <ele>1264.9</ele>
        <time>2019-08-01T08:28:01Z</time>
      </trkpt>
      <trkpt lat="46.45856" lon="5.99948">
        <ele>1265.3</ele>
        <time>2019-08-01T08:28:05Z</time>
      </trkpt>
      <trkpt lat="46.4586" lon="5.99952">
        <ele>1265.7</ele>
        <time>2019-08-01T08:28:09Z</time>
      </trkpt>
      <trkpt lat="46.45864" lon="5.99956">
        <ele>1266.2</ele>
        <time>2019-08-01T08:28:15Z</time>
      </trkpt>
      <trkpt lat="46.45869" lon="5.9996">
        <ele>1267.1</ele>
        <time>2019-08-01T08:28:22Z</time>
      </trkpt>
      <trkpt lat="46.45873" lon="5.99963">
        <ele>1267.8</ele>
        <time>2019-08-01T08:28:28Z</time>
      </trkpt>
      <trkpt lat="46.45877" lon="5.99967">
        <ele>1268.5</ele>
        <time>2019-08-01T08:28:33Z</time>
      </trkpt>
      <trkpt lat="46.45882" lon="5.99971">
        <ele>1269</ele>
        <time>2019-08-01T08:28:37Z</time>
      </trkpt>
      <trkpt lat="46.45886" lon="5.99975">
        <ele>1269.5</ele>
        <time>2019-08-01T08:28:43Z</time>
      </trkpt>
      <trkpt lat="46.45889" lon="5.9998">
        <ele>1269.6</ele>
        <time>2019-08-01T08:28:49Z</time>
      </trkpt>
      <trkpt lat="46.45892" lon="5.99986">
        <ele>1269.3</ele>
        <time>2019-08-01T08:28:57Z</time>
      </trkpt>
      <trkpt lat="46.45896" lon="5.99989">
        <ele>1269</ele>
        <time>2019-08-01T08:29:04Z</time>
      </trkpt>
      <trkpt lat="46.45901" lon="5.99991">
        <ele>1268.6</ele>
        <time>2019-08-01T08:29:10Z</time>
      </trkpt>
      <trkpt lat="46.45905" lon="5.99992">
        <ele>1268.6</ele>
        <time>2019-08-01T08:29:15Z</time>
      </trkpt>
      <trkpt lat="46.4591" lon="5.99996">
        <ele>1269.2</ele>
        <time>2019-08-01T08:29:22Z</time>
      </trkpt>
      <trkpt lat="46.45915" lon="5.99998">
        <ele>1269.6</ele>
        <time>2019-08-01T08:29:28Z</time>
      </trkpt>
      <trkpt lat="46.45919" lon="6.00002">
        <ele>1270.1</ele>
        <time>2019-08-01T08:29:35Z</time>
      </trkpt>
      <trkpt lat="46.45924" lon="6.00003">
        <ele>1270.9</ele>
        <time>2019-08-01T08:29:45Z</time>
      </trkpt>
      <trkpt lat="46.4593" lon="6.00003">
        <ele>1271.3</ele>
        <time>2019-08-01T08:29:52Z</time>
      </trkpt>
      <trkpt lat="46.45935" lon="6.00004">
        <ele>1271.6</ele>
        <time>2019-08-01T08:29:57Z</time>
      </trkpt>
      <trkpt lat="46.4594" lon="6.00004">
        <ele>1271.1</ele>
        <time>2019-08-01T08:30:05Z</time>
      </trkpt>
      <trkpt lat="46.45946" lon="6.00004">
        <ele>1270.5</ele>
        <time>2019-08-01T08:30:11Z</time>
      </trkpt>
      <trkpt lat="46.4595" lon="6.00007">
        <ele>1270</ele>
        <time>2019-08-01T08:30:14Z</time>
      </trkpt>
      <trkpt lat="46.45954" lon="6.00012">
        <ele>1269.2</ele>
        <time>2019-08-01T08:30:18Z</time>
      </trkpt>
      <trkpt lat="46.45958" lon="6.00017">
        <ele>1268.6</ele>
        <time>2019-08-01T08:30:21Z</time>
      </trkpt>
      <trkpt lat="46.45963" lon="6.00021">
        <ele>1268</ele>
        <time>2019-08-01T08:30:24Z</time>
      </trkpt>
      <trkpt lat="46.45966" lon="6.00025">
        <ele>1267.2</ele>
        <time>2019-08-01T08:30:29Z</time>
      </trkpt>
      <trkpt lat="46.45971" lon="6.0003">
        <ele>1266.9</ele>
        <time>2019-08-01T08:30:36Z</time>
      </trkpt>
      <trkpt lat="46.45975" lon="6.00031">
        <ele>1267.1</ele>
        <time>2019-08-01T08:30:41Z</time>
      </trkpt>
      <trkpt lat="46.45979" lon="6.00037">
        <ele>1267.1</ele>
        <time>2019-08-01T08:30:45Z</time>
      </trkpt>
      <trkpt lat="46.45981" lon="6.00043">
        <ele>1267.4</ele>
        <time>2019-08-01T08:30:51Z</time>
      </trkpt>
      <trkpt lat="46.45984" lon="6.0005">
        <ele>1267.9</ele>
        <time>2019-08-01T08:30:57Z</time>
      </trkpt>
      <trkpt lat="46.45986" lon="6.00056">
        <ele>1268.7</ele>
        <time>2019-08-01T08:31:04Z</time>
      </trkpt>
      <trkpt lat="46.45989" lon="6.00062">
        <ele>1269.5</ele>
        <time>2019-08-01T08:31:10Z</time>
      </trkpt>
      <trkpt lat="46.45992" lon="6.00066">
        <ele>1270</ele>
        <time>2019-08-01T08:31:15Z</time>
      </trkpt>
      <trkpt lat="46.45996" lon="6.00071">
        <ele>1270.6</ele>
        <time>2019-08-01T08:31:21Z</time>
      </trkpt>
      <trkpt lat="46.46" lon="6.00076">
        <ele>1270.9</ele>
        <time>2019-08-01T08:31:27Z</time>
      </trkpt>
      <trkpt lat="46.46005" lon="6.00078">
        <ele>1270.8</ele>
        <time>2019-08-01T08:31:34Z</time>
      </trkpt>
      <trkpt lat="46.4601" lon="6.00078">
        <ele>1270.7</ele>
        <time>2019-08-01T08:31:41Z</time>
      </trkpt>
      <trkpt lat="46.46015" lon="6.00076">
        <ele>1270.8</ele>
        <time>2019-08-01T08:31:44Z</time>
      </trkpt>
      <trkpt lat="46.46024" lon="6.00077">
        <ele>1270.5</ele>
        <time>2019-08-01T08:31:55Z</time>
      </trkpt>
      <trkpt lat="46.46029" lon="6.0008">
        <ele>1270.7</ele>
        <time>2019-08-01T08:32:05Z</time>
      </trkpt>
      <trkpt lat="46.46037" lon="6.00086">
        <ele>1272</ele>
        <time>2019-08-01T08:32:15Z</time>
      </trkpt>
      <trkpt lat="46.46041" lon="6.0009">
        <ele>1272.5</ele>
        <time>2019-08-01T08:32:20Z</time>
      </trkpt>
      <trkpt lat="46.46045" lon="6.00095">
        <ele>1273.2</ele>
        <time>2019-08-01T08:32:27Z</time>
      </trkpt>
      <trkpt lat="46.4605" lon="6.00096">
        <ele>1273.7</ele>
        <time>2019-08-01T08:32:34Z</time>
      </trkpt>
      <trkpt lat="46.46055" lon="6.00097">
        <ele>1274.4</ele>
        <time>2019-08-01T08:32:44Z</time>
      </trkpt>
      <trkpt lat="46.46063" lon="6.001">
        <ele>1275.3</ele>
        <time>2019-08-01T08:32:51Z</time>
      </trkpt>
      <trkpt lat="46.46067" lon="6.00101">
        <ele>1275.4</ele>
        <time>2019-08-01T08:32:53Z</time>
      </trkpt>
      <trkpt lat="46.46072" lon="6.00103">
        <ele>1275.6</ele>
        <time>2019-08-01T08:32:57Z</time>
      </trkpt>
      <trkpt lat="46.46076" lon="6.00108">
        <ele>1276</ele>
        <time>2019-08-01T08:33:04Z</time>
      </trkpt>
      <trkpt lat="46.46081" lon="6.00112">
        <ele>1276.1</ele>
        <time>2019-08-01T08:33:09Z</time>
      </trkpt>
      <trkpt lat="46.46085" lon="6.00115">
        <ele>1276.3</ele>
        <time>2019-08-01T08:33:15Z</time>
      </trkpt>
      <trkpt lat="46.46088" lon="6.00121">
        <ele>1276.8</ele>
        <time>2019-08-01T08:33:22Z</time>
      </trkpt>
      <trkpt lat="46.46089" lon="6.00128">
        <ele>1277.1</ele>
        <time>2019-08-01T08:33:29Z</time>
      </trkpt>
      <trkpt lat="46.46096" lon="6.00132">
        <ele>1274.7</ele>
        <time>2019-08-01T08:34:11Z</time>
      </trkpt>
      <trkpt lat="46.461" lon="6.00135">
        <ele>1275.7</ele>
        <time>2019-08-01T08:34:18Z</time>
      </trkpt>
      <trkpt lat="46.46108" lon="6.00149">
        <ele>1277</ele>
        <time>2019-08-01T08:34:25Z</time>
      </trkpt>
      <trkpt lat="46.46112" lon="6.00156">
        <ele>1277.2</ele>
        <time>2019-08-01T08:34:27Z</time>
      </trkpt>
      <trkpt lat="46.46116" lon="6.00159">
        <ele>1277.4</ele>
        <time>2019-08-01T08:34:30Z</time>
      </trkpt>
      <trkpt lat="46.46121" lon="6.00162">
        <ele>1277.8</ele>
        <time>2019-08-01T08:34:34Z</time>
      </trkpt>
      <trkpt lat="46.46125" lon="6.00167">
        <ele>1278.2</ele>
        <time>2019-08-01T08:34:38Z</time>
      </trkpt>
      <trkpt lat="46.46132" lon="6.00179">
        <ele>1281.1</ele>
        <time>2019-08-01T08:34:53Z</time>
      </trkpt>
      <trkpt lat="46.46136" lon="6.00182">
        <ele>1281.6</ele>
        <time>2019-08-01T08:34:59Z</time>
      </trkpt>
      <trkpt lat="46.46137" lon="6.00188">
        <ele>1282</ele>
        <time>2019-08-01T08:35:09Z</time>
      </trkpt>
      <trkpt lat="46.46139" lon="6.00194">
        <ele>1281.9</ele>
        <time>2019-08-01T08:35:16Z</time>
      </trkpt>
      <trkpt lat="46.46142" lon="6.002">
        <ele>1281.7</ele>
        <time>2019-08-01T08:35:23Z</time>
      </trkpt>
      <trkpt lat="46.46145" lon="6.00205">
        <ele>1281.7</ele>
        <time>2019-08-01T08:35:30Z</time>
      </trkpt>
      <trkpt lat="46.46147" lon="6.00211">
        <ele>1282.1</ele>
        <time>2019-08-01T08:35:43Z</time>
      </trkpt>
      <trkpt lat="46.46152" lon="6.00218">
        <ele>1278.8</ele>
        <time>2019-08-01T08:36:09Z</time>
      </trkpt>
      <trkpt lat="46.46161" lon="6.0022">
        <ele>1279.1</ele>
        <time>2019-08-01T08:36:27Z</time>
      </trkpt>
      <trkpt lat="46.46166" lon="6.00217">
        <ele>1279.2</ele>
        <time>2019-08-01T08:36:31Z</time>
      </trkpt>
      <trkpt lat="46.46171" lon="6.00214">
        <ele>1279.4</ele>
        <time>2019-08-01T08:36:35Z</time>
      </trkpt>
      <trkpt lat="46.46176" lon="6.00212">
        <ele>1279.5</ele>
        <time>2019-08-01T08:36:39Z</time>
      </trkpt>
      <trkpt lat="46.4618" lon="6.00209">
        <ele>1279.1</ele>
        <time>2019-08-01T08:36:48Z</time>
      </trkpt>
      <trkpt lat="46.46184" lon="6.00205">
        <ele>1278.1</ele>
        <time>2019-08-01T08:36:55Z</time>
      </trkpt>
      <trkpt lat="46.46188" lon="6.002">
        <ele>1277.3</ele>
        <time>2019-08-01T08:37:01Z</time>
      </trkpt>
      <trkpt lat="46.46192" lon="6.00197">
        <ele>1276.7</ele>
        <time>2019-08-01T08:37:06Z</time>
      </trkpt>
      <trkpt lat="46.46196" lon="6.00194">
        <ele>1276.2</ele>
        <time>2019-08-01T08:37:10Z</time>
      </trkpt>
      <trkpt lat="46.46201" lon="6.00196">
        <ele>1275.3</ele>
        <time>2019-08-01T08:37:19Z</time>
      </trkpt>
      <trkpt lat="46.46208" lon="6.00206">
        <ele>1273.3</ele>
        <time>2019-08-01T08:37:34Z</time>
      </trkpt>
      <trkpt lat="46.46212" lon="6.0021">
        <ele>1272.6</ele>
        <time>2019-08-01T08:37:41Z</time>
      </trkpt>
      <trkpt lat="46.46216" lon="6.00212">
        <ele>1271.4</ele>
        <time>2019-08-01T08:37:50Z</time>
      </trkpt>
      <trkpt lat="46.4622" lon="6.00209">
        <ele>1270.8</ele>
        <time>2019-08-01T08:37:55Z</time>
      </trkpt>
      <trkpt lat="46.46229" lon="6.00197">
        <ele>1270.5</ele>
        <time>2019-08-01T08:38:13Z</time>
      </trkpt>
      <trkpt lat="46.46234" lon="6.00193">
        <ele>1270.5</ele>
        <time>2019-08-01T08:38:18Z</time>
      </trkpt>
      <trkpt lat="46.46238" lon="6.00192">
        <ele>1271.4</ele>
        <time>2019-08-01T08:38:34Z</time>
      </trkpt>
      <trkpt lat="46.46243" lon="6.00194">
        <ele>1272.7</ele>
        <time>2019-08-01T08:38:44Z</time>
      </trkpt>
      <trkpt lat="46.46246" lon="6.00189">
        <ele>1272.8</ele>
        <time>2019-08-01T08:39:02Z</time>
      </trkpt>
      <trkpt lat="46.4625" lon="6.00186">
        <ele>1273.5</ele>
        <time>2019-08-01T08:39:30Z</time>
      </trkpt>
      <trkpt lat="46.46239" lon="6.0019">
        <ele>1273.4</ele>
        <time>2019-08-01T08:56:02Z</time>
      </trkpt>
      <trkpt lat="46.46234" lon="6.00192">
        <ele>1271.5</ele>
        <time>2019-08-01T08:56:18Z</time>
      </trkpt>
      <trkpt lat="46.46229" lon="6.00193">
        <ele>1270.1</ele>
        <time>2019-08-01T08:56:26Z</time>
      </trkpt>
      <trkpt lat="46.46223" lon="6.00191">
        <ele>1269.3</ele>
        <time>2019-08-01T08:56:30Z</time>
      </trkpt>
      <trkpt lat="46.46218" lon="6.00189">
        <ele>1269.1</ele>
        <time>2019-08-01T08:56:32Z</time>
      </trkpt>
      <trkpt lat="46.46213" lon="6.00189">
        <ele>1268.9</ele>
        <time>2019-08-01T08:56:34Z</time>
      </trkpt>
      <trkpt lat="46.46203" lon="6.00191">
        <ele>1269.7</ele>
        <time>2019-08-01T08:56:49Z</time>
      </trkpt>
      <trkpt lat="46.462" lon="6.00196">
        <ele>1270.2</ele>
        <time>2019-08-01T08:56:56Z</time>
      </trkpt>
      <trkpt lat="46.46194" lon="6.00204">
        <ele>1271</ele>
        <time>2019-08-01T08:57:07Z</time>
      </trkpt>
      <trkpt lat="46.4619" lon="6.00213">
        <ele>1271.4</ele>
        <time>2019-08-01T08:57:16Z</time>
      </trkpt>
      <trkpt lat="46.46187" lon="6.0022">
        <ele>1271.7</ele>
        <time>2019-08-01T08:57:20Z</time>
      </trkpt>
      <trkpt lat="46.46183" lon="6.00225">
        <ele>1271.9</ele>
        <time>2019-08-01T08:57:25Z</time>
      </trkpt>
      <trkpt lat="46.46179" lon="6.00229">
        <ele>1272.1</ele>
        <time>2019-08-01T08:57:33Z</time>
      </trkpt>
      <trkpt lat="46.46175" lon="6.00233">
        <ele>1272.1</ele>
        <time>2019-08-01T08:57:35Z</time>
      </trkpt>
      <trkpt lat="46.46171" lon="6.00236">
        <ele>1272</ele>
        <time>2019-08-01T08:57:40Z</time>
      </trkpt>
      <trkpt lat="46.4614" lon="6.00236">
        <ele>1271.4</ele>
        <time>2019-08-01T08:58:20Z</time>
      </trkpt>
      <trkpt lat="46.46137" lon="6.00231">
        <ele>1271.5</ele>
        <time>2019-08-01T08:58:23Z</time>
      </trkpt>
      <trkpt lat="46.46133" lon="6.00226">
        <ele>1271.7</ele>
        <time>2019-08-01T08:58:26Z</time>
      </trkpt>
      <trkpt lat="46.46132" lon="6.00219">
        <ele>1272.1</ele>
        <time>2019-08-01T08:58:31Z</time>
      </trkpt>
      <trkpt lat="46.4613" lon="6.00212">
        <ele>1272.8</ele>
        <time>2019-08-01T08:58:36Z</time>
      </trkpt>
      <trkpt lat="46.46127" lon="6.00204">
        <ele>1273.2</ele>
        <time>2019-08-01T08:58:40Z</time>
      </trkpt>
      <trkpt lat="46.46126" lon="6.00197">
        <ele>1273.8</ele>
        <time>2019-08-01T08:58:45Z</time>
      </trkpt>
      <trkpt lat="46.46127" lon="6.0019">
        <ele>1274.4</ele>
        <time>2019-08-01T08:58:51Z</time>
      </trkpt>
      <trkpt lat="46.46127" lon="6.00183">
        <ele>1275.2</ele>
        <time>2019-08-01T08:58:58Z</time>
      </trkpt>
      <trkpt lat="46.46127" lon="6.00176">
        <ele>1276</ele>
        <time>2019-08-01T08:59:06Z</time>
      </trkpt>
      <trkpt lat="46.46127" lon="6.00169">
        <ele>1276</ele>
        <time>2019-08-01T08:59:13Z</time>
      </trkpt>
      <trkpt lat="46.46126" lon="6.00159">
        <ele>1275.9</ele>
        <time>2019-08-01T08:59:17Z</time>
      </trkpt>
      <trkpt lat="46.46124" lon="6.00152">
        <ele>1275.9</ele>
        <time>2019-08-01T08:59:19Z</time>
      </trkpt>
      <trkpt lat="46.46122" lon="6.00145">
        <ele>1275.7</ele>
        <time>2019-08-01T08:59:22Z</time>
      </trkpt>
      <trkpt lat="46.46117" lon="6.00141">
        <ele>1275.5</ele>
        <time>2019-08-01T08:59:29Z</time>
      </trkpt>
      <trkpt lat="46.46112" lon="6.00139">
        <ele>1275.2</ele>
        <time>2019-08-01T08:59:33Z</time>
      </trkpt>
      <trkpt lat="46.46108" lon="6.00138">
        <ele>1275</ele>
        <time>2019-08-01T08:59:36Z</time>
      </trkpt>
      <trkpt lat="46.46103" lon="6.00135">
        <ele>1274.7</ele>
        <time>2019-08-01T08:59:40Z</time>
      </trkpt>
      <trkpt lat="46.46098" lon="6.00132">
        <ele>1274.3</ele>
        <time>2019-08-01T08:59:44Z</time>
      </trkpt>
      <trkpt lat="46.46094" lon="6.0013">
        <ele>1273.5</ele>
        <time>2019-08-01T08:59:50Z</time>
      </trkpt>
      <trkpt lat="46.4609" lon="6.00126">
        <ele>1272.8</ele>
        <time>2019-08-01T08:59:55Z</time>
      </trkpt>
      <trkpt lat="46.46086" lon="6.00121">
        <ele>1272</ele>
        <time>2019-08-01T09:00:01Z</time>
      </trkpt>
      <trkpt lat="46.46082" lon="6.00117">
        <ele>1271.5</ele>
        <time>2019-08-01T09:00:08Z</time>
      </trkpt>
      <trkpt lat="46.46077" lon="6.00113">
        <ele>1271.8</ele>
        <time>2019-08-01T09:00:13Z</time>
      </trkpt>
      <trkpt lat="46.46073" lon="6.00108">
        <ele>1272</ele>
        <time>2019-08-01T09:00:17Z</time>
      </trkpt>
      <trkpt lat="46.46068" lon="6.00105">
        <ele>1272.2</ele>
        <time>2019-08-01T09:00:22Z</time>
      </trkpt>
      <trkpt lat="46.46064" lon="6.00103">
        <ele>1272.7</ele>
        <time>2019-08-01T09:00:29Z</time>
      </trkpt>
      <trkpt lat="46.4606" lon="6.00098">
        <ele>1273.3</ele>
        <time>2019-08-01T09:00:37Z</time>
      </trkpt>
      <trkpt lat="46.46055" lon="6.00095">
        <ele>1273.6</ele>
        <time>2019-08-01T09:00:43Z</time>
      </trkpt>
      <trkpt lat="46.46051" lon="6.00091">
        <ele>1273.6</ele>
        <time>2019-08-01T09:00:50Z</time>
      </trkpt>
      <trkpt lat="46.46047" lon="6.00087">
        <ele>1273.1</ele>
        <time>2019-08-01T09:00:58Z</time>
      </trkpt>
      <trkpt lat="46.46043" lon="6.00083">
        <ele>1272.4</ele>
        <time>2019-08-01T09:01:05Z</time>
      </trkpt>
      <trkpt lat="46.46037" lon="6.00081">
        <ele>1271.7</ele>
        <time>2019-08-01T09:01:11Z</time>
      </trkpt>
      <trkpt lat="46.46032" lon="6.00081">
        <ele>1271.2</ele>
        <time>2019-08-01T09:01:16Z</time>
      </trkpt>
      <trkpt lat="46.46027" lon="6.00082">
        <ele>1270.4</ele>
        <time>2019-08-01T09:01:22Z</time>
      </trkpt>
      <trkpt lat="46.46023" lon="6.0008">
        <ele>1269.4</ele>
        <time>2019-08-01T09:01:29Z</time>
      </trkpt>
      <trkpt lat="46.46018" lon="6.00083">
        <ele>1269</ele>
        <time>2019-08-01T09:01:33Z</time>
      </trkpt>
      <trkpt lat="46.46013" lon="6.00085">
        <ele>1268.2</ele>
        <time>2019-08-01T09:01:39Z</time>
      </trkpt>
      <trkpt lat="46.46008" lon="6.00085">
        <ele>1267.6</ele>
        <time>2019-08-01T09:01:45Z</time>
      </trkpt>
      <trkpt lat="46.46003" lon="6.00083">
        <ele>1267.1</ele>
        <time>2019-08-01T09:01:52Z</time>
      </trkpt>
      <trkpt lat="46.45999" lon="6.00079">
        <ele>1266.7</ele>
        <time>2019-08-01T09:01:58Z</time>
      </trkpt>
      <trkpt lat="46.45997" lon="6.00073">
        <ele>1266.2</ele>
        <time>2019-08-01T09:02:05Z</time>
      </trkpt>
      <trkpt lat="46.45994" lon="6.00066">
        <ele>1265.8</ele>
        <time>2019-08-01T09:02:10Z</time>
      </trkpt>
      <trkpt lat="46.45992" lon="6.00059">
        <ele>1265.6</ele>
        <time>2019-08-01T09:02:13Z</time>
      </trkpt>
      <trkpt lat="46.45991" lon="6.00052">
        <ele>1265.2</ele>
        <time>2019-08-01T09:02:17Z</time>
      </trkpt>
      <trkpt lat="46.45989" lon="6.00046">
        <ele>1264.9</ele>
        <time>2019-08-01T09:02:21Z</time>
      </trkpt>
      <trkpt lat="46.45986" lon="6.00041">
        <ele>1264.6</ele>
        <time>2019-08-01T09:02:27Z</time>
      </trkpt>
      <trkpt lat="46.45982" lon="6.00037">
        <ele>1264.6</ele>
        <time>2019-08-01T09:02:32Z</time>
      </trkpt>
      <trkpt lat="46.45978" lon="6.00033">
        <ele>1264.7</ele>
        <time>2019-08-01T09:02:37Z</time>
      </trkpt>
      <trkpt lat="46.45973" lon="6.00029">
        <ele>1265.1</ele>
        <time>2019-08-01T09:02:41Z</time>
      </trkpt>
      <trkpt lat="46.45969" lon="6.00025">
        <ele>1265.8</ele>
        <time>2019-08-01T09:02:48Z</time>
      </trkpt>
      <trkpt lat="46.45965" lon="6.00021">
        <ele>1266.2</ele>
        <time>2019-08-01T09:02:55Z</time>
      </trkpt>
      <trkpt lat="46.45961" lon="6.00017">
        <ele>1266.5</ele>
        <time>2019-08-01T09:03:01Z</time>
      </trkpt>
      <trkpt lat="46.45957" lon="6.00014">
        <ele>1266.9</ele>
        <time>2019-08-01T09:03:07Z</time>
      </trkpt>
      <trkpt lat="46.45952" lon="6.00013">
        <ele>1267.7</ele>
        <time>2019-08-01T09:03:20Z</time>
      </trkpt>
      <trkpt lat="46.45948" lon="6.00014">
        <ele>1268</ele>
        <time>2019-08-01T09:03:29Z</time>
      </trkpt>
      <trkpt lat="46.45943" lon="6.00016">
        <ele>1268.3</ele>
        <time>2019-08-01T09:03:36Z</time>
      </trkpt>
      <trkpt lat="46.45938" lon="6.00015">
        <ele>1268.3</ele>
        <time>2019-08-01T09:03:42Z</time>
      </trkpt>
      <trkpt lat="46.45933" lon="6.00013">
        <ele>1268.1</ele>
        <time>2019-08-01T09:03:48Z</time>
      </trkpt>
      <trkpt lat="46.45928" lon="6.0001">
        <ele>1268</ele>
        <time>2019-08-01T09:03:51Z</time>
      </trkpt>
      <trkpt lat="46.45923" lon="6.00007">
        <ele>1267.6</ele>
        <time>2019-08-01T09:03:57Z</time>
      </trkpt>
      <trkpt lat="46.4592" lon="6.00003">
        <ele>1267</ele>
        <time>2019-08-01T09:04:02Z</time>
      </trkpt>
      <trkpt lat="46.45915" lon="6">
        <ele>1266.3</ele>
        <time>2019-08-01T09:04:08Z</time>
      </trkpt>
      <trkpt lat="46.45909" lon="5.99996">
        <ele>1265.4</ele>
        <time>2019-08-01T09:04:15Z</time>
      </trkpt>
      <trkpt lat="46.45904" lon="5.99992">
        <ele>1265.1</ele>
        <time>2019-08-01T09:04:19Z</time>
      </trkpt>
      <trkpt lat="46.45898" lon="5.99989">
        <ele>1264.8</ele>
        <time>2019-08-01T09:04:22Z</time>
      </trkpt>
      <trkpt lat="46.45894" lon="5.99986">
        <ele>1264.6</ele>
        <time>2019-08-01T09:04:26Z</time>
      </trkpt>
      <trkpt lat="46.45891" lon="5.99981">
        <ele>1264.5</ele>
        <time>2019-08-01T09:04:30Z</time>
      </trkpt>
      <trkpt lat="46.45888" lon="5.99976">
        <ele>1264.6</ele>
        <time>2019-08-01T09:04:35Z</time>
      </trkpt>
      <trkpt lat="46.45884" lon="5.9997">
        <ele>1265</ele>
        <time>2019-08-01T09:04:40Z</time>
      </trkpt>
      <trkpt lat="46.4588" lon="5.99964">
        <ele>1265.4</ele>
        <time>2019-08-01T09:04:44Z</time>
      </trkpt>
      <trkpt lat="46.45877" lon="5.99958">
        <ele>1265.5</ele>
        <time>2019-08-01T09:04:47Z</time>
      </trkpt>
      <trkpt lat="46.45872" lon="5.99955">
        <ele>1265.4</ele>
        <time>2019-08-01T09:04:52Z</time>
      </trkpt>
      <trkpt lat="46.45868" lon="5.99953">
        <ele>1265.2</ele>
        <time>2019-08-01T09:04:57Z</time>
      </trkpt>
      <trkpt lat="46.45863" lon="5.9995">
        <ele>1265.1</ele>
        <time>2019-08-01T09:05:02Z</time>
      </trkpt>
      <trkpt lat="46.45858" lon="5.99947">
        <ele>1264.7</ele>
        <time>2019-08-01T09:05:09Z</time>
      </trkpt>
      <trkpt lat="46.45853" lon="5.99944">
        <ele>1264.5</ele>
        <time>2019-08-01T09:05:14Z</time>
      </trkpt>
      <trkpt lat="46.45848" lon="5.9994">
        <ele>1264.3</ele>
        <time>2019-08-01T09:05:20Z</time>
      </trkpt>
      <trkpt lat="46.45844" lon="5.99936">
        <ele>1263.9</ele>
        <time>2019-08-01T09:05:27Z</time>
      </trkpt>
      <trkpt lat="46.45839" lon="5.99933">
        <ele>1263.5</ele>
        <time>2019-08-01T09:05:31Z</time>
      </trkpt>
      <trkpt lat="46.45835" lon="5.99928">
        <ele>1263.2</ele>
        <time>2019-08-01T09:05:34Z</time>
      </trkpt>
      <trkpt lat="46.45831" lon="5.99924">
        <ele>1262.9</ele>
        <time>2019-08-01T09:05:37Z</time>
      </trkpt>
      <trkpt lat="46.45827" lon="5.99919">
        <ele>1262.5</ele>
        <time>2019-08-01T09:05:43Z</time>
      </trkpt>
      <trkpt lat="46.45823" lon="5.99916">
        <ele>1262.4</ele>
        <time>2019-08-01T09:05:48Z</time>
      </trkpt>
      <trkpt lat="46.45818" lon="5.99912">
        <ele>1262.2</ele>
        <time>2019-08-01T09:05:54Z</time>
      </trkpt>
      <trkpt lat="46.45814" lon="5.9991">
        <ele>1262</ele>
        <time>2019-08-01T09:05:59Z</time>
      </trkpt>
      <trkpt lat="46.4581" lon="5.99906">
        <ele>1261.9</ele>
        <time>2019-08-01T09:06:04Z</time>
      </trkpt>
      <trkpt lat="46.45805" lon="5.99904">
        <ele>1262.3</ele>
        <time>2019-08-01T09:06:10Z</time>
      </trkpt>
      <trkpt lat="46.45801" lon="5.99908">
        <ele>1263.3</ele>
        <time>2019-08-01T09:06:18Z</time>
      </trkpt>
      <trkpt lat="46.45796" lon="5.9991">
        <ele>1264.2</ele>
        <time>2019-08-01T09:06:26Z</time>
      </trkpt>
      <trkpt lat="46.45792" lon="5.9991">
        <ele>1264.6</ele>
        <time>2019-08-01T09:06:31Z</time>
      </trkpt>
      <trkpt lat="46.45787" lon="5.99909">
        <ele>1264.5</ele>
        <time>2019-08-01T09:06:36Z</time>
      </trkpt>
      <trkpt lat="46.45783" lon="5.99907">
        <ele>1264</ele>
        <time>2019-08-01T09:06:41Z</time>
      </trkpt>
      <trkpt lat="46.45778" lon="5.99903">
        <ele>1262.9</ele>
        <time>2019-08-01T09:06:47Z</time>
      </trkpt>
      <trkpt lat="46.45774" lon="5.999">
        <ele>1262</ele>
        <time>2019-08-01T09:06:51Z</time>
      </trkpt>
      <trkpt lat="46.45769" lon="5.99899">
        <ele>1258.8</ele>
        <time>2019-08-01T09:07:02Z</time>
      </trkpt>
      <trkpt lat="46.45765" lon="5.99898">
        <ele>1254.8</ele>
        <time>2019-08-01T09:07:14Z</time>
      </trkpt>
      <trkpt lat="46.4576" lon="5.99896">
        <ele>1253.6</ele>
        <time>2019-08-01T09:07:19Z</time>
      </trkpt>
      <trkpt lat="46.45755" lon="5.99893">
        <ele>1252.8</ele>
        <time>2019-08-01T09:07:23Z</time>
      </trkpt>
      <trkpt lat="46.45751" lon="5.99891">
        <ele>1252.1</ele>
        <time>2019-08-01T09:07:28Z</time>
      </trkpt>
      <trkpt lat="46.45746" lon="5.99889">
        <ele>1251.5</ele>
        <time>2019-08-01T09:07:33Z</time>
      </trkpt>
      <trkpt lat="46.45741" lon="5.99888">
        <ele>1250.9</ele>
        <time>2019-08-01T09:07:39Z</time>
      </trkpt>
      <trkpt lat="46.45738" lon="5.99882">
        <ele>1250.3</ele>
        <time>2019-08-01T09:07:47Z</time>
      </trkpt>
      <trkpt lat="46.45736" lon="5.99876">
        <ele>1249.7</ele>
        <time>2019-08-01T09:07:54Z</time>
      </trkpt>
      <trkpt lat="46.45734" lon="5.9987">
        <ele>1248.9</ele>
        <time>2019-08-01T09:08:06Z</time>
      </trkpt>
      <trkpt lat="46.45732" lon="5.99863">
        <ele>1248.7</ele>
        <time>2019-08-01T09:08:11Z</time>
      </trkpt>
      <trkpt lat="46.45727" lon="5.99855">
        <ele>1246.9</ele>
        <time>2019-08-01T09:08:26Z</time>
      </trkpt>
      <trkpt lat="46.45722" lon="5.99858">
        <ele>1246.7</ele>
        <time>2019-08-01T09:08:34Z</time>
      </trkpt>
      <trkpt lat="46.45717" lon="5.99859">
        <ele>1247.2</ele>
        <time>2019-08-01T09:08:40Z</time>
      </trkpt>
      <trkpt lat="46.45713" lon="5.99858">
        <ele>1247.6</ele>
        <time>2019-08-01T09:08:43Z</time>
      </trkpt>
      <trkpt lat="46.45707" lon="5.99859">
        <ele>1247.8</ele>
        <time>2019-08-01T09:08:48Z</time>
      </trkpt>
      <trkpt lat="46.45703" lon="5.9986">
        <ele>1248</ele>
        <time>2019-08-01T09:08:54Z</time>
      </trkpt>
      <trkpt lat="46.45698" lon="5.9986">
        <ele>1248.1</ele>
        <time>2019-08-01T09:09:00Z</time>
      </trkpt>
      <trkpt lat="46.45694" lon="5.99857">
        <ele>1248</ele>
        <time>2019-08-01T09:09:07Z</time>
      </trkpt>
      <trkpt lat="46.4569" lon="5.99852">
        <ele>1247.3</ele>
        <time>2019-08-01T09:09:15Z</time>
      </trkpt>
      <trkpt lat="46.45685" lon="5.99852">
        <ele>1246.7</ele>
        <time>2019-08-01T09:09:21Z</time>
      </trkpt>
      <trkpt lat="46.45679" lon="5.99851">
        <ele>1246.4</ele>
        <time>2019-08-01T09:09:26Z</time>
      </trkpt>
      <trkpt lat="46.45675" lon="5.99848">
        <ele>1246.4</ele>
        <time>2019-08-01T09:09:30Z</time>
      </trkpt>
      <trkpt lat="46.45671" lon="5.99845">
        <ele>1246.6</ele>
        <time>2019-08-01T09:09:34Z</time>
      </trkpt>
      <trkpt lat="46.45666" lon="5.99844">
        <ele>1246.7</ele>
        <time>2019-08-01T09:09:40Z</time>
      </trkpt>
      <trkpt lat="46.45661" lon="5.99844">
        <ele>1246.8</ele>
        <time>2019-08-01T09:09:45Z</time>
      </trkpt>
      <trkpt lat="46.45656" lon="5.99846">
        <ele>1247.2</ele>
        <time>2019-08-01T09:09:53Z</time>
      </trkpt>
      <trkpt lat="46.45652" lon="5.99848">
        <ele>1247.8</ele>
        <time>2019-08-01T09:10:03Z</time>
      </trkpt>
      <trkpt lat="46.45647" lon="5.99846">
        <ele>1248</ele>
        <time>2019-08-01T09:10:07Z</time>
      </trkpt>
      <trkpt lat="46.45643" lon="5.99842">
        <ele>1247.9</ele>
        <time>2019-08-01T09:10:13Z</time>
      </trkpt>
      <trkpt lat="46.45638" lon="5.9984">
        <ele>1247.6</ele>
        <time>2019-08-01T09:10:19Z</time>
      </trkpt>
      <trkpt lat="46.45634" lon="5.99837">
        <ele>1247.2</ele>
        <time>2019-08-01T09:10:25Z</time>
      </trkpt>
      <trkpt lat="46.45632" lon="5.99831">
        <ele>1247</ele>
        <time>2019-08-01T09:10:31Z</time>
      </trkpt>
      <trkpt lat="46.45621" lon="5.99826">
        <ele>1247.6</ele>
        <time>2019-08-01T09:10:42Z</time>
      </trkpt>
      <trkpt lat="46.45617" lon="5.99823">
        <ele>1247.6</ele>
        <time>2019-08-01T09:10:46Z</time>
      </trkpt>
      <trkpt lat="46.45612" lon="5.9982">
        <ele>1248</ele>
        <time>2019-08-01T09:10:52Z</time>
      </trkpt>
      <trkpt lat="46.45611" lon="5.99827">
        <ele>1248</ele>
        <time>2019-08-01T09:11:08Z</time>
      </trkpt>
      <trkpt lat="46.45606" lon="5.99828">
        <ele>1247.7</ele>
        <time>2019-08-01T09:11:36Z</time>
      </trkpt>
      <trkpt lat="46.45603" lon="5.99834">
        <ele>1247.6</ele>
        <time>2019-08-01T09:11:45Z</time>
      </trkpt>
      <trkpt lat="46.45601" lon="5.9984">
        <ele>1248.2</ele>
        <time>2019-08-01T09:11:53Z</time>
      </trkpt>
      <trkpt lat="46.45596" lon="5.99844">
        <ele>1249.1</ele>
        <time>2019-08-01T09:12:02Z</time>
      </trkpt>
      <trkpt lat="46.45591" lon="5.99845">
        <ele>1249.7</ele>
        <time>2019-08-01T09:12:11Z</time>
      </trkpt>
      <trkpt lat="46.45586" lon="5.99845">
        <ele>1249.8</ele>
        <time>2019-08-01T09:12:17Z</time>
      </trkpt>
      <trkpt lat="46.45581" lon="5.99845">
        <ele>1249.8</ele>
        <time>2019-08-01T09:12:23Z</time>
      </trkpt>
      <trkpt lat="46.45576" lon="5.99844">
        <ele>1249.4</ele>
        <time>2019-08-01T09:12:31Z</time>
      </trkpt>
      <trkpt lat="46.45572" lon="5.99843">
        <ele>1248.9</ele>
        <time>2019-08-01T09:12:36Z</time>
      </trkpt>
      <trkpt lat="46.45567" lon="5.99846">
        <ele>1248.3</ele>
        <time>2019-08-01T09:12:42Z</time>
      </trkpt>
      <trkpt lat="46.45563" lon="5.9985">
        <ele>1247.5</ele>
        <time>2019-08-01T09:12:49Z</time>
      </trkpt>
      <trkpt lat="46.45558" lon="5.99852">
        <ele>1247</ele>
        <time>2019-08-01T09:12:53Z</time>
      </trkpt>
      <trkpt lat="46.45552" lon="5.99852">
        <ele>1246.8</ele>
        <time>2019-08-01T09:13:00Z</time>
      </trkpt>
      <trkpt lat="46.45548" lon="5.99854">
        <ele>1247.3</ele>
        <time>2019-08-01T09:13:05Z</time>
      </trkpt>
      <trkpt lat="46.45543" lon="5.99856">
        <ele>1247.8</ele>
        <time>2019-08-01T09:13:09Z</time>
      </trkpt>
      <trkpt lat="46.45539" lon="5.99858">
        <ele>1248.4</ele>
        <time>2019-08-01T09:13:14Z</time>
      </trkpt>
      <trkpt lat="46.45535" lon="5.99862">
        <ele>1248.8</ele>
        <time>2019-08-01T09:13:17Z</time>
      </trkpt>
      <trkpt lat="46.45531" lon="5.99865">
        <ele>1249.2</ele>
        <time>2019-08-01T09:13:20Z</time>
      </trkpt>
      <trkpt lat="46.45521" lon="5.99873">
        <ele>1250.6</ele>
        <time>2019-08-01T09:13:32Z</time>
      </trkpt>
      <trkpt lat="46.45516" lon="5.99876">
        <ele>1251.7</ele>
        <time>2019-08-01T09:13:44Z</time>
      </trkpt>
      <trkpt lat="46.45501" lon="5.99885">
        <ele>1253.5</ele>
        <time>2019-08-01T09:13:51Z</time>
      </trkpt>
      <trkpt lat="46.45498" lon="5.9989">
        <ele>1253.9</ele>
        <time>2019-08-01T09:13:54Z</time>
      </trkpt>
      <trkpt lat="46.45493" lon="5.99894">
        <ele>1254.6</ele>
        <time>2019-08-01T09:14:00Z</time>
      </trkpt>
      <trkpt lat="46.4549" lon="5.99899">
        <ele>1255.1</ele>
        <time>2019-08-01T09:14:07Z</time>
      </trkpt>
      <trkpt lat="46.45485" lon="5.99901">
        <ele>1255.7</ele>
        <time>2019-08-01T09:14:15Z</time>
      </trkpt>
      <trkpt lat="46.4548" lon="5.99902">
        <ele>1256</ele>
        <time>2019-08-01T09:14:22Z</time>
      </trkpt>
      <trkpt lat="46.45475" lon="5.99901">
        <ele>1256</ele>
        <time>2019-08-01T09:14:26Z</time>
      </trkpt>
      <trkpt lat="46.4547" lon="5.99902">
        <ele>1256.2</ele>
        <time>2019-08-01T09:14:34Z</time>
      </trkpt>
      <trkpt lat="46.45466" lon="5.99905">
        <ele>1255.9</ele>
        <time>2019-08-01T09:14:40Z</time>
      </trkpt>
      <trkpt lat="46.45463" lon="5.99912">
        <ele>1255.1</ele>
        <time>2019-08-01T09:14:46Z</time>
      </trkpt>
      <trkpt lat="46.4546" lon="5.99917">
        <ele>1254.6</ele>
        <time>2019-08-01T09:14:50Z</time>
      </trkpt>
      <trkpt lat="46.45456" lon="5.99919">
        <ele>1254</ele>
        <time>2019-08-01T09:14:57Z</time>
      </trkpt>
      <trkpt lat="46.45452" lon="5.99917">
        <ele>1253.6</ele>
        <time>2019-08-01T09:15:03Z</time>
      </trkpt>
      <trkpt lat="46.45447" lon="5.99919">
        <ele>1253</ele>
        <time>2019-08-01T09:15:10Z</time>
      </trkpt>
      <trkpt lat="46.45442" lon="5.99921">
        <ele>1252.6</ele>
        <time>2019-08-01T09:15:13Z</time>
      </trkpt>
      <trkpt lat="46.45436" lon="5.99923">
        <ele>1251.9</ele>
        <time>2019-08-01T09:15:19Z</time>
      </trkpt>
      <trkpt lat="46.45432" lon="5.99925">
        <ele>1251.7</ele>
        <time>2019-08-01T09:15:23Z</time>
      </trkpt>
      <trkpt lat="46.45428" lon="5.99929">
        <ele>1251.8</ele>
        <time>2019-08-01T09:15:27Z</time>
      </trkpt>
      <trkpt lat="46.45424" lon="5.99933">
        <ele>1252.2</ele>
        <time>2019-08-01T09:15:32Z</time>
      </trkpt>
      <trkpt lat="46.4542" lon="5.99938">
        <ele>1253.2</ele>
        <time>2019-08-01T09:15:38Z</time>
      </trkpt>
      <trkpt lat="46.45416" lon="5.99944">
        <ele>1253.8</ele>
        <time>2019-08-01T09:15:41Z</time>
      </trkpt>
      <trkpt lat="46.45411" lon="5.99948">
        <ele>1254.3</ele>
        <time>2019-08-01T09:15:44Z</time>
      </trkpt>
      <trkpt lat="46.45407" lon="5.99951">
        <ele>1254.7</ele>
        <time>2019-08-01T09:15:46Z</time>
      </trkpt>
      <trkpt lat="46.45403" lon="5.99954">
        <ele>1255.4</ele>
        <time>2019-08-01T09:15:50Z</time>
      </trkpt>
      <trkpt lat="46.45394" lon="5.99967">
        <ele>1257.1</ele>
        <time>2019-08-01T09:15:58Z</time>
      </trkpt>
      <trkpt lat="46.45389" lon="5.99974">
        <ele>1257.7</ele>
        <time>2019-08-01T09:16:03Z</time>
      </trkpt>
      <trkpt lat="46.45386" lon="5.99983">
        <ele>1258</ele>
        <time>2019-08-01T09:16:06Z</time>
      </trkpt>
      <trkpt lat="46.45383" lon="5.99988">
        <ele>1258.2</ele>
        <time>2019-08-01T09:16:10Z</time>
      </trkpt>
      <trkpt lat="46.4538" lon="5.99994">
        <ele>1258.9</ele>
        <time>2019-08-01T09:16:16Z</time>
      </trkpt>
      <trkpt lat="46.45376" lon="5.99998">
        <ele>1259.5</ele>
        <time>2019-08-01T09:16:21Z</time>
      </trkpt>
      <trkpt lat="46.45372" lon="6.00001">
        <ele>1259.9</ele>
        <time>2019-08-01T09:16:26Z</time>
      </trkpt>
      <trkpt lat="46.45361" lon="6.00008">
        <ele>1260</ele>
        <time>2019-08-01T09:16:37Z</time>
      </trkpt>
      <trkpt lat="46.45355" lon="6.00013">
        <ele>1259.8</ele>
        <time>2019-08-01T09:16:40Z</time>
      </trkpt>
      <trkpt lat="46.4535" lon="6.00018">
        <ele>1259.5</ele>
        <time>2019-08-01T09:16:44Z</time>
      </trkpt>
      <trkpt lat="46.45346" lon="6.00022">
        <ele>1258.9</ele>
        <time>2019-08-01T09:16:50Z</time>
      </trkpt>
      <trkpt lat="46.45342" lon="6.00026">
        <ele>1257.7</ele>
        <time>2019-08-01T09:16:58Z</time>
      </trkpt>
      <trkpt lat="46.45341" lon="6.00032">
        <ele>1255.5</ele>
        <time>2019-08-01T09:17:09Z</time>
      </trkpt>
      <trkpt lat="46.45343" lon="6.00038">
        <ele>1253.9</ele>
        <time>2019-08-01T09:17:17Z</time>
      </trkpt>
      <trkpt lat="46.45347" lon="6.00042">
        <ele>1252.8</ele>
        <time>2019-08-01T09:17:25Z</time>
      </trkpt>
      <trkpt lat="46.45351" lon="6.00046">
        <ele>1252</ele>
        <time>2019-08-01T09:17:34Z</time>
      </trkpt>
      <trkpt lat="46.45357" lon="6.00049">
        <ele>1252</ele>
        <time>2019-08-01T09:17:40Z</time>
      </trkpt>
      <trkpt lat="46.45361" lon="6.00052">
        <ele>1251.9</ele>
        <time>2019-08-01T09:17:43Z</time>
      </trkpt>
      <trkpt lat="46.45366" lon="6.00055">
        <ele>1251.5</ele>
        <time>2019-08-01T09:17:48Z</time>
      </trkpt>
      <trkpt lat="46.45371" lon="6.00056">
        <ele>1250.6</ele>
        <time>2019-08-01T09:17:55Z</time>
      </trkpt>
      <trkpt lat="46.45376" lon="6.00057">
        <ele>1249.9</ele>
        <time>2019-08-01T09:17:59Z</time>
      </trkpt>
      <trkpt lat="46.4538" lon="6.00057">
        <ele>1249.2</ele>
        <time>2019-08-01T09:18:03Z</time>
      </trkpt>
      <trkpt lat="46.45384" lon="6.00061">
        <ele>1247.8</ele>
        <time>2019-08-01T09:18:11Z</time>
      </trkpt>
      <trkpt lat="46.45387" lon="6.00065">
        <ele>1245.6</ele>
        <time>2019-08-01T09:18:21Z</time>
      </trkpt>
      <trkpt lat="46.4539" lon="6.00072">
        <ele>1243.3</ele>
        <time>2019-08-01T09:18:29Z</time>
      </trkpt>
      <trkpt lat="46.45392" lon="6.00079">
        <ele>1242</ele>
        <time>2019-08-01T09:18:34Z</time>
      </trkpt>
      <trkpt lat="46.45393" lon="6.00086">
        <ele>1241.1</ele>
        <time>2019-08-01T09:18:39Z</time>
      </trkpt>
      <trkpt lat="46.45396" lon="6.00092">
        <ele>1240.2</ele>
        <time>2019-08-01T09:18:44Z</time>
      </trkpt>
      <trkpt lat="46.45398" lon="6.00098">
        <ele>1239</ele>
        <time>2019-08-01T09:18:50Z</time>
      </trkpt>
      <trkpt lat="46.454" lon="6.00105">
        <ele>1237.7</ele>
        <time>2019-08-01T09:18:57Z</time>
      </trkpt>
      <trkpt lat="46.45401" lon="6.00117">
        <ele>1236.1</ele>
        <time>2019-08-01T09:19:08Z</time>
      </trkpt>
      <trkpt lat="46.45403" lon="6.00124">
        <ele>1235.6</ele>
        <time>2019-08-01T09:19:14Z</time>
      </trkpt>
      <trkpt lat="46.45405" lon="6.0013">
        <ele>1235</ele>
        <time>2019-08-01T09:19:21Z</time>
      </trkpt>
      <trkpt lat="46.45407" lon="6.00136">
        <ele>1234.4</ele>
        <time>2019-08-01T09:19:28Z</time>
      </trkpt>
      <trkpt lat="46.45411" lon="6.00141">
        <ele>1233.8</ele>
        <time>2019-08-01T09:19:34Z</time>
      </trkpt>
      <trkpt lat="46.45414" lon="6.00145">
        <ele>1233.1</ele>
        <time>2019-08-01T09:19:40Z</time>
      </trkpt>
      <trkpt lat="46.45422" lon="6.00153">
        <ele>1230.5</ele>
        <time>2019-08-01T09:19:52Z</time>
      </trkpt>
      <trkpt lat="46.45425" lon="6.00158">
        <ele>1229.9</ele>
        <time>2019-08-01T09:19:57Z</time>
      </trkpt>
      <trkpt lat="46.45429" lon="6.00162">
        <ele>1229.4</ele>
        <time>2019-08-01T09:20:04Z</time>
      </trkpt>
      <trkpt lat="46.45437" lon="6.00175">
        <ele>1228.8</ele>
        <time>2019-08-01T09:20:17Z</time>
      </trkpt>
      <trkpt lat="46.45437" lon="6.00182">
        <ele>1228.1</ele>
        <time>2019-08-01T09:20:26Z</time>
      </trkpt>
      <trkpt lat="46.45441" lon="6.00186">
        <ele>1227.2</ele>
        <time>2019-08-01T09:20:35Z</time>
      </trkpt>
      <trkpt lat="46.45444" lon="6.00191">
        <ele>1225.9</ele>
        <time>2019-08-01T09:20:43Z</time>
      </trkpt>
      <trkpt lat="46.45453" lon="6.00199">
        <ele>1222.8</ele>
        <time>2019-08-01T09:20:56Z</time>
      </trkpt>
      <trkpt lat="46.45456" lon="6.00203">
        <ele>1221.8</ele>
        <time>2019-08-01T09:21:01Z</time>
      </trkpt>
      <trkpt lat="46.45461" lon="6.00208">
        <ele>1220.7</ele>
        <time>2019-08-01T09:21:05Z</time>
      </trkpt>
      <trkpt lat="46.45467" lon="6.00222">
        <ele>1216.1</ele>
        <time>2019-08-01T09:21:17Z</time>
      </trkpt>
      <trkpt lat="46.45473" lon="6.00217">
        <ele>1212.8</ele>
        <time>2019-08-01T09:21:39Z</time>
      </trkpt>
      <trkpt lat="46.45477" lon="6.00212">
        <ele>1211.3</ele>
        <time>2019-08-01T09:21:48Z</time>
      </trkpt>
      <trkpt lat="46.45479" lon="6.00206">
        <ele>1210.2</ele>
        <time>2019-08-01T09:21:59Z</time>
      </trkpt>
      <trkpt lat="46.45481" lon="6.00201">
        <ele>1210.3</ele>
        <time>2019-08-01T09:22:04Z</time>
      </trkpt>
      <trkpt lat="46.45484" lon="6.00195">
        <ele>1210.5</ele>
        <time>2019-08-01T09:22:07Z</time>
      </trkpt>
      <trkpt lat="46.45492" lon="6.00182">
        <ele>1211.4</ele>
        <time>2019-08-01T09:22:19Z</time>
      </trkpt>
      <trkpt lat="46.45494" lon="6.00177">
        <ele>1211.5</ele>
        <time>2019-08-01T09:22:21Z</time>
      </trkpt>
      <trkpt lat="46.45498" lon="6.00169">
        <ele>1211.9</ele>
        <time>2019-08-01T09:22:26Z</time>
      </trkpt>
      <trkpt lat="46.45502" lon="6.00164">
        <ele>1212.1</ele>
        <time>2019-08-01T09:22:29Z</time>
      </trkpt>
      <trkpt lat="46.45503" lon="6.00146">
        <ele>1210</ele>
        <time>2019-08-01T09:22:45Z</time>
      </trkpt>
      <trkpt lat="46.455" lon="6.00128">
        <ele>1209.8</ele>
        <time>2019-08-01T09:22:58Z</time>
      </trkpt>
      <trkpt lat="46.45497" lon="6.00119">
        <ele>1210</ele>
        <time>2019-08-01T09:23:02Z</time>
      </trkpt>
      <trkpt lat="46.45496" lon="6.0011">
        <ele>1210.1</ele>
        <time>2019-08-01T09:23:06Z</time>
      </trkpt>
      <trkpt lat="46.45498" lon="6.00102">
        <ele>1210.2</ele>
        <time>2019-08-01T09:23:12Z</time>
      </trkpt>
      <trkpt lat="46.45499" lon="6.00096">
        <ele>1210.2</ele>
        <time>2019-08-01T09:23:16Z</time>
      </trkpt>
      <trkpt lat="46.45502" lon="6.0009">
        <ele>1209.9</ele>
        <time>2019-08-01T09:23:21Z</time>
      </trkpt>
      <trkpt lat="46.45505" lon="6.00085">
        <ele>1208.7</ele>
        <time>2019-08-01T09:23:29Z</time>
      </trkpt>
      <trkpt lat="46.45516" lon="6.00081">
        <ele>1205.5</ele>
        <time>2019-08-01T09:23:46Z</time>
      </trkpt>
      <trkpt lat="46.45521" lon="6.00079">
        <ele>1204.9</ele>
        <time>2019-08-01T09:23:49Z</time>
      </trkpt>
      <trkpt lat="46.45525" lon="6.00077">
        <ele>1204.2</ele>
        <time>2019-08-01T09:23:52Z</time>
      </trkpt>
      <trkpt lat="46.4553" lon="6.00077">
        <ele>1203.3</ele>
        <time>2019-08-01T09:23:55Z</time>
      </trkpt>
      <trkpt lat="46.45536" lon="6.00078">
        <ele>1202.3</ele>
        <time>2019-08-01T09:23:58Z</time>
      </trkpt>
      <trkpt lat="46.45541" lon="6.00079">
        <ele>1200.6</ele>
        <time>2019-08-01T09:24:04Z</time>
      </trkpt>
      <trkpt lat="46.45545" lon="6.00081">
        <ele>1199.3</ele>
        <time>2019-08-01T09:24:08Z</time>
      </trkpt>
      <trkpt lat="46.45551" lon="6.0008">
        <ele>1197.6</ele>
        <time>2019-08-01T09:24:13Z</time>
      </trkpt>
      <trkpt lat="46.45557" lon="6.00078">
        <ele>1195.9</ele>
        <time>2019-08-01T09:24:18Z</time>
      </trkpt>
      <trkpt lat="46.45562" lon="6.00078">
        <ele>1194.5</ele>
        <time>2019-08-01T09:24:22Z</time>
      </trkpt>
      <trkpt lat="46.45566" lon="6.00081">
        <ele>1192.3</ele>
        <time>2019-08-01T09:24:29Z</time>
      </trkpt>
      <trkpt lat="46.45571" lon="6.00084">
        <ele>1190.4</ele>
        <time>2019-08-01T09:24:36Z</time>
      </trkpt>
      <trkpt lat="46.45575" lon="6.00087">
        <ele>1189.2</ele>
        <time>2019-08-01T09:24:41Z</time>
      </trkpt>
      <trkpt lat="46.4558" lon="6.0009">
        <ele>1188.1</ele>
        <time>2019-08-01T09:24:48Z</time>
      </trkpt>
      <trkpt lat="46.45585" lon="6.00092">
        <ele>1186.6</ele>
        <time>2019-08-01T09:24:58Z</time>
      </trkpt>
      <trkpt lat="46.45589" lon="6.00096">
        <ele>1185.8</ele>
        <time>2019-08-01T09:25:06Z</time>
      </trkpt>
      <trkpt lat="46.45592" lon="6.00099">
        <ele>1185.3</ele>
        <time>2019-08-01T09:25:10Z</time>
      </trkpt>
      <trkpt lat="46.45595" lon="6.00105">
        <ele>1184.6</ele>
        <time>2019-08-01T09:25:15Z</time>
      </trkpt>
      <trkpt lat="46.45599" lon="6.0011">
        <ele>1183.7</ele>
        <time>2019-08-01T09:25:20Z</time>
      </trkpt>
      <trkpt lat="46.45603" lon="6.00113">
        <ele>1182.7</ele>
        <time>2019-08-01T09:25:26Z</time>
      </trkpt>
      <trkpt lat="46.45608" lon="6.00116">
        <ele>1181.7</ele>
        <time>2019-08-01T09:25:32Z</time>
      </trkpt>
      <trkpt lat="46.45611" lon="6.0012">
        <ele>1179.5</ele>
        <time>2019-08-01T09:25:44Z</time>
      </trkpt>
      <trkpt lat="46.45615" lon="6.00124">
        <ele>1178.5</ele>
        <time>2019-08-01T09:25:49Z</time>
      </trkpt>
      <trkpt lat="46.45617" lon="6.00131">
        <ele>1176.4</ele>
        <time>2019-08-01T09:26:00Z</time>
      </trkpt>
      <trkpt lat="46.45617" lon="6.00138">
        <ele>1174.7</ele>
        <time>2019-08-01T09:26:07Z</time>
      </trkpt>
      <trkpt lat="46.4562" lon="6.00144">
        <ele>1172.9</ele>
        <time>2019-08-01T09:26:16Z</time>
      </trkpt>
      <trkpt lat="46.45623" lon="6.0015">
        <ele>1172.2</ele>
        <time>2019-08-01T09:26:21Z</time>
      </trkpt>
      <trkpt lat="46.45627" lon="6.00154">
        <ele>1171.6</ele>
        <time>2019-08-01T09:26:25Z</time>
      </trkpt>
      <trkpt lat="46.4563" lon="6.00161">
        <ele>1170.4</ele>
        <time>2019-08-01T09:26:32Z</time>
      </trkpt>
      <trkpt lat="46.45631" lon="6.00168">
        <ele>1169.4</ele>
        <time>2019-08-01T09:26:38Z</time>
      </trkpt>
      <trkpt lat="46.45633" lon="6.00174">
        <ele>1168.5</ele>
        <time>2019-08-01T09:26:43Z</time>
      </trkpt>
      <trkpt lat="46.45636" lon="6.00179">
        <ele>1167.7</ele>
        <time>2019-08-01T09:26:47Z</time>
      </trkpt>
      <trkpt lat="46.45638" lon="6.00185">
        <ele>1166.9</ele>
        <time>2019-08-01T09:26:51Z</time>
      </trkpt>
      <trkpt lat="46.45639" lon="6.00193">
        <ele>1165.8</ele>
        <time>2019-08-01T09:26:57Z</time>
      </trkpt>
      <trkpt lat="46.45639" lon="6.002">
        <ele>1164.4</ele>
        <time>2019-08-01T09:27:05Z</time>
      </trkpt>
      <trkpt lat="46.45641" lon="6.00206">
        <ele>1163.5</ele>
        <time>2019-08-01T09:27:11Z</time>
      </trkpt>
      <trkpt lat="46.45644" lon="6.00211">
        <ele>1162.6</ele>
        <time>2019-08-01T09:27:16Z</time>
      </trkpt>
      <trkpt lat="46.45647" lon="6.00217">
        <ele>1161.9</ele>
        <time>2019-08-01T09:27:21Z</time>
      </trkpt>
      <trkpt lat="46.45651" lon="6.00223">
        <ele>1161</ele>
        <time>2019-08-01T09:27:27Z</time>
      </trkpt>
      <trkpt lat="46.45654" lon="6.00228">
        <ele>1159.8</ele>
        <time>2019-08-01T09:27:34Z</time>
      </trkpt>
      <trkpt lat="46.45658" lon="6.00232">
        <ele>1159.1</ele>
        <time>2019-08-01T09:27:38Z</time>
      </trkpt>
      <trkpt lat="46.45662" lon="6.00238">
        <ele>1158.2</ele>
        <time>2019-08-01T09:27:45Z</time>
      </trkpt>
      <trkpt lat="46.45665" lon="6.00242">
        <ele>1157.4</ele>
        <time>2019-08-01T09:27:50Z</time>
      </trkpt>
      <trkpt lat="46.45668" lon="6.00249">
        <ele>1156.7</ele>
        <time>2019-08-01T09:27:56Z</time>
      </trkpt>
      <trkpt lat="46.45673" lon="6.00256">
        <ele>1156.1</ele>
        <time>2019-08-01T09:28:02Z</time>
      </trkpt>
      <trkpt lat="46.45675" lon="6.00262">
        <ele>1155.8</ele>
        <time>2019-08-01T09:28:09Z</time>
      </trkpt>
      <trkpt lat="46.45678" lon="6.00268">
        <ele>1155.5</ele>
        <time>2019-08-01T09:28:15Z</time>
      </trkpt>
      <trkpt lat="46.45683" lon="6.00274">
        <ele>1155.3</ele>
        <time>2019-08-01T09:28:19Z</time>
      </trkpt>
      <trkpt lat="46.45687" lon="6.0028">
        <ele>1155.2</ele>
        <time>2019-08-01T09:28:22Z</time>
      </trkpt>
      <trkpt lat="46.45691" lon="6.00286">
        <ele>1155.2</ele>
        <time>2019-08-01T09:28:26Z</time>
      </trkpt>
      <trkpt lat="46.45695" lon="6.0029">
        <ele>1155</ele>
        <time>2019-08-01T09:28:30Z</time>
      </trkpt>
      <trkpt lat="46.457" lon="6.00306">
        <ele>1154</ele>
        <time>2019-08-01T09:28:50Z</time>
      </trkpt>
      <trkpt lat="46.45701" lon="6.00313">
        <ele>1154.1</ele>
        <time>2019-08-01T09:28:54Z</time>
      </trkpt>
      <trkpt lat="46.45703" lon="6.0032">
        <ele>1154.3</ele>
        <time>2019-08-01T09:28:58Z</time>
      </trkpt>
      <trkpt lat="46.45706" lon="6.00325">
        <ele>1154.5</ele>
        <time>2019-08-01T09:29:03Z</time>
      </trkpt>
      <trkpt lat="46.4571" lon="6.00329">
        <ele>1154.4</ele>
        <time>2019-08-01T09:29:08Z</time>
      </trkpt>
      <trkpt lat="46.45713" lon="6.00335">
        <ele>1154.1</ele>
        <time>2019-08-01T09:29:13Z</time>
      </trkpt>
      <trkpt lat="46.45715" lon="6.00341">
        <ele>1153.3</ele>
        <time>2019-08-01T09:29:18Z</time>
      </trkpt>
      <trkpt lat="46.45717" lon="6.00346">
        <ele>1152.5</ele>
        <time>2019-08-01T09:29:22Z</time>
      </trkpt>
      <trkpt lat="46.45721" lon="6.00353">
        <ele>1151.3</ele>
        <time>2019-08-01T09:29:28Z</time>
      </trkpt>
      <trkpt lat="46.45724" lon="6.00358">
        <ele>1150.4</ele>
        <time>2019-08-01T09:29:32Z</time>
      </trkpt>
      <trkpt lat="46.45725" lon="6.00364">
        <ele>1148.9</ele>
        <time>2019-08-01T09:29:37Z</time>
      </trkpt>
      <trkpt lat="46.45727" lon="6.00371">
        <ele>1147</ele>
        <time>2019-08-01T09:29:42Z</time>
      </trkpt>
      <trkpt lat="46.4573" lon="6.00377">
        <ele>1144.1</ele>
        <time>2019-08-01T09:29:49Z</time>
      </trkpt>
      <trkpt lat="46.45735" lon="6.0038">
        <ele>1142.1</ele>
        <time>2019-08-01T09:29:55Z</time>
      </trkpt>
      <trkpt lat="46.45737" lon="6.00386">
        <ele>1140.8</ele>
        <time>2019-08-01T09:29:59Z</time>
      </trkpt>
      <trkpt lat="46.4574" lon="6.00392">
        <ele>1138.6</ele>
        <time>2019-08-01T09:30:05Z</time>
      </trkpt>
      <trkpt lat="46.4574" lon="6.004">
        <ele>1136.5</ele>
        <time>2019-08-01T09:30:11Z</time>
      </trkpt>
      <trkpt lat="46.4574" lon="6.00407">
        <ele>1135</ele>
        <time>2019-08-01T09:30:16Z</time>
      </trkpt>
      <trkpt lat="46.4574" lon="6.00415">
        <ele>1134.3</ele>
        <time>2019-08-01T09:30:19Z</time>
      </trkpt>
      <trkpt lat="46.45744" lon="6.00428">
        <ele>1132.8</ele>
        <time>2019-08-01T09:30:29Z</time>
      </trkpt>
      <trkpt lat="46.45747" lon="6.00434">
        <ele>1132.4</ele>
        <time>2019-08-01T09:30:35Z</time>
      </trkpt>
      <trkpt lat="46.4575" lon="6.0044">
        <ele>1132</ele>
        <time>2019-08-01T09:30:41Z</time>
      </trkpt>
      <trkpt lat="46.45754" lon="6.00444">
        <ele>1131.6</ele>
        <time>2019-08-01T09:30:46Z</time>
      </trkpt>
      <trkpt lat="46.45758" lon="6.0045">
        <ele>1131.1</ele>
        <time>2019-08-01T09:30:51Z</time>
      </trkpt>
      <trkpt lat="46.4576" lon="6.00456">
        <ele>1130.5</ele>
        <time>2019-08-01T09:30:56Z</time>
      </trkpt>
      <trkpt lat="46.45761" lon="6.00462">
        <ele>1129.8</ele>
        <time>2019-08-01T09:31:00Z</time>
      </trkpt>
      <trkpt lat="46.45765" lon="6.00467">
        <ele>1129.1</ele>
        <time>2019-08-01T09:31:04Z</time>
      </trkpt>
      <trkpt lat="46.45769" lon="6.00472">
        <ele>1128.6</ele>
        <time>2019-08-01T09:31:08Z</time>
      </trkpt>
      <trkpt lat="46.45773" lon="6.00476">
        <ele>1128.2</ele>
        <time>2019-08-01T09:31:11Z</time>
      </trkpt>
      <trkpt lat="46.45777" lon="6.0048">
        <ele>1127.7</ele>
        <time>2019-08-01T09:31:15Z</time>
      </trkpt>
      <trkpt lat="46.4578" lon="6.00487">
        <ele>1126.9</ele>
        <time>2019-08-01T09:31:20Z</time>
      </trkpt>
      <trkpt lat="46.45783" lon="6.00493">
        <ele>1126.1</ele>
        <time>2019-08-01T09:31:25Z</time>
      </trkpt>
      <trkpt lat="46.45786" lon="6.00499">
        <ele>1125.6</ele>
        <time>2019-08-01T09:31:31Z</time>
      </trkpt>
      <trkpt lat="46.45788" lon="6.00505">
        <ele>1125.6</ele>
        <time>2019-08-01T09:31:35Z</time>
      </trkpt>
      <trkpt lat="46.45791" lon="6.00512">
        <ele>1125.6</ele>
        <time>2019-08-01T09:31:38Z</time>
      </trkpt>
      <trkpt lat="46.45793" lon="6.00518">
        <ele>1125.6</ele>
        <time>2019-08-01T09:31:42Z</time>
      </trkpt>
      <trkpt lat="46.45795" lon="6.00525">
        <ele>1125.6</ele>
        <time>2019-08-01T09:31:48Z</time>
      </trkpt>
      <trkpt lat="46.45797" lon="6.00532">
        <ele>1125.7</ele>
        <time>2019-08-01T09:31:53Z</time>
      </trkpt>
      <trkpt lat="46.45799" lon="6.00538">
        <ele>1125.7</ele>
        <time>2019-08-01T09:31:58Z</time>
      </trkpt>
      <trkpt lat="46.45801" lon="6.00545">
        <ele>1125.4</ele>
        <time>2019-08-01T09:32:02Z</time>
      </trkpt>
      <trkpt lat="46.45804" lon="6.00552">
        <ele>1125.1</ele>
        <time>2019-08-01T09:32:06Z</time>
      </trkpt>
      <trkpt lat="46.45808" lon="6.00558">
        <ele>1124.6</ele>
        <time>2019-08-01T09:32:10Z</time>
      </trkpt>
      <trkpt lat="46.45812" lon="6.00563">
        <ele>1124.1</ele>
        <time>2019-08-01T09:32:14Z</time>
      </trkpt>
      <trkpt lat="46.45815" lon="6.00569">
        <ele>1123.2</ele>
        <time>2019-08-01T09:32:19Z</time>
      </trkpt>
      <trkpt lat="46.45817" lon="6.00574">
        <ele>1122.3</ele>
        <time>2019-08-01T09:32:24Z</time>
      </trkpt>
      <trkpt lat="46.45819" lon="6.00581">
        <ele>1121.2</ele>
        <time>2019-08-01T09:32:30Z</time>
      </trkpt>
      <trkpt lat="46.45822" lon="6.00588">
        <ele>1120.5</ele>
        <time>2019-08-01T09:32:35Z</time>
      </trkpt>
      <trkpt lat="46.45824" lon="6.00594">
        <ele>1119.8</ele>
        <time>2019-08-01T09:32:40Z</time>
      </trkpt>
      <trkpt lat="46.45828" lon="6.006">
        <ele>1119.3</ele>
        <time>2019-08-01T09:32:44Z</time>
      </trkpt>
      <trkpt lat="46.45831" lon="6.00605">
        <ele>1118.9</ele>
        <time>2019-08-01T09:32:48Z</time>
      </trkpt>
      <trkpt lat="46.45834" lon="6.00612">
        <ele>1118.4</ele>
        <time>2019-08-01T09:32:54Z</time>
      </trkpt>
      <trkpt lat="46.45836" lon="6.00618">
        <ele>1117.9</ele>
        <time>2019-08-01T09:33:00Z</time>
      </trkpt>
      <trkpt lat="46.45838" lon="6.00624">
        <ele>1117.3</ele>
        <time>2019-08-01T09:33:06Z</time>
      </trkpt>
      <trkpt lat="46.45843" lon="6.00637">
        <ele>1115.1</ele>
        <time>2019-08-01T09:33:28Z</time>
      </trkpt>
      <trkpt lat="46.45852" lon="6.00659">
        <ele>1115.2</ele>
        <time>2019-08-01T09:33:38Z</time>
      </trkpt>
      <trkpt lat="46.45856" lon="6.00662">
        <ele>1115.3</ele>
        <time>2019-08-01T09:33:40Z</time>
      </trkpt>
      <trkpt lat="46.45861" lon="6.00665">
        <ele>1115.7</ele>
        <time>2019-08-01T09:33:44Z</time>
      </trkpt>
      <trkpt lat="46.45865" lon="6.00667">
        <ele>1116.1</ele>
        <time>2019-08-01T09:33:48Z</time>
      </trkpt>
      <trkpt lat="46.45875" lon="6.00675">
        <ele>1117.5</ele>
        <time>2019-08-01T09:34:03Z</time>
      </trkpt>
      <trkpt lat="46.45879" lon="6.00686">
        <ele>1117.3</ele>
        <time>2019-08-01T09:34:16Z</time>
      </trkpt>
      <trkpt lat="46.45882" lon="6.00692">
        <ele>1117</ele>
        <time>2019-08-01T09:34:23Z</time>
      </trkpt>
      <trkpt lat="46.45888" lon="6.007">
        <ele>1116.5</ele>
        <time>2019-08-01T09:34:33Z</time>
      </trkpt>
      <trkpt lat="46.4589" lon="6.00706">
        <ele>1116.5</ele>
        <time>2019-08-01T09:34:41Z</time>
      </trkpt>
      <trkpt lat="46.4589" lon="6.00714">
        <ele>1116.5</ele>
        <time>2019-08-01T09:34:48Z</time>
      </trkpt>
      <trkpt lat="46.45893" lon="6.0072">
        <ele>1116.3</ele>
        <time>2019-08-01T09:34:53Z</time>
      </trkpt>
      <trkpt lat="46.45904" lon="6.00743">
        <ele>1115.3</ele>
        <time>2019-08-01T09:35:04Z</time>
      </trkpt>
      <trkpt lat="46.45907" lon="6.00749">
        <ele>1114.8</ele>
        <time>2019-08-01T09:35:09Z</time>
      </trkpt>
      <trkpt lat="46.45911" lon="6.00754">
        <ele>1114.3</ele>
        <time>2019-08-01T09:35:13Z</time>
      </trkpt>
      <trkpt lat="46.45913" lon="6.0076">
        <ele>1113.9</ele>
        <time>2019-08-01T09:35:16Z</time>
      </trkpt>
      <trkpt lat="46.45915" lon="6.00766">
        <ele>1113.6</ele>
        <time>2019-08-01T09:35:19Z</time>
      </trkpt>
      <trkpt lat="46.45917" lon="6.00774">
        <ele>1113.3</ele>
        <time>2019-08-01T09:35:23Z</time>
      </trkpt>
      <trkpt lat="46.45922" lon="6.0078">
        <ele>1113.1</ele>
        <time>2019-08-01T09:35:25Z</time>
      </trkpt>
      <trkpt lat="46.45924" lon="6.00786">
        <ele>1112.7</ele>
        <time>2019-08-01T09:35:30Z</time>
      </trkpt>
      <trkpt lat="46.45925" lon="6.00792">
        <ele>1112.7</ele>
        <time>2019-08-01T09:35:32Z</time>
      </trkpt>
      <trkpt lat="46.45928" lon="6.00797">
        <ele>1112.7</ele>
        <time>2019-08-01T09:35:34Z</time>
      </trkpt>
      <trkpt lat="46.45932" lon="6.00802">
        <ele>1112.9</ele>
        <time>2019-08-01T09:35:38Z</time>
      </trkpt>
      <trkpt lat="46.45936" lon="6.00806">
        <ele>1113</ele>
        <time>2019-08-01T09:35:42Z</time>
      </trkpt>
      <trkpt lat="46.45939" lon="6.00812">
        <ele>1113.7</ele>
        <time>2019-08-01T09:35:49Z</time>
      </trkpt>
      <trkpt lat="46.45941" lon="6.00818">
        <ele>1114.1</ele>
        <time>2019-08-01T09:35:52Z</time>
      </trkpt>
      <trkpt lat="46.45945" lon="6.00823">
        <ele>1114.3</ele>
        <time>2019-08-01T09:35:55Z</time>
      </trkpt>
      <trkpt lat="46.45949" lon="6.00827">
        <ele>1114.5</ele>
        <time>2019-08-01T09:36:01Z</time>
      </trkpt>
      <trkpt lat="46.45953" lon="6.0083">
        <ele>1114.8</ele>
        <time>2019-08-01T09:36:08Z</time>
      </trkpt>
      <trkpt lat="46.45956" lon="6.00837">
        <ele>1114.9</ele>
        <time>2019-08-01T09:36:17Z</time>
      </trkpt>
      <trkpt lat="46.45959" lon="6.00842">
        <ele>1114.5</ele>
        <time>2019-08-01T09:36:24Z</time>
      </trkpt>
      <trkpt lat="46.45962" lon="6.00849">
        <ele>1114</ele>
        <time>2019-08-01T09:36:32Z</time>
      </trkpt>
      <trkpt lat="46.45964" lon="6.00855">
        <ele>1113.8</ele>
        <time>2019-08-01T09:36:35Z</time>
      </trkpt>
      <trkpt lat="46.45966" lon="6.00861">
        <ele>1113.4</ele>
        <time>2019-08-01T09:36:39Z</time>
      </trkpt>
      <trkpt lat="46.4597" lon="6.00866">
        <ele>1112.9</ele>
        <time>2019-08-01T09:36:45Z</time>
      </trkpt>
      <trkpt lat="46.45973" lon="6.0087">
        <ele>1112.5</ele>
        <time>2019-08-01T09:36:51Z</time>
      </trkpt>
      <trkpt lat="46.45978" lon="6.00877">
        <ele>1112.2</ele>
        <time>2019-08-01T09:36:59Z</time>
      </trkpt>
      <trkpt lat="46.4599" lon="6.00901">
        <ele>1111.3</ele>
        <time>2019-08-01T09:37:28Z</time>
      </trkpt>
      <trkpt lat="46.45998" lon="6.0092">
        <ele>1111.2</ele>
        <time>2019-08-01T09:37:38Z</time>
      </trkpt>
      <trkpt lat="46.45999" lon="6.00927">
        <ele>1111.1</ele>
        <time>2019-08-01T09:37:42Z</time>
      </trkpt>
      <trkpt lat="46.46" lon="6.00935">
        <ele>1110.8</ele>
        <time>2019-08-01T09:37:47Z</time>
      </trkpt>
      <trkpt lat="46.46002" lon="6.00941">
        <ele>1110.4</ele>
        <time>2019-08-01T09:37:56Z</time>
      </trkpt>
      <trkpt lat="46.46006" lon="6.00944">
        <ele>1110.2</ele>
        <time>2019-08-01T09:38:04Z</time>
      </trkpt>
      <trkpt lat="46.46011" lon="6.00944">
        <ele>1109.7</ele>
        <time>2019-08-01T09:38:10Z</time>
      </trkpt>
      <trkpt lat="46.46022" lon="6.0094">
        <ele>1107.4</ele>
        <time>2019-08-01T09:38:24Z</time>
      </trkpt>
      <trkpt lat="46.46028" lon="6.00943">
        <ele>1106</ele>
        <time>2019-08-01T09:38:37Z</time>
      </trkpt>
      <trkpt lat="46.46032" lon="6.00948">
        <ele>1105.4</ele>
        <time>2019-08-01T09:38:42Z</time>
      </trkpt>
      <trkpt lat="46.46036" lon="6.00952">
        <ele>1104.8</ele>
        <time>2019-08-01T09:38:46Z</time>
      </trkpt>
      <trkpt lat="46.46037" lon="6.00959">
        <ele>1102.1</ele>
        <time>2019-08-01T09:39:05Z</time>
      </trkpt>
      <trkpt lat="46.46042" lon="6.00963">
        <ele>1100.9</ele>
        <time>2019-08-01T09:39:11Z</time>
      </trkpt>
      <trkpt lat="46.46045" lon="6.00968">
        <ele>1099.8</ele>
        <time>2019-08-01T09:39:16Z</time>
      </trkpt>
      <trkpt lat="46.46047" lon="6.00975">
        <ele>1098.7</ele>
        <time>2019-08-01T09:39:21Z</time>
      </trkpt>
      <trkpt lat="46.46048" lon="6.00983">
        <ele>1098.2</ele>
        <time>2019-08-01T09:39:24Z</time>
      </trkpt>
      <trkpt lat="46.46049" lon="6.0099">
        <ele>1097.4</ele>
        <time>2019-08-01T09:39:29Z</time>
      </trkpt>
      <trkpt lat="46.4605" lon="6.00997">
        <ele>1096.7</ele>
        <time>2019-08-01T09:39:35Z</time>
      </trkpt>
      <trkpt lat="46.4605" lon="6.01004">
        <ele>1096</ele>
        <time>2019-08-01T09:39:41Z</time>
      </trkpt>
      <trkpt lat="46.4605" lon="6.01011">
        <ele>1095.4</ele>
        <time>2019-08-01T09:39:46Z</time>
      </trkpt>
      <trkpt lat="46.46049" lon="6.01017">
        <ele>1095</ele>
        <time>2019-08-01T09:39:53Z</time>
      </trkpt>
      <trkpt lat="46.46047" lon="6.01024">
        <ele>1094.7</ele>
        <time>2019-08-01T09:39:59Z</time>
      </trkpt>
      <trkpt lat="46.46046" lon="6.01031">
        <ele>1094.1</ele>
        <time>2019-08-01T09:40:05Z</time>
      </trkpt>
      <trkpt lat="46.46045" lon="6.01038">
        <ele>1093.8</ele>
        <time>2019-08-01T09:40:09Z</time>
      </trkpt>
      <trkpt lat="46.46043" lon="6.01045">
        <ele>1093.4</ele>
        <time>2019-08-01T09:40:14Z</time>
      </trkpt>
      <trkpt lat="46.46041" lon="6.01053">
        <ele>1092.7</ele>
        <time>2019-08-01T09:40:19Z</time>
      </trkpt>
      <trkpt lat="46.46039" lon="6.01059">
        <ele>1092.1</ele>
        <time>2019-08-01T09:40:23Z</time>
      </trkpt>
      <trkpt lat="46.46037" lon="6.01066">
        <ele>1091.6</ele>
        <time>2019-08-01T09:40:27Z</time>
      </trkpt>
      <trkpt lat="46.46035" lon="6.01072">
        <ele>1091.3</ele>
        <time>2019-08-01T09:40:30Z</time>
      </trkpt>
      <trkpt lat="46.46032" lon="6.01079">
        <ele>1090.9</ele>
        <time>2019-08-01T09:40:34Z</time>
      </trkpt>
      <trkpt lat="46.4603" lon="6.01086">
        <ele>1090.8</ele>
        <time>2019-08-01T09:40:39Z</time>
      </trkpt>
      <trkpt lat="46.46028" lon="6.01092">
        <ele>1090.6</ele>
        <time>2019-08-01T09:40:44Z</time>
      </trkpt>
      <trkpt lat="46.46024" lon="6.01098">
        <ele>1090.5</ele>
        <time>2019-08-01T09:40:49Z</time>
      </trkpt>
      <trkpt lat="46.46016" lon="6.01108">
        <ele>1089.8</ele>
        <time>2019-08-01T09:41:00Z</time>
      </trkpt>
      <trkpt lat="46.46013" lon="6.01114">
        <ele>1089.5</ele>
        <time>2019-08-01T09:41:05Z</time>
      </trkpt>
      <trkpt lat="46.4601" lon="6.0112">
        <ele>1088.9</ele>
        <time>2019-08-01T09:41:11Z</time>
      </trkpt>
      <trkpt lat="46.46006" lon="6.01126">
        <ele>1088.4</ele>
        <time>2019-08-01T09:41:16Z</time>
      </trkpt>
      <trkpt lat="46.46003" lon="6.01132">
        <ele>1088.2</ele>
        <time>2019-08-01T09:41:20Z</time>
      </trkpt>
      <trkpt lat="46.46" lon="6.01138">
        <ele>1088.5</ele>
        <time>2019-08-01T09:41:24Z</time>
      </trkpt>
      <trkpt lat="46.45999" lon="6.01145">
        <ele>1088.8</ele>
        <time>2019-08-01T09:41:29Z</time>
      </trkpt>
      <trkpt lat="46.45996" lon="6.01152">
        <ele>1089.2</ele>
        <time>2019-08-01T09:41:33Z</time>
      </trkpt>
      <trkpt lat="46.45994" lon="6.01158">
        <ele>1089.6</ele>
        <time>2019-08-01T09:41:36Z</time>
      </trkpt>
      <trkpt lat="46.45991" lon="6.01165">
        <ele>1089.9</ele>
        <time>2019-08-01T09:41:39Z</time>
      </trkpt>
      <trkpt lat="46.45989" lon="6.01171">
        <ele>1090.4</ele>
        <time>2019-08-01T09:41:42Z</time>
      </trkpt>
      <trkpt lat="46.45986" lon="6.01178">
        <ele>1090.8</ele>
        <time>2019-08-01T09:41:46Z</time>
      </trkpt>
      <trkpt lat="46.45983" lon="6.01185">
        <ele>1090.9</ele>
        <time>2019-08-01T09:41:50Z</time>
      </trkpt>
      <trkpt lat="46.45981" lon="6.01191">
        <ele>1090.9</ele>
        <time>2019-08-01T09:41:54Z</time>
      </trkpt>
      <trkpt lat="46.45978" lon="6.01197">
        <ele>1090.8</ele>
        <time>2019-08-01T09:41:58Z</time>
      </trkpt>
      <trkpt lat="46.45976" lon="6.01203">
        <ele>1090.5</ele>
        <time>2019-08-01T09:42:03Z</time>
      </trkpt>
      <trkpt lat="46.45973" lon="6.0121">
        <ele>1090</ele>
        <time>2019-08-01T09:42:08Z</time>
      </trkpt>
      <trkpt lat="46.45973" lon="6.01218">
        <ele>1089.1</ele>
        <time>2019-08-01T09:42:14Z</time>
      </trkpt>
      <trkpt lat="46.45974" lon="6.01224">
        <ele>1088.3</ele>
        <time>2019-08-01T09:42:19Z</time>
      </trkpt>
      <trkpt lat="46.45976" lon="6.0123">
        <ele>1087.7</ele>
        <time>2019-08-01T09:42:23Z</time>
      </trkpt>
      <trkpt lat="46.45979" lon="6.01236">
        <ele>1087.2</ele>
        <time>2019-08-01T09:42:27Z</time>
      </trkpt>
      <trkpt lat="46.45982" lon="6.01242">
        <ele>1086.5</ele>
        <time>2019-08-01T09:42:31Z</time>
      </trkpt>
      <trkpt lat="46.45986" lon="6.01247">
        <ele>1085.9</ele>
        <time>2019-08-01T09:42:35Z</time>
      </trkpt>
      <trkpt lat="46.45991" lon="6.0125">
        <ele>1085.5</ele>
        <time>2019-08-01T09:42:39Z</time>
      </trkpt>
      <trkpt lat="46.45995" lon="6.01254">
        <ele>1085.1</ele>
        <time>2019-08-01T09:42:43Z</time>
      </trkpt>
      <trkpt lat="46.45999" lon="6.01259">
        <ele>1084.8</ele>
        <time>2019-08-01T09:42:47Z</time>
      </trkpt>
      <trkpt lat="46.46003" lon="6.01263">
        <ele>1084.7</ele>
        <time>2019-08-01T09:42:51Z</time>
      </trkpt>
      <trkpt lat="46.46008" lon="6.01264">
        <ele>1084.6</ele>
        <time>2019-08-01T09:42:58Z</time>
      </trkpt>
      <trkpt lat="46.4601" lon="6.01274">
        <ele>1084</ele>
        <time>2019-08-01T09:43:33Z</time>
      </trkpt>
      <trkpt lat="46.46012" lon="6.01281">
        <ele>1083.7</ele>
        <time>2019-08-01T09:43:38Z</time>
      </trkpt>
      <trkpt lat="46.46015" lon="6.01286">
        <ele>1083.3</ele>
        <time>2019-08-01T09:43:43Z</time>
      </trkpt>
      <trkpt lat="46.46018" lon="6.01292">
        <ele>1082.8</ele>
        <time>2019-08-01T09:43:48Z</time>
      </trkpt>
      <trkpt lat="46.46014" lon="6.01286">
        <ele>1077.4</ele>
        <time>2019-08-01T09:44:29Z</time>
      </trkpt>
      <trkpt lat="46.4601" lon="6.01283">
        <ele>1077.5</ele>
        <time>2019-08-01T09:44:32Z</time>
      </trkpt>
      <trkpt lat="46.46006" lon="6.01277">
        <ele>1077.8</ele>
        <time>2019-08-01T09:44:36Z</time>
      </trkpt>
      <trkpt lat="46.46004" lon="6.0127">
        <ele>1077.7</ele>
        <time>2019-08-01T09:44:41Z</time>
      </trkpt>
      <trkpt lat="46.46002" lon="6.01262">
        <ele>1077.5</ele>
        <time>2019-08-01T09:44:45Z</time>
      </trkpt>
      <trkpt lat="46.46" lon="6.01256">
        <ele>1077.3</ele>
        <time>2019-08-01T09:44:49Z</time>
      </trkpt>
      <trkpt lat="46.46001" lon="6.0125">
        <ele>1077.4</ele>
        <time>2019-08-01T09:45:02Z</time>
      </trkpt>
      <trkpt lat="46.46005" lon="6.01245">
        <ele>1078.8</ele>
        <time>2019-08-01T09:45:13Z</time>
      </trkpt>
      <trkpt lat="46.46009" lon="6.01241">
        <ele>1079.1</ele>
        <time>2019-08-01T09:45:22Z</time>
      </trkpt>
      <trkpt lat="46.46014" lon="6.0124">
        <ele>1078.7</ele>
        <time>2019-08-01T09:45:28Z</time>
      </trkpt>
      <trkpt lat="46.46019" lon="6.01239">
        <ele>1078</ele>
        <time>2019-08-01T09:45:33Z</time>
      </trkpt>
      <trkpt lat="46.46024" lon="6.01239">
        <ele>1077.5</ele>
        <time>2019-08-01T09:45:36Z</time>
      </trkpt>
      <trkpt lat="46.46029" lon="6.0124">
        <ele>1077</ele>
        <time>2019-08-01T09:45:39Z</time>
      </trkpt>
      <trkpt lat="46.46034" lon="6.01238">
        <ele>1076.2</ele>
        <time>2019-08-01T09:45:44Z</time>
      </trkpt>
      <trkpt lat="46.46038" lon="6.01239">
        <ele>1075.7</ele>
        <time>2019-08-01T09:45:48Z</time>
      </trkpt>
      <trkpt lat="46.46043" lon="6.01237">
        <ele>1074.9</ele>
        <time>2019-08-01T09:45:54Z</time>
      </trkpt>
      <trkpt lat="46.46047" lon="6.01234">
        <ele>1074</ele>
        <time>2019-08-01T09:45:59Z</time>
      </trkpt>
      <trkpt lat="46.46051" lon="6.01229">
        <ele>1073</ele>
        <time>2019-08-01T09:46:05Z</time>
      </trkpt>
      <trkpt lat="46.46069" lon="6.01214">
        <ele>1070</ele>
        <time>2019-08-01T09:46:22Z</time>
      </trkpt>
      <trkpt lat="46.46073" lon="6.01211">
        <ele>1068.4</ele>
        <time>2019-08-01T09:46:32Z</time>
      </trkpt>
      <trkpt lat="46.46078" lon="6.01207">
        <ele>1067.7</ele>
        <time>2019-08-01T09:46:38Z</time>
      </trkpt>
      <trkpt lat="46.46083" lon="6.01206">
        <ele>1067.2</ele>
        <time>2019-08-01T09:46:44Z</time>
      </trkpt>
      <trkpt lat="46.46087" lon="6.01207">
        <ele>1067</ele>
        <time>2019-08-01T09:46:52Z</time>
      </trkpt>
      <trkpt lat="46.46092" lon="6.01209">
        <ele>1067.3</ele>
        <time>2019-08-01T09:46:59Z</time>
      </trkpt>
      <trkpt lat="46.46097" lon="6.0121">
        <ele>1067.6</ele>
        <time>2019-08-01T09:47:04Z</time>
      </trkpt>
      <trkpt lat="46.46102" lon="6.0121">
        <ele>1068.1</ele>
        <time>2019-08-01T09:47:11Z</time>
      </trkpt>
      <trkpt lat="46.46108" lon="6.01211">
        <ele>1068.7</ele>
        <time>2019-08-01T09:47:20Z</time>
      </trkpt>
      <trkpt lat="46.46113" lon="6.01212">
        <ele>1068.5</ele>
        <time>2019-08-01T09:47:23Z</time>
      </trkpt>
      <trkpt lat="46.46118" lon="6.01212">
        <ele>1067.5</ele>
        <time>2019-08-01T09:47:30Z</time>
      </trkpt>
      <trkpt lat="46.46124" lon="6.01212">
        <ele>1066.8</ele>
        <time>2019-08-01T09:47:35Z</time>
      </trkpt>
      <trkpt lat="46.4613" lon="6.01213">
        <ele>1066.5</ele>
        <time>2019-08-01T09:47:37Z</time>
      </trkpt>
      <trkpt lat="46.46135" lon="6.01215">
        <ele>1066.1</ele>
        <time>2019-08-01T09:47:39Z</time>
      </trkpt>
      <trkpt lat="46.46139" lon="6.01217">
        <ele>1065.3</ele>
        <time>2019-08-01T09:47:46Z</time>
      </trkpt>
      <trkpt lat="46.46144" lon="6.01217">
        <ele>1066</ele>
        <time>2019-08-01T09:47:59Z</time>
      </trkpt>
      <trkpt lat="46.46149" lon="6.01219">
        <ele>1066.4</ele>
        <time>2019-08-01T09:48:03Z</time>
      </trkpt>
      <trkpt lat="46.46153" lon="6.01217">
        <ele>1066.7</ele>
        <time>2019-08-01T09:48:06Z</time>
      </trkpt>
      <trkpt lat="46.4616" lon="6.01217">
        <ele>1066.9</ele>
        <time>2019-08-01T09:48:09Z</time>
      </trkpt>
      <trkpt lat="46.46179" lon="6.01216">
        <ele>1067.1</ele>
        <time>2019-08-01T09:48:19Z</time>
      </trkpt>
      <trkpt lat="46.46183" lon="6.01217">
        <ele>1066.7</ele>
        <time>2019-08-01T09:48:31Z</time>
      </trkpt>
      <trkpt lat="46.4619" lon="6.01215">
        <ele>1067.5</ele>
        <time>2019-08-01T09:48:47Z</time>
      </trkpt>
      <trkpt lat="46.46194" lon="6.01214">
        <ele>1067.5</ele>
        <time>2019-08-01T09:48:54Z</time>
      </trkpt>
      <trkpt lat="46.46202" lon="6.01216">
        <ele>1065.1</ele>
        <time>2019-08-01T09:49:12Z</time>
      </trkpt>
      <trkpt lat="46.46206" lon="6.01214">
        <ele>1064.6</ele>
        <time>2019-08-01T09:49:22Z</time>
      </trkpt>
      <trkpt lat="46.46211" lon="6.01214">
        <ele>1064.2</ele>
        <time>2019-08-01T09:49:29Z</time>
      </trkpt>
      <trkpt lat="46.46217" lon="6.01216">
        <ele>1063.4</ele>
        <time>2019-08-01T09:49:34Z</time>
      </trkpt>
      <trkpt lat="46.46221" lon="6.01218">
        <ele>1061.2</ele>
        <time>2019-08-01T09:49:47Z</time>
      </trkpt>
      <trkpt lat="46.46228" lon="6.0122">
        <ele>1058.6</ele>
        <time>2019-08-01T09:49:55Z</time>
      </trkpt>
      <trkpt lat="46.46232" lon="6.01223">
        <ele>1057.8</ele>
        <time>2019-08-01T09:50:02Z</time>
      </trkpt>
      <trkpt lat="46.46237" lon="6.01223">
        <ele>1057.2</ele>
        <time>2019-08-01T09:50:05Z</time>
      </trkpt>
      <trkpt lat="46.46243" lon="6.01227">
        <ele>1056.5</ele>
        <time>2019-08-01T09:50:08Z</time>
      </trkpt>
      <trkpt lat="46.46247" lon="6.01229">
        <ele>1055.8</ele>
        <time>2019-08-01T09:50:11Z</time>
      </trkpt>
      <trkpt lat="46.46253" lon="6.0123">
        <ele>1055</ele>
        <time>2019-08-01T09:50:15Z</time>
      </trkpt>
      <trkpt lat="46.46258" lon="6.0123">
        <ele>1054.4</ele>
        <time>2019-08-01T09:50:19Z</time>
      </trkpt>
      <trkpt lat="46.46263" lon="6.01232">
        <ele>1054</ele>
        <time>2019-08-01T09:50:26Z</time>
      </trkpt>
      <trkpt lat="46.46267" lon="6.01229">
        <ele>1053.9</ele>
        <time>2019-08-01T09:50:33Z</time>
      </trkpt>
      <trkpt lat="46.46272" lon="6.01228">
        <ele>1053.8</ele>
        <time>2019-08-01T09:50:41Z</time>
      </trkpt>
      <trkpt lat="46.46288" lon="6.01229">
        <ele>1050.4</ele>
        <time>2019-08-01T09:50:55Z</time>
      </trkpt>
      <trkpt lat="46.46292" lon="6.01227">
        <ele>1049.6</ele>
        <time>2019-08-01T09:50:59Z</time>
      </trkpt>
      <trkpt lat="46.46297" lon="6.01227">
        <ele>1048.4</ele>
        <time>2019-08-01T09:51:05Z</time>
      </trkpt>
      <trkpt lat="46.46302" lon="6.01226">
        <ele>1046.5</ele>
        <time>2019-08-01T09:51:17Z</time>
      </trkpt>
      <trkpt lat="46.46307" lon="6.01229">
        <ele>1043.9</ele>
        <time>2019-08-01T09:51:26Z</time>
      </trkpt>
      <trkpt lat="46.46312" lon="6.01231">
        <ele>1041.9</ele>
        <time>2019-08-01T09:51:33Z</time>
      </trkpt>
      <trkpt lat="46.46316" lon="6.01231">
        <ele>1040.5</ele>
        <time>2019-08-01T09:51:38Z</time>
      </trkpt>
      <trkpt lat="46.46322" lon="6.0123">
        <ele>1038.9</ele>
        <time>2019-08-01T09:51:45Z</time>
      </trkpt>
      <trkpt lat="46.46326" lon="6.01231">
        <ele>1038</ele>
        <time>2019-08-01T09:51:49Z</time>
      </trkpt>
      <trkpt lat="46.46331" lon="6.01233">
        <ele>1036</ele>
        <time>2019-08-01T09:51:57Z</time>
      </trkpt>
      <trkpt lat="46.46336" lon="6.01234">
        <ele>1034.7</ele>
        <time>2019-08-01T09:52:02Z</time>
      </trkpt>
      <trkpt lat="46.4634" lon="6.01233">
        <ele>1033.5</ele>
        <time>2019-08-01T09:52:07Z</time>
      </trkpt>
      <trkpt lat="46.46346" lon="6.01235">
        <ele>1032</ele>
        <time>2019-08-01T09:52:12Z</time>
      </trkpt>
      <trkpt lat="46.46349" lon="6.0124">
        <ele>1030.7</ele>
        <time>2019-08-01T09:52:18Z</time>
      </trkpt>
      <trkpt lat="46.46353" lon="6.01246">
        <ele>1030.1</ele>
        <time>2019-08-01T09:52:26Z</time>
      </trkpt>
      <trkpt lat="46.46357" lon="6.01249">
        <ele>1030</ele>
        <time>2019-08-01T09:52:32Z</time>
      </trkpt>
      <trkpt lat="46.4636" lon="6.01255">
        <ele>1030.7</ele>
        <time>2019-08-01T09:52:44Z</time>
      </trkpt>
      <trkpt lat="46.46362" lon="6.01262">
        <ele>1031.3</ele>
        <time>2019-08-01T09:52:47Z</time>
      </trkpt>
      <trkpt lat="46.46364" lon="6.01268">
        <ele>1032.3</ele>
        <time>2019-08-01T09:52:54Z</time>
      </trkpt>
      <trkpt lat="46.46367" lon="6.01274">
        <ele>1031.7</ele>
        <time>2019-08-01T09:53:10Z</time>
      </trkpt>
      <trkpt lat="46.4637" lon="6.0128">
        <ele>1031.6</ele>
        <time>2019-08-01T09:53:14Z</time>
      </trkpt>
      <trkpt lat="46.46372" lon="6.01286">
        <ele>1031.3</ele>
        <time>2019-08-01T09:53:17Z</time>
      </trkpt>
      <trkpt lat="46.46376" lon="6.01294">
        <ele>1030.6</ele>
        <time>2019-08-01T09:53:23Z</time>
      </trkpt>
      <trkpt lat="46.46388" lon="6.01309">
        <ele>1030.9</ele>
        <time>2019-08-01T09:53:33Z</time>
      </trkpt>
      <trkpt lat="46.4639" lon="6.01315">
        <ele>1031.6</ele>
        <time>2019-08-01T09:53:37Z</time>
      </trkpt>
      <trkpt lat="46.46395" lon="6.01319">
        <ele>1032.4</ele>
        <time>2019-08-01T09:53:43Z</time>
      </trkpt>
      <trkpt lat="46.46399" lon="6.01322">
        <ele>1033.9</ele>
        <time>2019-08-01T09:53:53Z</time>
      </trkpt>
      <trkpt lat="46.46404" lon="6.01322">
        <ele>1034.3</ele>
        <time>2019-08-01T09:53:56Z</time>
      </trkpt>
      <trkpt lat="46.46408" lon="6.01325">
        <ele>1034.9</ele>
        <time>2019-08-01T09:54:09Z</time>
      </trkpt>
      <trkpt lat="46.46411" lon="6.01329">
        <ele>1034.7</ele>
        <time>2019-08-01T09:54:18Z</time>
      </trkpt>
      <trkpt lat="46.46415" lon="6.01333">
        <ele>1034.7</ele>
        <time>2019-08-01T09:54:23Z</time>
      </trkpt>
      <trkpt lat="46.46419" lon="6.01339">
        <ele>1034.6</ele>
        <time>2019-08-01T09:54:26Z</time>
      </trkpt>
      <trkpt lat="46.46422" lon="6.01345">
        <ele>1034.5</ele>
        <time>2019-08-01T09:54:31Z</time>
      </trkpt>
      <trkpt lat="46.46424" lon="6.01351">
        <ele>1031.6</ele>
        <time>2019-08-01T09:54:45Z</time>
      </trkpt>
      <trkpt lat="46.46426" lon="6.01352">
        <ele>1026.2</ele>
        <time>2019-08-01T09:55:23Z</time>
      </trkpt>
      <trkpt lat="46.46431" lon="6.01344">
        <ele>1020.8</ele>
        <time>2019-08-01T09:55:43Z</time>
      </trkpt>
      <trkpt lat="46.46431" lon="6.01338">
        <ele>1019.1</ele>
        <time>2019-08-01T09:55:49Z</time>
      </trkpt>
      <trkpt lat="46.46436" lon="6.01334">
        <ele>1017</ele>
        <time>2019-08-01T09:55:56Z</time>
      </trkpt>
      <trkpt lat="46.46439" lon="6.01326">
        <ele>1016</ele>
        <time>2019-08-01T09:55:59Z</time>
      </trkpt>
      <trkpt lat="46.46442" lon="6.0132">
        <ele>1014.9</ele>
        <time>2019-08-01T09:56:03Z</time>
      </trkpt>
      <trkpt lat="46.46447" lon="6.01314">
        <ele>1013.9</ele>
        <time>2019-08-01T09:56:07Z</time>
      </trkpt>
      <trkpt lat="46.46452" lon="6.0131">
        <ele>1013</ele>
        <time>2019-08-01T09:56:12Z</time>
      </trkpt>
      <trkpt lat="46.46463" lon="6.01313">
        <ele>1006</ele>
        <time>2019-08-01T09:57:08Z</time>
      </trkpt>
      <trkpt lat="46.46468" lon="6.01314">
        <ele>1005.2</ele>
        <time>2019-08-01T09:57:13Z</time>
      </trkpt>
      <trkpt lat="46.46473" lon="6.01313">
        <ele>1002.2</ele>
        <time>2019-08-01T09:57:29Z</time>
      </trkpt>
      <trkpt lat="46.46478" lon="6.01313">
        <ele>1001.5</ele>
        <time>2019-08-01T09:57:32Z</time>
      </trkpt>
      <trkpt lat="46.46483" lon="6.01315">
        <ele>1001.1</ele>
        <time>2019-08-01T09:57:34Z</time>
      </trkpt>
      <trkpt lat="46.46495" lon="6.01319">
        <ele>999.3</ele>
        <time>2019-08-01T09:57:47Z</time>
      </trkpt>
      <trkpt lat="46.46503" lon="6.01328">
        <ele>988</ele>
        <time>2019-08-01T09:59:55Z</time>
      </trkpt>
      <trkpt lat="46.46507" lon="6.01331">
        <ele>987.3</ele>
        <time>2019-08-01T09:59:59Z</time>
      </trkpt>
      <trkpt lat="46.46513" lon="6.01331">
        <ele>986.8</ele>
        <time>2019-08-01T10:00:03Z</time>
      </trkpt>
      <trkpt lat="46.46518" lon="6.01331">
        <ele>986</ele>
        <time>2019-08-01T10:00:10Z</time>
      </trkpt>
      <trkpt lat="46.46523" lon="6.01329">
        <ele>985.3</ele>
        <time>2019-08-01T10:00:16Z</time>
      </trkpt>
      <trkpt lat="46.46528" lon="6.01329">
        <ele>984.8</ele>
        <time>2019-08-01T10:00:20Z</time>
      </trkpt>
      <trkpt lat="46.46533" lon="6.01328">
        <ele>984.4</ele>
        <time>2019-08-01T10:00:25Z</time>
      </trkpt>
      <trkpt lat="46.46538" lon="6.01328">
        <ele>984.3</ele>
        <time>2019-08-01T10:00:28Z</time>
      </trkpt>
      <trkpt lat="46.46544" lon="6.01328">
        <ele>984.1</ele>
        <time>2019-08-01T10:00:32Z</time>
      </trkpt>
      <trkpt lat="46.46549" lon="6.01328">
        <ele>983.8</ele>
        <time>2019-08-01T10:00:36Z</time>
      </trkpt>
      <trkpt lat="46.46554" lon="6.01328">
        <ele>983.3</ele>
        <time>2019-08-01T10:00:41Z</time>
      </trkpt>
      <trkpt lat="46.46559" lon="6.01328">
        <ele>982</ele>
        <time>2019-08-01T10:00:52Z</time>
      </trkpt>
      <trkpt lat="46.46564" lon="6.0133">
        <ele>979.2</ele>
        <time>2019-08-01T10:01:02Z</time>
      </trkpt>
      <trkpt lat="46.46568" lon="6.01331">
        <ele>977.2</ele>
        <time>2019-08-01T10:01:07Z</time>
      </trkpt>
      <trkpt lat="46.46573" lon="6.0133">
        <ele>975.5</ele>
        <time>2019-08-01T10:01:11Z</time>
      </trkpt>
      <trkpt lat="46.46578" lon="6.01329">
        <ele>973.4</ele>
        <time>2019-08-01T10:01:16Z</time>
      </trkpt>
      <trkpt lat="46.46583" lon="6.01325">
        <ele>971.8</ele>
        <time>2019-08-01T10:01:21Z</time>
      </trkpt>
      <trkpt lat="46.46586" lon="6.0132">
        <ele>971.2</ele>
        <time>2019-08-01T10:01:24Z</time>
      </trkpt>
      <trkpt lat="46.4659" lon="6.01317">
        <ele>970.6</ele>
        <time>2019-08-01T10:01:28Z</time>
      </trkpt>
      <trkpt lat="46.46595" lon="6.01314">
        <ele>970.4</ele>
        <time>2019-08-01T10:01:34Z</time>
      </trkpt>
      <trkpt lat="46.46599" lon="6.01311">
        <ele>970.6</ele>
        <time>2019-08-01T10:01:39Z</time>
      </trkpt>
      <trkpt lat="46.46604" lon="6.01309">
        <ele>970.8</ele>
        <time>2019-08-01T10:01:44Z</time>
      </trkpt>
      <trkpt lat="46.46609" lon="6.01309">
        <ele>970.4</ele>
        <time>2019-08-01T10:01:48Z</time>
      </trkpt>
      <trkpt lat="46.46613" lon="6.0131">
        <ele>969.5</ele>
        <time>2019-08-01T10:01:53Z</time>
      </trkpt>
      <trkpt lat="46.46618" lon="6.0131">
        <ele>968.9</ele>
        <time>2019-08-01T10:01:57Z</time>
      </trkpt>
      <trkpt lat="46.46625" lon="6.01311">
        <ele>968.3</ele>
        <time>2019-08-01T10:02:11Z</time>
      </trkpt>
      <trkpt lat="46.46631" lon="6.01312">
        <ele>968.2</ele>
        <time>2019-08-01T10:02:14Z</time>
      </trkpt>
      <trkpt lat="46.46636" lon="6.01314">
        <ele>968</ele>
        <time>2019-08-01T10:02:17Z</time>
      </trkpt>
      <trkpt lat="46.46641" lon="6.01317">
        <ele>967.9</ele>
        <time>2019-08-01T10:02:21Z</time>
      </trkpt>
      <trkpt lat="46.46646" lon="6.01318">
        <ele>967.9</ele>
        <time>2019-08-01T10:02:25Z</time>
      </trkpt>
      <trkpt lat="46.4665" lon="6.01317">
        <ele>967.8</ele>
        <time>2019-08-01T10:02:29Z</time>
      </trkpt>
      <trkpt lat="46.46655" lon="6.01317">
        <ele>967.4</ele>
        <time>2019-08-01T10:02:34Z</time>
      </trkpt>
      <trkpt lat="46.4666" lon="6.01317">
        <ele>966.5</ele>
        <time>2019-08-01T10:02:40Z</time>
      </trkpt>
      <trkpt lat="46.46665" lon="6.01317">
        <ele>965.7</ele>
        <time>2019-08-01T10:02:45Z</time>
      </trkpt>
      <trkpt lat="46.4667" lon="6.01318">
        <ele>965.4</ele>
        <time>2019-08-01T10:02:50Z</time>
      </trkpt>
      <trkpt lat="46.46675" lon="6.01317">
        <ele>965.5</ele>
        <time>2019-08-01T10:02:54Z</time>
      </trkpt>
      <trkpt lat="46.4668" lon="6.01317">
        <ele>965.6</ele>
        <time>2019-08-01T10:03:00Z</time>
      </trkpt>
      <trkpt lat="46.46685" lon="6.01317">
        <ele>965.3</ele>
        <time>2019-08-01T10:03:05Z</time>
      </trkpt>
      <trkpt lat="46.46691" lon="6.01316">
        <ele>964.7</ele>
        <time>2019-08-01T10:03:10Z</time>
      </trkpt>
      <trkpt lat="46.46696" lon="6.01316">
        <ele>964.4</ele>
        <time>2019-08-01T10:03:16Z</time>
      </trkpt>
      <trkpt lat="46.46701" lon="6.01316">
        <ele>964.4</ele>
        <time>2019-08-01T10:03:23Z</time>
      </trkpt>
      <trkpt lat="46.46705" lon="6.01318">
        <ele>964.7</ele>
        <time>2019-08-01T10:03:28Z</time>
      </trkpt>
      <trkpt lat="46.4671" lon="6.01317">
        <ele>964.8</ele>
        <time>2019-08-01T10:03:32Z</time>
      </trkpt>
      <trkpt lat="46.46715" lon="6.01316">
        <ele>964.5</ele>
        <time>2019-08-01T10:03:39Z</time>
      </trkpt>
      <trkpt lat="46.4672" lon="6.01314">
        <ele>964.6</ele>
        <time>2019-08-01T10:03:47Z</time>
      </trkpt>
      <trkpt lat="46.46725" lon="6.01312">
        <ele>964.7</ele>
        <time>2019-08-01T10:03:51Z</time>
      </trkpt>
      <trkpt lat="46.46729" lon="6.01309">
        <ele>964.4</ele>
        <time>2019-08-01T10:03:58Z</time>
      </trkpt>
      <trkpt lat="46.46733" lon="6.01305">
        <ele>963.9</ele>
        <time>2019-08-01T10:04:02Z</time>
      </trkpt>
      <trkpt lat="46.46738" lon="6.01302">
        <ele>963.5</ele>
        <time>2019-08-01T10:04:05Z</time>
      </trkpt>
      <trkpt lat="46.46743" lon="6.013">
        <ele>963</ele>
        <time>2019-08-01T10:04:09Z</time>
      </trkpt>
      <trkpt lat="46.46748" lon="6.013">
        <ele>962.2</ele>
        <time>2019-08-01T10:04:13Z</time>
      </trkpt>
      <trkpt lat="46.46752" lon="6.013">
        <ele>961.3</ele>
        <time>2019-08-01T10:04:17Z</time>
      </trkpt>
      <trkpt lat="46.46757" lon="6.01299">
        <ele>959.9</ele>
        <time>2019-08-01T10:04:23Z</time>
      </trkpt>
      <trkpt lat="46.46762" lon="6.01299">
        <ele>958.1</ele>
        <time>2019-08-01T10:04:29Z</time>
      </trkpt>
      <trkpt lat="46.46768" lon="6.01297">
        <ele>957</ele>
        <time>2019-08-01T10:04:34Z</time>
      </trkpt>
      <trkpt lat="46.46773" lon="6.01295">
        <ele>956.5</ele>
        <time>2019-08-01T10:04:39Z</time>
      </trkpt>
      <trkpt lat="46.46777" lon="6.01294">
        <ele>956.5</ele>
        <time>2019-08-01T10:04:44Z</time>
      </trkpt>
      <trkpt lat="46.46782" lon="6.01292">
        <ele>956.9</ele>
        <time>2019-08-01T10:04:49Z</time>
      </trkpt>
      <trkpt lat="46.46787" lon="6.01292">
        <ele>957.9</ele>
        <time>2019-08-01T10:04:56Z</time>
      </trkpt>
      <trkpt lat="46.46792" lon="6.01292">
        <ele>959</ele>
        <time>2019-08-01T10:05:01Z</time>
      </trkpt>
      <trkpt lat="46.46797" lon="6.01291">
        <ele>960.4</ele>
        <time>2019-08-01T10:05:07Z</time>
      </trkpt>
      <trkpt lat="46.46802" lon="6.0129">
        <ele>961.5</ele>
        <time>2019-08-01T10:05:12Z</time>
      </trkpt>
      <trkpt lat="46.46806" lon="6.01291">
        <ele>962.8</ele>
        <time>2019-08-01T10:05:19Z</time>
      </trkpt>
      <trkpt lat="46.46811" lon="6.01292">
        <ele>963</ele>
        <time>2019-08-01T10:05:23Z</time>
      </trkpt>
      <trkpt lat="46.46816" lon="6.01294">
        <ele>962.7</ele>
        <time>2019-08-01T10:05:28Z</time>
      </trkpt>
      <trkpt lat="46.46821" lon="6.013">
        <ele>961.6</ele>
        <time>2019-08-01T10:05:34Z</time>
      </trkpt>
      <trkpt lat="46.46824" lon="6.01307">
        <ele>960.4</ele>
        <time>2019-08-01T10:05:39Z</time>
      </trkpt>
      <trkpt lat="46.46828" lon="6.01312">
        <ele>959</ele>
        <time>2019-08-01T10:05:44Z</time>
      </trkpt>
      <trkpt lat="46.46831" lon="6.01317">
        <ele>957.5</ele>
        <time>2019-08-01T10:05:50Z</time>
      </trkpt>
      <trkpt lat="46.46836" lon="6.0132">
        <ele>956.8</ele>
        <time>2019-08-01T10:05:54Z</time>
      </trkpt>
      <trkpt lat="46.46856" lon="6.01326">
        <ele>956.1</ele>
        <time>2019-08-01T10:06:02Z</time>
      </trkpt>
      <trkpt lat="46.4686" lon="6.0133">
        <ele>956.2</ele>
        <time>2019-08-01T10:06:05Z</time>
      </trkpt>
      <trkpt lat="46.46865" lon="6.01334">
        <ele>956.2</ele>
        <time>2019-08-01T10:06:09Z</time>
      </trkpt>
      <trkpt lat="46.4687" lon="6.01338">
        <ele>956.2</ele>
        <time>2019-08-01T10:06:15Z</time>
      </trkpt>
      <trkpt lat="46.46879" lon="6.01347">
        <ele>959.8</ele>
        <time>2019-08-01T10:07:09Z</time>
      </trkpt>
      <trkpt lat="46.4689" lon="6.01353">
        <ele>961.4</ele>
        <time>2019-08-01T10:07:25Z</time>
      </trkpt>
      <trkpt lat="46.469" lon="6.01362">
        <ele>960.7</ele>
        <time>2019-08-01T10:07:40Z</time>
      </trkpt>
      <trkpt lat="46.46905" lon="6.01364">
        <ele>960.4</ele>
        <time>2019-08-01T10:07:47Z</time>
      </trkpt>
      <trkpt lat="46.4691" lon="6.01363">
        <ele>960.4</ele>
        <time>2019-08-01T10:07:54Z</time>
      </trkpt>
      <trkpt lat="46.46914" lon="6.01366">
        <ele>960.5</ele>
        <time>2019-08-01T10:08:02Z</time>
      </trkpt>
      <trkpt lat="46.46919" lon="6.01368">
        <ele>959.6</ele>
        <time>2019-08-01T10:08:11Z</time>
      </trkpt>
      <trkpt lat="46.46924" lon="6.0137">
        <ele>959.2</ele>
        <time>2019-08-01T10:08:13Z</time>
      </trkpt>
      <trkpt lat="46.4693" lon="6.01372">
        <ele>958.6</ele>
        <time>2019-08-01T10:08:16Z</time>
      </trkpt>
      <trkpt lat="46.46934" lon="6.01375">
        <ele>956.9</ele>
        <time>2019-08-01T10:08:22Z</time>
      </trkpt>
      <trkpt lat="46.4694" lon="6.01376">
        <ele>955.2</ele>
        <time>2019-08-01T10:08:27Z</time>
      </trkpt>
      <trkpt lat="46.46944" lon="6.01379">
        <ele>954.1</ele>
        <time>2019-08-01T10:08:31Z</time>
      </trkpt>
      <trkpt lat="46.46949" lon="6.01383">
        <ele>953.4</ele>
        <time>2019-08-01T10:08:36Z</time>
      </trkpt>
      <trkpt lat="46.46954" lon="6.01387">
        <ele>953.4</ele>
        <time>2019-08-01T10:08:40Z</time>
      </trkpt>
      <trkpt lat="46.46959" lon="6.01388">
        <ele>953.8</ele>
        <time>2019-08-01T10:08:46Z</time>
      </trkpt>
      <trkpt lat="46.46964" lon="6.01389">
        <ele>954</ele>
        <time>2019-08-01T10:08:50Z</time>
      </trkpt>
      <trkpt lat="46.46969" lon="6.01391">
        <ele>954.1</ele>
        <time>2019-08-01T10:08:55Z</time>
      </trkpt>
      <trkpt lat="46.46974" lon="6.01393">
        <ele>954.2</ele>
        <time>2019-08-01T10:08:58Z</time>
      </trkpt>
      <trkpt lat="46.4698" lon="6.01395">
        <ele>954.3</ele>
        <time>2019-08-01T10:09:01Z</time>
      </trkpt>
      <trkpt lat="46.46984" lon="6.01398">
        <ele>954.7</ele>
        <time>2019-08-01T10:09:05Z</time>
      </trkpt>
      <trkpt lat="46.46989" lon="6.01401">
        <ele>955.1</ele>
        <time>2019-08-01T10:09:11Z</time>
      </trkpt>
      <trkpt lat="46.46993" lon="6.01405">
        <ele>954.8</ele>
        <time>2019-08-01T10:09:20Z</time>
      </trkpt>
      <trkpt lat="46.46998" lon="6.01406">
        <ele>953.3</ele>
        <time>2019-08-01T10:09:32Z</time>
      </trkpt>
      <trkpt lat="46.47003" lon="6.01406">
        <ele>952.3</ele>
        <time>2019-08-01T10:09:38Z</time>
      </trkpt>
      <trkpt lat="46.47008" lon="6.01405">
        <ele>950.8</ele>
        <time>2019-08-01T10:09:43Z</time>
      </trkpt>
      <trkpt lat="46.47021" lon="6.01403">
        <ele>947.6</ele>
        <time>2019-08-01T10:09:54Z</time>
      </trkpt>
      <trkpt lat="46.47043" lon="6.01402">
        <ele>942.3</ele>
        <time>2019-08-01T10:10:22Z</time>
      </trkpt>
      <trkpt lat="46.47047" lon="6.01402">
        <ele>940.8</ele>
        <time>2019-08-01T10:10:31Z</time>
      </trkpt>
      <trkpt lat="46.47057" lon="6.01403">
        <ele>939</ele>
        <time>2019-08-01T10:10:41Z</time>
      </trkpt>
      <trkpt lat="46.47064" lon="6.01406">
        <ele>939</ele>
        <time>2019-08-01T10:10:44Z</time>
      </trkpt>
      <trkpt lat="46.47068" lon="6.01408">
        <ele>938.6</ele>
        <time>2019-08-01T10:10:49Z</time>
      </trkpt>
      <trkpt lat="46.47073" lon="6.01408">
        <ele>935.9</ele>
        <time>2019-08-01T10:11:03Z</time>
      </trkpt>
      <trkpt lat="46.47077" lon="6.01406">
        <ele>934.6</ele>
        <time>2019-08-01T10:11:07Z</time>
      </trkpt>
      <trkpt lat="46.47082" lon="6.01407">
        <ele>933</ele>
        <time>2019-08-01T10:11:12Z</time>
      </trkpt>
      <trkpt lat="46.47087" lon="6.01406">
        <ele>930</ele>
        <time>2019-08-01T10:11:19Z</time>
      </trkpt>
      <trkpt lat="46.47092" lon="6.01407">
        <ele>928.9</ele>
        <time>2019-08-01T10:11:22Z</time>
      </trkpt>
      <trkpt lat="46.47097" lon="6.0141">
        <ele>926.6</ele>
        <time>2019-08-01T10:11:29Z</time>
      </trkpt>
      <trkpt lat="46.47102" lon="6.01412">
        <ele>925.5</ele>
        <time>2019-08-01T10:11:35Z</time>
      </trkpt>
      <trkpt lat="46.47106" lon="6.01418">
        <ele>925.3</ele>
        <time>2019-08-01T10:11:44Z</time>
      </trkpt>
      <trkpt lat="46.47109" lon="6.01422">
        <ele>925.4</ele>
        <time>2019-08-01T10:11:46Z</time>
      </trkpt>
      <trkpt lat="46.47113" lon="6.01427">
        <ele>925.7</ele>
        <time>2019-08-01T10:11:51Z</time>
      </trkpt>
      <trkpt lat="46.47126" lon="6.01438">
        <ele>923.7</ele>
        <time>2019-08-01T10:12:11Z</time>
      </trkpt>
      <trkpt lat="46.47141" lon="6.0145">
        <ele>923.1</ele>
        <time>2019-08-01T10:12:23Z</time>
      </trkpt>
      <trkpt lat="46.47144" lon="6.01455">
        <ele>922.9</ele>
        <time>2019-08-01T10:12:29Z</time>
      </trkpt>
      <trkpt lat="46.47155" lon="6.01461">
        <ele>919.8</ele>
        <time>2019-08-01T10:12:41Z</time>
      </trkpt>
      <trkpt lat="46.4716" lon="6.01462">
        <ele>919.1</ele>
        <time>2019-08-01T10:12:44Z</time>
      </trkpt>
      <trkpt lat="46.47169" lon="6.0147">
        <ele>911.2</ele>
        <time>2019-08-01T10:13:12Z</time>
      </trkpt>
      <trkpt lat="46.47174" lon="6.01473">
        <ele>910.2</ele>
        <time>2019-08-01T10:13:15Z</time>
      </trkpt>
      <trkpt lat="46.47178" lon="6.01477">
        <ele>907.9</ele>
        <time>2019-08-01T10:13:20Z</time>
      </trkpt>
      <trkpt lat="46.47182" lon="6.01482">
        <ele>904.6</ele>
        <time>2019-08-01T10:13:27Z</time>
      </trkpt>
      <trkpt lat="46.47186" lon="6.01485">
        <ele>902.8</ele>
        <time>2019-08-01T10:13:32Z</time>
      </trkpt>
      <trkpt lat="46.4719" lon="6.01487">
        <ele>900.2</ele>
        <time>2019-08-01T10:13:46Z</time>
      </trkpt>
      <trkpt lat="46.47195" lon="6.01491">
        <ele>899.4</ele>
        <time>2019-08-01T10:13:53Z</time>
      </trkpt>
      <trkpt lat="46.47199" lon="6.01495">
        <ele>898.5</ele>
        <time>2019-08-01T10:14:11Z</time>
      </trkpt>
      <trkpt lat="46.47201" lon="6.01501">
        <ele>898.3</ele>
        <time>2019-08-01T10:14:23Z</time>
      </trkpt>
      <trkpt lat="46.47205" lon="6.01506">
        <ele>898.6</ele>
        <time>2019-08-01T10:14:26Z</time>
      </trkpt>
      <trkpt lat="46.4721" lon="6.01515">
        <ele>898.9</ele>
        <time>2019-08-01T10:14:28Z</time>
      </trkpt>
      <trkpt lat="46.47214" lon="6.01524">
        <ele>899.1</ele>
        <time>2019-08-01T10:14:30Z</time>
      </trkpt>
      <trkpt lat="46.47218" lon="6.01531">
        <ele>899.4</ele>
        <time>2019-08-01T10:14:33Z</time>
      </trkpt>
      <trkpt lat="46.47234" lon="6.01547">
        <ele>903.6</ele>
        <time>2019-08-01T10:15:28Z</time>
      </trkpt>
      <trkpt lat="46.47243" lon="6.01557">
        <ele>901.4</ele>
        <time>2019-08-01T10:15:42Z</time>
      </trkpt>
      <trkpt lat="46.47247" lon="6.0156">
        <ele>901.1</ele>
        <time>2019-08-01T10:15:46Z</time>
      </trkpt>
      <trkpt lat="46.47252" lon="6.01564">
        <ele>900.8</ele>
        <time>2019-08-01T10:15:49Z</time>
      </trkpt>
      <trkpt lat="46.47256" lon="6.01567">
        <ele>900.1</ele>
        <time>2019-08-01T10:15:53Z</time>
      </trkpt>
      <trkpt lat="46.47259" lon="6.01573">
        <ele>899.6</ele>
        <time>2019-08-01T10:15:56Z</time>
      </trkpt>
      <trkpt lat="46.47265" lon="6.01584">
        <ele>896.3</ele>
        <time>2019-08-01T10:16:13Z</time>
      </trkpt>
      <trkpt lat="46.47268" lon="6.0159">
        <ele>895.3</ele>
        <time>2019-08-01T10:16:17Z</time>
      </trkpt>
      <trkpt lat="46.47271" lon="6.01596">
        <ele>894.4</ele>
        <time>2019-08-01T10:16:21Z</time>
      </trkpt>
      <trkpt lat="46.47273" lon="6.01602">
        <ele>893.3</ele>
        <time>2019-08-01T10:16:26Z</time>
      </trkpt>
      <trkpt lat="46.47276" lon="6.01609">
        <ele>892.5</ele>
        <time>2019-08-01T10:16:32Z</time>
      </trkpt>
      <trkpt lat="46.47276" lon="6.01616">
        <ele>892</ele>
        <time>2019-08-01T10:16:37Z</time>
      </trkpt>
      <trkpt lat="46.47278" lon="6.01622">
        <ele>891.3</ele>
        <time>2019-08-01T10:16:46Z</time>
      </trkpt>
      <trkpt lat="46.47278" lon="6.01628">
        <ele>888.4</ele>
        <time>2019-08-01T10:17:10Z</time>
      </trkpt>
      <trkpt lat="46.47281" lon="6.01635">
        <ele>888.3</ele>
        <time>2019-08-01T10:17:13Z</time>
      </trkpt>
      <trkpt lat="46.47284" lon="6.0164">
        <ele>888.4</ele>
        <time>2019-08-01T10:17:18Z</time>
      </trkpt>
      <trkpt lat="46.47287" lon="6.01645">
        <ele>888.1</ele>
        <time>2019-08-01T10:17:25Z</time>
      </trkpt>
      <trkpt lat="46.47289" lon="6.01652">
        <ele>884.4</ele>
        <time>2019-08-01T10:17:48Z</time>
      </trkpt>
      <trkpt lat="46.47289" lon="6.01659">
        <ele>883.4</ele>
        <time>2019-08-01T10:17:52Z</time>
      </trkpt>
      <trkpt lat="46.4729" lon="6.01668">
        <ele>882.6</ele>
        <time>2019-08-01T10:17:56Z</time>
      </trkpt>
      <trkpt lat="46.47292" lon="6.01675">
        <ele>882</ele>
        <time>2019-08-01T10:17:59Z</time>
      </trkpt>
      <trkpt lat="46.47294" lon="6.01682">
        <ele>881.2</ele>
        <time>2019-08-01T10:18:04Z</time>
      </trkpt>
      <trkpt lat="46.47296" lon="6.01689">
        <ele>880.7</ele>
        <time>2019-08-01T10:18:09Z</time>
      </trkpt>
      <trkpt lat="46.47298" lon="6.01694">
        <ele>880.2</ele>
        <time>2019-08-01T10:18:13Z</time>
      </trkpt>
      <trkpt lat="46.473" lon="6.017">
        <ele>879.9</ele>
        <time>2019-08-01T10:18:17Z</time>
      </trkpt>
      <trkpt lat="46.47302" lon="6.01706">
        <ele>879.9</ele>
        <time>2019-08-01T10:18:21Z</time>
      </trkpt>
      <trkpt lat="46.47305" lon="6.01713">
        <ele>879.6</ele>
        <time>2019-08-01T10:18:26Z</time>
      </trkpt>
      <trkpt lat="46.47308" lon="6.01719">
        <ele>879.2</ele>
        <time>2019-08-01T10:18:30Z</time>
      </trkpt>
      <trkpt lat="46.4731" lon="6.01725">
        <ele>879.1</ele>
        <time>2019-08-01T10:18:34Z</time>
      </trkpt>
      <trkpt lat="46.47312" lon="6.01732">
        <ele>879.2</ele>
        <time>2019-08-01T10:18:38Z</time>
      </trkpt>
      <trkpt lat="46.47313" lon="6.01738">
        <ele>879.2</ele>
        <time>2019-08-01T10:18:43Z</time>
      </trkpt>
      <trkpt lat="46.47314" lon="6.01746">
        <ele>878.8</ele>
        <time>2019-08-01T10:18:49Z</time>
      </trkpt>
      <trkpt lat="46.47315" lon="6.01754">
        <ele>878.2</ele>
        <time>2019-08-01T10:18:54Z</time>
      </trkpt>
      <trkpt lat="46.47316" lon="6.01761">
        <ele>877.1</ele>
        <time>2019-08-01T10:19:00Z</time>
      </trkpt>
      <trkpt lat="46.4732" lon="6.01767">
        <ele>876.3</ele>
        <time>2019-08-01T10:19:05Z</time>
      </trkpt>
      <trkpt lat="46.47323" lon="6.01774">
        <ele>875.8</ele>
        <time>2019-08-01T10:19:09Z</time>
      </trkpt>
      <trkpt lat="46.47326" lon="6.01779">
        <ele>875.4</ele>
        <time>2019-08-01T10:19:13Z</time>
      </trkpt>
      <trkpt lat="46.47329" lon="6.01785">
        <ele>874.9</ele>
        <time>2019-08-01T10:19:19Z</time>
      </trkpt>
      <trkpt lat="46.4733" lon="6.01793">
        <ele>874.5</ele>
        <time>2019-08-01T10:19:24Z</time>
      </trkpt>
      <trkpt lat="46.47332" lon="6.01801">
        <ele>874.4</ele>
        <time>2019-08-01T10:19:28Z</time>
      </trkpt>
      <trkpt lat="46.47334" lon="6.01808">
        <ele>874.6</ele>
        <time>2019-08-01T10:19:33Z</time>
      </trkpt>
      <trkpt lat="46.47336" lon="6.01813">
        <ele>875</ele>
        <time>2019-08-01T10:19:37Z</time>
      </trkpt>
      <trkpt lat="46.4734" lon="6.01818">
        <ele>875.4</ele>
        <time>2019-08-01T10:19:42Z</time>
      </trkpt>
      <trkpt lat="46.47342" lon="6.01825">
        <ele>875.7</ele>
        <time>2019-08-01T10:19:47Z</time>
      </trkpt>
      <trkpt lat="46.47344" lon="6.01831">
        <ele>875.5</ele>
        <time>2019-08-01T10:19:52Z</time>
      </trkpt>
      <trkpt lat="46.47347" lon="6.01837">
        <ele>875.2</ele>
        <time>2019-08-01T10:19:56Z</time>
      </trkpt>
      <trkpt lat="46.4735" lon="6.01842">
        <ele>875.2</ele>
        <time>2019-08-01T10:20:01Z</time>
      </trkpt>
      <trkpt lat="46.47353" lon="6.01848">
        <ele>875.4</ele>
        <time>2019-08-01T10:20:06Z</time>
      </trkpt>
      <trkpt lat="46.47356" lon="6.01853">
        <ele>875.5</ele>
        <time>2019-08-01T10:20:09Z</time>
      </trkpt>
      <trkpt lat="46.47358" lon="6.01859">
        <ele>875.4</ele>
        <time>2019-08-01T10:20:14Z</time>
      </trkpt>
      <trkpt lat="46.47362" lon="6.01865">
        <ele>875.1</ele>
        <time>2019-08-01T10:20:19Z</time>
      </trkpt>
      <trkpt lat="46.47365" lon="6.0187">
        <ele>874.6</ele>
        <time>2019-08-01T10:20:24Z</time>
      </trkpt>
      <trkpt lat="46.47369" lon="6.01874">
        <ele>874.2</ele>
        <time>2019-08-01T10:20:29Z</time>
      </trkpt>
      <trkpt lat="46.47372" lon="6.0188">
        <ele>873.8</ele>
        <time>2019-08-01T10:20:33Z</time>
      </trkpt>
      <trkpt lat="46.47375" lon="6.01885">
        <ele>873.1</ele>
        <time>2019-08-01T10:20:38Z</time>
      </trkpt>
      <trkpt lat="46.47379" lon="6.01889">
        <ele>872.4</ele>
        <time>2019-08-01T10:20:43Z</time>
      </trkpt>
      <trkpt lat="46.47384" lon="6.01892">
        <ele>872</ele>
        <time>2019-08-01T10:20:48Z</time>
      </trkpt>
      <trkpt lat="46.47388" lon="6.01894">
        <ele>871.8</ele>
        <time>2019-08-01T10:20:53Z</time>
      </trkpt>
      <trkpt lat="46.47393" lon="6.019">
        <ele>871.3</ele>
        <time>2019-08-01T10:20:59Z</time>
      </trkpt>
      <trkpt lat="46.47395" lon="6.01906">
        <ele>870.5</ele>
        <time>2019-08-01T10:21:06Z</time>
      </trkpt>
      <trkpt lat="46.47399" lon="6.01911">
        <ele>869.8</ele>
        <time>2019-08-01T10:21:11Z</time>
      </trkpt>
      <trkpt lat="46.47403" lon="6.01916">
        <ele>869.5</ele>
        <time>2019-08-01T10:21:15Z</time>
      </trkpt>
      <trkpt lat="46.47408" lon="6.01921">
        <ele>869.4</ele>
        <time>2019-08-01T10:21:18Z</time>
      </trkpt>
      <trkpt lat="46.47413" lon="6.01924">
        <ele>869.5</ele>
        <time>2019-08-01T10:21:22Z</time>
      </trkpt>
      <trkpt lat="46.47418" lon="6.01931">
        <ele>870.2</ele>
        <time>2019-08-01T10:21:27Z</time>
      </trkpt>
      <trkpt lat="46.47439" lon="6.0196">
        <ele>880.6</ele>
        <time>2019-08-01T10:21:49Z</time>
      </trkpt>
      <trkpt lat="46.47444" lon="6.01964">
        <ele>881.8</ele>
        <time>2019-08-01T10:21:53Z</time>
      </trkpt>
      <trkpt lat="46.47448" lon="6.01968">
        <ele>882.6</ele>
        <time>2019-08-01T10:21:56Z</time>
      </trkpt>
      <trkpt lat="46.47452" lon="6.0197">
        <ele>883.5</ele>
        <time>2019-08-01T10:21:59Z</time>
      </trkpt>
      <trkpt lat="46.47456" lon="6.01975">
        <ele>885.1</ele>
        <time>2019-08-01T10:22:04Z</time>
      </trkpt>
      <trkpt lat="46.47472" lon="6.01998">
        <ele>892.2</ele>
        <time>2019-08-01T10:22:28Z</time>
      </trkpt>
      <trkpt lat="46.47476" lon="6.02002">
        <ele>892.6</ele>
        <time>2019-08-01T10:22:33Z</time>
      </trkpt>
      <trkpt lat="46.47496" lon="6.02016">
        <ele>894.4</ele>
        <time>2019-08-01T10:22:57Z</time>
      </trkpt>
      <trkpt lat="46.47519" lon="6.02047">
        <ele>892.7</ele>
        <time>2019-08-01T10:23:24Z</time>
      </trkpt>
      <trkpt lat="46.47535" lon="6.02076">
        <ele>891.7</ele>
        <time>2019-08-01T10:23:41Z</time>
      </trkpt>
      <trkpt lat="46.47539" lon="6.02083">
        <ele>891.9</ele>
        <time>2019-08-01T10:23:45Z</time>
      </trkpt>
      <trkpt lat="46.47542" lon="6.02088">
        <ele>892.2</ele>
        <time>2019-08-01T10:23:50Z</time>
      </trkpt>
      <trkpt lat="46.47544" lon="6.02094">
        <ele>892.6</ele>
        <time>2019-08-01T10:23:55Z</time>
      </trkpt>
      <trkpt lat="46.47549" lon="6.02098">
        <ele>892.1</ele>
        <time>2019-08-01T10:24:01Z</time>
      </trkpt>
      <trkpt lat="46.47554" lon="6.021">
        <ele>891.2</ele>
        <time>2019-08-01T10:24:10Z</time>
      </trkpt>
      <trkpt lat="46.47558" lon="6.02102">
        <ele>890.2</ele>
        <time>2019-08-01T10:24:15Z</time>
      </trkpt>
      <trkpt lat="46.47563" lon="6.02106">
        <ele>889.2</ele>
        <time>2019-08-01T10:24:20Z</time>
      </trkpt>
      <trkpt lat="46.47567" lon="6.02109">
        <ele>888.1</ele>
        <time>2019-08-01T10:24:25Z</time>
      </trkpt>
      <trkpt lat="46.47571" lon="6.02112">
        <ele>887.2</ele>
        <time>2019-08-01T10:24:29Z</time>
      </trkpt>
      <trkpt lat="46.47576" lon="6.02117">
        <ele>886.1</ele>
        <time>2019-08-01T10:24:34Z</time>
      </trkpt>
      <trkpt lat="46.4758" lon="6.02122">
        <ele>884.8</ele>
        <time>2019-08-01T10:24:39Z</time>
      </trkpt>
      <trkpt lat="46.47584" lon="6.02126">
        <ele>883.6</ele>
        <time>2019-08-01T10:24:43Z</time>
      </trkpt>
      <trkpt lat="46.47587" lon="6.0213">
        <ele>882.7</ele>
        <time>2019-08-01T10:24:46Z</time>
      </trkpt>
      <trkpt lat="46.47591" lon="6.02135">
        <ele>881</ele>
        <time>2019-08-01T10:24:51Z</time>
      </trkpt>
      <trkpt lat="46.47595" lon="6.02141">
        <ele>879.9</ele>
        <time>2019-08-01T10:24:54Z</time>
      </trkpt>
      <trkpt lat="46.47598" lon="6.02145">
        <ele>878.1</ele>
        <time>2019-08-01T10:24:59Z</time>
      </trkpt>
      <trkpt lat="46.47603" lon="6.02148">
        <ele>876.2</ele>
        <time>2019-08-01T10:25:05Z</time>
      </trkpt>
      <trkpt lat="46.47607" lon="6.0215">
        <ele>873.8</ele>
        <time>2019-08-01T10:25:13Z</time>
      </trkpt>
      <trkpt lat="46.47612" lon="6.02152">
        <ele>871.9</ele>
        <time>2019-08-01T10:25:21Z</time>
      </trkpt>
      <trkpt lat="46.47616" lon="6.02155">
        <ele>871.4</ele>
        <time>2019-08-01T10:25:24Z</time>
      </trkpt>
      <trkpt lat="46.47622" lon="6.02156">
        <ele>870.9</ele>
        <time>2019-08-01T10:25:27Z</time>
      </trkpt>
      <trkpt lat="46.47628" lon="6.02159">
        <ele>870.5</ele>
        <time>2019-08-01T10:25:30Z</time>
      </trkpt>
      <trkpt lat="46.47632" lon="6.02162">
        <ele>870.2</ele>
        <time>2019-08-01T10:25:33Z</time>
      </trkpt>
      <trkpt lat="46.47637" lon="6.02166">
        <ele>869.5</ele>
        <time>2019-08-01T10:25:38Z</time>
      </trkpt>
      <trkpt lat="46.4764" lon="6.0217">
        <ele>868.3</ele>
        <time>2019-08-01T10:25:45Z</time>
      </trkpt>
      <trkpt lat="46.47645" lon="6.02176">
        <ele>863.4</ele>
        <time>2019-08-01T10:26:01Z</time>
      </trkpt>
      <trkpt lat="46.47649" lon="6.0218">
        <ele>861.5</ele>
        <time>2019-08-01T10:26:07Z</time>
      </trkpt>
      <trkpt lat="46.47654" lon="6.02183">
        <ele>860.2</ele>
        <time>2019-08-01T10:26:11Z</time>
      </trkpt>
      <trkpt lat="46.47658" lon="6.02186">
        <ele>858.7</ele>
        <time>2019-08-01T10:26:17Z</time>
      </trkpt>
      <trkpt lat="46.47663" lon="6.02187">
        <ele>857.9</ele>
        <time>2019-08-01T10:26:21Z</time>
      </trkpt>
      <trkpt lat="46.47668" lon="6.02187">
        <ele>857.2</ele>
        <time>2019-08-01T10:26:28Z</time>
      </trkpt>
      <trkpt lat="46.47673" lon="6.02187">
        <ele>857.3</ele>
        <time>2019-08-01T10:26:36Z</time>
      </trkpt>
      <trkpt lat="46.47679" lon="6.02186">
        <ele>857.4</ele>
        <time>2019-08-01T10:26:41Z</time>
      </trkpt>
      <trkpt lat="46.47683" lon="6.02186">
        <ele>857.3</ele>
        <time>2019-08-01T10:26:45Z</time>
      </trkpt>
      <trkpt lat="46.47688" lon="6.02185">
        <ele>857.3</ele>
        <time>2019-08-01T10:26:51Z</time>
      </trkpt>
      <trkpt lat="46.47694" lon="6.02186">
        <ele>857.8</ele>
        <time>2019-08-01T10:26:58Z</time>
      </trkpt>
      <trkpt lat="46.47699" lon="6.02186">
        <ele>857.9</ele>
        <time>2019-08-01T10:27:00Z</time>
      </trkpt>
      <trkpt lat="46.47704" lon="6.02186">
        <ele>858.3</ele>
        <time>2019-08-01T10:27:05Z</time>
      </trkpt>
      <trkpt lat="46.47717" lon="6.02185">
        <ele>859.1</ele>
        <time>2019-08-01T10:27:17Z</time>
      </trkpt>
      <trkpt lat="46.47722" lon="6.02185">
        <ele>859.3</ele>
        <time>2019-08-01T10:27:22Z</time>
      </trkpt>
      <trkpt lat="46.47727" lon="6.02184">
        <ele>859.5</ele>
        <time>2019-08-01T10:27:25Z</time>
      </trkpt>
      <trkpt lat="46.47732" lon="6.02185">
        <ele>859.7</ele>
        <time>2019-08-01T10:27:29Z</time>
      </trkpt>
      <trkpt lat="46.47738" lon="6.02186">
        <ele>860.1</ele>
        <time>2019-08-01T10:27:34Z</time>
      </trkpt>
      <trkpt lat="46.47742" lon="6.02187">
        <ele>860.3</ele>
        <time>2019-08-01T10:27:41Z</time>
      </trkpt>
      <trkpt lat="46.47749" lon="6.0219">
        <ele>860.3</ele>
        <time>2019-08-01T10:27:45Z</time>
      </trkpt>
      <trkpt lat="46.47754" lon="6.02192">
        <ele>860.2</ele>
        <time>2019-08-01T10:27:48Z</time>
      </trkpt>
      <trkpt lat="46.47772" lon="6.02209">
        <ele>860.2</ele>
        <time>2019-08-01T10:27:57Z</time>
      </trkpt>
      <trkpt lat="46.47776" lon="6.02214">
        <ele>860.3</ele>
        <time>2019-08-01T10:28:00Z</time>
      </trkpt>
      <trkpt lat="46.4778" lon="6.02219">
        <ele>860.1</ele>
        <time>2019-08-01T10:28:06Z</time>
      </trkpt>
      <trkpt lat="46.47784" lon="6.02222">
        <ele>859.9</ele>
        <time>2019-08-01T10:28:10Z</time>
      </trkpt>
      <trkpt lat="46.47788" lon="6.02227">
        <ele>859.5</ele>
        <time>2019-08-01T10:28:15Z</time>
      </trkpt>
      <trkpt lat="46.47792" lon="6.02232">
        <ele>859.1</ele>
        <time>2019-08-01T10:28:20Z</time>
      </trkpt>
      <trkpt lat="46.47795" lon="6.02238">
        <ele>856.7</ele>
        <time>2019-08-01T10:28:32Z</time>
      </trkpt>
      <trkpt lat="46.47797" lon="6.02245">
        <ele>854.8</ele>
        <time>2019-08-01T10:28:38Z</time>
      </trkpt>
      <trkpt lat="46.47799" lon="6.02252">
        <ele>853.2</ele>
        <time>2019-08-01T10:28:44Z</time>
      </trkpt>
      <trkpt lat="46.47802" lon="6.02258">
        <ele>852.2</ele>
        <time>2019-08-01T10:28:48Z</time>
      </trkpt>
      <trkpt lat="46.47805" lon="6.02265">
        <ele>851.3</ele>
        <time>2019-08-01T10:28:52Z</time>
      </trkpt>
      <trkpt lat="46.4781" lon="6.02273">
        <ele>851.1</ele>
        <time>2019-08-01T10:29:33Z</time>
      </trkpt>
      <trkpt lat="46.47813" lon="6.02277">
        <ele>852</ele>
        <time>2019-08-01T10:29:39Z</time>
      </trkpt>
      <trkpt lat="46.47818" lon="6.02281">
        <ele>852.8</ele>
        <time>2019-08-01T10:29:44Z</time>
      </trkpt>
      <trkpt lat="46.47823" lon="6.02284">
        <ele>853.1</ele>
        <time>2019-08-01T10:29:47Z</time>
      </trkpt>
      <trkpt lat="46.47828" lon="6.02285">
        <ele>853.3</ele>
        <time>2019-08-01T10:29:51Z</time>
      </trkpt>
      <trkpt lat="46.47833" lon="6.02286">
        <ele>853.4</ele>
        <time>2019-08-01T10:29:54Z</time>
      </trkpt>
      <trkpt lat="46.47839" lon="6.02286">
        <ele>853.7</ele>
        <time>2019-08-01T10:29:58Z</time>
      </trkpt>
      <trkpt lat="46.47844" lon="6.02286">
        <ele>854</ele>
        <time>2019-08-01T10:30:02Z</time>
      </trkpt>
      <trkpt lat="46.47849" lon="6.02288">
        <ele>854.1</ele>
        <time>2019-08-01T10:30:06Z</time>
      </trkpt>
      <trkpt lat="46.47854" lon="6.0229">
        <ele>854.4</ele>
        <time>2019-08-01T10:30:12Z</time>
      </trkpt>
      <trkpt lat="46.47859" lon="6.02294">
        <ele>854.5</ele>
        <time>2019-08-01T10:30:17Z</time>
      </trkpt>
      <trkpt lat="46.47863" lon="6.02298">
        <ele>854.6</ele>
        <time>2019-08-01T10:30:20Z</time>
      </trkpt>
      <trkpt lat="46.47867" lon="6.02302">
        <ele>854.7</ele>
        <time>2019-08-01T10:30:23Z</time>
      </trkpt>
      <trkpt lat="46.47871" lon="6.02308">
        <ele>854.9</ele>
        <time>2019-08-01T10:30:27Z</time>
      </trkpt>
      <trkpt lat="46.47876" lon="6.02313">
        <ele>855.3</ele>
        <time>2019-08-01T10:30:31Z</time>
      </trkpt>
      <trkpt lat="46.4788" lon="6.02317">
        <ele>855.5</ele>
        <time>2019-08-01T10:30:36Z</time>
      </trkpt>
      <trkpt lat="46.47885" lon="6.0232">
        <ele>855.4</ele>
        <time>2019-08-01T10:30:40Z</time>
      </trkpt>
      <trkpt lat="46.47889" lon="6.02322">
        <ele>855.3</ele>
        <time>2019-08-01T10:30:46Z</time>
      </trkpt>
      <trkpt lat="46.47894" lon="6.02326">
        <ele>855.4</ele>
        <time>2019-08-01T10:30:51Z</time>
      </trkpt>
      <trkpt lat="46.47898" lon="6.0233">
        <ele>855.5</ele>
        <time>2019-08-01T10:30:54Z</time>
      </trkpt>
      <trkpt lat="46.47902" lon="6.02334">
        <ele>855.5</ele>
        <time>2019-08-01T10:30:57Z</time>
      </trkpt>
      <trkpt lat="46.47907" lon="6.02339">
        <ele>855.3</ele>
        <time>2019-08-01T10:31:01Z</time>
      </trkpt>
      <trkpt lat="46.47912" lon="6.02343">
        <ele>855</ele>
        <time>2019-08-01T10:31:05Z</time>
      </trkpt>
      <trkpt lat="46.47916" lon="6.02347">
        <ele>854.6</ele>
        <time>2019-08-01T10:31:09Z</time>
      </trkpt>
      <trkpt lat="46.4792" lon="6.0235">
        <ele>854.1</ele>
        <time>2019-08-01T10:31:13Z</time>
      </trkpt>
      <trkpt lat="46.47925" lon="6.02354">
        <ele>853.5</ele>
        <time>2019-08-01T10:31:18Z</time>
      </trkpt>
      <trkpt lat="46.47929" lon="6.02359">
        <ele>853.2</ele>
        <time>2019-08-01T10:31:25Z</time>
      </trkpt>
      <trkpt lat="46.47934" lon="6.02363">
        <ele>853</ele>
        <time>2019-08-01T10:31:31Z</time>
      </trkpt>
      <trkpt lat="46.47938" lon="6.02366">
        <ele>852.8</ele>
        <time>2019-08-01T10:31:35Z</time>
      </trkpt>
      <trkpt lat="46.47942" lon="6.02371">
        <ele>852.5</ele>
        <time>2019-08-01T10:31:39Z</time>
      </trkpt>
      <trkpt lat="46.47946" lon="6.02375">
        <ele>852.1</ele>
        <time>2019-08-01T10:31:43Z</time>
      </trkpt>
      <trkpt lat="46.4795" lon="6.02379">
        <ele>851.5</ele>
        <time>2019-08-01T10:31:47Z</time>
      </trkpt>
      <trkpt lat="46.47954" lon="6.02384">
        <ele>850.8</ele>
        <time>2019-08-01T10:31:51Z</time>
      </trkpt>
      <trkpt lat="46.47958" lon="6.02388">
        <ele>849.9</ele>
        <time>2019-08-01T10:31:56Z</time>
      </trkpt>
      <trkpt lat="46.47961" lon="6.02393">
        <ele>849.4</ele>
        <time>2019-08-01T10:31:59Z</time>
      </trkpt>
      <trkpt lat="46.47965" lon="6.02398">
        <ele>848.6</ele>
        <time>2019-08-01T10:32:03Z</time>
      </trkpt>
      <trkpt lat="46.47968" lon="6.02404">
        <ele>847.6</ele>
        <time>2019-08-01T10:32:08Z</time>
      </trkpt>
      <trkpt lat="46.47972" lon="6.02409">
        <ele>846.8</ele>
        <time>2019-08-01T10:32:12Z</time>
      </trkpt>
      <trkpt lat="46.47976" lon="6.02416">
        <ele>845.9</ele>
        <time>2019-08-01T10:32:16Z</time>
      </trkpt>
      <trkpt lat="46.47979" lon="6.02422">
        <ele>845.2</ele>
        <time>2019-08-01T10:32:21Z</time>
      </trkpt>
      <trkpt lat="46.47983" lon="6.02417">
        <ele>845.8</ele>
        <time>2019-08-01T10:32:44Z</time>
      </trkpt>
      <trkpt lat="46.47987" lon="6.02422">
        <ele>849.7</ele>
        <time>2019-08-01T10:33:00Z</time>
      </trkpt>
      <trkpt lat="46.47989" lon="6.02428">
        <ele>851.3</ele>
        <time>2019-08-01T10:33:04Z</time>
      </trkpt>
      <trkpt lat="46.47994" lon="6.0244">
        <ele>858.1</ele>
        <time>2019-08-01T10:33:33Z</time>
      </trkpt>
      <trkpt lat="46.47995" lon="6.02446">
        <ele>858.5</ele>
        <time>2019-08-01T10:33:36Z</time>
      </trkpt>
      <trkpt lat="46.47996" lon="6.02454">
        <ele>859.1</ele>
        <time>2019-08-01T10:33:40Z</time>
      </trkpt>
      <trkpt lat="46.47997" lon="6.02463">
        <ele>859.8</ele>
        <time>2019-08-01T10:33:44Z</time>
      </trkpt>
      <trkpt lat="46.47997" lon="6.0247">
        <ele>860.4</ele>
        <time>2019-08-01T10:33:48Z</time>
      </trkpt>
      <trkpt lat="46.47996" lon="6.02477">
        <ele>861.2</ele>
        <time>2019-08-01T10:33:53Z</time>
      </trkpt>
      <trkpt lat="46.47994" lon="6.02484">
        <ele>861.8</ele>
        <time>2019-08-01T10:33:57Z</time>
      </trkpt>
      <trkpt lat="46.47992" lon="6.02492">
        <ele>862.5</ele>
        <time>2019-08-01T10:34:01Z</time>
      </trkpt>
      <trkpt lat="46.4799" lon="6.02499">
        <ele>863.2</ele>
        <time>2019-08-01T10:34:05Z</time>
      </trkpt>
      <trkpt lat="46.47988" lon="6.02505">
        <ele>863.9</ele>
        <time>2019-08-01T10:34:10Z</time>
      </trkpt>
      <trkpt lat="46.47986" lon="6.02511">
        <ele>864.5</ele>
        <time>2019-08-01T10:34:14Z</time>
      </trkpt>
      <trkpt lat="46.47985" lon="6.02518">
        <ele>865</ele>
        <time>2019-08-01T10:34:18Z</time>
      </trkpt>
      <trkpt lat="46.47986" lon="6.02525">
        <ele>865.7</ele>
        <time>2019-08-01T10:34:31Z</time>
      </trkpt>
      <trkpt lat="46.47986" lon="6.02532">
        <ele>865.8</ele>
        <time>2019-08-01T10:34:38Z</time>
      </trkpt>
      <trkpt lat="46.47982" lon="6.02524">
        <ele>868.4</ele>
        <time>2019-08-01T10:35:38Z</time>
      </trkpt>
      <trkpt lat="46.47978" lon="6.0252">
        <ele>869.2</ele>
        <time>2019-08-01T10:35:42Z</time>
      </trkpt>
      <trkpt lat="46.47972" lon="6.02516">
        <ele>870.1</ele>
        <time>2019-08-01T10:35:45Z</time>
      </trkpt>
      <trkpt lat="46.47969" lon="6.02512">
        <ele>870.9</ele>
        <time>2019-08-01T10:35:47Z</time>
      </trkpt>
      <trkpt lat="46.47963" lon="6.02508">
        <ele>872</ele>
        <time>2019-08-01T10:35:50Z</time>
      </trkpt>
      <trkpt lat="46.4796" lon="6.02503">
        <ele>873.2</ele>
        <time>2019-08-01T10:35:53Z</time>
      </trkpt>
      <trkpt lat="46.47958" lon="6.02496">
        <ele>874.4</ele>
        <time>2019-08-01T10:35:56Z</time>
      </trkpt>
      <trkpt lat="46.47954" lon="6.02489">
        <ele>875.8</ele>
        <time>2019-08-01T10:36:00Z</time>
      </trkpt>
      <trkpt lat="46.47951" lon="6.02484">
        <ele>877.3</ele>
        <time>2019-08-01T10:36:04Z</time>
      </trkpt>
      <trkpt lat="46.47946" lon="6.0248">
        <ele>878.8</ele>
        <time>2019-08-01T10:36:08Z</time>
      </trkpt>
      <trkpt lat="46.47934" lon="6.02459">
        <ele>883.9</ele>
        <time>2019-08-01T10:36:17Z</time>
      </trkpt>
      <trkpt lat="46.47931" lon="6.02453">
        <ele>885.2</ele>
        <time>2019-08-01T10:36:22Z</time>
      </trkpt>
      <trkpt lat="46.47927" lon="6.02448">
        <ele>886.9</ele>
        <time>2019-08-01T10:36:27Z</time>
      </trkpt>
      <trkpt lat="46.47923" lon="6.02444">
        <ele>889.3</ele>
        <time>2019-08-01T10:36:33Z</time>
      </trkpt>
      <trkpt lat="46.4792" lon="6.02438">
        <ele>890.2</ele>
        <time>2019-08-01T10:36:35Z</time>
      </trkpt>
      <trkpt lat="46.47917" lon="6.02433">
        <ele>892.3</ele>
        <time>2019-08-01T10:36:39Z</time>
      </trkpt>
      <trkpt lat="46.47906" lon="6.02421">
        <ele>898.5</ele>
        <time>2019-08-01T10:36:50Z</time>
      </trkpt>
      <trkpt lat="46.47902" lon="6.02417">
        <ele>900.7</ele>
        <time>2019-08-01T10:36:57Z</time>
      </trkpt>
      <trkpt lat="46.47892" lon="6.0241">
        <ele>904.2</ele>
        <time>2019-08-01T10:37:29Z</time>
      </trkpt>
      <trkpt lat="46.47887" lon="6.02414">
        <ele>902.8</ele>
        <time>2019-08-01T10:37:34Z</time>
      </trkpt>
      <trkpt lat="46.47883" lon="6.02418">
        <ele>901.6</ele>
        <time>2019-08-01T10:37:38Z</time>
      </trkpt>
      <trkpt lat="46.4788" lon="6.02423">
        <ele>900</ele>
        <time>2019-08-01T10:37:43Z</time>
      </trkpt>
      <trkpt lat="46.47876" lon="6.02427">
        <ele>898.8</ele>
        <time>2019-08-01T10:37:50Z</time>
      </trkpt>
      <trkpt lat="46.47875" lon="6.02434">
        <ele>897.6</ele>
        <time>2019-08-01T10:37:57Z</time>
      </trkpt>
      <trkpt lat="46.47872" lon="6.02439">
        <ele>895.6</ele>
        <time>2019-08-01T10:38:08Z</time>
      </trkpt>
      <trkpt lat="46.47854" lon="6.02432">
        <ele>899.9</ele>
        <time>2019-08-01T10:38:33Z</time>
      </trkpt>
      <trkpt lat="46.47849" lon="6.02434">
        <ele>900.8</ele>
        <time>2019-08-01T10:38:37Z</time>
      </trkpt>
      <trkpt lat="46.47843" lon="6.02431">
        <ele>901.8</ele>
        <time>2019-08-01T10:38:41Z</time>
      </trkpt>
      <trkpt lat="46.47839" lon="6.02427">
        <ele>903</ele>
        <time>2019-08-01T10:38:46Z</time>
      </trkpt>
      <trkpt lat="46.47836" lon="6.02421">
        <ele>903.9</ele>
        <time>2019-08-01T10:38:52Z</time>
      </trkpt>
      <trkpt lat="46.47832" lon="6.02417">
        <ele>904.1</ele>
        <time>2019-08-01T10:38:58Z</time>
      </trkpt>
      <trkpt lat="46.47828" lon="6.02415">
        <ele>903.1</ele>
        <time>2019-08-01T10:39:07Z</time>
      </trkpt>
      <trkpt lat="46.47824" lon="6.02418">
        <ele>901.9</ele>
        <time>2019-08-01T10:39:19Z</time>
      </trkpt>
      <trkpt lat="46.4782" lon="6.02423">
        <ele>901.9</ele>
        <time>2019-08-01T10:39:27Z</time>
      </trkpt>
      <trkpt lat="46.47814" lon="6.02427">
        <ele>901.8</ele>
        <time>2019-08-01T10:39:30Z</time>
      </trkpt>
      <trkpt lat="46.4781" lon="6.02428">
        <ele>901.9</ele>
        <time>2019-08-01T10:39:34Z</time>
      </trkpt>
      <trkpt lat="46.47803" lon="6.02432">
        <ele>897.1</ele>
        <time>2019-08-01T10:41:27Z</time>
      </trkpt>
      <trkpt lat="46.47801" lon="6.02441">
        <ele>881.8</ele>
        <time>2019-08-01T11:19:29Z</time>
      </trkpt>
      <trkpt lat="46.47799" lon="6.02448">
        <ele>881.7</ele>
        <time>2019-08-01T11:19:33Z</time>
      </trkpt>
      <trkpt lat="46.478" lon="6.02455">
        <ele>881.9</ele>
        <time>2019-08-01T11:19:38Z</time>
      </trkpt>
      <trkpt lat="46.47798" lon="6.02461">
        <ele>882.4</ele>
        <time>2019-08-01T11:19:53Z</time>
      </trkpt>
      <trkpt lat="46.47799" lon="6.02468">
        <ele>882.5</ele>
        <time>2019-08-01T11:20:07Z</time>
      </trkpt>
      <trkpt lat="46.47798" lon="6.02476">
        <ele>883.9</ele>
        <time>2019-08-01T11:20:21Z</time>
      </trkpt>
      <trkpt lat="46.47795" lon="6.02483">
        <ele>887.3</ele>
        <time>2019-08-01T11:20:56Z</time>
      </trkpt>
      <trkpt lat="46.47791" lon="6.02488">
        <ele>889.4</ele>
        <time>2019-08-01T11:21:02Z</time>
      </trkpt>
      <trkpt lat="46.47787" lon="6.02494">
        <ele>891.3</ele>
        <time>2019-08-01T11:21:06Z</time>
      </trkpt>
      <trkpt lat="46.47783" lon="6.02499">
        <ele>893.4</ele>
        <time>2019-08-01T11:21:10Z</time>
      </trkpt>
      <trkpt lat="46.47781" lon="6.02505">
        <ele>895</ele>
        <time>2019-08-01T11:21:13Z</time>
      </trkpt>
      <trkpt lat="46.4778" lon="6.02512">
        <ele>896.5</ele>
        <time>2019-08-01T11:21:16Z</time>
      </trkpt>
      <trkpt lat="46.47781" lon="6.02519">
        <ele>898.7</ele>
        <time>2019-08-01T11:21:22Z</time>
      </trkpt>
      <trkpt lat="46.4778" lon="6.02525">
        <ele>900.2</ele>
        <time>2019-08-01T11:21:32Z</time>
      </trkpt>
      <trkpt lat="46.47779" lon="6.02532">
        <ele>899.9</ele>
        <time>2019-08-01T11:21:46Z</time>
      </trkpt>
      <trkpt lat="46.4778" lon="6.02538">
        <ele>898.3</ele>
        <time>2019-08-01T11:21:58Z</time>
      </trkpt>
      <trkpt lat="46.47779" lon="6.02545">
        <ele>894.9</ele>
        <time>2019-08-01T11:22:12Z</time>
      </trkpt>
      <trkpt lat="46.47776" lon="6.0255">
        <ele>892.2</ele>
        <time>2019-08-01T11:22:21Z</time>
      </trkpt>
      <trkpt lat="46.47774" lon="6.02556">
        <ele>890.2</ele>
        <time>2019-08-01T11:22:33Z</time>
      </trkpt>
      <trkpt lat="46.47772" lon="6.02564">
        <ele>889.9</ele>
        <time>2019-08-01T11:22:39Z</time>
      </trkpt>
      <trkpt lat="46.4777" lon="6.0257">
        <ele>890.7</ele>
        <time>2019-08-01T11:22:44Z</time>
      </trkpt>
      <trkpt lat="46.47768" lon="6.02576">
        <ele>891.9</ele>
        <time>2019-08-01T11:22:49Z</time>
      </trkpt>
      <trkpt lat="46.47766" lon="6.02582">
        <ele>893.5</ele>
        <time>2019-08-01T11:22:57Z</time>
      </trkpt>
      <trkpt lat="46.47767" lon="6.0259">
        <ele>894.8</ele>
        <time>2019-08-01T11:23:02Z</time>
      </trkpt>
      <trkpt lat="46.47765" lon="6.02597">
        <ele>896.1</ele>
        <time>2019-08-01T11:23:06Z</time>
      </trkpt>
      <trkpt lat="46.47763" lon="6.02603">
        <ele>899</ele>
        <time>2019-08-01T11:23:14Z</time>
      </trkpt>
      <trkpt lat="46.47759" lon="6.02604">
        <ele>900.8</ele>
        <time>2019-08-01T11:23:29Z</time>
      </trkpt>
      <trkpt lat="46.47756" lon="6.0261">
        <ele>900.3</ele>
        <time>2019-08-01T11:23:41Z</time>
      </trkpt>
      <trkpt lat="46.47755" lon="6.02616">
        <ele>899.3</ele>
        <time>2019-08-01T11:23:50Z</time>
      </trkpt>
      <trkpt lat="46.4775" lon="6.02657">
        <ele>905.8</ele>
        <time>2019-08-01T11:24:46Z</time>
      </trkpt>
      <trkpt lat="46.47751" lon="6.02663">
        <ele>907</ele>
        <time>2019-08-01T11:24:52Z</time>
      </trkpt>
      <trkpt lat="46.47745" lon="6.02679">
        <ele>915.4</ele>
        <time>2019-08-01T11:25:15Z</time>
      </trkpt>
      <trkpt lat="46.47742" lon="6.02689">
        <ele>921.5</ele>
        <time>2019-08-01T11:25:28Z</time>
      </trkpt>
      <trkpt lat="46.47739" lon="6.02694">
        <ele>923.9</ele>
        <time>2019-08-01T11:25:36Z</time>
      </trkpt>
      <trkpt lat="46.47721" lon="6.02693">
        <ele>934.2</ele>
        <time>2019-08-01T11:26:53Z</time>
      </trkpt>
      <trkpt lat="46.47711" lon="6.02686">
        <ele>937.1</ele>
        <time>2019-08-01T11:27:19Z</time>
      </trkpt>
      <trkpt lat="46.47706" lon="6.02681">
        <ele>938</ele>
        <time>2019-08-01T11:27:23Z</time>
      </trkpt>
      <trkpt lat="46.47689" lon="6.027">
        <ele>962.1</ele>
        <time>2019-08-01T11:30:27Z</time>
      </trkpt>
      <trkpt lat="46.47692" lon="6.02706">
        <ele>963.3</ele>
        <time>2019-08-01T11:30:32Z</time>
      </trkpt>
      <trkpt lat="46.47695" lon="6.02712">
        <ele>964</ele>
        <time>2019-08-01T11:30:35Z</time>
      </trkpt>
      <trkpt lat="46.47696" lon="6.0272">
        <ele>964.8</ele>
        <time>2019-08-01T11:30:42Z</time>
      </trkpt>
      <trkpt lat="46.47697" lon="6.02766">
        <ele>970.6</ele>
        <time>2019-08-01T11:31:48Z</time>
      </trkpt>
      <trkpt lat="46.47699" lon="6.0278">
        <ele>971.3</ele>
        <time>2019-08-01T11:32:10Z</time>
      </trkpt>
      <trkpt lat="46.47701" lon="6.02798">
        <ele>972.8</ele>
        <time>2019-08-01T11:32:19Z</time>
      </trkpt>
      <trkpt lat="46.47703" lon="6.02806">
        <ele>973.3</ele>
        <time>2019-08-01T11:32:22Z</time>
      </trkpt>
      <trkpt lat="46.47704" lon="6.02812">
        <ele>974.1</ele>
        <time>2019-08-01T11:32:28Z</time>
      </trkpt>
      <trkpt lat="46.47706" lon="6.02823">
        <ele>975.8</ele>
        <time>2019-08-01T11:32:44Z</time>
      </trkpt>
      <trkpt lat="46.47698" lon="6.0284">
        <ele>977.7</ele>
        <time>2019-08-01T11:33:00Z</time>
      </trkpt>
      <trkpt lat="46.47695" lon="6.02845">
        <ele>977</ele>
        <time>2019-08-01T11:33:10Z</time>
      </trkpt>
      <trkpt lat="46.47693" lon="6.02851">
        <ele>975.6</ele>
        <time>2019-08-01T11:33:24Z</time>
      </trkpt>
      <trkpt lat="46.47691" lon="6.02861">
        <ele>975.8</ele>
        <time>2019-08-01T11:33:40Z</time>
      </trkpt>
      <trkpt lat="46.47686" lon="6.02877">
        <ele>976.5</ele>
        <time>2019-08-01T11:33:54Z</time>
      </trkpt>
      <trkpt lat="46.47686" lon="6.02889">
        <ele>975.4</ele>
        <time>2019-08-01T11:34:03Z</time>
      </trkpt>
      <trkpt lat="46.4769" lon="6.02903">
        <ele>976.5</ele>
        <time>2019-08-01T11:34:14Z</time>
      </trkpt>
      <trkpt lat="46.47695" lon="6.02921">
        <ele>995.6</ele>
        <time>2019-08-01T11:37:24Z</time>
      </trkpt>
      <trkpt lat="46.47712" lon="6.02929">
        <ele>999.7</ele>
        <time>2019-08-01T11:37:47Z</time>
      </trkpt>
      <trkpt lat="46.47717" lon="6.0293">
        <ele>999.9</ele>
        <time>2019-08-01T11:37:49Z</time>
      </trkpt>
      <trkpt lat="46.47722" lon="6.02933">
        <ele>1000</ele>
        <time>2019-08-01T11:37:52Z</time>
      </trkpt>
      <trkpt lat="46.47726" lon="6.02937">
        <ele>999.8</ele>
        <time>2019-08-01T11:37:57Z</time>
      </trkpt>
      <trkpt lat="46.47729" lon="6.02944">
        <ele>999.8</ele>
        <time>2019-08-01T11:38:02Z</time>
      </trkpt>
      <trkpt lat="46.47733" lon="6.02949">
        <ele>999.6</ele>
        <time>2019-08-01T11:38:08Z</time>
      </trkpt>
      <trkpt lat="46.47738" lon="6.02952">
        <ele>999.2</ele>
        <time>2019-08-01T11:38:15Z</time>
      </trkpt>
      <trkpt lat="46.47743" lon="6.02955">
        <ele>999</ele>
        <time>2019-08-01T11:38:20Z</time>
      </trkpt>
      <trkpt lat="46.47748" lon="6.02958">
        <ele>999.3</ele>
        <time>2019-08-01T11:38:26Z</time>
      </trkpt>
      <trkpt lat="46.47752" lon="6.02961">
        <ele>1000</ele>
        <time>2019-08-01T11:38:32Z</time>
      </trkpt>
      <trkpt lat="46.47756" lon="6.02966">
        <ele>1000.3</ele>
        <time>2019-08-01T11:38:37Z</time>
      </trkpt>
      <trkpt lat="46.47761" lon="6.02966">
        <ele>1000.7</ele>
        <time>2019-08-01T11:38:44Z</time>
      </trkpt>
      <trkpt lat="46.47765" lon="6.02964">
        <ele>1000.9</ele>
        <time>2019-08-01T11:38:53Z</time>
      </trkpt>
      <trkpt lat="46.4777" lon="6.02965">
        <ele>1000</ele>
        <time>2019-08-01T11:39:05Z</time>
      </trkpt>
      <trkpt lat="46.47776" lon="6.0297">
        <ele>998.4</ele>
        <time>2019-08-01T11:40:11Z</time>
      </trkpt>
      <trkpt lat="46.4778" lon="6.02976">
        <ele>998.8</ele>
        <time>2019-08-01T11:40:28Z</time>
      </trkpt>
      <trkpt lat="46.47789" lon="6.02987">
        <ele>1000</ele>
        <time>2019-08-01T11:41:51Z</time>
      </trkpt>
      <trkpt lat="46.47792" lon="6.02993">
        <ele>1000.1</ele>
        <time>2019-08-01T11:41:55Z</time>
      </trkpt>
      <trkpt lat="46.47796" lon="6.02998">
        <ele>1000.1</ele>
        <time>2019-08-01T11:42:01Z</time>
      </trkpt>
      <trkpt lat="46.478" lon="6.03002">
        <ele>999.9</ele>
        <time>2019-08-01T11:42:06Z</time>
      </trkpt>
      <trkpt lat="46.47819" lon="6.03017">
        <ele>999.8</ele>
        <time>2019-08-01T11:42:19Z</time>
      </trkpt>
      <trkpt lat="46.47844" lon="6.0304">
        <ele>997.9</ele>
        <time>2019-08-01T11:42:54Z</time>
      </trkpt>
      <trkpt lat="46.47848" lon="6.03043">
        <ele>998.1</ele>
        <time>2019-08-01T11:43:00Z</time>
      </trkpt>
      <trkpt lat="46.47852" lon="6.03046">
        <ele>998</ele>
        <time>2019-08-01T11:43:04Z</time>
      </trkpt>
      <trkpt lat="46.47864" lon="6.03051">
        <ele>995.7</ele>
        <time>2019-08-01T11:43:18Z</time>
      </trkpt>
      <trkpt lat="46.47869" lon="6.03055">
        <ele>995.4</ele>
        <time>2019-08-01T11:43:20Z</time>
      </trkpt>
      <trkpt lat="46.47875" lon="6.03056">
        <ele>994.7</ele>
        <time>2019-08-01T11:43:23Z</time>
      </trkpt>
      <trkpt lat="46.4788" lon="6.03057">
        <ele>993.6</ele>
        <time>2019-08-01T11:43:27Z</time>
      </trkpt>
      <trkpt lat="46.47884" lon="6.03057">
        <ele>991.4</ele>
        <time>2019-08-01T11:43:34Z</time>
      </trkpt>
      <trkpt lat="46.47889" lon="6.03057">
        <ele>989.7</ele>
        <time>2019-08-01T11:43:39Z</time>
      </trkpt>
      <trkpt lat="46.47894" lon="6.03056">
        <ele>988.4</ele>
        <time>2019-08-01T11:43:44Z</time>
      </trkpt>
      <trkpt lat="46.47899" lon="6.03055">
        <ele>987.1</ele>
        <time>2019-08-01T11:43:49Z</time>
      </trkpt>
      <trkpt lat="46.47914" lon="6.03055">
        <ele>982.8</ele>
        <time>2019-08-01T11:44:06Z</time>
      </trkpt>
      <trkpt lat="46.47919" lon="6.03052">
        <ele>982</ele>
        <time>2019-08-01T11:44:11Z</time>
      </trkpt>
      <trkpt lat="46.47922" lon="6.03048">
        <ele>980.9</ele>
        <time>2019-08-01T11:44:17Z</time>
      </trkpt>
      <trkpt lat="46.47925" lon="6.03042">
        <ele>979.8</ele>
        <time>2019-08-01T11:44:22Z</time>
      </trkpt>
      <trkpt lat="46.47929" lon="6.03038">
        <ele>978.8</ele>
        <time>2019-08-01T11:44:28Z</time>
      </trkpt>
      <trkpt lat="46.47931" lon="6.03031">
        <ele>978.1</ele>
        <time>2019-08-01T11:44:33Z</time>
      </trkpt>
      <trkpt lat="46.47934" lon="6.03025">
        <ele>977.7</ele>
        <time>2019-08-01T11:44:38Z</time>
      </trkpt>
      <trkpt lat="46.47938" lon="6.03024">
        <ele>977.2</ele>
        <time>2019-08-01T11:44:43Z</time>
      </trkpt>
      <trkpt lat="46.47943" lon="6.03024">
        <ele>976.7</ele>
        <time>2019-08-01T11:44:47Z</time>
      </trkpt>
      <trkpt lat="46.47948" lon="6.03023">
        <ele>976</ele>
        <time>2019-08-01T11:44:52Z</time>
      </trkpt>
      <trkpt lat="46.47953" lon="6.03022">
        <ele>975.3</ele>
        <time>2019-08-01T11:44:57Z</time>
      </trkpt>
      <trkpt lat="46.47959" lon="6.03022">
        <ele>975</ele>
        <time>2019-08-01T11:45:00Z</time>
      </trkpt>
      <trkpt lat="46.47964" lon="6.03024">
        <ele>974.6</ele>
        <time>2019-08-01T11:45:05Z</time>
      </trkpt>
      <trkpt lat="46.47968" lon="6.03022">
        <ele>973.7</ele>
        <time>2019-08-01T11:45:13Z</time>
      </trkpt>
      <trkpt lat="46.47973" lon="6.03022">
        <ele>973</ele>
        <time>2019-08-01T11:45:19Z</time>
      </trkpt>
      <trkpt lat="46.47978" lon="6.03022">
        <ele>972.5</ele>
        <time>2019-08-01T11:45:24Z</time>
      </trkpt>
      <trkpt lat="46.47984" lon="6.0302">
        <ele>972.2</ele>
        <time>2019-08-01T11:45:29Z</time>
      </trkpt>
      <trkpt lat="46.47989" lon="6.0302">
        <ele>972.1</ele>
        <time>2019-08-01T11:45:33Z</time>
      </trkpt>
      <trkpt lat="46.47993" lon="6.03019">
        <ele>972</ele>
        <time>2019-08-01T11:45:39Z</time>
      </trkpt>
      <trkpt lat="46.47998" lon="6.03019">
        <ele>972</ele>
        <time>2019-08-01T11:45:45Z</time>
      </trkpt>
      <trkpt lat="46.48003" lon="6.03019">
        <ele>972.1</ele>
        <time>2019-08-01T11:45:49Z</time>
      </trkpt>
      <trkpt lat="46.48008" lon="6.03018">
        <ele>972.2</ele>
        <time>2019-08-01T11:45:55Z</time>
      </trkpt>
      <trkpt lat="46.48013" lon="6.03017">
        <ele>972.1</ele>
        <time>2019-08-01T11:46:00Z</time>
      </trkpt>
      <trkpt lat="46.48018" lon="6.03017">
        <ele>971.6</ele>
        <time>2019-08-01T11:46:05Z</time>
      </trkpt>
      <trkpt lat="46.48023" lon="6.03017">
        <ele>970.9</ele>
        <time>2019-08-01T11:46:11Z</time>
      </trkpt>
      <trkpt lat="46.48028" lon="6.03016">
        <ele>969.9</ele>
        <time>2019-08-01T11:46:17Z</time>
      </trkpt>
      <trkpt lat="46.48033" lon="6.03016">
        <ele>969.1</ele>
        <time>2019-08-01T11:46:23Z</time>
      </trkpt>
      <trkpt lat="46.48038" lon="6.03019">
        <ele>968.2</ele>
        <time>2019-08-01T11:46:29Z</time>
      </trkpt>
      <trkpt lat="46.48042" lon="6.03021">
        <ele>967.6</ele>
        <time>2019-08-01T11:46:34Z</time>
      </trkpt>
      <trkpt lat="46.48047" lon="6.03023">
        <ele>967.2</ele>
        <time>2019-08-01T11:46:38Z</time>
      </trkpt>
      <trkpt lat="46.48052" lon="6.03024">
        <ele>966.9</ele>
        <time>2019-08-01T11:46:41Z</time>
      </trkpt>
      <trkpt lat="46.48057" lon="6.03025">
        <ele>966.6</ele>
        <time>2019-08-01T11:46:44Z</time>
      </trkpt>
      <trkpt lat="46.48061" lon="6.03027">
        <ele>966.1</ele>
        <time>2019-08-01T11:46:48Z</time>
      </trkpt>
      <trkpt lat="46.48066" lon="6.03029">
        <ele>965.5</ele>
        <time>2019-08-01T11:46:52Z</time>
      </trkpt>
      <trkpt lat="46.4807" lon="6.03032">
        <ele>964.6</ele>
        <time>2019-08-01T11:46:58Z</time>
      </trkpt>
      <trkpt lat="46.48075" lon="6.03035">
        <ele>963.8</ele>
        <time>2019-08-01T11:47:05Z</time>
      </trkpt>
      <trkpt lat="46.48079" lon="6.03037">
        <ele>963.1</ele>
        <time>2019-08-01T11:47:10Z</time>
      </trkpt>
      <trkpt lat="46.48084" lon="6.0304">
        <ele>962.2</ele>
        <time>2019-08-01T11:47:15Z</time>
      </trkpt>
      <trkpt lat="46.48088" lon="6.03043">
        <ele>960.7</ele>
        <time>2019-08-01T11:47:22Z</time>
      </trkpt>
      <trkpt lat="46.48092" lon="6.03046">
        <ele>959.7</ele>
        <time>2019-08-01T11:47:26Z</time>
      </trkpt>
      <trkpt lat="46.48098" lon="6.03047">
        <ele>958.9</ele>
        <time>2019-08-01T11:47:31Z</time>
      </trkpt>
      <trkpt lat="46.48105" lon="6.03049">
        <ele>958.4</ele>
        <time>2019-08-01T11:47:35Z</time>
      </trkpt>
      <trkpt lat="46.4811" lon="6.0305">
        <ele>958.2</ele>
        <time>2019-08-01T11:47:38Z</time>
      </trkpt>
      <trkpt lat="46.48116" lon="6.03051">
        <ele>957.9</ele>
        <time>2019-08-01T11:47:42Z</time>
      </trkpt>
      <trkpt lat="46.4812" lon="6.03049">
        <ele>957.7</ele>
        <time>2019-08-01T11:47:46Z</time>
      </trkpt>
      <trkpt lat="46.48125" lon="6.03046">
        <ele>957.5</ele>
        <time>2019-08-01T11:47:52Z</time>
      </trkpt>
      <trkpt lat="46.48127" lon="6.0304">
        <ele>957.8</ele>
        <time>2019-08-01T11:47:59Z</time>
      </trkpt>
      <trkpt lat="46.48127" lon="6.03033">
        <ele>958.1</ele>
        <time>2019-08-01T11:48:05Z</time>
      </trkpt>
      <trkpt lat="46.48125" lon="6.03026">
        <ele>958.8</ele>
        <time>2019-08-01T11:48:11Z</time>
      </trkpt>
      <trkpt lat="46.48122" lon="6.0302">
        <ele>959.7</ele>
        <time>2019-08-01T11:48:18Z</time>
      </trkpt>
      <trkpt lat="46.4812" lon="6.03008">
        <ele>960.8</ele>
        <time>2019-08-01T11:48:32Z</time>
      </trkpt>
      <trkpt lat="46.48116" lon="6.03004">
        <ele>959.9</ele>
        <time>2019-08-01T11:48:40Z</time>
      </trkpt>
      <trkpt lat="46.48113" lon="6.02998">
        <ele>958.6</ele>
        <time>2019-08-01T11:48:46Z</time>
      </trkpt>
      <trkpt lat="46.48111" lon="6.02993">
        <ele>956.9</ele>
        <time>2019-08-01T11:48:53Z</time>
      </trkpt>
      <trkpt lat="46.48107" lon="6.02987">
        <ele>955.3</ele>
        <time>2019-08-01T11:48:59Z</time>
      </trkpt>
      <trkpt lat="46.48105" lon="6.02981">
        <ele>953.8</ele>
        <time>2019-08-01T11:49:05Z</time>
      </trkpt>
      <trkpt lat="46.48107" lon="6.02975">
        <ele>953.3</ele>
        <time>2019-08-01T11:49:14Z</time>
      </trkpt>
      <trkpt lat="46.48112" lon="6.02972">
        <ele>954</ele>
        <time>2019-08-01T11:49:20Z</time>
      </trkpt>
      <trkpt lat="46.48123" lon="6.02973">
        <ele>951.7</ele>
        <time>2019-08-01T11:49:35Z</time>
      </trkpt>
      <trkpt lat="46.48126" lon="6.02977">
        <ele>950.8</ele>
        <time>2019-08-01T11:49:40Z</time>
      </trkpt>
      <trkpt lat="46.4813" lon="6.02982">
        <ele>950.4</ele>
        <time>2019-08-01T11:49:43Z</time>
      </trkpt>
      <trkpt lat="46.48134" lon="6.02986">
        <ele>949.7</ele>
        <time>2019-08-01T11:49:47Z</time>
      </trkpt>
      <trkpt lat="46.48138" lon="6.0299">
        <ele>949.1</ele>
        <time>2019-08-01T11:49:51Z</time>
      </trkpt>
      <trkpt lat="46.48142" lon="6.02995">
        <ele>948.3</ele>
        <time>2019-08-01T11:49:56Z</time>
      </trkpt>
      <trkpt lat="46.48145" lon="6.03">
        <ele>946.6</ele>
        <time>2019-08-01T11:50:07Z</time>
      </trkpt>
      <trkpt lat="46.48148" lon="6.02995">
        <ele>944.8</ele>
        <time>2019-08-01T11:50:18Z</time>
      </trkpt>
      <trkpt lat="46.48153" lon="6.02993">
        <ele>945.1</ele>
        <time>2019-08-01T11:50:36Z</time>
      </trkpt>
      <trkpt lat="46.48156" lon="6.02988">
        <ele>945.7</ele>
        <time>2019-08-01T11:50:44Z</time>
      </trkpt>
      <trkpt lat="46.4816" lon="6.02985">
        <ele>946.8</ele>
        <time>2019-08-01T11:50:51Z</time>
      </trkpt>
      <trkpt lat="46.48163" lon="6.0299">
        <ele>949.6</ele>
        <time>2019-08-01T11:51:24Z</time>
      </trkpt>
      <trkpt lat="46.48161" lon="6.02989">
        <ele>948.3</ele>
        <time>2019-08-01T11:56:12Z</time>
      </trkpt>
      <trkpt lat="46.48157" lon="6.02992">
        <ele>947.9</ele>
        <time>2019-08-01T11:56:26Z</time>
      </trkpt>
      <trkpt lat="46.48153" lon="6.02994">
        <ele>946.3</ele>
        <time>2019-08-01T11:56:39Z</time>
      </trkpt>
      <trkpt lat="46.48149" lon="6.02989">
        <ele>944.7</ele>
        <time>2019-08-01T11:56:49Z</time>
      </trkpt>
      <trkpt lat="46.48148" lon="6.02982">
        <ele>943.8</ele>
        <time>2019-08-01T11:56:52Z</time>
      </trkpt>
      <trkpt lat="46.48146" lon="6.02976">
        <ele>942.6</ele>
        <time>2019-08-01T11:56:55Z</time>
      </trkpt>
      <trkpt lat="46.48144" lon="6.02969">
        <ele>940.8</ele>
        <time>2019-08-01T11:56:59Z</time>
      </trkpt>
      <trkpt lat="46.48141" lon="6.02962">
        <ele>939</ele>
        <time>2019-08-01T11:57:03Z</time>
      </trkpt>
      <trkpt lat="46.48125" lon="6.02953">
        <ele>929</ele>
        <time>2019-08-01T11:57:23Z</time>
      </trkpt>
      <trkpt lat="46.48122" lon="6.02959">
        <ele>928.7</ele>
        <time>2019-08-01T11:57:26Z</time>
      </trkpt>
      <trkpt lat="46.4812" lon="6.02966">
        <ele>928.6</ele>
        <time>2019-08-01T11:57:29Z</time>
      </trkpt>
      <trkpt lat="46.48119" lon="6.02973">
        <ele>928.7</ele>
        <time>2019-08-01T11:57:32Z</time>
      </trkpt>
      <trkpt lat="46.4812" lon="6.02981">
        <ele>929.9</ele>
        <time>2019-08-01T11:57:41Z</time>
      </trkpt>
      <trkpt lat="46.48123" lon="6.02988">
        <ele>931.6</ele>
        <time>2019-08-01T11:57:49Z</time>
      </trkpt>
      <trkpt lat="46.48125" lon="6.02995">
        <ele>933.6</ele>
        <time>2019-08-01T11:57:55Z</time>
      </trkpt>
      <trkpt lat="46.48126" lon="6.03002">
        <ele>935.2</ele>
        <time>2019-08-01T11:57:59Z</time>
      </trkpt>
      <trkpt lat="46.48128" lon="6.03008">
        <ele>936.7</ele>
        <time>2019-08-01T11:58:03Z</time>
      </trkpt>
      <trkpt lat="46.48131" lon="6.03014">
        <ele>938.6</ele>
        <time>2019-08-01T11:58:09Z</time>
      </trkpt>
      <trkpt lat="46.48131" lon="6.03021">
        <ele>940.1</ele>
        <time>2019-08-01T11:58:14Z</time>
      </trkpt>
      <trkpt lat="46.48132" lon="6.03028">
        <ele>941.5</ele>
        <time>2019-08-01T11:58:19Z</time>
      </trkpt>
      <trkpt lat="46.48133" lon="6.03035">
        <ele>943.1</ele>
        <time>2019-08-01T11:58:26Z</time>
      </trkpt>
      <trkpt lat="46.48132" lon="6.03041">
        <ele>944.8</ele>
        <time>2019-08-01T11:58:33Z</time>
      </trkpt>
      <trkpt lat="46.4813" lon="6.03047">
        <ele>947.2</ele>
        <time>2019-08-01T11:58:42Z</time>
      </trkpt>
      <trkpt lat="46.48127" lon="6.03052">
        <ele>950.4</ele>
        <time>2019-08-01T11:58:54Z</time>
      </trkpt>
      <trkpt lat="46.48122" lon="6.03052">
        <ele>951.2</ele>
        <time>2019-08-01T11:59:00Z</time>
      </trkpt>
      <trkpt lat="46.48117" lon="6.03051">
        <ele>951.3</ele>
        <time>2019-08-01T11:59:06Z</time>
      </trkpt>
      <trkpt lat="46.48105" lon="6.03044">
        <ele>950.5</ele>
        <time>2019-08-01T11:59:15Z</time>
      </trkpt>
      <trkpt lat="46.48101" lon="6.0304">
        <ele>950.3</ele>
        <time>2019-08-01T11:59:18Z</time>
      </trkpt>
      <trkpt lat="46.48085" lon="6.03017">
        <ele>946.1</ele>
        <time>2019-08-01T11:59:40Z</time>
      </trkpt>
      <trkpt lat="46.48081" lon="6.03013">
        <ele>944.4</ele>
        <time>2019-08-01T11:59:47Z</time>
      </trkpt>
      <trkpt lat="46.48073" lon="6.03005">
        <ele>942.6</ele>
        <time>2019-08-01T11:59:59Z</time>
      </trkpt>
      <trkpt lat="46.48067" lon="6.03007">
        <ele>943</ele>
        <time>2019-08-01T12:00:02Z</time>
      </trkpt>
      <trkpt lat="46.48062" lon="6.03009">
        <ele>943.8</ele>
        <time>2019-08-01T12:00:05Z</time>
      </trkpt>
      <trkpt lat="46.48057" lon="6.0301">
        <ele>945.2</ele>
        <time>2019-08-01T12:00:09Z</time>
      </trkpt>
      <trkpt lat="46.48041" lon="6.03008">
        <ele>949.6</ele>
        <time>2019-08-01T12:00:19Z</time>
      </trkpt>
      <trkpt lat="46.48036" lon="6.03009">
        <ele>950.1</ele>
        <time>2019-08-01T12:00:23Z</time>
      </trkpt>
      <trkpt lat="46.48021" lon="6.03018">
        <ele>952.5</ele>
        <time>2019-08-01T12:00:59Z</time>
      </trkpt>
      <trkpt lat="46.48019" lon="6.03027">
        <ele>953.1</ele>
        <time>2019-08-01T12:01:03Z</time>
      </trkpt>
      <trkpt lat="46.48017" lon="6.03034">
        <ele>953.9</ele>
        <time>2019-08-01T12:01:08Z</time>
      </trkpt>
      <trkpt lat="46.48014" lon="6.0304">
        <ele>954.3</ele>
        <time>2019-08-01T12:01:11Z</time>
      </trkpt>
      <trkpt lat="46.48011" lon="6.03046">
        <ele>954.6</ele>
        <time>2019-08-01T12:01:14Z</time>
      </trkpt>
      <trkpt lat="46.48009" lon="6.03053">
        <ele>955.2</ele>
        <time>2019-08-01T12:01:19Z</time>
      </trkpt>
      <trkpt lat="46.48011" lon="6.03073">
        <ele>955.7</ele>
        <time>2019-08-01T12:01:41Z</time>
      </trkpt>
      <trkpt lat="46.48011" lon="6.03081">
        <ele>957.2</ele>
        <time>2019-08-01T12:01:54Z</time>
      </trkpt>
      <trkpt lat="46.48011" lon="6.03089">
        <ele>957.9</ele>
        <time>2019-08-01T12:01:57Z</time>
      </trkpt>
      <trkpt lat="46.48012" lon="6.03097">
        <ele>958.6</ele>
        <time>2019-08-01T12:02:00Z</time>
      </trkpt>
      <trkpt lat="46.48013" lon="6.03104">
        <ele>959.1</ele>
        <time>2019-08-01T12:02:02Z</time>
      </trkpt>
      <trkpt lat="46.48015" lon="6.0311">
        <ele>959.6</ele>
        <time>2019-08-01T12:02:04Z</time>
      </trkpt>
      <trkpt lat="46.48016" lon="6.03117">
        <ele>960.6</ele>
        <time>2019-08-01T12:02:08Z</time>
      </trkpt>
      <trkpt lat="46.48013" lon="6.03123">
        <ele>961.9</ele>
        <time>2019-08-01T12:02:16Z</time>
      </trkpt>
      <trkpt lat="46.48009" lon="6.03126">
        <ele>962.4</ele>
        <time>2019-08-01T12:02:21Z</time>
      </trkpt>
      <trkpt lat="46.47993" lon="6.03139">
        <ele>962.3</ele>
        <time>2019-08-01T12:02:54Z</time>
      </trkpt>
      <trkpt lat="46.47993" lon="6.03148">
        <ele>962.2</ele>
        <time>2019-08-01T12:02:58Z</time>
      </trkpt>
      <trkpt lat="46.47993" lon="6.03154">
        <ele>962.2</ele>
        <time>2019-08-01T12:03:01Z</time>
      </trkpt>
      <trkpt lat="46.47992" lon="6.03161">
        <ele>962.4</ele>
        <time>2019-08-01T12:03:04Z</time>
      </trkpt>
      <trkpt lat="46.4799" lon="6.03167">
        <ele>962.8</ele>
        <time>2019-08-01T12:03:07Z</time>
      </trkpt>
      <trkpt lat="46.47989" lon="6.03174">
        <ele>963.2</ele>
        <time>2019-08-01T12:03:10Z</time>
      </trkpt>
      <trkpt lat="46.47989" lon="6.03182">
        <ele>963.8</ele>
        <time>2019-08-01T12:03:14Z</time>
      </trkpt>
      <trkpt lat="46.47988" lon="6.03189">
        <ele>964.4</ele>
        <time>2019-08-01T12:03:18Z</time>
      </trkpt>
      <trkpt lat="46.47985" lon="6.03195">
        <ele>965.2</ele>
        <time>2019-08-01T12:03:27Z</time>
      </trkpt>
      <trkpt lat="46.47975" lon="6.03197">
        <ele>964.6</ele>
        <time>2019-08-01T12:03:39Z</time>
      </trkpt>
      <trkpt lat="46.47967" lon="6.03192">
        <ele>961.7</ele>
        <time>2019-08-01T12:03:58Z</time>
      </trkpt>
      <trkpt lat="46.47955" lon="6.03193">
        <ele>962.7</ele>
        <time>2019-08-01T12:04:50Z</time>
      </trkpt>
      <trkpt lat="46.47946" lon="6.03198">
        <ele>963</ele>
        <time>2019-08-01T12:05:09Z</time>
      </trkpt>
      <trkpt lat="46.47941" lon="6.03201">
        <ele>963.1</ele>
        <time>2019-08-01T12:05:11Z</time>
      </trkpt>
      <trkpt lat="46.47937" lon="6.03204">
        <ele>963.6</ele>
        <time>2019-08-01T12:05:19Z</time>
      </trkpt>
      <trkpt lat="46.47932" lon="6.03206">
        <ele>963.6</ele>
        <time>2019-08-01T12:05:35Z</time>
      </trkpt>
      <trkpt lat="46.47929" lon="6.03211">
        <ele>963.6</ele>
        <time>2019-08-01T12:06:02Z</time>
      </trkpt>
      <trkpt lat="46.47925" lon="6.03218">
        <ele>966</ele>
        <time>2019-08-01T12:06:20Z</time>
      </trkpt>
      <trkpt lat="46.47923" lon="6.03224">
        <ele>967.3</ele>
        <time>2019-08-01T12:06:23Z</time>
      </trkpt>
      <trkpt lat="46.47919" lon="6.03231">
        <ele>969.5</ele>
        <time>2019-08-01T12:06:27Z</time>
      </trkpt>
      <trkpt lat="46.47916" lon="6.03237">
        <ele>971.9</ele>
        <time>2019-08-01T12:06:31Z</time>
      </trkpt>
      <trkpt lat="46.47913" lon="6.03244">
        <ele>974.1</ele>
        <time>2019-08-01T12:06:35Z</time>
      </trkpt>
      <trkpt lat="46.47911" lon="6.03253">
        <ele>976.3</ele>
        <time>2019-08-01T12:06:39Z</time>
      </trkpt>
      <trkpt lat="46.4791" lon="6.0326">
        <ele>979.1</ele>
        <time>2019-08-01T12:06:44Z</time>
      </trkpt>
      <trkpt lat="46.47909" lon="6.03267">
        <ele>983.9</ele>
        <time>2019-08-01T12:06:54Z</time>
      </trkpt>
      <trkpt lat="46.47897" lon="6.03283">
        <ele>987.2</ele>
        <time>2019-08-01T12:07:08Z</time>
      </trkpt>
      <trkpt lat="46.47894" lon="6.03288">
        <ele>986.9</ele>
        <time>2019-08-01T12:07:14Z</time>
      </trkpt>
      <trkpt lat="46.4789" lon="6.03292">
        <ele>986.3</ele>
        <time>2019-08-01T12:07:21Z</time>
      </trkpt>
      <trkpt lat="46.47886" lon="6.03298">
        <ele>985.6</ele>
        <time>2019-08-01T12:07:26Z</time>
      </trkpt>
      <trkpt lat="46.47882" lon="6.03303">
        <ele>984.6</ele>
        <time>2019-08-01T12:07:32Z</time>
      </trkpt>
      <trkpt lat="46.47877" lon="6.03305">
        <ele>983.9</ele>
        <time>2019-08-01T12:07:37Z</time>
      </trkpt>
      <trkpt lat="46.47872" lon="6.03309">
        <ele>983.8</ele>
        <time>2019-08-01T12:07:42Z</time>
      </trkpt>
      <trkpt lat="46.47868" lon="6.03311">
        <ele>984.4</ele>
        <time>2019-08-01T12:07:48Z</time>
      </trkpt>
      <trkpt lat="46.47865" lon="6.03316">
        <ele>984.5</ele>
        <time>2019-08-01T12:07:50Z</time>
      </trkpt>
      <trkpt lat="46.4786" lon="6.0332">
        <ele>984.7</ele>
        <time>2019-08-01T12:07:54Z</time>
      </trkpt>
      <trkpt lat="46.47849" lon="6.03322">
        <ele>983.2</ele>
        <time>2019-08-01T12:08:08Z</time>
      </trkpt>
      <trkpt lat="46.47844" lon="6.03323">
        <ele>982.4</ele>
        <time>2019-08-01T12:08:13Z</time>
      </trkpt>
      <trkpt lat="46.47826" lon="6.03318">
        <ele>978.3</ele>
        <time>2019-08-01T12:08:26Z</time>
      </trkpt>
      <trkpt lat="46.47813" lon="6.03328">
        <ele>972.2</ele>
        <time>2019-08-01T12:08:42Z</time>
      </trkpt>
      <trkpt lat="46.47815" lon="6.03334">
        <ele>971.9</ele>
        <time>2019-08-01T12:08:44Z</time>
      </trkpt>
      <trkpt lat="46.47819" lon="6.03349">
        <ele>969.8</ele>
        <time>2019-08-01T12:08:55Z</time>
      </trkpt>
      <trkpt lat="46.47821" lon="6.03355">
        <ele>969.7</ele>
        <time>2019-08-01T12:09:00Z</time>
      </trkpt>
      <trkpt lat="46.47821" lon="6.03363">
        <ele>969.8</ele>
        <time>2019-08-01T12:09:07Z</time>
      </trkpt>
      <trkpt lat="46.47823" lon="6.03369">
        <ele>970.1</ele>
        <time>2019-08-01T12:09:13Z</time>
      </trkpt>
      <trkpt lat="46.47827" lon="6.03375">
        <ele>970.8</ele>
        <time>2019-08-01T12:09:18Z</time>
      </trkpt>
      <trkpt lat="46.47828" lon="6.03381">
        <ele>972.1</ele>
        <time>2019-08-01T12:09:23Z</time>
      </trkpt>
      <trkpt lat="46.47833" lon="6.03387">
        <ele>973.4</ele>
        <time>2019-08-01T12:09:27Z</time>
      </trkpt>
      <trkpt lat="46.47836" lon="6.03392">
        <ele>974.4</ele>
        <time>2019-08-01T12:09:30Z</time>
      </trkpt>
      <trkpt lat="46.4784" lon="6.03397">
        <ele>976</ele>
        <time>2019-08-01T12:09:34Z</time>
      </trkpt>
      <trkpt lat="46.47842" lon="6.03403">
        <ele>978.1</ele>
        <time>2019-08-01T12:09:39Z</time>
      </trkpt>
      <trkpt lat="46.47844" lon="6.03409">
        <ele>979.8</ele>
        <time>2019-08-01T12:09:43Z</time>
      </trkpt>
      <trkpt lat="46.47847" lon="6.03416">
        <ele>982</ele>
        <time>2019-08-01T12:09:50Z</time>
      </trkpt>
      <trkpt lat="46.47851" lon="6.0342">
        <ele>983.4</ele>
        <time>2019-08-01T12:09:55Z</time>
      </trkpt>
      <trkpt lat="46.47852" lon="6.03427">
        <ele>984.5</ele>
        <time>2019-08-01T12:09:59Z</time>
      </trkpt>
      <trkpt lat="46.47855" lon="6.03434">
        <ele>985.7</ele>
        <time>2019-08-01T12:10:03Z</time>
      </trkpt>
      <trkpt lat="46.47856" lon="6.03442">
        <ele>986.9</ele>
        <time>2019-08-01T12:10:08Z</time>
      </trkpt>
      <trkpt lat="46.47858" lon="6.03449">
        <ele>989.2</ele>
        <time>2019-08-01T12:10:27Z</time>
      </trkpt>
      <trkpt lat="46.47861" lon="6.03453">
        <ele>990.4</ele>
        <time>2019-08-01T12:10:32Z</time>
      </trkpt>
      <trkpt lat="46.47861" lon="6.03461">
        <ele>991.6</ele>
        <time>2019-08-01T12:10:36Z</time>
      </trkpt>
      <trkpt lat="46.47862" lon="6.03468">
        <ele>992.7</ele>
        <time>2019-08-01T12:10:40Z</time>
      </trkpt>
      <trkpt lat="46.47864" lon="6.03476">
        <ele>993.7</ele>
        <time>2019-08-01T12:10:44Z</time>
      </trkpt>
      <trkpt lat="46.47867" lon="6.03482">
        <ele>994.4</ele>
        <time>2019-08-01T12:10:48Z</time>
      </trkpt>
      <trkpt lat="46.47869" lon="6.03489">
        <ele>994.9</ele>
        <time>2019-08-01T12:10:56Z</time>
      </trkpt>
      <trkpt lat="46.47872" lon="6.03493">
        <ele>994.2</ele>
        <time>2019-08-01T12:11:03Z</time>
      </trkpt>
      <trkpt lat="46.47871" lon="6.03501">
        <ele>992.2</ele>
        <time>2019-08-01T12:11:11Z</time>
      </trkpt>
      <trkpt lat="46.47874" lon="6.03508">
        <ele>990</ele>
        <time>2019-08-01T12:11:19Z</time>
      </trkpt>
      <trkpt lat="46.47874" lon="6.03514">
        <ele>989</ele>
        <time>2019-08-01T12:11:24Z</time>
      </trkpt>
      <trkpt lat="46.47876" lon="6.03521">
        <ele>988.1</ele>
        <time>2019-08-01T12:11:29Z</time>
      </trkpt>
      <trkpt lat="46.47877" lon="6.03527">
        <ele>987.5</ele>
        <time>2019-08-01T12:11:33Z</time>
      </trkpt>
      <trkpt lat="46.4788" lon="6.03534">
        <ele>987.3</ele>
        <time>2019-08-01T12:11:37Z</time>
      </trkpt>
      <trkpt lat="46.47883" lon="6.03541">
        <ele>987.4</ele>
        <time>2019-08-01T12:11:42Z</time>
      </trkpt>
      <trkpt lat="46.47887" lon="6.03546">
        <ele>987.7</ele>
        <time>2019-08-01T12:11:46Z</time>
      </trkpt>
      <trkpt lat="46.4789" lon="6.0355">
        <ele>988</ele>
        <time>2019-08-01T12:11:50Z</time>
      </trkpt>
      <trkpt lat="46.47893" lon="6.03557">
        <ele>988.4</ele>
        <time>2019-08-01T12:11:57Z</time>
      </trkpt>
      <trkpt lat="46.47893" lon="6.03565">
        <ele>989</ele>
        <time>2019-08-01T12:12:02Z</time>
      </trkpt>
      <trkpt lat="46.47891" lon="6.03573">
        <ele>989.6</ele>
        <time>2019-08-01T12:12:08Z</time>
      </trkpt>
      <trkpt lat="46.4789" lon="6.0358">
        <ele>989.8</ele>
        <time>2019-08-01T12:12:12Z</time>
      </trkpt>
      <trkpt lat="46.47892" lon="6.03587">
        <ele>989.7</ele>
        <time>2019-08-01T12:12:17Z</time>
      </trkpt>
      <trkpt lat="46.47892" lon="6.03593">
        <ele>988.3</ele>
        <time>2019-08-01T12:12:28Z</time>
      </trkpt>
      <trkpt lat="46.47892" lon="6.036">
        <ele>985.6</ele>
        <time>2019-08-01T12:12:38Z</time>
      </trkpt>
      <trkpt lat="46.47888" lon="6.03606">
        <ele>983.7</ele>
        <time>2019-08-01T12:12:45Z</time>
      </trkpt>
      <trkpt lat="46.47865" lon="6.03609">
        <ele>970.3</ele>
        <time>2019-08-01T12:13:09Z</time>
      </trkpt>
      <trkpt lat="46.47861" lon="6.03612">
        <ele>968.5</ele>
        <time>2019-08-01T12:13:15Z</time>
      </trkpt>
      <trkpt lat="46.47857" lon="6.03615">
        <ele>967.3</ele>
        <time>2019-08-01T12:13:20Z</time>
      </trkpt>
      <trkpt lat="46.47852" lon="6.0362">
        <ele>966.9</ele>
        <time>2019-08-01T12:13:23Z</time>
      </trkpt>
      <trkpt lat="46.47848" lon="6.03624">
        <ele>966.6</ele>
        <time>2019-08-01T12:13:26Z</time>
      </trkpt>
      <trkpt lat="46.47844" lon="6.03627">
        <ele>966.5</ele>
        <time>2019-08-01T12:13:28Z</time>
      </trkpt>
      <trkpt lat="46.47839" lon="6.03631">
        <ele>966.4</ele>
        <time>2019-08-01T12:13:31Z</time>
      </trkpt>
      <trkpt lat="46.47835" lon="6.03635">
        <ele>966.1</ele>
        <time>2019-08-01T12:13:35Z</time>
      </trkpt>
      <trkpt lat="46.47825" lon="6.03646">
        <ele>964.7</ele>
        <time>2019-08-01T12:13:52Z</time>
      </trkpt>
      <trkpt lat="46.47821" lon="6.03651">
        <ele>965</ele>
        <time>2019-08-01T12:14:02Z</time>
      </trkpt>
      <trkpt lat="46.47819" lon="6.03657">
        <ele>966.7</ele>
        <time>2019-08-01T12:14:19Z</time>
      </trkpt>
      <trkpt lat="46.47817" lon="6.03677">
        <ele>969.3</ele>
        <time>2019-08-01T12:14:28Z</time>
      </trkpt>
      <trkpt lat="46.47818" lon="6.03684">
        <ele>969.6</ele>
        <time>2019-08-01T12:14:34Z</time>
      </trkpt>
      <trkpt lat="46.47817" lon="6.03691">
        <ele>969.8</ele>
        <time>2019-08-01T12:14:46Z</time>
      </trkpt>
      <trkpt lat="46.47822" lon="6.03695">
        <ele>970.2</ele>
        <time>2019-08-01T12:14:54Z</time>
      </trkpt>
      <trkpt lat="46.47833" lon="6.03714">
        <ele>967.8</ele>
        <time>2019-08-01T12:15:34Z</time>
      </trkpt>
      <trkpt lat="46.47837" lon="6.03719">
        <ele>966.6</ele>
        <time>2019-08-01T12:15:39Z</time>
      </trkpt>
      <trkpt lat="46.47839" lon="6.03725">
        <ele>965.4</ele>
        <time>2019-08-01T12:15:46Z</time>
      </trkpt>
      <trkpt lat="46.47839" lon="6.03732">
        <ele>964.5</ele>
        <time>2019-08-01T12:15:53Z</time>
      </trkpt>
      <trkpt lat="46.47837" lon="6.0374">
        <ele>963.2</ele>
        <time>2019-08-01T12:16:06Z</time>
      </trkpt>
      <trkpt lat="46.47839" lon="6.03746">
        <ele>962.9</ele>
        <time>2019-08-01T12:16:10Z</time>
      </trkpt>
      <trkpt lat="46.4784" lon="6.03755">
        <ele>960.8</ele>
        <time>2019-08-01T12:16:25Z</time>
      </trkpt>
      <trkpt lat="46.47841" lon="6.03762">
        <ele>960.2</ele>
        <time>2019-08-01T12:16:31Z</time>
      </trkpt>
      <trkpt lat="46.47845" lon="6.03768">
        <ele>959.9</ele>
        <time>2019-08-01T12:16:34Z</time>
      </trkpt>
      <trkpt lat="46.47848" lon="6.03774">
        <ele>959.5</ele>
        <time>2019-08-01T12:16:38Z</time>
      </trkpt>
      <trkpt lat="46.47847" lon="6.03782">
        <ele>959.3</ele>
        <time>2019-08-01T12:16:42Z</time>
      </trkpt>
      <trkpt lat="46.47847" lon="6.03788">
        <ele>959.2</ele>
        <time>2019-08-01T12:16:45Z</time>
      </trkpt>
      <trkpt lat="46.47846" lon="6.03795">
        <ele>959.1</ele>
        <time>2019-08-01T12:16:49Z</time>
      </trkpt>
      <trkpt lat="46.47846" lon="6.03802">
        <ele>958.9</ele>
        <time>2019-08-01T12:16:55Z</time>
      </trkpt>
      <trkpt lat="46.47848" lon="6.03808">
        <ele>959</ele>
        <time>2019-08-01T12:17:03Z</time>
      </trkpt>
      <trkpt lat="46.47849" lon="6.03815">
        <ele>959.6</ele>
        <time>2019-08-01T12:17:11Z</time>
      </trkpt>
      <trkpt lat="46.47851" lon="6.03822">
        <ele>960</ele>
        <time>2019-08-01T12:17:15Z</time>
      </trkpt>
      <trkpt lat="46.47854" lon="6.03827">
        <ele>960.5</ele>
        <time>2019-08-01T12:17:18Z</time>
      </trkpt>
      <trkpt lat="46.47857" lon="6.03832">
        <ele>961.4</ele>
        <time>2019-08-01T12:17:22Z</time>
      </trkpt>
      <trkpt lat="46.4786" lon="6.03838">
        <ele>962.3</ele>
        <time>2019-08-01T12:17:26Z</time>
      </trkpt>
      <trkpt lat="46.47862" lon="6.03844">
        <ele>963.2</ele>
        <time>2019-08-01T12:17:34Z</time>
      </trkpt>
      <trkpt lat="46.47862" lon="6.03852">
        <ele>960.7</ele>
        <time>2019-08-01T12:17:51Z</time>
      </trkpt>
      <trkpt lat="46.47863" lon="6.03858">
        <ele>958.3</ele>
        <time>2019-08-01T12:17:57Z</time>
      </trkpt>
      <trkpt lat="46.47862" lon="6.03865">
        <ele>952.9</ele>
        <time>2019-08-01T12:18:09Z</time>
      </trkpt>
      <trkpt lat="46.47862" lon="6.03872">
        <ele>951.7</ele>
        <time>2019-08-01T12:18:14Z</time>
      </trkpt>
      <trkpt lat="46.47862" lon="6.0388">
        <ele>950.7</ele>
        <time>2019-08-01T12:18:18Z</time>
      </trkpt>
      <trkpt lat="46.47862" lon="6.03888">
        <ele>949.7</ele>
        <time>2019-08-01T12:18:22Z</time>
      </trkpt>
      <trkpt lat="46.47862" lon="6.03895">
        <ele>948.8</ele>
        <time>2019-08-01T12:18:26Z</time>
      </trkpt>
      <trkpt lat="46.47863" lon="6.03902">
        <ele>947.8</ele>
        <time>2019-08-01T12:18:31Z</time>
      </trkpt>
      <trkpt lat="46.47865" lon="6.03908">
        <ele>946.9</ele>
        <time>2019-08-01T12:18:35Z</time>
      </trkpt>
      <trkpt lat="46.47865" lon="6.03915">
        <ele>946.2</ele>
        <time>2019-08-01T12:18:40Z</time>
      </trkpt>
      <trkpt lat="46.47864" lon="6.03921">
        <ele>945.8</ele>
        <time>2019-08-01T12:18:47Z</time>
      </trkpt>
      <trkpt lat="46.47861" lon="6.03928">
        <ele>945.3</ele>
        <time>2019-08-01T12:18:55Z</time>
      </trkpt>
      <trkpt lat="46.47861" lon="6.03936">
        <ele>945.3</ele>
        <time>2019-08-01T12:19:00Z</time>
      </trkpt>
      <trkpt lat="46.4786" lon="6.03944">
        <ele>945.6</ele>
        <time>2019-08-01T12:19:03Z</time>
      </trkpt>
      <trkpt lat="46.4786" lon="6.03951">
        <ele>946.2</ele>
        <time>2019-08-01T12:19:07Z</time>
      </trkpt>
      <trkpt lat="46.47861" lon="6.03959">
        <ele>947.1</ele>
        <time>2019-08-01T12:19:15Z</time>
      </trkpt>
      <trkpt lat="46.47863" lon="6.03965">
        <ele>947.5</ele>
        <time>2019-08-01T12:19:22Z</time>
      </trkpt>
      <trkpt lat="46.47876" lon="6.0397">
        <ele>936.8</ele>
        <time>2019-08-01T12:21:03Z</time>
      </trkpt>
      <trkpt lat="46.47876" lon="6.03977">
        <ele>937.2</ele>
        <time>2019-08-01T12:21:10Z</time>
      </trkpt>
      <trkpt lat="46.47877" lon="6.03984">
        <ele>937.6</ele>
        <time>2019-08-01T12:21:14Z</time>
      </trkpt>
      <trkpt lat="46.47879" lon="6.0399">
        <ele>937.7</ele>
        <time>2019-08-01T12:21:18Z</time>
      </trkpt>
      <trkpt lat="46.47878" lon="6.03998">
        <ele>938.1</ele>
        <time>2019-08-01T12:21:24Z</time>
      </trkpt>
      <trkpt lat="46.47877" lon="6.04005">
        <ele>939.2</ele>
        <time>2019-08-01T12:21:32Z</time>
      </trkpt>
      <trkpt lat="46.47874" lon="6.0401">
        <ele>940.4</ele>
        <time>2019-08-01T12:21:39Z</time>
      </trkpt>
      <trkpt lat="46.47872" lon="6.04017">
        <ele>941</ele>
        <time>2019-08-01T12:21:46Z</time>
      </trkpt>
      <trkpt lat="46.47871" lon="6.04024">
        <ele>941</ele>
        <time>2019-08-01T12:21:53Z</time>
      </trkpt>
      <trkpt lat="46.47869" lon="6.04031">
        <ele>940.7</ele>
        <time>2019-08-01T12:21:57Z</time>
      </trkpt>
      <trkpt lat="46.47869" lon="6.04038">
        <ele>940.7</ele>
        <time>2019-08-01T12:22:01Z</time>
      </trkpt>
      <trkpt lat="46.47867" lon="6.04045">
        <ele>940.3</ele>
        <time>2019-08-01T12:22:08Z</time>
      </trkpt>
      <trkpt lat="46.47864" lon="6.04051">
        <ele>939.4</ele>
        <time>2019-08-01T12:22:13Z</time>
      </trkpt>
      <trkpt lat="46.47862" lon="6.04066">
        <ele>936.4</ele>
        <time>2019-08-01T12:22:23Z</time>
      </trkpt>
      <trkpt lat="46.47859" lon="6.04072">
        <ele>935.8</ele>
        <time>2019-08-01T12:22:28Z</time>
      </trkpt>
      <trkpt lat="46.4786" lon="6.04079">
        <ele>933.8</ele>
        <time>2019-08-01T12:22:44Z</time>
      </trkpt>
      <trkpt lat="46.4786" lon="6.04086">
        <ele>931.4</ele>
        <time>2019-08-01T12:22:56Z</time>
      </trkpt>
      <trkpt lat="46.47856" lon="6.04093">
        <ele>925.7</ele>
        <time>2019-08-01T12:23:37Z</time>
      </trkpt>
      <trkpt lat="46.47852" lon="6.04097">
        <ele>923.7</ele>
        <time>2019-08-01T12:23:40Z</time>
      </trkpt>
      <trkpt lat="46.47849" lon="6.04102">
        <ele>919.8</ele>
        <time>2019-08-01T12:23:45Z</time>
      </trkpt>
      <trkpt lat="46.47847" lon="6.04108">
        <ele>911.8</ele>
        <time>2019-08-01T12:23:58Z</time>
      </trkpt>
      <trkpt lat="46.47845" lon="6.04114">
        <ele>907.4</ele>
        <time>2019-08-01T12:24:13Z</time>
      </trkpt>
      <trkpt lat="46.47844" lon="6.04121">
        <ele>905.3</ele>
        <time>2019-08-01T12:24:22Z</time>
      </trkpt>
      <trkpt lat="46.47839" lon="6.04136">
        <ele>904.4</ele>
        <time>2019-08-01T12:24:44Z</time>
      </trkpt>
      <trkpt lat="46.47833" lon="6.04149">
        <ele>906.9</ele>
        <time>2019-08-01T12:24:58Z</time>
      </trkpt>
      <trkpt lat="46.47827" lon="6.04161">
        <ele>909.4</ele>
        <time>2019-08-01T12:25:10Z</time>
      </trkpt>
      <trkpt lat="46.47826" lon="6.04168">
        <ele>910.7</ele>
        <time>2019-08-01T12:25:15Z</time>
      </trkpt>
      <trkpt lat="46.47823" lon="6.04177">
        <ele>911.5</ele>
        <time>2019-08-01T12:25:18Z</time>
      </trkpt>
      <trkpt lat="46.47821" lon="6.04183">
        <ele>912.6</ele>
        <time>2019-08-01T12:25:22Z</time>
      </trkpt>
      <trkpt lat="46.47819" lon="6.0419">
        <ele>914.2</ele>
        <time>2019-08-01T12:25:27Z</time>
      </trkpt>
      <trkpt lat="46.47809" lon="6.04194">
        <ele>920.5</ele>
        <time>2019-08-01T12:25:45Z</time>
      </trkpt>
      <trkpt lat="46.47819" lon="6.04171">
        <ele>905.2</ele>
        <time>2019-08-01T12:28:16Z</time>
      </trkpt>
      <trkpt lat="46.47824" lon="6.04172">
        <ele>904.8</ele>
        <time>2019-08-01T12:28:19Z</time>
      </trkpt>
      <trkpt lat="46.4783" lon="6.04176">
        <ele>903.7</ele>
        <time>2019-08-01T12:28:24Z</time>
      </trkpt>
      <trkpt lat="46.47834" lon="6.04172">
        <ele>902.1</ele>
        <time>2019-08-01T12:28:31Z</time>
      </trkpt>
      <trkpt lat="46.47839" lon="6.04175">
        <ele>896.2</ele>
        <time>2019-08-01T12:28:47Z</time>
      </trkpt>
      <trkpt lat="46.47844" lon="6.04175">
        <ele>895.1</ele>
        <time>2019-08-01T12:28:52Z</time>
      </trkpt>
      <trkpt lat="46.47849" lon="6.04174">
        <ele>893.8</ele>
        <time>2019-08-01T12:28:59Z</time>
      </trkpt>
      <trkpt lat="46.47854" lon="6.04177">
        <ele>892</ele>
        <time>2019-08-01T12:29:09Z</time>
      </trkpt>
      <trkpt lat="46.47862" lon="6.04181">
        <ele>888.2</ele>
        <time>2019-08-01T12:29:29Z</time>
      </trkpt>
      <trkpt lat="46.47874" lon="6.04186">
        <ele>886.4</ele>
        <time>2019-08-01T12:29:42Z</time>
      </trkpt>
      <trkpt lat="46.4788" lon="6.04189">
        <ele>886.4</ele>
        <time>2019-08-01T12:29:46Z</time>
      </trkpt>
      <trkpt lat="46.47884" lon="6.04192">
        <ele>886.3</ele>
        <time>2019-08-01T12:29:53Z</time>
      </trkpt>
      <trkpt lat="46.47884" lon="6.04201">
        <ele>886.3</ele>
        <time>2019-08-01T12:30:14Z</time>
      </trkpt>
      <trkpt lat="46.47882" lon="6.04208">
        <ele>886.1</ele>
        <time>2019-08-01T12:30:18Z</time>
      </trkpt>
      <trkpt lat="46.47883" lon="6.04218">
        <ele>885.1</ele>
        <time>2019-08-01T12:30:32Z</time>
      </trkpt>
      <trkpt lat="46.47888" lon="6.04221">
        <ele>885.9</ele>
        <time>2019-08-01T12:30:41Z</time>
      </trkpt>
      <trkpt lat="46.47893" lon="6.04223">
        <ele>886.9</ele>
        <time>2019-08-01T12:30:45Z</time>
      </trkpt>
      <trkpt lat="46.47897" lon="6.04226">
        <ele>887.8</ele>
        <time>2019-08-01T12:30:49Z</time>
      </trkpt>
      <trkpt lat="46.47901" lon="6.0423">
        <ele>888.5</ele>
        <time>2019-08-01T12:30:53Z</time>
      </trkpt>
      <trkpt lat="46.479" lon="6.04236">
        <ele>889.9</ele>
        <time>2019-08-01T12:31:02Z</time>
      </trkpt>
      <trkpt lat="46.47896" lon="6.0424">
        <ele>891.6</ele>
        <time>2019-08-01T12:31:16Z</time>
      </trkpt>
      <trkpt lat="46.47878" lon="6.04246">
        <ele>905</ele>
        <time>2019-08-01T12:31:52Z</time>
      </trkpt>
      <trkpt lat="46.47875" lon="6.04252">
        <ele>907.6</ele>
        <time>2019-08-01T12:31:58Z</time>
      </trkpt>
      <trkpt lat="46.47857" lon="6.04294">
        <ele>924.9</ele>
        <time>2019-08-01T12:32:54Z</time>
      </trkpt>
      <trkpt lat="46.47853" lon="6.04297">
        <ele>927.3</ele>
        <time>2019-08-01T12:33:02Z</time>
      </trkpt>
      <trkpt lat="46.4785" lon="6.04301">
        <ele>928.8</ele>
        <time>2019-08-01T12:33:07Z</time>
      </trkpt>
      <trkpt lat="46.47836" lon="6.04313">
        <ele>930.9</ele>
        <time>2019-08-01T12:33:22Z</time>
      </trkpt>
      <trkpt lat="46.4782" lon="6.04337">
        <ele>937.1</ele>
        <time>2019-08-01T12:33:51Z</time>
      </trkpt>
      <trkpt lat="46.47798" lon="6.04353">
        <ele>945.4</ele>
        <time>2019-08-01T12:34:26Z</time>
      </trkpt>
      <trkpt lat="46.47768" lon="6.04343">
        <ele>953.7</ele>
        <time>2019-08-01T12:35:09Z</time>
      </trkpt>
      <trkpt lat="46.47767" lon="6.04355">
        <ele>941.6</ele>
        <time>2019-08-01T12:37:58Z</time>
      </trkpt>
      <trkpt lat="46.47764" lon="6.04359">
        <ele>941.9</ele>
        <time>2019-08-01T12:38:05Z</time>
      </trkpt>
      <trkpt lat="46.47764" lon="6.04379">
        <ele>943.7</ele>
        <time>2019-08-01T12:38:31Z</time>
      </trkpt>
      <trkpt lat="46.47773" lon="6.04389">
        <ele>943.2</ele>
        <time>2019-08-01T12:38:56Z</time>
      </trkpt>
      <trkpt lat="46.47774" lon="6.04408">
        <ele>946.8</ele>
        <time>2019-08-01T12:39:13Z</time>
      </trkpt>
      <trkpt lat="46.47708" lon="6.04474">
        <ele>972.9</ele>
        <time>2019-08-01T12:41:41Z</time>
      </trkpt>
      <trkpt lat="46.477" lon="6.04483">
        <ele>975.8</ele>
        <time>2019-08-01T12:42:00Z</time>
      </trkpt>
      <trkpt lat="46.47678" lon="6.04502">
        <ele>985.2</ele>
        <time>2019-08-01T12:42:34Z</time>
      </trkpt>
      <trkpt lat="46.47641" lon="6.04519">
        <ele>991.6</ele>
        <time>2019-08-01T12:44:25Z</time>
      </trkpt>
      <trkpt lat="46.47636" lon="6.04521">
        <ele>993.2</ele>
        <time>2019-08-01T12:44:31Z</time>
      </trkpt>
      <trkpt lat="46.47631" lon="6.04522">
        <ele>994.3</ele>
        <time>2019-08-01T12:44:37Z</time>
      </trkpt>
      <trkpt lat="46.47626" lon="6.04526">
        <ele>994.6</ele>
        <time>2019-08-01T12:44:41Z</time>
      </trkpt>
      <trkpt lat="46.47616" lon="6.04535">
        <ele>995.7</ele>
        <time>2019-08-01T12:45:02Z</time>
      </trkpt>
      <trkpt lat="46.47608" lon="6.04545">
        <ele>996.3</ele>
        <time>2019-08-01T12:45:18Z</time>
      </trkpt>
      <trkpt lat="46.47604" lon="6.0455">
        <ele>996.2</ele>
        <time>2019-08-01T12:45:22Z</time>
      </trkpt>
      <trkpt lat="46.47602" lon="6.04556">
        <ele>995.9</ele>
        <time>2019-08-01T12:45:26Z</time>
      </trkpt>
      <trkpt lat="46.47598" lon="6.04562">
        <ele>995.5</ele>
        <time>2019-08-01T12:45:29Z</time>
      </trkpt>
      <trkpt lat="46.47594" lon="6.04566">
        <ele>994.7</ele>
        <time>2019-08-01T12:45:36Z</time>
      </trkpt>
      <trkpt lat="46.47594" lon="6.04573">
        <ele>994.4</ele>
        <time>2019-08-01T12:45:45Z</time>
      </trkpt>
      <trkpt lat="46.47592" lon="6.04579">
        <ele>994.2</ele>
        <time>2019-08-01T12:45:50Z</time>
      </trkpt>
      <trkpt lat="46.47588" lon="6.04582">
        <ele>994</ele>
        <time>2019-08-01T12:45:54Z</time>
      </trkpt>
      <trkpt lat="46.47584" lon="6.04587">
        <ele>993.8</ele>
        <time>2019-08-01T12:45:59Z</time>
      </trkpt>
      <trkpt lat="46.47579" lon="6.04591">
        <ele>993.9</ele>
        <time>2019-08-01T12:46:05Z</time>
      </trkpt>
      <trkpt lat="46.47574" lon="6.04593">
        <ele>993.9</ele>
        <time>2019-08-01T12:46:07Z</time>
      </trkpt>
      <trkpt lat="46.4757" lon="6.04594">
        <ele>994</ele>
        <time>2019-08-01T12:46:10Z</time>
      </trkpt>
      <trkpt lat="46.47563" lon="6.04606">
        <ele>994.4</ele>
        <time>2019-08-01T12:46:32Z</time>
      </trkpt>
      <trkpt lat="46.47559" lon="6.04607">
        <ele>994.2</ele>
        <time>2019-08-01T12:46:43Z</time>
      </trkpt>
      <trkpt lat="46.47553" lon="6.04605">
        <ele>994.2</ele>
        <time>2019-08-01T12:46:48Z</time>
      </trkpt>
      <trkpt lat="46.47549" lon="6.04603">
        <ele>993.6</ele>
        <time>2019-08-01T12:46:53Z</time>
      </trkpt>
      <trkpt lat="46.47544" lon="6.04604">
        <ele>993</ele>
        <time>2019-08-01T12:46:58Z</time>
      </trkpt>
      <trkpt lat="46.47538" lon="6.04607">
        <ele>992.7</ele>
        <time>2019-08-01T12:47:00Z</time>
      </trkpt>
      <trkpt lat="46.47533" lon="6.04608">
        <ele>992.5</ele>
        <time>2019-08-01T12:47:02Z</time>
      </trkpt>
      <trkpt lat="46.47528" lon="6.04609">
        <ele>992.4</ele>
        <time>2019-08-01T12:47:04Z</time>
      </trkpt>
      <trkpt lat="46.47524" lon="6.04612">
        <ele>992.3</ele>
        <time>2019-08-01T12:47:09Z</time>
      </trkpt>
      <trkpt lat="46.47521" lon="6.04618">
        <ele>992.6</ele>
        <time>2019-08-01T12:47:18Z</time>
      </trkpt>
      <trkpt lat="46.47519" lon="6.04624">
        <ele>992.6</ele>
        <time>2019-08-01T12:47:25Z</time>
      </trkpt>
      <trkpt lat="46.47519" lon="6.04637">
        <ele>991.8</ele>
        <time>2019-08-01T12:47:38Z</time>
      </trkpt>
      <trkpt lat="46.47517" lon="6.04643">
        <ele>991.1</ele>
        <time>2019-08-01T12:47:46Z</time>
      </trkpt>
      <trkpt lat="46.47515" lon="6.0465">
        <ele>990.9</ele>
        <time>2019-08-01T12:47:51Z</time>
      </trkpt>
      <trkpt lat="46.47513" lon="6.04655">
        <ele>991.2</ele>
        <time>2019-08-01T12:47:55Z</time>
      </trkpt>
      <trkpt lat="46.47511" lon="6.04664">
        <ele>992.7</ele>
        <time>2019-08-01T12:48:03Z</time>
      </trkpt>
      <trkpt lat="46.47511" lon="6.04671">
        <ele>994</ele>
        <time>2019-08-01T12:48:08Z</time>
      </trkpt>
      <trkpt lat="46.47509" lon="6.04678">
        <ele>995.6</ele>
        <time>2019-08-01T12:48:17Z</time>
      </trkpt>
      <trkpt lat="46.47503" lon="6.04688">
        <ele>996.4</ele>
        <time>2019-08-01T12:48:31Z</time>
      </trkpt>
      <trkpt lat="46.47499" lon="6.04691">
        <ele>996.3</ele>
        <time>2019-08-01T12:48:36Z</time>
      </trkpt>
      <trkpt lat="46.47494" lon="6.04696">
        <ele>996.1</ele>
        <time>2019-08-01T12:48:41Z</time>
      </trkpt>
      <trkpt lat="46.47491" lon="6.04702">
        <ele>996</ele>
        <time>2019-08-01T12:48:46Z</time>
      </trkpt>
      <trkpt lat="46.47486" lon="6.04706">
        <ele>996.1</ele>
        <time>2019-08-01T12:48:52Z</time>
      </trkpt>
      <trkpt lat="46.47484" lon="6.04713">
        <ele>996.1</ele>
        <time>2019-08-01T12:48:56Z</time>
      </trkpt>
      <trkpt lat="46.47482" lon="6.0472">
        <ele>996.4</ele>
        <time>2019-08-01T12:49:00Z</time>
      </trkpt>
      <trkpt lat="46.4748" lon="6.04726">
        <ele>997</ele>
        <time>2019-08-01T12:49:05Z</time>
      </trkpt>
      <trkpt lat="46.4748" lon="6.04734">
        <ele>997.6</ele>
        <time>2019-08-01T12:49:09Z</time>
      </trkpt>
      <trkpt lat="46.47477" lon="6.0474">
        <ele>998.1</ele>
        <time>2019-08-01T12:49:14Z</time>
      </trkpt>
      <trkpt lat="46.47473" lon="6.04744">
        <ele>998.7</ele>
        <time>2019-08-01T12:49:25Z</time>
      </trkpt>
      <trkpt lat="46.47471" lon="6.0475">
        <ele>998.7</ele>
        <time>2019-08-01T12:49:29Z</time>
      </trkpt>
      <trkpt lat="46.47467" lon="6.04754">
        <ele>999</ele>
        <time>2019-08-01T12:49:34Z</time>
      </trkpt>
      <trkpt lat="46.47462" lon="6.04757">
        <ele>999.9</ele>
        <time>2019-08-01T12:49:41Z</time>
      </trkpt>
      <trkpt lat="46.47459" lon="6.04762">
        <ele>1001</ele>
        <time>2019-08-01T12:49:47Z</time>
      </trkpt>
      <trkpt lat="46.47455" lon="6.04766">
        <ele>1002.5</ele>
        <time>2019-08-01T12:49:53Z</time>
      </trkpt>
      <trkpt lat="46.4745" lon="6.04771">
        <ele>1004.2</ele>
        <time>2019-08-01T12:50:01Z</time>
      </trkpt>
      <trkpt lat="46.47446" lon="6.04773">
        <ele>1006.1</ele>
        <time>2019-08-01T12:50:08Z</time>
      </trkpt>
      <trkpt lat="46.4744" lon="6.04777">
        <ele>1007</ele>
        <time>2019-08-01T12:50:12Z</time>
      </trkpt>
      <trkpt lat="46.47436" lon="6.04784">
        <ele>1007.7</ele>
        <time>2019-08-01T12:50:16Z</time>
      </trkpt>
      <trkpt lat="46.47432" lon="6.0479">
        <ele>1008.1</ele>
        <time>2019-08-01T12:50:19Z</time>
      </trkpt>
      <trkpt lat="46.47423" lon="6.04802">
        <ele>1009.5</ele>
        <time>2019-08-01T12:50:32Z</time>
      </trkpt>
      <trkpt lat="46.4742" lon="6.04808">
        <ele>1009.9</ele>
        <time>2019-08-01T12:50:38Z</time>
      </trkpt>
      <trkpt lat="46.47417" lon="6.04815">
        <ele>1010.7</ele>
        <time>2019-08-01T12:50:43Z</time>
      </trkpt>
      <trkpt lat="46.47415" lon="6.04821">
        <ele>1011.7</ele>
        <time>2019-08-01T12:50:47Z</time>
      </trkpt>
      <trkpt lat="46.47413" lon="6.04827">
        <ele>1012.9</ele>
        <time>2019-08-01T12:50:51Z</time>
      </trkpt>
      <trkpt lat="46.47411" lon="6.04834">
        <ele>1014.4</ele>
        <time>2019-08-01T12:50:56Z</time>
      </trkpt>
      <trkpt lat="46.47409" lon="6.04841">
        <ele>1016.4</ele>
        <time>2019-08-01T12:51:03Z</time>
      </trkpt>
      <trkpt lat="46.47402" lon="6.0485">
        <ele>1018.1</ele>
        <time>2019-08-01T12:51:21Z</time>
      </trkpt>
      <trkpt lat="46.47396" lon="6.04858">
        <ele>1017</ele>
        <time>2019-08-01T12:51:32Z</time>
      </trkpt>
      <trkpt lat="46.47372" lon="6.04872">
        <ele>1022.5</ele>
        <time>2019-08-01T12:52:28Z</time>
      </trkpt>
      <trkpt lat="46.47334" lon="6.04892">
        <ele>1028.1</ele>
        <time>2019-08-01T12:53:14Z</time>
      </trkpt>
      <trkpt lat="46.47329" lon="6.04894">
        <ele>1028.3</ele>
        <time>2019-08-01T12:53:16Z</time>
      </trkpt>
      <trkpt lat="46.47324" lon="6.04898">
        <ele>1028.7</ele>
        <time>2019-08-01T12:53:20Z</time>
      </trkpt>
      <trkpt lat="46.47314" lon="6.04904">
        <ele>1031.9</ele>
        <time>2019-08-01T12:53:37Z</time>
      </trkpt>
      <trkpt lat="46.4731" lon="6.04908">
        <ele>1032.4</ele>
        <time>2019-08-01T12:53:41Z</time>
      </trkpt>
      <trkpt lat="46.47305" lon="6.04909">
        <ele>1033.1</ele>
        <time>2019-08-01T12:53:48Z</time>
      </trkpt>
      <trkpt lat="46.47301" lon="6.04911">
        <ele>1033.5</ele>
        <time>2019-08-01T12:53:53Z</time>
      </trkpt>
      <trkpt lat="46.47297" lon="6.04918">
        <ele>1033.7</ele>
        <time>2019-08-01T12:53:57Z</time>
      </trkpt>
      <trkpt lat="46.47296" lon="6.04925">
        <ele>1033.9</ele>
        <time>2019-08-01T12:53:59Z</time>
      </trkpt>
      <trkpt lat="46.47281" lon="6.04937">
        <ele>1034.5</ele>
        <time>2019-08-01T12:54:32Z</time>
      </trkpt>
      <trkpt lat="46.47276" lon="6.04935">
        <ele>1034.7</ele>
        <time>2019-08-01T12:54:34Z</time>
      </trkpt>
      <trkpt lat="46.4727" lon="6.04933">
        <ele>1035.3</ele>
        <time>2019-08-01T12:54:38Z</time>
      </trkpt>
      <trkpt lat="46.47264" lon="6.04933">
        <ele>1035.6</ele>
        <time>2019-08-01T12:54:40Z</time>
      </trkpt>
      <trkpt lat="46.47259" lon="6.04932">
        <ele>1036.3</ele>
        <time>2019-08-01T12:54:44Z</time>
      </trkpt>
      <trkpt lat="46.47254" lon="6.04932">
        <ele>1036.6</ele>
        <time>2019-08-01T12:54:51Z</time>
      </trkpt>
      <trkpt lat="46.47245" lon="6.04927">
        <ele>1037.6</ele>
        <time>2019-08-01T12:55:22Z</time>
      </trkpt>
      <trkpt lat="46.47239" lon="6.04925">
        <ele>1037.7</ele>
        <time>2019-08-01T12:55:28Z</time>
      </trkpt>
      <trkpt lat="46.47235" lon="6.04924">
        <ele>1037.6</ele>
        <time>2019-08-01T12:55:34Z</time>
      </trkpt>
      <trkpt lat="46.4723" lon="6.04922">
        <ele>1037.7</ele>
        <time>2019-08-01T12:55:37Z</time>
      </trkpt>
      <trkpt lat="46.47225" lon="6.04921">
        <ele>1037.7</ele>
        <time>2019-08-01T12:55:40Z</time>
      </trkpt>
      <trkpt lat="46.4722" lon="6.04919">
        <ele>1037.6</ele>
        <time>2019-08-01T12:55:44Z</time>
      </trkpt>
      <trkpt lat="46.47208" lon="6.04916">
        <ele>1034.9</ele>
        <time>2019-08-01T12:55:57Z</time>
      </trkpt>
      <trkpt lat="46.47202" lon="6.04916">
        <ele>1033.6</ele>
        <time>2019-08-01T12:56:03Z</time>
      </trkpt>
      <trkpt lat="46.47198" lon="6.04916">
        <ele>1032.6</ele>
        <time>2019-08-01T12:56:08Z</time>
      </trkpt>
      <trkpt lat="46.47193" lon="6.04917">
        <ele>1031</ele>
        <time>2019-08-01T12:56:14Z</time>
      </trkpt>
      <trkpt lat="46.47189" lon="6.04917">
        <ele>1029.9</ele>
        <time>2019-08-01T12:56:18Z</time>
      </trkpt>
      <trkpt lat="46.47183" lon="6.04914">
        <ele>1028.7</ele>
        <time>2019-08-01T12:56:22Z</time>
      </trkpt>
      <trkpt lat="46.47178" lon="6.04913">
        <ele>1027.5</ele>
        <time>2019-08-01T12:56:26Z</time>
      </trkpt>
      <trkpt lat="46.47173" lon="6.04913">
        <ele>1026.4</ele>
        <time>2019-08-01T12:56:30Z</time>
      </trkpt>
      <trkpt lat="46.47168" lon="6.04914">
        <ele>1025.5</ele>
        <time>2019-08-01T12:56:35Z</time>
      </trkpt>
      <trkpt lat="46.47163" lon="6.04915">
        <ele>1024.7</ele>
        <time>2019-08-01T12:56:41Z</time>
      </trkpt>
      <trkpt lat="46.47158" lon="6.04911">
        <ele>1024.2</ele>
        <time>2019-08-01T12:56:46Z</time>
      </trkpt>
      <trkpt lat="46.47153" lon="6.04909">
        <ele>1024</ele>
        <time>2019-08-01T12:56:49Z</time>
      </trkpt>
      <trkpt lat="46.47134" lon="6.04906">
        <ele>1021.9</ele>
        <time>2019-08-01T12:57:08Z</time>
      </trkpt>
      <trkpt lat="46.47128" lon="6.04905">
        <ele>1021.5</ele>
        <time>2019-08-01T12:57:11Z</time>
      </trkpt>
      <trkpt lat="46.47124" lon="6.04905">
        <ele>1021</ele>
        <time>2019-08-01T12:57:14Z</time>
      </trkpt>
      <trkpt lat="46.47118" lon="6.04905">
        <ele>1020.5</ele>
        <time>2019-08-01T12:57:18Z</time>
      </trkpt>
      <trkpt lat="46.47113" lon="6.04907">
        <ele>1019.8</ele>
        <time>2019-08-01T12:57:23Z</time>
      </trkpt>
      <trkpt lat="46.47109" lon="6.04912">
        <ele>1019.1</ele>
        <time>2019-08-01T12:57:28Z</time>
      </trkpt>
      <trkpt lat="46.47106" lon="6.04918">
        <ele>1018.7</ele>
        <time>2019-08-01T12:57:31Z</time>
      </trkpt>
      <trkpt lat="46.47101" lon="6.04921">
        <ele>1018.1</ele>
        <time>2019-08-01T12:57:34Z</time>
      </trkpt>
      <trkpt lat="46.47096" lon="6.04922">
        <ele>1017.4</ele>
        <time>2019-08-01T12:57:37Z</time>
      </trkpt>
      <trkpt lat="46.47091" lon="6.04923">
        <ele>1015.8</ele>
        <time>2019-08-01T12:57:43Z</time>
      </trkpt>
      <trkpt lat="46.47086" lon="6.04922">
        <ele>1014.1</ele>
        <time>2019-08-01T12:57:49Z</time>
      </trkpt>
      <trkpt lat="46.47082" lon="6.04919">
        <ele>1012.8</ele>
        <time>2019-08-01T12:57:56Z</time>
      </trkpt>
      <trkpt lat="46.47077" lon="6.04917">
        <ele>1011.8</ele>
        <time>2019-08-01T12:58:03Z</time>
      </trkpt>
      <trkpt lat="46.47072" lon="6.04916">
        <ele>1011.3</ele>
        <time>2019-08-01T12:58:07Z</time>
      </trkpt>
      <trkpt lat="46.47068" lon="6.04918">
        <ele>1010.8</ele>
        <time>2019-08-01T12:58:12Z</time>
      </trkpt>
      <trkpt lat="46.47065" lon="6.04924">
        <ele>1010.1</ele>
        <time>2019-08-01T12:58:17Z</time>
      </trkpt>
      <trkpt lat="46.47059" lon="6.04928">
        <ele>1009.6</ele>
        <time>2019-08-01T12:58:20Z</time>
      </trkpt>
      <trkpt lat="46.47055" lon="6.04932">
        <ele>1009.3</ele>
        <time>2019-08-01T12:58:22Z</time>
      </trkpt>
      <trkpt lat="46.47052" lon="6.04937">
        <ele>1008.9</ele>
        <time>2019-08-01T12:58:25Z</time>
      </trkpt>
      <trkpt lat="46.47048" lon="6.04941">
        <ele>1008.6</ele>
        <time>2019-08-01T12:58:32Z</time>
      </trkpt>
      <trkpt lat="46.47045" lon="6.04946">
        <ele>1008.7</ele>
        <time>2019-08-01T12:58:35Z</time>
      </trkpt>
      <trkpt lat="46.4704" lon="6.0495">
        <ele>1009.2</ele>
        <time>2019-08-01T12:58:40Z</time>
      </trkpt>
      <trkpt lat="46.47037" lon="6.04954">
        <ele>1009.7</ele>
        <time>2019-08-01T12:58:44Z</time>
      </trkpt>
      <trkpt lat="46.47033" lon="6.04959">
        <ele>1010.5</ele>
        <time>2019-08-01T12:58:50Z</time>
      </trkpt>
      <trkpt lat="46.47028" lon="6.04962">
        <ele>1010.9</ele>
        <time>2019-08-01T12:58:54Z</time>
      </trkpt>
      <trkpt lat="46.47023" lon="6.04964">
        <ele>1011.2</ele>
        <time>2019-08-01T12:58:57Z</time>
      </trkpt>
      <trkpt lat="46.4702" lon="6.04968">
        <ele>1011.6</ele>
        <time>2019-08-01T12:59:07Z</time>
      </trkpt>
      <trkpt lat="46.47015" lon="6.0497">
        <ele>1011.7</ele>
        <time>2019-08-01T12:59:12Z</time>
      </trkpt>
      <trkpt lat="46.4701" lon="6.04972">
        <ele>1011.7</ele>
        <time>2019-08-01T12:59:17Z</time>
      </trkpt>
      <trkpt lat="46.47006" lon="6.04975">
        <ele>1011.7</ele>
        <time>2019-08-01T12:59:24Z</time>
      </trkpt>
      <trkpt lat="46.47001" lon="6.04978">
        <ele>1011.6</ele>
        <time>2019-08-01T12:59:30Z</time>
      </trkpt>
      <trkpt lat="46.46995" lon="6.0498">
        <ele>1011.9</ele>
        <time>2019-08-01T12:59:36Z</time>
      </trkpt>
      <trkpt lat="46.46989" lon="6.04982">
        <ele>1012</ele>
        <time>2019-08-01T12:59:39Z</time>
      </trkpt>
      <trkpt lat="46.46985" lon="6.04988">
        <ele>1012.1</ele>
        <time>2019-08-01T12:59:41Z</time>
      </trkpt>
      <trkpt lat="46.46981" lon="6.04992">
        <ele>1012.3</ele>
        <time>2019-08-01T12:59:44Z</time>
      </trkpt>
      <trkpt lat="46.46977" lon="6.04997">
        <ele>1013.2</ele>
        <time>2019-08-01T12:59:51Z</time>
      </trkpt>
      <trkpt lat="46.46976" lon="6.05003">
        <ele>1015.8</ele>
        <time>2019-08-01T13:00:03Z</time>
      </trkpt>
      <trkpt lat="46.46971" lon="6.05006">
        <ele>1017.1</ele>
        <time>2019-08-01T13:00:08Z</time>
      </trkpt>
      <trkpt lat="46.46965" lon="6.05008">
        <ele>1017.9</ele>
        <time>2019-08-01T13:00:11Z</time>
      </trkpt>
      <trkpt lat="46.46958" lon="6.0501">
        <ele>1018.4</ele>
        <time>2019-08-01T13:00:13Z</time>
      </trkpt>
      <trkpt lat="46.46954" lon="6.05012">
        <ele>1019.3</ele>
        <time>2019-08-01T13:00:16Z</time>
      </trkpt>
      <trkpt lat="46.46949" lon="6.05014">
        <ele>1020.8</ele>
        <time>2019-08-01T13:00:23Z</time>
      </trkpt>
      <trkpt lat="46.46946" lon="6.05018">
        <ele>1022.3</ele>
        <time>2019-08-01T13:00:31Z</time>
      </trkpt>
      <trkpt lat="46.46942" lon="6.05024">
        <ele>1022.8</ele>
        <time>2019-08-01T13:00:35Z</time>
      </trkpt>
      <trkpt lat="46.46937" lon="6.05028">
        <ele>1023.1</ele>
        <time>2019-08-01T13:00:41Z</time>
      </trkpt>
      <trkpt lat="46.46932" lon="6.05031">
        <ele>1022.9</ele>
        <time>2019-08-01T13:00:45Z</time>
      </trkpt>
      <trkpt lat="46.46931" lon="6.05037">
        <ele>1022.7</ele>
        <time>2019-08-01T13:00:48Z</time>
      </trkpt>
      <trkpt lat="46.46926" lon="6.05045">
        <ele>1022.9</ele>
        <time>2019-08-01T13:01:06Z</time>
      </trkpt>
      <trkpt lat="46.46921" lon="6.05049">
        <ele>1023.8</ele>
        <time>2019-08-01T13:01:12Z</time>
      </trkpt>
      <trkpt lat="46.46909" lon="6.05063">
        <ele>1025.1</ele>
        <time>2019-08-01T13:01:26Z</time>
      </trkpt>
      <trkpt lat="46.46904" lon="6.05066">
        <ele>1025.1</ele>
        <time>2019-08-01T13:01:29Z</time>
      </trkpt>
      <trkpt lat="46.469" lon="6.05069">
        <ele>1025.2</ele>
        <time>2019-08-01T13:01:33Z</time>
      </trkpt>
      <trkpt lat="46.46896" lon="6.05072">
        <ele>1025.3</ele>
        <time>2019-08-01T13:01:37Z</time>
      </trkpt>
      <trkpt lat="46.46889" lon="6.05076">
        <ele>1025.4</ele>
        <time>2019-08-01T13:01:39Z</time>
      </trkpt>
      <trkpt lat="46.46886" lon="6.05081">
        <ele>1025.5</ele>
        <time>2019-08-01T13:01:41Z</time>
      </trkpt>
      <trkpt lat="46.46868" lon="6.05101">
        <ele>1023.9</ele>
        <time>2019-08-01T13:02:01Z</time>
      </trkpt>
      <trkpt lat="46.46864" lon="6.05104">
        <ele>1024.1</ele>
        <time>2019-08-01T13:02:06Z</time>
      </trkpt>
      <trkpt lat="46.46859" lon="6.05109">
        <ele>1024.6</ele>
        <time>2019-08-01T13:02:12Z</time>
      </trkpt>
      <trkpt lat="46.46855" lon="6.05113">
        <ele>1024.6</ele>
        <time>2019-08-01T13:02:16Z</time>
      </trkpt>
      <trkpt lat="46.46852" lon="6.05118">
        <ele>1023.9</ele>
        <time>2019-08-01T13:02:23Z</time>
      </trkpt>
      <trkpt lat="46.46847" lon="6.05122">
        <ele>1023.5</ele>
        <time>2019-08-01T13:02:29Z</time>
      </trkpt>
      <trkpt lat="46.46844" lon="6.05127">
        <ele>1023.5</ele>
        <time>2019-08-01T13:02:31Z</time>
      </trkpt>
      <trkpt lat="46.46841" lon="6.05132">
        <ele>1023.6</ele>
        <time>2019-08-01T13:02:34Z</time>
      </trkpt>
      <trkpt lat="46.46835" lon="6.05144">
        <ele>1024.8</ele>
        <time>2019-08-01T13:02:48Z</time>
      </trkpt>
      <trkpt lat="46.46807" lon="6.0516">
        <ele>1033.3</ele>
        <time>2019-08-01T13:03:24Z</time>
      </trkpt>
      <trkpt lat="46.46802" lon="6.05158">
        <ele>1033.7</ele>
        <time>2019-08-01T13:03:26Z</time>
      </trkpt>
      <trkpt lat="46.46798" lon="6.05156">
        <ele>1034.2</ele>
        <time>2019-08-01T13:03:28Z</time>
      </trkpt>
      <trkpt lat="46.46787" lon="6.0516">
        <ele>1038</ele>
        <time>2019-08-01T13:03:48Z</time>
      </trkpt>
      <trkpt lat="46.46783" lon="6.05165">
        <ele>1038.2</ele>
        <time>2019-08-01T13:03:54Z</time>
      </trkpt>
      <trkpt lat="46.46779" lon="6.05169">
        <ele>1038.4</ele>
        <time>2019-08-01T13:03:56Z</time>
      </trkpt>
      <trkpt lat="46.46775" lon="6.05172">
        <ele>1038.7</ele>
        <time>2019-08-01T13:04:00Z</time>
      </trkpt>
      <trkpt lat="46.46771" lon="6.05177">
        <ele>1039.2</ele>
        <time>2019-08-01T13:04:07Z</time>
      </trkpt>
      <trkpt lat="46.46765" lon="6.05178">
        <ele>1039.3</ele>
        <time>2019-08-01T13:04:10Z</time>
      </trkpt>
      <trkpt lat="46.4676" lon="6.0518">
        <ele>1039.4</ele>
        <time>2019-08-01T13:04:16Z</time>
      </trkpt>
      <trkpt lat="46.46745" lon="6.05167">
        <ele>1033.5</ele>
        <time>2019-08-01T13:05:12Z</time>
      </trkpt>
      <trkpt lat="46.46747" lon="6.0516">
        <ele>1032.1</ele>
        <time>2019-08-01T13:05:19Z</time>
      </trkpt>
      <trkpt lat="46.46744" lon="6.05154">
        <ele>1031.3</ele>
        <time>2019-08-01T13:05:23Z</time>
      </trkpt>
      <trkpt lat="46.46739" lon="6.05146">
        <ele>1028.8</ele>
        <time>2019-08-01T13:05:33Z</time>
      </trkpt>
      <trkpt lat="46.4672" lon="6.05142">
        <ele>1026.2</ele>
        <time>2019-08-01T13:06:06Z</time>
      </trkpt>
      <trkpt lat="46.46709" lon="6.05145">
        <ele>1026.2</ele>
        <time>2019-08-01T13:06:20Z</time>
      </trkpt>
      <trkpt lat="46.46704" lon="6.05146">
        <ele>1026.4</ele>
        <time>2019-08-01T13:06:22Z</time>
      </trkpt>
      <trkpt lat="46.46694" lon="6.0515">
        <ele>1029.4</ele>
        <time>2019-08-01T13:06:30Z</time>
      </trkpt>
      <trkpt lat="46.4669" lon="6.05153">
        <ele>1030.1</ele>
        <time>2019-08-01T13:06:32Z</time>
      </trkpt>
      <trkpt lat="46.46685" lon="6.05154">
        <ele>1030.7</ele>
        <time>2019-08-01T13:06:34Z</time>
      </trkpt>
      <trkpt lat="46.4668" lon="6.05155">
        <ele>1032.7</ele>
        <time>2019-08-01T13:06:40Z</time>
      </trkpt>
      <trkpt lat="46.46675" lon="6.05155">
        <ele>1034.7</ele>
        <time>2019-08-01T13:06:46Z</time>
      </trkpt>
      <trkpt lat="46.46671" lon="6.05156">
        <ele>1035.7</ele>
        <time>2019-08-01T13:06:50Z</time>
      </trkpt>
      <trkpt lat="46.46666" lon="6.05158">
        <ele>1036.3</ele>
        <time>2019-08-01T13:06:54Z</time>
      </trkpt>
      <trkpt lat="46.46661" lon="6.0516">
        <ele>1036.6</ele>
        <time>2019-08-01T13:06:58Z</time>
      </trkpt>
      <trkpt lat="46.46656" lon="6.05164">
        <ele>1036.5</ele>
        <time>2019-08-01T13:07:01Z</time>
      </trkpt>
      <trkpt lat="46.46651" lon="6.05164">
        <ele>1035.1</ele>
        <time>2019-08-01T13:07:10Z</time>
      </trkpt>
      <trkpt lat="46.46646" lon="6.05163">
        <ele>1033.3</ele>
        <time>2019-08-01T13:07:19Z</time>
      </trkpt>
      <trkpt lat="46.46639" lon="6.05165">
        <ele>1032.5</ele>
        <time>2019-08-01T13:07:25Z</time>
      </trkpt>
      <trkpt lat="46.46634" lon="6.05166">
        <ele>1032.2</ele>
        <time>2019-08-01T13:07:27Z</time>
      </trkpt>
      <trkpt lat="46.46623" lon="6.05171">
        <ele>1031.6</ele>
        <time>2019-08-01T13:07:44Z</time>
      </trkpt>
      <trkpt lat="46.46616" lon="6.05172">
        <ele>1031.7</ele>
        <time>2019-08-01T13:07:49Z</time>
      </trkpt>
      <trkpt lat="46.46609" lon="6.0517">
        <ele>1031.7</ele>
        <time>2019-08-01T13:07:51Z</time>
      </trkpt>
      <trkpt lat="46.46604" lon="6.05169">
        <ele>1031.6</ele>
        <time>2019-08-01T13:07:53Z</time>
      </trkpt>
      <trkpt lat="46.466" lon="6.05172">
        <ele>1031</ele>
        <time>2019-08-01T13:08:00Z</time>
      </trkpt>
      <trkpt lat="46.4659" lon="6.05177">
        <ele>1027.2</ele>
        <time>2019-08-01T13:08:17Z</time>
      </trkpt>
      <trkpt lat="46.46586" lon="6.0518">
        <ele>1026.6</ele>
        <time>2019-08-01T13:08:19Z</time>
      </trkpt>
      <trkpt lat="46.46582" lon="6.05185">
        <ele>1025.9</ele>
        <time>2019-08-01T13:08:22Z</time>
      </trkpt>
      <trkpt lat="46.46578" lon="6.0519">
        <ele>1025</ele>
        <time>2019-08-01T13:08:26Z</time>
      </trkpt>
      <trkpt lat="46.46568" lon="6.05202">
        <ele>1021.6</ele>
        <time>2019-08-01T13:08:41Z</time>
      </trkpt>
      <trkpt lat="46.46564" lon="6.05207">
        <ele>1021.2</ele>
        <time>2019-08-01T13:08:45Z</time>
      </trkpt>
      <trkpt lat="46.46559" lon="6.05209">
        <ele>1020.8</ele>
        <time>2019-08-01T13:08:51Z</time>
      </trkpt>
      <trkpt lat="46.46554" lon="6.05211">
        <ele>1020.6</ele>
        <time>2019-08-01T13:08:58Z</time>
      </trkpt>
      <trkpt lat="46.46549" lon="6.05214">
        <ele>1020.5</ele>
        <time>2019-08-01T13:09:04Z</time>
      </trkpt>
      <trkpt lat="46.46548" lon="6.05225">
        <ele>1018.7</ele>
        <time>2019-08-01T13:09:37Z</time>
      </trkpt>
      <trkpt lat="46.46544" lon="6.05232">
        <ele>1018.2</ele>
        <time>2019-08-01T13:09:44Z</time>
      </trkpt>
      <trkpt lat="46.46539" lon="6.05235">
        <ele>1018</ele>
        <time>2019-08-01T13:09:47Z</time>
      </trkpt>
      <trkpt lat="46.46536" lon="6.0524">
        <ele>1017.7</ele>
        <time>2019-08-01T13:09:53Z</time>
      </trkpt>
      <trkpt lat="46.46537" lon="6.05248">
        <ele>1016.8</ele>
        <time>2019-08-01T13:09:59Z</time>
      </trkpt>
      <trkpt lat="46.4654" lon="6.05253">
        <ele>1016.1</ele>
        <time>2019-08-01T13:10:03Z</time>
      </trkpt>
      <trkpt lat="46.46534" lon="6.05255">
        <ele>1015.6</ele>
        <time>2019-08-01T13:10:10Z</time>
      </trkpt>
      <trkpt lat="46.4653" lon="6.05263">
        <ele>1015.3</ele>
        <time>2019-08-01T13:10:15Z</time>
      </trkpt>
      <trkpt lat="46.46527" lon="6.05269">
        <ele>1014.9</ele>
        <time>2019-08-01T13:10:19Z</time>
      </trkpt>
      <trkpt lat="46.46527" lon="6.05276">
        <ele>1014.6</ele>
        <time>2019-08-01T13:10:25Z</time>
      </trkpt>
      <trkpt lat="46.4653" lon="6.05282">
        <ele>1014.4</ele>
        <time>2019-08-01T13:10:31Z</time>
      </trkpt>
      <trkpt lat="46.46531" lon="6.0529">
        <ele>1014.6</ele>
        <time>2019-08-01T13:10:38Z</time>
      </trkpt>
      <trkpt lat="46.46534" lon="6.05296">
        <ele>1014.7</ele>
        <time>2019-08-01T13:10:40Z</time>
      </trkpt>
      <trkpt lat="46.46537" lon="6.05303">
        <ele>1015.1</ele>
        <time>2019-08-01T13:10:44Z</time>
      </trkpt>
      <trkpt lat="46.4654" lon="6.0531">
        <ele>1015.9</ele>
        <time>2019-08-01T13:10:50Z</time>
      </trkpt>
      <trkpt lat="46.46514" lon="6.05319">
        <ele>1024.3</ele>
        <time>2019-08-01T13:11:39Z</time>
      </trkpt>
      <trkpt lat="46.46509" lon="6.05317">
        <ele>1024.6</ele>
        <time>2019-08-01T13:11:47Z</time>
      </trkpt>
      <trkpt lat="46.46504" lon="6.05316">
        <ele>1024.9</ele>
        <time>2019-08-01T13:11:53Z</time>
      </trkpt>
      <trkpt lat="46.46495" lon="6.05322">
        <ele>1027.8</ele>
        <time>2019-08-01T13:12:22Z</time>
      </trkpt>
      <trkpt lat="46.46486" lon="6.05343">
        <ele>1028.8</ele>
        <time>2019-08-01T13:12:38Z</time>
      </trkpt>
      <trkpt lat="46.46482" lon="6.05348">
        <ele>1028.6</ele>
        <time>2019-08-01T13:12:45Z</time>
      </trkpt>
      <trkpt lat="46.46462" lon="6.05373">
        <ele>1028.4</ele>
        <time>2019-08-01T13:13:09Z</time>
      </trkpt>
      <trkpt lat="46.46456" lon="6.05373">
        <ele>1032.1</ele>
        <time>2019-08-01T13:15:04Z</time>
      </trkpt>
      <trkpt lat="46.46462" lon="6.05346">
        <ele>1024.2</ele>
        <time>2019-08-01T13:16:57Z</time>
      </trkpt>
      <trkpt lat="46.46462" lon="6.05337">
        <ele>1023.7</ele>
        <time>2019-08-01T13:16:59Z</time>
      </trkpt>
      <trkpt lat="46.46463" lon="6.05331">
        <ele>1023</ele>
        <time>2019-08-01T13:17:03Z</time>
      </trkpt>
      <trkpt lat="46.46468" lon="6.05329">
        <ele>1022.7</ele>
        <time>2019-08-01T13:17:07Z</time>
      </trkpt>
      <trkpt lat="46.46471" lon="6.05324">
        <ele>1022.4</ele>
        <time>2019-08-01T13:17:18Z</time>
      </trkpt>
      <trkpt lat="46.46475" lon="6.05319">
        <ele>1022.1</ele>
        <time>2019-08-01T13:17:21Z</time>
      </trkpt>
      <trkpt lat="46.4648" lon="6.05316">
        <ele>1021.8</ele>
        <time>2019-08-01T13:17:24Z</time>
      </trkpt>
      <trkpt lat="46.46497" lon="6.05291">
        <ele>1022.3</ele>
        <time>2019-08-01T13:17:54Z</time>
      </trkpt>
      <trkpt lat="46.46509" lon="6.05293">
        <ele>1023</ele>
        <time>2019-08-01T13:18:06Z</time>
      </trkpt>
      <trkpt lat="46.46517" lon="6.05296">
        <ele>1023.2</ele>
        <time>2019-08-01T13:18:08Z</time>
      </trkpt>
      <trkpt lat="46.46524" lon="6.05297">
        <ele>1023.4</ele>
        <time>2019-08-01T13:18:10Z</time>
      </trkpt>
      <trkpt lat="46.46529" lon="6.05297">
        <ele>1023.7</ele>
        <time>2019-08-01T13:18:14Z</time>
      </trkpt>
      <trkpt lat="46.46533" lon="6.05292">
        <ele>1027.2</ele>
        <time>2019-08-01T13:18:53Z</time>
      </trkpt>
      <trkpt lat="46.46532" lon="6.05285">
        <ele>1028.7</ele>
        <time>2019-08-01T13:19:06Z</time>
      </trkpt>
      <trkpt lat="46.46532" lon="6.05278">
        <ele>1028.9</ele>
        <time>2019-08-01T13:19:16Z</time>
      </trkpt>
      <trkpt lat="46.46534" lon="6.05271">
        <ele>1028.7</ele>
        <time>2019-08-01T13:19:19Z</time>
      </trkpt>
      <trkpt lat="46.46536" lon="6.05264">
        <ele>1028.3</ele>
        <time>2019-08-01T13:19:24Z</time>
      </trkpt>
      <trkpt lat="46.46538" lon="6.05257">
        <ele>1026.9</ele>
        <time>2019-08-01T13:19:39Z</time>
      </trkpt>
      <trkpt lat="46.46539" lon="6.0525">
        <ele>1026.1</ele>
        <time>2019-08-01T13:19:49Z</time>
      </trkpt>
      <trkpt lat="46.46537" lon="6.05244">
        <ele>1026</ele>
        <time>2019-08-01T13:20:00Z</time>
      </trkpt>
      <trkpt lat="46.46535" lon="6.05237">
        <ele>1026.1</ele>
        <time>2019-08-01T13:20:04Z</time>
      </trkpt>
      <trkpt lat="46.46535" lon="6.0523">
        <ele>1026.7</ele>
        <time>2019-08-01T13:20:10Z</time>
      </trkpt>
      <trkpt lat="46.46537" lon="6.05223">
        <ele>1027.5</ele>
        <time>2019-08-01T13:20:15Z</time>
      </trkpt>
      <trkpt lat="46.46535" lon="6.05217">
        <ele>1028.2</ele>
        <time>2019-08-01T13:20:20Z</time>
      </trkpt>
      <trkpt lat="46.46534" lon="6.0521">
        <ele>1028.3</ele>
        <time>2019-08-01T13:20:24Z</time>
      </trkpt>
      <trkpt lat="46.46539" lon="6.05204">
        <ele>1028</ele>
        <time>2019-08-01T13:20:30Z</time>
      </trkpt>
      <trkpt lat="46.46541" lon="6.05197">
        <ele>1027.1</ele>
        <time>2019-08-01T13:20:38Z</time>
      </trkpt>
      <trkpt lat="46.46536" lon="6.05198">
        <ele>1026.6</ele>
        <time>2019-08-01T13:20:49Z</time>
      </trkpt>
      <trkpt lat="46.46531" lon="6.05198">
        <ele>1026.7</ele>
        <time>2019-08-01T13:20:51Z</time>
      </trkpt>
      <trkpt lat="46.46525" lon="6.05199">
        <ele>1026.8</ele>
        <time>2019-08-01T13:20:54Z</time>
      </trkpt>
      <trkpt lat="46.4652" lon="6.05199">
        <ele>1025.7</ele>
        <time>2019-08-01T13:21:03Z</time>
      </trkpt>
      <trkpt lat="46.46515" lon="6.05199">
        <ele>1023.9</ele>
        <time>2019-08-01T13:21:10Z</time>
      </trkpt>
      <trkpt lat="46.46511" lon="6.05194">
        <ele>1017.8</ele>
        <time>2019-08-01T13:21:28Z</time>
      </trkpt>
      <trkpt lat="46.46507" lon="6.0519">
        <ele>1016.5</ele>
        <time>2019-08-01T13:21:34Z</time>
      </trkpt>
      <trkpt lat="46.46508" lon="6.05181">
        <ele>1014.5</ele>
        <time>2019-08-01T13:22:17Z</time>
      </trkpt>
      <trkpt lat="46.46507" lon="6.05175">
        <ele>1013.1</ele>
        <time>2019-08-01T13:22:25Z</time>
      </trkpt>
      <trkpt lat="46.46509" lon="6.05169">
        <ele>1012.2</ele>
        <time>2019-08-01T13:22:30Z</time>
      </trkpt>
      <trkpt lat="46.46514" lon="6.05154">
        <ele>1010.9</ele>
        <time>2019-08-01T13:22:42Z</time>
      </trkpt>
      <trkpt lat="46.46516" lon="6.05148">
        <ele>1011</ele>
        <time>2019-08-01T13:22:44Z</time>
      </trkpt>
      <trkpt lat="46.46518" lon="6.05142">
        <ele>1011.3</ele>
        <time>2019-08-01T13:22:49Z</time>
      </trkpt>
      <trkpt lat="46.4652" lon="6.05136">
        <ele>1011.8</ele>
        <time>2019-08-01T13:22:53Z</time>
      </trkpt>
      <trkpt lat="46.46518" lon="6.0513">
        <ele>1013.4</ele>
        <time>2019-08-01T13:23:05Z</time>
      </trkpt>
      <trkpt lat="46.46513" lon="6.05127">
        <ele>1013.9</ele>
        <time>2019-08-01T13:23:09Z</time>
      </trkpt>
      <trkpt lat="46.46515" lon="6.05129">
        <ele>1012.9</ele>
        <time>2019-08-01T13:23:26Z</time>
      </trkpt>
      <trkpt lat="46.46519" lon="6.05134">
        <ele>1011.5</ele>
        <time>2019-08-01T13:23:34Z</time>
      </trkpt>
      <trkpt lat="46.46521" lon="6.0514">
        <ele>1011.1</ele>
        <time>2019-08-01T13:23:37Z</time>
      </trkpt>
      <trkpt lat="46.46522" lon="6.05147">
        <ele>1010.4</ele>
        <time>2019-08-01T13:23:42Z</time>
      </trkpt>
      <trkpt lat="46.46524" lon="6.05154">
        <ele>1009.9</ele>
        <time>2019-08-01T13:23:47Z</time>
      </trkpt>
      <trkpt lat="46.46521" lon="6.05154">
        <ele>1008.2</ele>
        <time>2019-08-01T13:24:27Z</time>
      </trkpt>
      <trkpt lat="46.4652" lon="6.05146">
        <ele>1008.4</ele>
        <time>2019-08-01T13:24:33Z</time>
      </trkpt>
      <trkpt lat="46.46519" lon="6.05139">
        <ele>1008.8</ele>
        <time>2019-08-01T13:24:38Z</time>
      </trkpt>
      <trkpt lat="46.46518" lon="6.05132">
        <ele>1009.8</ele>
        <time>2019-08-01T13:24:46Z</time>
      </trkpt>
      <trkpt lat="46.46515" lon="6.05126">
        <ele>1010.5</ele>
        <time>2019-08-01T13:24:52Z</time>
      </trkpt>
      <trkpt lat="46.46512" lon="6.0512">
        <ele>1010.9</ele>
        <time>2019-08-01T13:24:58Z</time>
      </trkpt>
      <trkpt lat="46.4651" lon="6.05114">
        <ele>1011.3</ele>
        <time>2019-08-01T13:25:06Z</time>
      </trkpt>
      <trkpt lat="46.4651" lon="6.05107">
        <ele>1011.8</ele>
        <time>2019-08-01T13:25:13Z</time>
      </trkpt>
      <trkpt lat="46.4651" lon="6.05099">
        <ele>1012.8</ele>
        <time>2019-08-01T13:25:20Z</time>
      </trkpt>
      <trkpt lat="46.4651" lon="6.05089">
        <ele>1013.6</ele>
        <time>2019-08-01T13:25:29Z</time>
      </trkpt>
      <trkpt lat="46.46507" lon="6.05083">
        <ele>1013.7</ele>
        <time>2019-08-01T13:25:34Z</time>
      </trkpt>
      <trkpt lat="46.46503" lon="6.05079">
        <ele>1013.8</ele>
        <time>2019-08-01T13:25:37Z</time>
      </trkpt>
      <trkpt lat="46.46499" lon="6.05076">
        <ele>1014.3</ele>
        <time>2019-08-01T13:25:41Z</time>
      </trkpt>
      <trkpt lat="46.46494" lon="6.05074">
        <ele>1015.2</ele>
        <time>2019-08-01T13:25:48Z</time>
      </trkpt>
      <trkpt lat="46.4649" lon="6.05073">
        <ele>1016.4</ele>
        <time>2019-08-01T13:25:54Z</time>
      </trkpt>
      <trkpt lat="46.46485" lon="6.05072">
        <ele>1017.8</ele>
        <time>2019-08-01T13:25:59Z</time>
      </trkpt>
      <trkpt lat="46.4648" lon="6.0507">
        <ele>1018.7</ele>
        <time>2019-08-01T13:26:02Z</time>
      </trkpt>
      <trkpt lat="46.46476" lon="6.05067">
        <ele>1020.2</ele>
        <time>2019-08-01T13:26:10Z</time>
      </trkpt>
      <trkpt lat="46.46471" lon="6.05064">
        <ele>1020.8</ele>
        <time>2019-08-01T13:26:14Z</time>
      </trkpt>
      <trkpt lat="46.46467" lon="6.0506">
        <ele>1021.7</ele>
        <time>2019-08-01T13:26:21Z</time>
      </trkpt>
      <trkpt lat="46.46463" lon="6.05056">
        <ele>1021.9</ele>
        <time>2019-08-01T13:26:29Z</time>
      </trkpt>
      <trkpt lat="46.46459" lon="6.05051">
        <ele>1021.8</ele>
        <time>2019-08-01T13:26:34Z</time>
      </trkpt>
      <trkpt lat="46.46457" lon="6.05045">
        <ele>1021.6</ele>
        <time>2019-08-01T13:26:40Z</time>
      </trkpt>
      <trkpt lat="46.46456" lon="6.05038">
        <ele>1021.5</ele>
        <time>2019-08-01T13:26:45Z</time>
      </trkpt>
      <trkpt lat="46.4646" lon="6.05033">
        <ele>1020.9</ele>
        <time>2019-08-01T13:26:53Z</time>
      </trkpt>
      <trkpt lat="46.46465" lon="6.05029">
        <ele>1020.2</ele>
        <time>2019-08-01T13:27:00Z</time>
      </trkpt>
      <trkpt lat="46.46468" lon="6.05024">
        <ele>1019.7</ele>
        <time>2019-08-01T13:27:09Z</time>
      </trkpt>
      <trkpt lat="46.46473" lon="6.05018">
        <ele>1019.4</ele>
        <time>2019-08-01T13:27:15Z</time>
      </trkpt>
      <trkpt lat="46.46475" lon="6.05013">
        <ele>1019.2</ele>
        <time>2019-08-01T13:27:20Z</time>
      </trkpt>
      <trkpt lat="46.46478" lon="6.05006">
        <ele>1019.2</ele>
        <time>2019-08-01T13:27:26Z</time>
      </trkpt>
      <trkpt lat="46.46482" lon="6.05001">
        <ele>1019.3</ele>
        <time>2019-08-01T13:27:31Z</time>
      </trkpt>
      <trkpt lat="46.46486" lon="6.04996">
        <ele>1019.4</ele>
        <time>2019-08-01T13:27:39Z</time>
      </trkpt>
      <trkpt lat="46.46489" lon="6.0499">
        <ele>1019.5</ele>
        <time>2019-08-01T13:27:45Z</time>
      </trkpt>
      <trkpt lat="46.46492" lon="6.04984">
        <ele>1019.8</ele>
        <time>2019-08-01T13:27:52Z</time>
      </trkpt>
      <trkpt lat="46.46497" lon="6.04981">
        <ele>1020</ele>
        <time>2019-08-01T13:28:00Z</time>
      </trkpt>
      <trkpt lat="46.465" lon="6.04976">
        <ele>1020.3</ele>
        <time>2019-08-01T13:28:06Z</time>
      </trkpt>
      <trkpt lat="46.46503" lon="6.0497">
        <ele>1020.6</ele>
        <time>2019-08-01T13:28:11Z</time>
      </trkpt>
      <trkpt lat="46.46506" lon="6.04964">
        <ele>1021</ele>
        <time>2019-08-01T13:28:16Z</time>
      </trkpt>
      <trkpt lat="46.46509" lon="6.04958">
        <ele>1021.5</ele>
        <time>2019-08-01T13:28:20Z</time>
      </trkpt>
      <trkpt lat="46.46518" lon="6.04949">
        <ele>1022.8</ele>
        <time>2019-08-01T13:28:39Z</time>
      </trkpt>
      <trkpt lat="46.46522" lon="6.04946">
        <ele>1022.7</ele>
        <time>2019-08-01T13:28:47Z</time>
      </trkpt>
      <trkpt lat="46.46528" lon="6.04939">
        <ele>1022.9</ele>
        <time>2019-08-01T13:28:50Z</time>
      </trkpt>
      <trkpt lat="46.46532" lon="6.04935">
        <ele>1023.7</ele>
        <time>2019-08-01T13:28:55Z</time>
      </trkpt>
      <trkpt lat="46.46536" lon="6.04931">
        <ele>1024.8</ele>
        <time>2019-08-01T13:29:01Z</time>
      </trkpt>
      <trkpt lat="46.46541" lon="6.04928">
        <ele>1026.4</ele>
        <time>2019-08-01T13:29:10Z</time>
      </trkpt>
      <trkpt lat="46.46544" lon="6.04923">
        <ele>1027.6</ele>
        <time>2019-08-01T13:29:17Z</time>
      </trkpt>
      <trkpt lat="46.46548" lon="6.04917">
        <ele>1028.2</ele>
        <time>2019-08-01T13:29:22Z</time>
      </trkpt>
      <trkpt lat="46.46551" lon="6.04911">
        <ele>1029</ele>
        <time>2019-08-01T13:29:27Z</time>
      </trkpt>
      <trkpt lat="46.46554" lon="6.04907">
        <ele>1031</ele>
        <time>2019-08-01T13:29:37Z</time>
      </trkpt>
      <trkpt lat="46.46558" lon="6.04903">
        <ele>1032.4</ele>
        <time>2019-08-01T13:29:46Z</time>
      </trkpt>
      <trkpt lat="46.46562" lon="6.04899">
        <ele>1032.8</ele>
        <time>2019-08-01T13:29:49Z</time>
      </trkpt>
      <trkpt lat="46.46566" lon="6.04896">
        <ele>1033.3</ele>
        <time>2019-08-01T13:29:53Z</time>
      </trkpt>
      <trkpt lat="46.46571" lon="6.04893">
        <ele>1033.7</ele>
        <time>2019-08-01T13:30:01Z</time>
      </trkpt>
      <trkpt lat="46.46575" lon="6.0489">
        <ele>1033.8</ele>
        <time>2019-08-01T13:30:05Z</time>
      </trkpt>
      <trkpt lat="46.46579" lon="6.04887">
        <ele>1033.9</ele>
        <time>2019-08-01T13:30:13Z</time>
      </trkpt>
      <trkpt lat="46.46585" lon="6.04883">
        <ele>1034.1</ele>
        <time>2019-08-01T13:30:18Z</time>
      </trkpt>
      <trkpt lat="46.4659" lon="6.0488">
        <ele>1034.5</ele>
        <time>2019-08-01T13:30:21Z</time>
      </trkpt>
      <trkpt lat="46.46594" lon="6.04876">
        <ele>1035.3</ele>
        <time>2019-08-01T13:30:26Z</time>
      </trkpt>
      <trkpt lat="46.46596" lon="6.04871">
        <ele>1036.4</ele>
        <time>2019-08-01T13:30:33Z</time>
      </trkpt>
      <trkpt lat="46.466" lon="6.04865">
        <ele>1037.6</ele>
        <time>2019-08-01T13:30:39Z</time>
      </trkpt>
      <trkpt lat="46.46604" lon="6.04861">
        <ele>1038.4</ele>
        <time>2019-08-01T13:30:43Z</time>
      </trkpt>
      <trkpt lat="46.46606" lon="6.04854">
        <ele>1039.1</ele>
        <time>2019-08-01T13:30:47Z</time>
      </trkpt>
      <trkpt lat="46.46608" lon="6.04847">
        <ele>1039.8</ele>
        <time>2019-08-01T13:30:52Z</time>
      </trkpt>
      <trkpt lat="46.4661" lon="6.04841">
        <ele>1040.4</ele>
        <time>2019-08-01T13:30:57Z</time>
      </trkpt>
      <trkpt lat="46.46614" lon="6.04836">
        <ele>1041.6</ele>
        <time>2019-08-01T13:31:05Z</time>
      </trkpt>
      <trkpt lat="46.46618" lon="6.04831">
        <ele>1042.4</ele>
        <time>2019-08-01T13:31:09Z</time>
      </trkpt>
      <trkpt lat="46.46622" lon="6.04827">
        <ele>1044.5</ele>
        <time>2019-08-01T13:31:18Z</time>
      </trkpt>
      <trkpt lat="46.46627" lon="6.04824">
        <ele>1045.5</ele>
        <time>2019-08-01T13:31:25Z</time>
      </trkpt>
      <trkpt lat="46.46631" lon="6.0482">
        <ele>1045.9</ele>
        <time>2019-08-01T13:31:32Z</time>
      </trkpt>
      <trkpt lat="46.46634" lon="6.04815">
        <ele>1046.3</ele>
        <time>2019-08-01T13:31:38Z</time>
      </trkpt>
      <trkpt lat="46.46639" lon="6.0481">
        <ele>1046.7</ele>
        <time>2019-08-01T13:31:42Z</time>
      </trkpt>
      <trkpt lat="46.46643" lon="6.04805">
        <ele>1046.9</ele>
        <time>2019-08-01T13:31:45Z</time>
      </trkpt>
      <trkpt lat="46.46646" lon="6.048">
        <ele>1047.1</ele>
        <time>2019-08-01T13:31:48Z</time>
      </trkpt>
      <trkpt lat="46.46649" lon="6.04793">
        <ele>1047.4</ele>
        <time>2019-08-01T13:31:54Z</time>
      </trkpt>
      <trkpt lat="46.46653" lon="6.04789">
        <ele>1047.9</ele>
        <time>2019-08-01T13:31:59Z</time>
      </trkpt>
      <trkpt lat="46.46656" lon="6.04784">
        <ele>1048.4</ele>
        <time>2019-08-01T13:32:03Z</time>
      </trkpt>
      <trkpt lat="46.4666" lon="6.04779">
        <ele>1049</ele>
        <time>2019-08-01T13:32:10Z</time>
      </trkpt>
      <trkpt lat="46.46664" lon="6.04774">
        <ele>1049.5</ele>
        <time>2019-08-01T13:32:14Z</time>
      </trkpt>
      <trkpt lat="46.46668" lon="6.04771">
        <ele>1049.8</ele>
        <time>2019-08-01T13:32:17Z</time>
      </trkpt>
      <trkpt lat="46.46672" lon="6.04768">
        <ele>1049.8</ele>
        <time>2019-08-01T13:32:21Z</time>
      </trkpt>
      <trkpt lat="46.46676" lon="6.04764">
        <ele>1049.5</ele>
        <time>2019-08-01T13:32:26Z</time>
      </trkpt>
      <trkpt lat="46.4668" lon="6.04762">
        <ele>1049.3</ele>
        <time>2019-08-01T13:32:31Z</time>
      </trkpt>
      <trkpt lat="46.46687" lon="6.04755">
        <ele>1048.8</ele>
        <time>2019-08-01T13:32:42Z</time>
      </trkpt>
      <trkpt lat="46.46691" lon="6.04748">
        <ele>1048.9</ele>
        <time>2019-08-01T13:32:45Z</time>
      </trkpt>
      <trkpt lat="46.4669" lon="6.04742">
        <ele>1048.9</ele>
        <time>2019-08-01T13:32:48Z</time>
      </trkpt>
      <trkpt lat="46.46693" lon="6.04734">
        <ele>1048.7</ele>
        <time>2019-08-01T13:32:53Z</time>
      </trkpt>
      <trkpt lat="46.46696" lon="6.04727">
        <ele>1048.6</ele>
        <time>2019-08-01T13:32:57Z</time>
      </trkpt>
      <trkpt lat="46.46717" lon="6.04675">
        <ele>1045.2</ele>
        <time>2019-08-01T13:33:44Z</time>
      </trkpt>
      <trkpt lat="46.46719" lon="6.0467">
        <ele>1044.5</ele>
        <time>2019-08-01T13:33:48Z</time>
      </trkpt>
      <trkpt lat="46.46724" lon="6.04667">
        <ele>1043.5</ele>
        <time>2019-08-01T13:33:54Z</time>
      </trkpt>
      <trkpt lat="46.46728" lon="6.04663">
        <ele>1043</ele>
        <time>2019-08-01T13:33:58Z</time>
      </trkpt>
      <trkpt lat="46.46732" lon="6.04658">
        <ele>1043</ele>
        <time>2019-08-01T13:34:04Z</time>
      </trkpt>
      <trkpt lat="46.46736" lon="6.04652">
        <ele>1043.2</ele>
        <time>2019-08-01T13:34:08Z</time>
      </trkpt>
      <trkpt lat="46.46742" lon="6.04642">
        <ele>1043</ele>
        <time>2019-08-01T13:34:22Z</time>
      </trkpt>
      <trkpt lat="46.46745" lon="6.04638">
        <ele>1043.2</ele>
        <time>2019-08-01T13:34:26Z</time>
      </trkpt>
      <trkpt lat="46.46747" lon="6.04631">
        <ele>1043.1</ele>
        <time>2019-08-01T13:34:30Z</time>
      </trkpt>
      <trkpt lat="46.46748" lon="6.04624">
        <ele>1043</ele>
        <time>2019-08-01T13:34:33Z</time>
      </trkpt>
      <trkpt lat="46.4675" lon="6.04617">
        <ele>1042.7</ele>
        <time>2019-08-01T13:34:38Z</time>
      </trkpt>
      <trkpt lat="46.46752" lon="6.04611">
        <ele>1043.2</ele>
        <time>2019-08-01T13:34:47Z</time>
      </trkpt>
      <trkpt lat="46.46755" lon="6.04605">
        <ele>1044</ele>
        <time>2019-08-01T13:34:54Z</time>
      </trkpt>
      <trkpt lat="46.46757" lon="6.04599">
        <ele>1044.6</ele>
        <time>2019-08-01T13:34:58Z</time>
      </trkpt>
      <trkpt lat="46.46761" lon="6.04595">
        <ele>1046.3</ele>
        <time>2019-08-01T13:35:05Z</time>
      </trkpt>
      <trkpt lat="46.46767" lon="6.04581">
        <ele>1052.2</ele>
        <time>2019-08-01T13:35:26Z</time>
      </trkpt>
      <trkpt lat="46.4677" lon="6.04575">
        <ele>1053.5</ele>
        <time>2019-08-01T13:35:31Z</time>
      </trkpt>
      <trkpt lat="46.46771" lon="6.04569">
        <ele>1054.6</ele>
        <time>2019-08-01T13:35:35Z</time>
      </trkpt>
      <trkpt lat="46.46779" lon="6.04561">
        <ele>1059.7</ele>
        <time>2019-08-01T13:35:49Z</time>
      </trkpt>
      <trkpt lat="46.46782" lon="6.04554">
        <ele>1061</ele>
        <time>2019-08-01T13:35:53Z</time>
      </trkpt>
      <trkpt lat="46.46784" lon="6.04548">
        <ele>1062.2</ele>
        <time>2019-08-01T13:35:57Z</time>
      </trkpt>
      <trkpt lat="46.46788" lon="6.04543">
        <ele>1063.5</ele>
        <time>2019-08-01T13:36:02Z</time>
      </trkpt>
      <trkpt lat="46.46792" lon="6.04539">
        <ele>1064.7</ele>
        <time>2019-08-01T13:36:07Z</time>
      </trkpt>
      <trkpt lat="46.46796" lon="6.04534">
        <ele>1066.1</ele>
        <time>2019-08-01T13:36:13Z</time>
      </trkpt>
      <trkpt lat="46.46798" lon="6.04528">
        <ele>1066.6</ele>
        <time>2019-08-01T13:36:15Z</time>
      </trkpt>
      <trkpt lat="46.468" lon="6.04509">
        <ele>1070.1</ele>
        <time>2019-08-01T13:36:25Z</time>
      </trkpt>
      <trkpt lat="46.46802" lon="6.04502">
        <ele>1071.2</ele>
        <time>2019-08-01T13:36:32Z</time>
      </trkpt>
      <trkpt lat="46.46803" lon="6.04493">
        <ele>1071.7</ele>
        <time>2019-08-01T13:36:35Z</time>
      </trkpt>
      <trkpt lat="46.46803" lon="6.04486">
        <ele>1072</ele>
        <time>2019-08-01T13:36:37Z</time>
      </trkpt>
      <trkpt lat="46.46802" lon="6.04477">
        <ele>1072.3</ele>
        <time>2019-08-01T13:36:40Z</time>
      </trkpt>
      <trkpt lat="46.46805" lon="6.04467">
        <ele>1075.8</ele>
        <time>2019-08-01T13:36:58Z</time>
      </trkpt>
      <trkpt lat="46.46803" lon="6.04462">
        <ele>1076.7</ele>
        <time>2019-08-01T13:37:04Z</time>
      </trkpt>
      <trkpt lat="46.46798" lon="6.0446">
        <ele>1077.5</ele>
        <time>2019-08-01T13:37:12Z</time>
      </trkpt>
      <trkpt lat="46.46793" lon="6.04461">
        <ele>1077.6</ele>
        <time>2019-08-01T13:37:17Z</time>
      </trkpt>
      <trkpt lat="46.46788" lon="6.04462">
        <ele>1077.2</ele>
        <time>2019-08-01T13:37:24Z</time>
      </trkpt>
      <trkpt lat="46.46782" lon="6.04461">
        <ele>1076.3</ele>
        <time>2019-08-01T13:37:31Z</time>
      </trkpt>
      <trkpt lat="46.46779" lon="6.04457">
        <ele>1075.2</ele>
        <time>2019-08-01T13:37:40Z</time>
      </trkpt>
      <trkpt lat="46.46772" lon="6.04449">
        <ele>1078</ele>
        <time>2019-08-01T13:37:51Z</time>
      </trkpt>
      <trkpt lat="46.46767" lon="6.04446">
        <ele>1079.2</ele>
        <time>2019-08-01T13:37:54Z</time>
      </trkpt>
      <trkpt lat="46.46763" lon="6.04443">
        <ele>1081.2</ele>
        <time>2019-08-01T13:38:00Z</time>
      </trkpt>
      <trkpt lat="46.46757" lon="6.04442">
        <ele>1082.4</ele>
        <time>2019-08-01T13:38:04Z</time>
      </trkpt>
      <trkpt lat="46.46753" lon="6.04441">
        <ele>1083.6</ele>
        <time>2019-08-01T13:38:09Z</time>
      </trkpt>
      <trkpt lat="46.46748" lon="6.04441">
        <ele>1083.9</ele>
        <time>2019-08-01T13:38:15Z</time>
      </trkpt>
      <trkpt lat="46.46743" lon="6.04444">
        <ele>1082.9</ele>
        <time>2019-08-01T13:38:23Z</time>
      </trkpt>
      <trkpt lat="46.46739" lon="6.04442">
        <ele>1081.2</ele>
        <time>2019-08-01T13:38:32Z</time>
      </trkpt>
      <trkpt lat="46.46734" lon="6.0444">
        <ele>1079</ele>
        <time>2019-08-01T13:38:41Z</time>
      </trkpt>
      <trkpt lat="46.46692" lon="6.04428">
        <ele>1093</ele>
        <time>2019-08-01T13:39:38Z</time>
      </trkpt>
      <trkpt lat="46.46687" lon="6.04423">
        <ele>1093.8</ele>
        <time>2019-08-01T13:39:42Z</time>
      </trkpt>
      <trkpt lat="46.46684" lon="6.04418">
        <ele>1094.8</ele>
        <time>2019-08-01T13:39:46Z</time>
      </trkpt>
      <trkpt lat="46.46687" lon="6.0441">
        <ele>1096.1</ele>
        <time>2019-08-01T13:40:01Z</time>
      </trkpt>
      <trkpt lat="46.4669" lon="6.04405">
        <ele>1095.4</ele>
        <time>2019-08-01T13:40:06Z</time>
      </trkpt>
      <trkpt lat="46.46694" lon="6.04397">
        <ele>1094.5</ele>
        <time>2019-08-01T13:40:11Z</time>
      </trkpt>
      <trkpt lat="46.46696" lon="6.04391">
        <ele>1093.9</ele>
        <time>2019-08-01T13:40:15Z</time>
      </trkpt>
      <trkpt lat="46.46699" lon="6.04383">
        <ele>1093.7</ele>
        <time>2019-08-01T13:40:21Z</time>
      </trkpt>
      <trkpt lat="46.46701" lon="6.04377">
        <ele>1094</ele>
        <time>2019-08-01T13:40:24Z</time>
      </trkpt>
      <trkpt lat="46.46701" lon="6.04369">
        <ele>1094.7</ele>
        <time>2019-08-01T13:40:31Z</time>
      </trkpt>
      <trkpt lat="46.467" lon="6.04362">
        <ele>1095.1</ele>
        <time>2019-08-01T13:40:35Z</time>
      </trkpt>
      <trkpt lat="46.46703" lon="6.04356">
        <ele>1096</ele>
        <time>2019-08-01T13:40:41Z</time>
      </trkpt>
      <trkpt lat="46.46706" lon="6.04351">
        <ele>1097.1</ele>
        <time>2019-08-01T13:40:46Z</time>
      </trkpt>
      <trkpt lat="46.46709" lon="6.04346">
        <ele>1098.3</ele>
        <time>2019-08-01T13:40:53Z</time>
      </trkpt>
      <trkpt lat="46.46711" lon="6.04334">
        <ele>1101.8</ele>
        <time>2019-08-01T13:41:38Z</time>
      </trkpt>
      <trkpt lat="46.46711" lon="6.04326">
        <ele>1101.8</ele>
        <time>2019-08-01T13:41:43Z</time>
      </trkpt>
      <trkpt lat="46.46709" lon="6.04319">
        <ele>1102</ele>
        <time>2019-08-01T13:41:46Z</time>
      </trkpt>
      <trkpt lat="46.46707" lon="6.04313">
        <ele>1102.3</ele>
        <time>2019-08-01T13:41:49Z</time>
      </trkpt>
      <trkpt lat="46.46704" lon="6.04307">
        <ele>1102.8</ele>
        <time>2019-08-01T13:41:52Z</time>
      </trkpt>
      <trkpt lat="46.46702" lon="6.04301">
        <ele>1103.9</ele>
        <time>2019-08-01T13:41:57Z</time>
      </trkpt>
      <trkpt lat="46.46701" lon="6.04294">
        <ele>1105.1</ele>
        <time>2019-08-01T13:42:03Z</time>
      </trkpt>
      <trkpt lat="46.46699" lon="6.04287">
        <ele>1106</ele>
        <time>2019-08-01T13:42:09Z</time>
      </trkpt>
      <trkpt lat="46.46699" lon="6.04278">
        <ele>1107.3</ele>
        <time>2019-08-01T13:42:16Z</time>
      </trkpt>
      <trkpt lat="46.46698" lon="6.04271">
        <ele>1108</ele>
        <time>2019-08-01T13:42:20Z</time>
      </trkpt>
      <trkpt lat="46.46698" lon="6.04263">
        <ele>1108.8</ele>
        <time>2019-08-01T13:42:24Z</time>
      </trkpt>
      <trkpt lat="46.467" lon="6.04254">
        <ele>1109.6</ele>
        <time>2019-08-01T13:42:28Z</time>
      </trkpt>
      <trkpt lat="46.46701" lon="6.04247">
        <ele>1110.1</ele>
        <time>2019-08-01T13:42:32Z</time>
      </trkpt>
      <trkpt lat="46.467" lon="6.04241">
        <ele>1110.4</ele>
        <time>2019-08-01T13:42:36Z</time>
      </trkpt>
      <trkpt lat="46.46699" lon="6.04234">
        <ele>1110.9</ele>
        <time>2019-08-01T13:42:40Z</time>
      </trkpt>
      <trkpt lat="46.46696" lon="6.04228">
        <ele>1110.2</ele>
        <time>2019-08-01T13:43:03Z</time>
      </trkpt>
      <trkpt lat="46.46692" lon="6.04223">
        <ele>1110.4</ele>
        <time>2019-08-01T13:43:08Z</time>
      </trkpt>
      <trkpt lat="46.46688" lon="6.04218">
        <ele>1111</ele>
        <time>2019-08-01T13:43:12Z</time>
      </trkpt>
      <trkpt lat="46.46685" lon="6.04212">
        <ele>1112.1</ele>
        <time>2019-08-01T13:43:18Z</time>
      </trkpt>
      <trkpt lat="46.46683" lon="6.04205">
        <ele>1112.8</ele>
        <time>2019-08-01T13:43:22Z</time>
      </trkpt>
      <trkpt lat="46.4668" lon="6.04199">
        <ele>1113.5</ele>
        <time>2019-08-01T13:43:25Z</time>
      </trkpt>
      <trkpt lat="46.46678" lon="6.04192">
        <ele>1114.6</ele>
        <time>2019-08-01T13:43:29Z</time>
      </trkpt>
      <trkpt lat="46.46675" lon="6.04187">
        <ele>1115.8</ele>
        <time>2019-08-01T13:43:34Z</time>
      </trkpt>
      <trkpt lat="46.46672" lon="6.04181">
        <ele>1116.4</ele>
        <time>2019-08-01T13:43:38Z</time>
      </trkpt>
      <trkpt lat="46.46671" lon="6.04174">
        <ele>1116.6</ele>
        <time>2019-08-01T13:43:42Z</time>
      </trkpt>
      <trkpt lat="46.46669" lon="6.04168">
        <ele>1116.7</ele>
        <time>2019-08-01T13:43:47Z</time>
      </trkpt>
      <trkpt lat="46.46667" lon="6.04163">
        <ele>1115.2</ele>
        <time>2019-08-01T13:44:00Z</time>
      </trkpt>
      <trkpt lat="46.46663" lon="6.04158">
        <ele>1113.1</ele>
        <time>2019-08-01T13:44:08Z</time>
      </trkpt>
      <trkpt lat="46.46659" lon="6.04153">
        <ele>1111.6</ele>
        <time>2019-08-01T13:44:13Z</time>
      </trkpt>
      <trkpt lat="46.46656" lon="6.04147">
        <ele>1110.2</ele>
        <time>2019-08-01T13:44:18Z</time>
      </trkpt>
      <trkpt lat="46.46652" lon="6.04141">
        <ele>1108.9</ele>
        <time>2019-08-01T13:44:23Z</time>
      </trkpt>
      <trkpt lat="46.46649" lon="6.04136">
        <ele>1108</ele>
        <time>2019-08-01T13:44:27Z</time>
      </trkpt>
      <trkpt lat="46.46646" lon="6.0413">
        <ele>1107.2</ele>
        <time>2019-08-01T13:44:31Z</time>
      </trkpt>
      <trkpt lat="46.46643" lon="6.04125">
        <ele>1106.6</ele>
        <time>2019-08-01T13:44:35Z</time>
      </trkpt>
      <trkpt lat="46.46639" lon="6.0412">
        <ele>1106.1</ele>
        <time>2019-08-01T13:44:39Z</time>
      </trkpt>
      <trkpt lat="46.46635" lon="6.04115">
        <ele>1105.9</ele>
        <time>2019-08-01T13:44:42Z</time>
      </trkpt>
      <trkpt lat="46.46633" lon="6.0411">
        <ele>1105.5</ele>
        <time>2019-08-01T13:44:48Z</time>
      </trkpt>
      <trkpt lat="46.46629" lon="6.04107">
        <ele>1105.3</ele>
        <time>2019-08-01T13:44:53Z</time>
      </trkpt>
      <trkpt lat="46.46624" lon="6.04102">
        <ele>1105.2</ele>
        <time>2019-08-01T13:44:59Z</time>
      </trkpt>
      <trkpt lat="46.4662" lon="6.04098">
        <ele>1105.1</ele>
        <time>2019-08-01T13:45:05Z</time>
      </trkpt>
      <trkpt lat="46.46615" lon="6.04093">
        <ele>1105</ele>
        <time>2019-08-01T13:45:10Z</time>
      </trkpt>
      <trkpt lat="46.46612" lon="6.04088">
        <ele>1104.9</ele>
        <time>2019-08-01T13:45:13Z</time>
      </trkpt>
      <trkpt lat="46.46608" lon="6.04083">
        <ele>1104.6</ele>
        <time>2019-08-01T13:45:17Z</time>
      </trkpt>
      <trkpt lat="46.46604" lon="6.04079">
        <ele>1104.5</ele>
        <time>2019-08-01T13:45:22Z</time>
      </trkpt>
      <trkpt lat="46.46599" lon="6.04075">
        <ele>1104.7</ele>
        <time>2019-08-01T13:45:27Z</time>
      </trkpt>
      <trkpt lat="46.46596" lon="6.0407">
        <ele>1105.3</ele>
        <time>2019-08-01T13:45:32Z</time>
      </trkpt>
      <trkpt lat="46.46592" lon="6.04066">
        <ele>1106.1</ele>
        <time>2019-08-01T13:45:38Z</time>
      </trkpt>
      <trkpt lat="46.46587" lon="6.04063">
        <ele>1106.2</ele>
        <time>2019-08-01T13:45:41Z</time>
      </trkpt>
      <trkpt lat="46.46584" lon="6.04058">
        <ele>1106.3</ele>
        <time>2019-08-01T13:45:49Z</time>
      </trkpt>
      <trkpt lat="46.4658" lon="6.04054">
        <ele>1106</ele>
        <time>2019-08-01T13:45:55Z</time>
      </trkpt>
      <trkpt lat="46.46577" lon="6.04049">
        <ele>1105.6</ele>
        <time>2019-08-01T13:46:02Z</time>
      </trkpt>
      <trkpt lat="46.46573" lon="6.04044">
        <ele>1104.8</ele>
        <time>2019-08-01T13:46:09Z</time>
      </trkpt>
      <trkpt lat="46.4657" lon="6.04039">
        <ele>1104.1</ele>
        <time>2019-08-01T13:46:14Z</time>
      </trkpt>
      <trkpt lat="46.46567" lon="6.04031">
        <ele>1103.9</ele>
        <time>2019-08-01T13:46:17Z</time>
      </trkpt>
      <trkpt lat="46.46563" lon="6.04024">
        <ele>1104</ele>
        <time>2019-08-01T13:46:19Z</time>
      </trkpt>
      <trkpt lat="46.46561" lon="6.04018">
        <ele>1104.3</ele>
        <time>2019-08-01T13:46:21Z</time>
      </trkpt>
      <trkpt lat="46.46558" lon="6.0401">
        <ele>1104.9</ele>
        <time>2019-08-01T13:46:24Z</time>
      </trkpt>
      <trkpt lat="46.46556" lon="6.04004">
        <ele>1105.6</ele>
        <time>2019-08-01T13:46:27Z</time>
      </trkpt>
      <trkpt lat="46.46552" lon="6.03999">
        <ele>1106.2</ele>
        <time>2019-08-01T13:46:29Z</time>
      </trkpt>
      <trkpt lat="46.46548" lon="6.03994">
        <ele>1107</ele>
        <time>2019-08-01T13:46:33Z</time>
      </trkpt>
      <trkpt lat="46.46544" lon="6.0399">
        <ele>1107.5</ele>
        <time>2019-08-01T13:46:43Z</time>
      </trkpt>
      <trkpt lat="46.46544" lon="6.03983">
        <ele>1107</ele>
        <time>2019-08-01T13:46:49Z</time>
      </trkpt>
      <trkpt lat="46.46545" lon="6.03977">
        <ele>1106</ele>
        <time>2019-08-01T13:46:55Z</time>
      </trkpt>
      <trkpt lat="46.46546" lon="6.0397">
        <ele>1104.9</ele>
        <time>2019-08-01T13:47:00Z</time>
      </trkpt>
      <trkpt lat="46.46546" lon="6.03962">
        <ele>1103.9</ele>
        <time>2019-08-01T13:47:05Z</time>
      </trkpt>
      <trkpt lat="46.46547" lon="6.03955">
        <ele>1102.9</ele>
        <time>2019-08-01T13:47:10Z</time>
      </trkpt>
      <trkpt lat="46.46548" lon="6.03949">
        <ele>1102</ele>
        <time>2019-08-01T13:47:15Z</time>
      </trkpt>
      <trkpt lat="46.46549" lon="6.03942">
        <ele>1101.4</ele>
        <time>2019-08-01T13:47:19Z</time>
      </trkpt>
      <trkpt lat="46.4655" lon="6.03934">
        <ele>1100.8</ele>
        <time>2019-08-01T13:47:24Z</time>
      </trkpt>
      <trkpt lat="46.46551" lon="6.03927">
        <ele>1100.4</ele>
        <time>2019-08-01T13:47:29Z</time>
      </trkpt>
      <trkpt lat="46.46551" lon="6.03921">
        <ele>1100.2</ele>
        <time>2019-08-01T13:47:33Z</time>
      </trkpt>
      <trkpt lat="46.46551" lon="6.03913">
        <ele>1099.7</ele>
        <time>2019-08-01T13:47:39Z</time>
      </trkpt>
      <trkpt lat="46.4655" lon="6.03906">
        <ele>1099.3</ele>
        <time>2019-08-01T13:47:44Z</time>
      </trkpt>
      <trkpt lat="46.4655" lon="6.03899">
        <ele>1099</ele>
        <time>2019-08-01T13:47:48Z</time>
      </trkpt>
      <trkpt lat="46.46549" lon="6.03891">
        <ele>1098.4</ele>
        <time>2019-08-01T13:47:53Z</time>
      </trkpt>
      <trkpt lat="46.46549" lon="6.03884">
        <ele>1098</ele>
        <time>2019-08-01T13:47:57Z</time>
      </trkpt>
      <trkpt lat="46.46548" lon="6.03878">
        <ele>1097.4</ele>
        <time>2019-08-01T13:48:02Z</time>
      </trkpt>
      <trkpt lat="46.46545" lon="6.03871">
        <ele>1097.1</ele>
        <time>2019-08-01T13:48:07Z</time>
      </trkpt>
      <trkpt lat="46.46543" lon="6.03865">
        <ele>1096.9</ele>
        <time>2019-08-01T13:48:11Z</time>
      </trkpt>
      <trkpt lat="46.46541" lon="6.03859">
        <ele>1096.8</ele>
        <time>2019-08-01T13:48:15Z</time>
      </trkpt>
      <trkpt lat="46.46538" lon="6.03852">
        <ele>1096.6</ele>
        <time>2019-08-01T13:48:20Z</time>
      </trkpt>
      <trkpt lat="46.46535" lon="6.03846">
        <ele>1096.5</ele>
        <time>2019-08-01T13:48:24Z</time>
      </trkpt>
      <trkpt lat="46.46532" lon="6.03841">
        <ele>1096.4</ele>
        <time>2019-08-01T13:48:27Z</time>
      </trkpt>
      <trkpt lat="46.4653" lon="6.03835">
        <ele>1096.3</ele>
        <time>2019-08-01T13:48:31Z</time>
      </trkpt>
      <trkpt lat="46.46527" lon="6.03829">
        <ele>1096.2</ele>
        <time>2019-08-01T13:48:36Z</time>
      </trkpt>
      <trkpt lat="46.46524" lon="6.03824">
        <ele>1096.2</ele>
        <time>2019-08-01T13:48:40Z</time>
      </trkpt>
      <trkpt lat="46.4652" lon="6.03819">
        <ele>1096.4</ele>
        <time>2019-08-01T13:48:45Z</time>
      </trkpt>
      <trkpt lat="46.46517" lon="6.03814">
        <ele>1096.7</ele>
        <time>2019-08-01T13:48:49Z</time>
      </trkpt>
      <trkpt lat="46.46515" lon="6.03808">
        <ele>1096.9</ele>
        <time>2019-08-01T13:48:53Z</time>
      </trkpt>
      <trkpt lat="46.46512" lon="6.03802">
        <ele>1097</ele>
        <time>2019-08-01T13:48:58Z</time>
      </trkpt>
      <trkpt lat="46.46509" lon="6.03797">
        <ele>1097.1</ele>
        <time>2019-08-01T13:49:01Z</time>
      </trkpt>
      <trkpt lat="46.46506" lon="6.0379">
        <ele>1097.2</ele>
        <time>2019-08-01T13:49:03Z</time>
      </trkpt>
      <trkpt lat="46.46502" lon="6.03784">
        <ele>1097.2</ele>
        <time>2019-08-01T13:49:05Z</time>
      </trkpt>
      <trkpt lat="46.46499" lon="6.03777">
        <ele>1097.6</ele>
        <time>2019-08-01T13:49:08Z</time>
      </trkpt>
      <trkpt lat="46.46495" lon="6.0377">
        <ele>1098.2</ele>
        <time>2019-08-01T13:49:11Z</time>
      </trkpt>
      <trkpt lat="46.46491" lon="6.03764">
        <ele>1099</ele>
        <time>2019-08-01T13:49:14Z</time>
      </trkpt>
      <trkpt lat="46.46489" lon="6.03757">
        <ele>1099.8</ele>
        <time>2019-08-01T13:49:17Z</time>
      </trkpt>
      <trkpt lat="46.46486" lon="6.0375">
        <ele>1101</ele>
        <time>2019-08-01T13:49:21Z</time>
      </trkpt>
      <trkpt lat="46.46483" lon="6.03743">
        <ele>1101.7</ele>
        <time>2019-08-01T13:49:24Z</time>
      </trkpt>
      <trkpt lat="46.46479" lon="6.03737">
        <ele>1102.3</ele>
        <time>2019-08-01T13:49:27Z</time>
      </trkpt>
      <trkpt lat="46.46476" lon="6.03732">
        <ele>1102.7</ele>
        <time>2019-08-01T13:49:30Z</time>
      </trkpt>
      <trkpt lat="46.46474" lon="6.03726">
        <ele>1103</ele>
        <time>2019-08-01T13:49:33Z</time>
      </trkpt>
      <trkpt lat="46.46471" lon="6.03719">
        <ele>1103</ele>
        <time>2019-08-01T13:49:36Z</time>
      </trkpt>
      <trkpt lat="46.46469" lon="6.03713">
        <ele>1102.7</ele>
        <time>2019-08-01T13:49:39Z</time>
      </trkpt>
      <trkpt lat="46.46467" lon="6.03706">
        <ele>1102</ele>
        <time>2019-08-01T13:49:43Z</time>
      </trkpt>
      <trkpt lat="46.46466" lon="6.03699">
        <ele>1101.3</ele>
        <time>2019-08-01T13:49:47Z</time>
      </trkpt>
      <trkpt lat="46.46463" lon="6.03694">
        <ele>1100.5</ele>
        <time>2019-08-01T13:49:51Z</time>
      </trkpt>
      <trkpt lat="46.4646" lon="6.03689">
        <ele>1099.6</ele>
        <time>2019-08-01T13:49:55Z</time>
      </trkpt>
      <trkpt lat="46.46457" lon="6.03684">
        <ele>1097.8</ele>
        <time>2019-08-01T13:50:04Z</time>
      </trkpt>
      <trkpt lat="46.46455" lon="6.03678">
        <ele>1096.3</ele>
        <time>2019-08-01T13:50:11Z</time>
      </trkpt>
      <trkpt lat="46.46457" lon="6.03671">
        <ele>1094.6</ele>
        <time>2019-08-01T13:50:29Z</time>
      </trkpt>
      <trkpt lat="46.46455" lon="6.03664">
        <ele>1094.7</ele>
        <time>2019-08-01T13:50:35Z</time>
      </trkpt>
      <trkpt lat="46.46455" lon="6.03658">
        <ele>1094.7</ele>
        <time>2019-08-01T13:50:40Z</time>
      </trkpt>
      <trkpt lat="46.46452" lon="6.03651">
        <ele>1094.8</ele>
        <time>2019-08-01T13:50:47Z</time>
      </trkpt>
      <trkpt lat="46.46449" lon="6.03646">
        <ele>1094.8</ele>
        <time>2019-08-01T13:50:52Z</time>
      </trkpt>
      <trkpt lat="46.46446" lon="6.0364">
        <ele>1094.8</ele>
        <time>2019-08-01T13:50:57Z</time>
      </trkpt>
      <trkpt lat="46.46441" lon="6.03637">
        <ele>1094.7</ele>
        <time>2019-08-01T13:51:03Z</time>
      </trkpt>
      <trkpt lat="46.46437" lon="6.03632">
        <ele>1094.7</ele>
        <time>2019-08-01T13:51:07Z</time>
      </trkpt>
      <trkpt lat="46.46433" lon="6.03626">
        <ele>1095</ele>
        <time>2019-08-01T13:51:12Z</time>
      </trkpt>
      <trkpt lat="46.4643" lon="6.0362">
        <ele>1095.3</ele>
        <time>2019-08-01T13:51:18Z</time>
      </trkpt>
      <trkpt lat="46.46427" lon="6.03615">
        <ele>1095.2</ele>
        <time>2019-08-01T13:51:22Z</time>
      </trkpt>
      <trkpt lat="46.46423" lon="6.03609">
        <ele>1095.2</ele>
        <time>2019-08-01T13:51:27Z</time>
      </trkpt>
      <trkpt lat="46.4642" lon="6.03604">
        <ele>1095.4</ele>
        <time>2019-08-01T13:51:32Z</time>
      </trkpt>
      <trkpt lat="46.46417" lon="6.03598">
        <ele>1095.7</ele>
        <time>2019-08-01T13:51:37Z</time>
      </trkpt>
      <trkpt lat="46.46415" lon="6.03592">
        <ele>1096.1</ele>
        <time>2019-08-01T13:51:44Z</time>
      </trkpt>
      <trkpt lat="46.46412" lon="6.03585">
        <ele>1096.4</ele>
        <time>2019-08-01T13:51:49Z</time>
      </trkpt>
      <trkpt lat="46.4641" lon="6.03578">
        <ele>1096.7</ele>
        <time>2019-08-01T13:51:54Z</time>
      </trkpt>
      <trkpt lat="46.4641" lon="6.0357">
        <ele>1096.9</ele>
        <time>2019-08-01T13:51:58Z</time>
      </trkpt>
      <trkpt lat="46.4641" lon="6.03563">
        <ele>1097</ele>
        <time>2019-08-01T13:52:01Z</time>
      </trkpt>
      <trkpt lat="46.46412" lon="6.03555">
        <ele>1097.2</ele>
        <time>2019-08-01T13:52:06Z</time>
      </trkpt>
      <trkpt lat="46.46412" lon="6.03547">
        <ele>1097.3</ele>
        <time>2019-08-01T13:52:11Z</time>
      </trkpt>
      <trkpt lat="46.46412" lon="6.03539">
        <ele>1097.4</ele>
        <time>2019-08-01T13:52:16Z</time>
      </trkpt>
      <trkpt lat="46.46413" lon="6.03531">
        <ele>1097.6</ele>
        <time>2019-08-01T13:52:21Z</time>
      </trkpt>
      <trkpt lat="46.46414" lon="6.03524">
        <ele>1097.8</ele>
        <time>2019-08-01T13:52:26Z</time>
      </trkpt>
      <trkpt lat="46.46415" lon="6.03517">
        <ele>1098.1</ele>
        <time>2019-08-01T13:52:30Z</time>
      </trkpt>
      <trkpt lat="46.46417" lon="6.03511">
        <ele>1098.4</ele>
        <time>2019-08-01T13:52:35Z</time>
      </trkpt>
      <trkpt lat="46.46418" lon="6.03503">
        <ele>1098.7</ele>
        <time>2019-08-01T13:52:41Z</time>
      </trkpt>
      <trkpt lat="46.46418" lon="6.03497">
        <ele>1099.1</ele>
        <time>2019-08-01T13:52:45Z</time>
      </trkpt>
      <trkpt lat="46.46417" lon="6.03489">
        <ele>1099.6</ele>
        <time>2019-08-01T13:52:49Z</time>
      </trkpt>
      <trkpt lat="46.46414" lon="6.03482">
        <ele>1100.1</ele>
        <time>2019-08-01T13:52:52Z</time>
      </trkpt>
      <trkpt lat="46.46411" lon="6.03476">
        <ele>1100.6</ele>
        <time>2019-08-01T13:52:54Z</time>
      </trkpt>
      <trkpt lat="46.46408" lon="6.03471">
        <ele>1101.1</ele>
        <time>2019-08-01T13:52:56Z</time>
      </trkpt>
      <trkpt lat="46.46404" lon="6.03465">
        <ele>1102</ele>
        <time>2019-08-01T13:52:59Z</time>
      </trkpt>
      <trkpt lat="46.464" lon="6.03459">
        <ele>1103.1</ele>
        <time>2019-08-01T13:53:02Z</time>
      </trkpt>
      <trkpt lat="46.46397" lon="6.03454">
        <ele>1104.3</ele>
        <time>2019-08-01T13:53:05Z</time>
      </trkpt>
      <trkpt lat="46.46385" lon="6.03435">
        <ele>1110.5</ele>
        <time>2019-08-01T13:53:15Z</time>
      </trkpt>
      <trkpt lat="46.4639" lon="6.03432">
        <ele>1111.4</ele>
        <time>2019-08-01T13:53:24Z</time>
      </trkpt>
      <trkpt lat="46.46388" lon="6.03425">
        <ele>1112</ele>
        <time>2019-08-01T13:53:37Z</time>
      </trkpt>
      <trkpt lat="46.46384" lon="6.03421">
        <ele>1112.5</ele>
        <time>2019-08-01T13:53:43Z</time>
      </trkpt>
      <trkpt lat="46.46381" lon="6.03416">
        <ele>1113</ele>
        <time>2019-08-01T13:53:48Z</time>
      </trkpt>
      <trkpt lat="46.46377" lon="6.03411">
        <ele>1113.4</ele>
        <time>2019-08-01T13:53:54Z</time>
      </trkpt>
      <trkpt lat="46.46373" lon="6.03407">
        <ele>1113.7</ele>
        <time>2019-08-01T13:53:59Z</time>
      </trkpt>
      <trkpt lat="46.4637" lon="6.03401">
        <ele>1113.8</ele>
        <time>2019-08-01T13:54:04Z</time>
      </trkpt>
      <trkpt lat="46.46366" lon="6.03396">
        <ele>1113.9</ele>
        <time>2019-08-01T13:54:09Z</time>
      </trkpt>
      <trkpt lat="46.46362" lon="6.03391">
        <ele>1113.7</ele>
        <time>2019-08-01T13:54:15Z</time>
      </trkpt>
      <trkpt lat="46.46357" lon="6.03387">
        <ele>1113.6</ele>
        <time>2019-08-01T13:54:19Z</time>
      </trkpt>
      <trkpt lat="46.46353" lon="6.03383">
        <ele>1113.8</ele>
        <time>2019-08-01T13:54:22Z</time>
      </trkpt>
      <trkpt lat="46.46349" lon="6.03379">
        <ele>1114.2</ele>
        <time>2019-08-01T13:54:26Z</time>
      </trkpt>
      <trkpt lat="46.46345" lon="6.03376">
        <ele>1114.5</ele>
        <time>2019-08-01T13:54:30Z</time>
      </trkpt>
      <trkpt lat="46.46342" lon="6.03369">
        <ele>1114.9</ele>
        <time>2019-08-01T13:54:36Z</time>
      </trkpt>
      <trkpt lat="46.46339" lon="6.03363">
        <ele>1115.1</ele>
        <time>2019-08-01T13:54:42Z</time>
      </trkpt>
      <trkpt lat="46.46337" lon="6.03356">
        <ele>1115.2</ele>
        <time>2019-08-01T13:54:47Z</time>
      </trkpt>
      <trkpt lat="46.46335" lon="6.0335">
        <ele>1115.3</ele>
        <time>2019-08-01T13:54:51Z</time>
      </trkpt>
      <trkpt lat="46.46332" lon="6.03344">
        <ele>1115.3</ele>
        <time>2019-08-01T13:54:56Z</time>
      </trkpt>
      <trkpt lat="46.46331" lon="6.03337">
        <ele>1115.2</ele>
        <time>2019-08-01T13:55:01Z</time>
      </trkpt>
      <trkpt lat="46.46327" lon="6.03332">
        <ele>1115.2</ele>
        <time>2019-08-01T13:55:06Z</time>
      </trkpt>
      <trkpt lat="46.46323" lon="6.03327">
        <ele>1115.3</ele>
        <time>2019-08-01T13:55:10Z</time>
      </trkpt>
      <trkpt lat="46.46321" lon="6.03321">
        <ele>1115.5</ele>
        <time>2019-08-01T13:55:15Z</time>
      </trkpt>
      <trkpt lat="46.46319" lon="6.03314">
        <ele>1116</ele>
        <time>2019-08-01T13:55:21Z</time>
      </trkpt>
      <trkpt lat="46.46317" lon="6.03308">
        <ele>1116.3</ele>
        <time>2019-08-01T13:55:25Z</time>
      </trkpt>
      <trkpt lat="46.46314" lon="6.03302">
        <ele>1116.4</ele>
        <time>2019-08-01T13:55:29Z</time>
      </trkpt>
      <trkpt lat="46.4631" lon="6.03298">
        <ele>1116.6</ele>
        <time>2019-08-01T13:55:33Z</time>
      </trkpt>
      <trkpt lat="46.46306" lon="6.03294">
        <ele>1116.9</ele>
        <time>2019-08-01T13:55:38Z</time>
      </trkpt>
      <trkpt lat="46.46302" lon="6.03288">
        <ele>1117.2</ele>
        <time>2019-08-01T13:55:42Z</time>
      </trkpt>
      <trkpt lat="46.463" lon="6.03282">
        <ele>1117.5</ele>
        <time>2019-08-01T13:55:47Z</time>
      </trkpt>
      <trkpt lat="46.46297" lon="6.03277">
        <ele>1117.6</ele>
        <time>2019-08-01T13:55:52Z</time>
      </trkpt>
      <trkpt lat="46.46294" lon="6.03272">
        <ele>1117.8</ele>
        <time>2019-08-01T13:55:56Z</time>
      </trkpt>
      <trkpt lat="46.46293" lon="6.03264">
        <ele>1118</ele>
        <time>2019-08-01T13:56:01Z</time>
      </trkpt>
      <trkpt lat="46.46291" lon="6.03257">
        <ele>1118.1</ele>
        <time>2019-08-01T13:56:06Z</time>
      </trkpt>
      <trkpt lat="46.46287" lon="6.03252">
        <ele>1118.1</ele>
        <time>2019-08-01T13:56:13Z</time>
      </trkpt>
      <trkpt lat="46.46283" lon="6.03247">
        <ele>1118.5</ele>
        <time>2019-08-01T13:56:19Z</time>
      </trkpt>
      <trkpt lat="46.4628" lon="6.03242">
        <ele>1118.8</ele>
        <time>2019-08-01T13:56:23Z</time>
      </trkpt>
      <trkpt lat="46.46277" lon="6.03236">
        <ele>1119.4</ele>
        <time>2019-08-01T13:56:28Z</time>
      </trkpt>
      <trkpt lat="46.46276" lon="6.03229">
        <ele>1120</ele>
        <time>2019-08-01T13:56:34Z</time>
      </trkpt>
      <trkpt lat="46.46277" lon="6.03222">
        <ele>1120.2</ele>
        <time>2019-08-01T13:56:39Z</time>
      </trkpt>
      <trkpt lat="46.46277" lon="6.03214">
        <ele>1120</ele>
        <time>2019-08-01T13:56:44Z</time>
      </trkpt>
      <trkpt lat="46.46275" lon="6.03207">
        <ele>1120</ele>
        <time>2019-08-01T13:56:46Z</time>
      </trkpt>
      <trkpt lat="46.46273" lon="6.032">
        <ele>1120</ele>
        <time>2019-08-01T13:56:48Z</time>
      </trkpt>
      <trkpt lat="46.4627" lon="6.03192">
        <ele>1120.1</ele>
        <time>2019-08-01T13:56:51Z</time>
      </trkpt>
      <trkpt lat="46.46267" lon="6.03185">
        <ele>1120.4</ele>
        <time>2019-08-01T13:56:54Z</time>
      </trkpt>
      <trkpt lat="46.46259" lon="6.03174">
        <ele>1122.5</ele>
        <time>2019-08-01T13:57:02Z</time>
      </trkpt>
      <trkpt lat="46.46254" lon="6.0317">
        <ele>1123.1</ele>
        <time>2019-08-01T13:57:05Z</time>
      </trkpt>
      <trkpt lat="46.4625" lon="6.03166">
        <ele>1124.2</ele>
        <time>2019-08-01T13:57:10Z</time>
      </trkpt>
      <trkpt lat="46.46245" lon="6.03162">
        <ele>1124.9</ele>
        <time>2019-08-01T13:57:14Z</time>
      </trkpt>
      <trkpt lat="46.46241" lon="6.03158">
        <ele>1125.7</ele>
        <time>2019-08-01T13:57:18Z</time>
      </trkpt>
      <trkpt lat="46.46237" lon="6.03152">
        <ele>1126.5</ele>
        <time>2019-08-01T13:57:22Z</time>
      </trkpt>
      <trkpt lat="46.46237" lon="6.03145">
        <ele>1127.3</ele>
        <time>2019-08-01T13:57:29Z</time>
      </trkpt>
      <trkpt lat="46.46235" lon="6.03137">
        <ele>1127.4</ele>
        <time>2019-08-01T13:57:33Z</time>
      </trkpt>
      <trkpt lat="46.46231" lon="6.03131">
        <ele>1127.1</ele>
        <time>2019-08-01T13:57:37Z</time>
      </trkpt>
      <trkpt lat="46.46223" lon="6.03114">
        <ele>1123.1</ele>
        <time>2019-08-01T13:57:48Z</time>
      </trkpt>
      <trkpt lat="46.46223" lon="6.03107">
        <ele>1121.6</ele>
        <time>2019-08-01T13:57:56Z</time>
      </trkpt>
      <trkpt lat="46.46219" lon="6.03102">
        <ele>1121.4</ele>
        <time>2019-08-01T13:58:09Z</time>
      </trkpt>
      <trkpt lat="46.4622" lon="6.03094">
        <ele>1121.6</ele>
        <time>2019-08-01T13:58:15Z</time>
      </trkpt>
      <trkpt lat="46.46213" lon="6.03078">
        <ele>1122.2</ele>
        <time>2019-08-01T13:58:24Z</time>
      </trkpt>
      <trkpt lat="46.46208" lon="6.03074">
        <ele>1122.2</ele>
        <time>2019-08-01T13:58:27Z</time>
      </trkpt>
      <trkpt lat="46.4619" lon="6.03048">
        <ele>1117.6</ele>
        <time>2019-08-01T13:58:46Z</time>
      </trkpt>
      <trkpt lat="46.46185" lon="6.03047">
        <ele>1118</ele>
        <time>2019-08-01T13:58:50Z</time>
      </trkpt>
      <trkpt lat="46.46181" lon="6.03042">
        <ele>1118.6</ele>
        <time>2019-08-01T13:58:54Z</time>
      </trkpt>
      <trkpt lat="46.46165" lon="6.03024">
        <ele>1122.8</ele>
        <time>2019-08-01T13:59:18Z</time>
      </trkpt>
      <trkpt lat="46.46154" lon="6.03015">
        <ele>1127.6</ele>
        <time>2019-08-01T13:59:35Z</time>
      </trkpt>
      <trkpt lat="46.46148" lon="6.03012">
        <ele>1127.2</ele>
        <time>2019-08-01T13:59:38Z</time>
      </trkpt>
      <trkpt lat="46.46145" lon="6.03006">
        <ele>1126.9</ele>
        <time>2019-08-01T13:59:42Z</time>
      </trkpt>
      <trkpt lat="46.46144" lon="6.02997">
        <ele>1126.7</ele>
        <time>2019-08-01T13:59:46Z</time>
      </trkpt>
      <trkpt lat="46.46145" lon="6.02981">
        <ele>1127.4</ele>
        <time>2019-08-01T13:59:57Z</time>
      </trkpt>
      <trkpt lat="46.4616" lon="6.0295">
        <ele>1130.5</ele>
        <time>2019-08-01T14:03:57Z</time>
      </trkpt>
      <trkpt lat="46.46164" lon="6.02943">
        <ele>1130.5</ele>
        <time>2019-08-01T14:04:00Z</time>
      </trkpt>
      <trkpt lat="46.46167" lon="6.02937">
        <ele>1130.3</ele>
        <time>2019-08-01T14:04:03Z</time>
      </trkpt>
      <trkpt lat="46.46171" lon="6.02932">
        <ele>1129.5</ele>
        <time>2019-08-01T14:04:08Z</time>
      </trkpt>
      <trkpt lat="46.46184" lon="6.02928">
        <ele>1125.8</ele>
        <time>2019-08-01T14:04:20Z</time>
      </trkpt>
      <trkpt lat="46.46189" lon="6.02926">
        <ele>1125.2</ele>
        <time>2019-08-01T14:04:25Z</time>
      </trkpt>
      <trkpt lat="46.46194" lon="6.02925">
        <ele>1124.6</ele>
        <time>2019-08-01T14:04:29Z</time>
      </trkpt>
      <trkpt lat="46.46199" lon="6.02924">
        <ele>1124.1</ele>
        <time>2019-08-01T14:04:33Z</time>
      </trkpt>
      <trkpt lat="46.46203" lon="6.02919">
        <ele>1124</ele>
        <time>2019-08-01T14:04:38Z</time>
      </trkpt>
      <trkpt lat="46.46205" lon="6.02911">
        <ele>1124.3</ele>
        <time>2019-08-01T14:04:42Z</time>
      </trkpt>
      <trkpt lat="46.46204" lon="6.02903">
        <ele>1124.6</ele>
        <time>2019-08-01T14:04:46Z</time>
      </trkpt>
      <trkpt lat="46.46202" lon="6.02895">
        <ele>1125</ele>
        <time>2019-08-01T14:04:49Z</time>
      </trkpt>
      <trkpt lat="46.46201" lon="6.02888">
        <ele>1125.4</ele>
        <time>2019-08-01T14:04:52Z</time>
      </trkpt>
      <trkpt lat="46.46198" lon="6.02881">
        <ele>1126.1</ele>
        <time>2019-08-01T14:04:56Z</time>
      </trkpt>
      <trkpt lat="46.46197" lon="6.02874">
        <ele>1127.5</ele>
        <time>2019-08-01T14:05:03Z</time>
      </trkpt>
      <trkpt lat="46.46195" lon="6.02867">
        <ele>1128.4</ele>
        <time>2019-08-01T14:05:08Z</time>
      </trkpt>
      <trkpt lat="46.46193" lon="6.02861">
        <ele>1129.1</ele>
        <time>2019-08-01T14:05:12Z</time>
      </trkpt>
      <trkpt lat="46.46192" lon="6.02854">
        <ele>1129.9</ele>
        <time>2019-08-01T14:05:16Z</time>
      </trkpt>
      <trkpt lat="46.46193" lon="6.02847">
        <ele>1130.6</ele>
        <time>2019-08-01T14:05:19Z</time>
      </trkpt>
      <trkpt lat="46.46195" lon="6.02841">
        <ele>1131.2</ele>
        <time>2019-08-01T14:05:23Z</time>
      </trkpt>
      <trkpt lat="46.46197" lon="6.02835">
        <ele>1131.6</ele>
        <time>2019-08-01T14:05:27Z</time>
      </trkpt>
      <trkpt lat="46.46198" lon="6.02828">
        <ele>1132.3</ele>
        <time>2019-08-01T14:05:32Z</time>
      </trkpt>
      <trkpt lat="46.46194" lon="6.02826">
        <ele>1133.1</ele>
        <time>2019-08-01T14:05:37Z</time>
      </trkpt>
      <trkpt lat="46.46192" lon="6.02818">
        <ele>1134</ele>
        <time>2019-08-01T14:05:45Z</time>
      </trkpt>
      <trkpt lat="46.46196" lon="6.02812">
        <ele>1134</ele>
        <time>2019-08-01T14:05:49Z</time>
      </trkpt>
      <trkpt lat="46.46199" lon="6.02807">
        <ele>1133.9</ele>
        <time>2019-08-01T14:05:53Z</time>
      </trkpt>
      <trkpt lat="46.46201" lon="6.028">
        <ele>1133.7</ele>
        <time>2019-08-01T14:05:57Z</time>
      </trkpt>
      <trkpt lat="46.46205" lon="6.02794">
        <ele>1133.4</ele>
        <time>2019-08-01T14:06:00Z</time>
      </trkpt>
      <trkpt lat="46.46208" lon="6.02789">
        <ele>1133</ele>
        <time>2019-08-01T14:06:04Z</time>
      </trkpt>
      <trkpt lat="46.46211" lon="6.02783">
        <ele>1131.9</ele>
        <time>2019-08-01T14:06:10Z</time>
      </trkpt>
      <trkpt lat="46.46213" lon="6.02776">
        <ele>1131.2</ele>
        <time>2019-08-01T14:06:15Z</time>
      </trkpt>
      <trkpt lat="46.46213" lon="6.02769">
        <ele>1130.7</ele>
        <time>2019-08-01T14:06:21Z</time>
      </trkpt>
      <trkpt lat="46.4621" lon="6.02763">
        <ele>1130.1</ele>
        <time>2019-08-01T14:06:41Z</time>
      </trkpt>
      <trkpt lat="46.46207" lon="6.02758">
        <ele>1126.1</ele>
        <time>2019-08-01T14:07:12Z</time>
      </trkpt>
      <trkpt lat="46.46211" lon="6.02748">
        <ele>1118.5</ele>
        <time>2019-08-01T14:08:00Z</time>
      </trkpt>
    </trkseg>
  </trk>
</gpx>